<?xml version="1.0" encoding="UTF-8" standalone="no" ?>
<gpx xmlns="http://www.topografix.com/GPX/1/1" xmlns:xsi="http://www.w3.org/2001/XMLSchema-instance" xsi:schemaLocation="http://www.topografix.com/GPX/1/1 http://www.topografix.com/GPX/1/1/gpx.xsd" version="1.1" creator="VisuGPX - https://www.visugpx.com">
  <metadata>
    <name>Tour du Beaujolais vert </name>
    <desc><![CDATA[Tour du Beaujolais vert depuis Poule-les-écharmeaux

Poule-les-écharmeaux
Les écharmeaux
Chauffailles
Col de la Cépée
St Igny de vers
La Theyssonnière
Mont St rigaud
Col de Patoux
Col de la Croix des Oncins
Avenas
Col du fût d'avenas
Col du Truges
Château de Bellevue
Villié-Morgon
Régnier Durette
St Nizier (près Cercié)
Quincié en beaujolais
Col de la casse froide
La Nuizière d'en haut
Col de la Croix des Brosses
Poule-les-écharmeaux]]></desc>
  </metadata>
  <wpt lat="46.15034" lon="4.45522">
    <ele>571.9</ele>
    <name><![CDATA[Camping]]></name>
    <type><![CDATA[camping]]></type>
  </wpt>
  <trk>
    <name><![CDATA[Tour du Beaujolais vert _1]]></name>
    <trkseg>
      <trkpt lat="46.12124" lon="4.53008">
        <ele>743</ele>
        <time>2016-07-02T00:43:26Z</time>
      </trkpt>
      <trkpt lat="46.12128" lon="4.53005">
        <ele>743</ele>
        <time>2016-07-02T00:45:26Z</time>
      </trkpt>
      <trkpt lat="46.12132" lon="4.53004">
        <ele>744</ele>
        <time>2016-07-02T00:47:26Z</time>
      </trkpt>
      <trkpt lat="46.12137" lon="4.53002">
        <ele>744</ele>
        <time>2016-07-02T00:49:26Z</time>
      </trkpt>
      <trkpt lat="46.12143" lon="4.53001">
        <ele>745</ele>
        <time>2016-07-02T00:51:26Z</time>
      </trkpt>
      <trkpt lat="46.12149" lon="4.52998">
        <ele>746</ele>
        <time>2016-07-02T00:53:26Z</time>
      </trkpt>
      <trkpt lat="46.1216" lon="4.52992">
        <ele>747</ele>
        <time>2016-07-02T00:55:26Z</time>
      </trkpt>
      <trkpt lat="46.1217" lon="4.52984">
        <ele>749</ele>
        <time>2016-07-02T00:57:26Z</time>
      </trkpt>
      <trkpt lat="46.12181" lon="4.52973">
        <ele>750</ele>
        <time>2016-07-02T00:59:26Z</time>
      </trkpt>
      <trkpt lat="46.12209" lon="4.52935">
        <ele>751</ele>
        <time>2016-07-02T01:01:26Z</time>
      </trkpt>
      <trkpt lat="46.12223" lon="4.52916">
        <ele>756</ele>
        <time>2016-07-02T01:03:26Z</time>
      </trkpt>
      <trkpt lat="46.12228" lon="4.5291">
        <ele>756</ele>
        <time>2016-07-02T01:05:26Z</time>
      </trkpt>
      <trkpt lat="46.12312" lon="4.52864">
        <ele>759</ele>
        <time>2016-07-02T01:07:26Z</time>
      </trkpt>
      <trkpt lat="46.12359" lon="4.52849">
        <ele>754</ele>
        <time>2016-07-02T01:09:26Z</time>
      </trkpt>
      <trkpt lat="46.12401" lon="4.52838">
        <ele>753</ele>
        <time>2016-07-02T01:11:26Z</time>
      </trkpt>
      <trkpt lat="46.12429" lon="4.52827">
        <ele>756</ele>
        <time>2016-07-02T01:13:26Z</time>
      </trkpt>
      <trkpt lat="46.12462" lon="4.52806">
        <ele>757</ele>
        <time>2016-07-02T01:15:26Z</time>
      </trkpt>
      <trkpt lat="46.12481" lon="4.52792">
        <ele>758</ele>
        <time>2016-07-02T01:17:26Z</time>
      </trkpt>
      <trkpt lat="46.1251" lon="4.52769">
        <ele>758</ele>
        <time>2016-07-02T01:19:26Z</time>
      </trkpt>
      <trkpt lat="46.12527" lon="4.52758">
        <ele>758</ele>
        <time>2016-07-02T01:21:26Z</time>
      </trkpt>
      <trkpt lat="46.12544" lon="4.5275">
        <ele>770</ele>
        <time>2016-07-02T01:23:26Z</time>
      </trkpt>
      <trkpt lat="46.1257" lon="4.52742">
        <ele>767</ele>
        <time>2016-07-02T01:25:26Z</time>
      </trkpt>
      <trkpt lat="46.12578" lon="4.52739">
        <ele>766</ele>
        <time>2016-07-02T01:27:26Z</time>
      </trkpt>
      <trkpt lat="46.1261" lon="4.52717">
        <ele>767</ele>
        <time>2016-07-02T01:29:26Z</time>
      </trkpt>
      <trkpt lat="46.12619" lon="4.52713">
        <ele>767</ele>
        <time>2016-07-02T01:31:26Z</time>
      </trkpt>
      <trkpt lat="46.12643" lon="4.52707">
        <ele>767</ele>
        <time>2016-07-02T01:33:26Z</time>
      </trkpt>
      <trkpt lat="46.12661" lon="4.52704">
        <ele>767</ele>
        <time>2016-07-02T01:35:26Z</time>
      </trkpt>
      <trkpt lat="46.12677" lon="4.52698">
        <ele>761</ele>
        <time>2016-07-02T01:37:26Z</time>
      </trkpt>
      <trkpt lat="46.1273" lon="4.52673">
        <ele>757</ele>
        <time>2016-07-02T01:39:26Z</time>
      </trkpt>
      <trkpt lat="46.12766" lon="4.52651">
        <ele>753</ele>
        <time>2016-07-02T01:41:26Z</time>
      </trkpt>
      <trkpt lat="46.12786" lon="4.52633">
        <ele>751</ele>
        <time>2016-07-02T01:43:26Z</time>
      </trkpt>
      <trkpt lat="46.12799" lon="4.52619">
        <ele>751</ele>
        <time>2016-07-02T01:45:26Z</time>
      </trkpt>
      <trkpt lat="46.12813" lon="4.52606">
        <ele>750</ele>
        <time>2016-07-02T01:47:26Z</time>
      </trkpt>
      <trkpt lat="46.12823" lon="4.52598">
        <ele>749</ele>
        <time>2016-07-02T01:49:26Z</time>
      </trkpt>
      <trkpt lat="46.1283" lon="4.52592">
        <ele>748</ele>
        <time>2016-07-02T01:51:26Z</time>
      </trkpt>
      <trkpt lat="46.12834" lon="4.52587">
        <ele>745</ele>
        <time>2016-07-02T01:53:26Z</time>
      </trkpt>
      <trkpt lat="46.12861" lon="4.52555">
        <ele>747</ele>
        <time>2016-07-02T01:55:26Z</time>
      </trkpt>
      <trkpt lat="46.1288" lon="4.52535">
        <ele>747</ele>
        <time>2016-07-02T01:57:26Z</time>
      </trkpt>
      <trkpt lat="46.12895" lon="4.52524">
        <ele>747</ele>
        <time>2016-07-02T01:59:26Z</time>
      </trkpt>
      <trkpt lat="46.12934" lon="4.525">
        <ele>739</ele>
        <time>2016-07-02T02:01:26Z</time>
      </trkpt>
      <trkpt lat="46.12946" lon="4.52491">
        <ele>744</ele>
        <time>2016-07-02T02:03:26Z</time>
      </trkpt>
      <trkpt lat="46.12965" lon="4.52471">
        <ele>743</ele>
        <time>2016-07-02T02:05:26Z</time>
      </trkpt>
      <trkpt lat="46.12969" lon="4.52465">
        <ele>743</ele>
        <time>2016-07-02T02:07:26Z</time>
      </trkpt>
      <trkpt lat="46.12981" lon="4.52442">
        <ele>744</ele>
        <time>2016-07-02T02:09:26Z</time>
      </trkpt>
      <trkpt lat="46.12989" lon="4.52428">
        <ele>744</ele>
        <time>2016-07-02T02:11:26Z</time>
      </trkpt>
      <trkpt lat="46.12999" lon="4.52417">
        <ele>744</ele>
        <time>2016-07-02T02:13:26Z</time>
      </trkpt>
      <trkpt lat="46.13012" lon="4.52411">
        <ele>748</ele>
        <time>2016-07-02T02:15:26Z</time>
      </trkpt>
      <trkpt lat="46.13024" lon="4.5241">
        <ele>750</ele>
        <time>2016-07-02T02:17:26Z</time>
      </trkpt>
      <trkpt lat="46.13037" lon="4.52412">
        <ele>751</ele>
        <time>2016-07-02T02:19:26Z</time>
      </trkpt>
      <trkpt lat="46.13053" lon="4.5242">
        <ele>741</ele>
        <time>2016-07-02T02:21:26Z</time>
      </trkpt>
      <trkpt lat="46.13082" lon="4.52446">
        <ele>739</ele>
        <time>2016-07-02T02:23:26Z</time>
      </trkpt>
      <trkpt lat="46.13095" lon="4.52459">
        <ele>742</ele>
        <time>2016-07-02T02:25:26Z</time>
      </trkpt>
      <trkpt lat="46.13113" lon="4.52472">
        <ele>741</ele>
        <time>2016-07-02T02:27:26Z</time>
      </trkpt>
      <trkpt lat="46.13149" lon="4.52492">
        <ele>744</ele>
        <time>2016-07-02T02:29:26Z</time>
      </trkpt>
      <trkpt lat="46.13172" lon="4.52504">
        <ele>744</ele>
        <time>2016-07-02T02:31:26Z</time>
      </trkpt>
      <trkpt lat="46.13211" lon="4.52529">
        <ele>744</ele>
        <time>2016-07-02T02:33:26Z</time>
      </trkpt>
      <trkpt lat="46.13218" lon="4.52534">
        <ele>744</ele>
        <time>2016-07-02T02:35:26Z</time>
      </trkpt>
      <trkpt lat="46.13235" lon="4.52548">
        <ele>744</ele>
        <time>2016-07-02T02:37:26Z</time>
      </trkpt>
      <trkpt lat="46.1326" lon="4.52573">
        <ele>749</ele>
        <time>2016-07-02T02:39:26Z</time>
      </trkpt>
      <trkpt lat="46.13289" lon="4.52608">
        <ele>743</ele>
        <time>2016-07-02T02:41:26Z</time>
      </trkpt>
      <trkpt lat="46.13296" lon="4.52614">
        <ele>743</ele>
        <time>2016-07-02T02:43:26Z</time>
      </trkpt>
      <trkpt lat="46.13304" lon="4.5262">
        <ele>743</ele>
        <time>2016-07-02T02:45:26Z</time>
      </trkpt>
      <trkpt lat="46.13311" lon="4.52626">
        <ele>743</ele>
        <time>2016-07-02T02:47:26Z</time>
      </trkpt>
      <trkpt lat="46.13319" lon="4.52631">
        <ele>743</ele>
        <time>2016-07-02T02:49:26Z</time>
      </trkpt>
      <trkpt lat="46.13351" lon="4.52648">
        <ele>751</ele>
        <time>2016-07-02T02:51:26Z</time>
      </trkpt>
      <trkpt lat="46.13365" lon="4.52658">
        <ele>752</ele>
        <time>2016-07-02T02:53:26Z</time>
      </trkpt>
      <trkpt lat="46.13373" lon="4.52665">
        <ele>753</ele>
        <time>2016-07-02T02:55:26Z</time>
      </trkpt>
      <trkpt lat="46.1339" lon="4.52682">
        <ele>745</ele>
        <time>2016-07-02T02:57:26Z</time>
      </trkpt>
      <trkpt lat="46.13398" lon="4.52692">
        <ele>745</ele>
        <time>2016-07-02T02:59:26Z</time>
      </trkpt>
      <trkpt lat="46.13404" lon="4.52701">
        <ele>745</ele>
        <time>2016-07-02T03:01:26Z</time>
      </trkpt>
      <trkpt lat="46.13436" lon="4.52728">
        <ele>752</ele>
        <time>2016-07-02T03:03:26Z</time>
      </trkpt>
      <trkpt lat="46.13471" lon="4.52761">
        <ele>744</ele>
        <time>2016-07-02T03:05:26Z</time>
      </trkpt>
      <trkpt lat="46.13509" lon="4.52804">
        <ele>748</ele>
        <time>2016-07-02T03:07:26Z</time>
      </trkpt>
      <trkpt lat="46.13523" lon="4.52821">
        <ele>746</ele>
        <time>2016-07-02T03:09:26Z</time>
      </trkpt>
      <trkpt lat="46.1353" lon="4.52828">
        <ele>747</ele>
        <time>2016-07-02T03:11:26Z</time>
      </trkpt>
      <trkpt lat="46.13538" lon="4.52833">
        <ele>748</ele>
        <time>2016-07-02T03:13:26Z</time>
      </trkpt>
      <trkpt lat="46.13555" lon="4.52839">
        <ele>737</ele>
        <time>2016-07-02T03:15:26Z</time>
      </trkpt>
      <trkpt lat="46.13576" lon="4.52842">
        <ele>742</ele>
        <time>2016-07-02T03:17:26Z</time>
      </trkpt>
      <trkpt lat="46.13583" lon="4.52843">
        <ele>743</ele>
        <time>2016-07-02T03:19:26Z</time>
      </trkpt>
      <trkpt lat="46.13602" lon="4.52846">
        <ele>745</ele>
        <time>2016-07-02T03:21:26Z</time>
      </trkpt>
      <trkpt lat="46.1362" lon="4.5285">
        <ele>745</ele>
        <time>2016-07-02T03:23:26Z</time>
      </trkpt>
      <trkpt lat="46.13634" lon="4.5286">
        <ele>745</ele>
        <time>2016-07-02T03:25:26Z</time>
      </trkpt>
      <trkpt lat="46.13654" lon="4.52878">
        <ele>744</ele>
        <time>2016-07-02T03:27:26Z</time>
      </trkpt>
      <trkpt lat="46.13662" lon="4.52886">
        <ele>742</ele>
        <time>2016-07-02T03:29:26Z</time>
      </trkpt>
      <trkpt lat="46.13672" lon="4.52895">
        <ele>747</ele>
        <time>2016-07-02T03:31:26Z</time>
      </trkpt>
      <trkpt lat="46.13681" lon="4.52901">
        <ele>747</ele>
        <time>2016-07-02T03:33:26Z</time>
      </trkpt>
      <trkpt lat="46.13693" lon="4.52908">
        <ele>748</ele>
        <time>2016-07-02T03:35:26Z</time>
      </trkpt>
      <trkpt lat="46.13708" lon="4.52918">
        <ele>737</ele>
        <time>2016-07-02T03:37:26Z</time>
      </trkpt>
      <trkpt lat="46.13722" lon="4.52927">
        <ele>739</ele>
        <time>2016-07-02T03:39:26Z</time>
      </trkpt>
      <trkpt lat="46.13733" lon="4.52935">
        <ele>740</ele>
        <time>2016-07-02T03:41:26Z</time>
      </trkpt>
      <trkpt lat="46.13753" lon="4.52956">
        <ele>743</ele>
        <time>2016-07-02T03:43:26Z</time>
      </trkpt>
      <trkpt lat="46.13765" lon="4.52966">
        <ele>742</ele>
        <time>2016-07-02T03:45:26Z</time>
      </trkpt>
      <trkpt lat="46.13767" lon="4.52967">
        <ele>742</ele>
        <time>2016-07-02T03:47:26Z</time>
      </trkpt>
      <trkpt lat="46.13789" lon="4.52978">
        <ele>742</ele>
        <time>2016-07-02T03:49:26Z</time>
      </trkpt>
      <trkpt lat="46.13808" lon="4.52986">
        <ele>741</ele>
        <time>2016-07-02T03:51:26Z</time>
      </trkpt>
      <trkpt lat="46.13818" lon="4.52988">
        <ele>741</ele>
        <time>2016-07-02T03:53:26Z</time>
      </trkpt>
      <trkpt lat="46.1385" lon="4.52997">
        <ele>740</ele>
        <time>2016-07-02T03:55:26Z</time>
      </trkpt>
      <trkpt lat="46.13886" lon="4.53004">
        <ele>729</ele>
        <time>2016-07-02T03:57:26Z</time>
      </trkpt>
      <trkpt lat="46.13894" lon="4.53004">
        <ele>729</ele>
        <time>2016-07-02T03:59:26Z</time>
      </trkpt>
      <trkpt lat="46.13902" lon="4.53004">
        <ele>730</ele>
        <time>2016-07-02T04:01:26Z</time>
      </trkpt>
      <trkpt lat="46.13909" lon="4.53003">
        <ele>731</ele>
        <time>2016-07-02T04:03:26Z</time>
      </trkpt>
      <trkpt lat="46.13925" lon="4.52994">
        <ele>732</ele>
        <time>2016-07-02T04:05:26Z</time>
      </trkpt>
      <trkpt lat="46.13932" lon="4.52989">
        <ele>730</ele>
        <time>2016-07-02T04:07:26Z</time>
      </trkpt>
      <trkpt lat="46.1394" lon="4.5298">
        <ele>729</ele>
        <time>2016-07-02T04:09:26Z</time>
      </trkpt>
      <trkpt lat="46.13953" lon="4.52964">
        <ele>728</ele>
        <time>2016-07-02T04:11:26Z</time>
      </trkpt>
      <trkpt lat="46.13957" lon="4.52957">
        <ele>727</ele>
        <time>2016-07-02T04:13:26Z</time>
      </trkpt>
      <trkpt lat="46.1396" lon="4.52949">
        <ele>727</ele>
        <time>2016-07-02T04:15:26Z</time>
      </trkpt>
      <trkpt lat="46.13965" lon="4.52934">
        <ele>727</ele>
        <time>2016-07-02T04:17:26Z</time>
      </trkpt>
      <trkpt lat="46.13966" lon="4.52924">
        <ele>727</ele>
        <time>2016-07-02T04:19:26Z</time>
      </trkpt>
      <trkpt lat="46.13969" lon="4.52914">
        <ele>727</ele>
        <time>2016-07-02T04:21:26Z</time>
      </trkpt>
      <trkpt lat="46.1397" lon="4.52904">
        <ele>727</ele>
        <time>2016-07-02T04:23:26Z</time>
      </trkpt>
      <trkpt lat="46.13969" lon="4.52894">
        <ele>728</ele>
        <time>2016-07-02T04:25:26Z</time>
      </trkpt>
      <trkpt lat="46.13969" lon="4.52874">
        <ele>727</ele>
        <time>2016-07-02T04:27:26Z</time>
      </trkpt>
      <trkpt lat="46.13967" lon="4.52863">
        <ele>727</ele>
        <time>2016-07-02T04:29:26Z</time>
      </trkpt>
      <trkpt lat="46.13964" lon="4.52846">
        <ele>727</ele>
        <time>2016-07-02T04:31:26Z</time>
      </trkpt>
      <trkpt lat="46.1396" lon="4.52831">
        <ele>724</ele>
        <time>2016-07-02T04:33:26Z</time>
      </trkpt>
      <trkpt lat="46.13953" lon="4.52808">
        <ele>724</ele>
        <time>2016-07-02T04:35:26Z</time>
      </trkpt>
      <trkpt lat="46.13936" lon="4.52777">
        <ele>726</ele>
        <time>2016-07-02T04:37:26Z</time>
      </trkpt>
      <trkpt lat="46.13934" lon="4.52773">
        <ele>727</ele>
        <time>2016-07-02T04:39:26Z</time>
      </trkpt>
      <trkpt lat="46.13919" lon="4.52736">
        <ele>727</ele>
        <time>2016-07-02T04:41:26Z</time>
      </trkpt>
      <trkpt lat="46.13909" lon="4.52712">
        <ele>741</ele>
        <time>2016-07-02T04:43:26Z</time>
      </trkpt>
      <trkpt lat="46.139" lon="4.52687">
        <ele>740</ele>
        <time>2016-07-02T04:45:26Z</time>
      </trkpt>
      <trkpt lat="46.1389" lon="4.52648">
        <ele>738</ele>
        <time>2016-07-02T04:47:26Z</time>
      </trkpt>
      <trkpt lat="46.13884" lon="4.52606">
        <ele>738</ele>
        <time>2016-07-02T04:49:26Z</time>
      </trkpt>
      <trkpt lat="46.13882" lon="4.52525">
        <ele>734</ele>
        <time>2016-07-02T04:51:26Z</time>
      </trkpt>
      <trkpt lat="46.13881" lon="4.52464">
        <ele>732</ele>
        <time>2016-07-02T04:53:26Z</time>
      </trkpt>
      <trkpt lat="46.13882" lon="4.52428">
        <ele>731</ele>
        <time>2016-07-02T04:55:26Z</time>
      </trkpt>
      <trkpt lat="46.13883" lon="4.52414">
        <ele>731</ele>
        <time>2016-07-02T04:57:26Z</time>
      </trkpt>
      <trkpt lat="46.13886" lon="4.52396">
        <ele>731</ele>
        <time>2016-07-02T04:59:26Z</time>
      </trkpt>
      <trkpt lat="46.1389" lon="4.52363">
        <ele>731</ele>
        <time>2016-07-02T05:01:26Z</time>
      </trkpt>
      <trkpt lat="46.1389" lon="4.52354">
        <ele>730</ele>
        <time>2016-07-02T05:03:26Z</time>
      </trkpt>
      <trkpt lat="46.1389" lon="4.52332">
        <ele>729</ele>
        <time>2016-07-02T05:05:26Z</time>
      </trkpt>
      <trkpt lat="46.13888" lon="4.52295">
        <ele>731</ele>
        <time>2016-07-02T05:07:26Z</time>
      </trkpt>
      <trkpt lat="46.13882" lon="4.52236">
        <ele>728</ele>
        <time>2016-07-02T05:09:26Z</time>
      </trkpt>
      <trkpt lat="46.13881" lon="4.52226">
        <ele>729</ele>
        <time>2016-07-02T05:11:26Z</time>
      </trkpt>
      <trkpt lat="46.13881" lon="4.52195">
        <ele>728</ele>
        <time>2016-07-02T05:13:26Z</time>
      </trkpt>
      <trkpt lat="46.1388" lon="4.52162">
        <ele>725</ele>
        <time>2016-07-02T05:15:26Z</time>
      </trkpt>
      <trkpt lat="46.13876" lon="4.52145">
        <ele>726</ele>
        <time>2016-07-02T05:17:26Z</time>
      </trkpt>
      <trkpt lat="46.13863" lon="4.52098">
        <ele>729</ele>
        <time>2016-07-02T05:19:26Z</time>
      </trkpt>
      <trkpt lat="46.13852" lon="4.52048">
        <ele>727</ele>
        <time>2016-07-02T05:21:26Z</time>
      </trkpt>
      <trkpt lat="46.13846" lon="4.52015">
        <ele>730</ele>
        <time>2016-07-02T05:23:26Z</time>
      </trkpt>
      <trkpt lat="46.13845" lon="4.52002">
        <ele>733</ele>
        <time>2016-07-02T05:25:26Z</time>
      </trkpt>
      <trkpt lat="46.13845" lon="4.51988">
        <ele>729</ele>
        <time>2016-07-02T05:27:26Z</time>
      </trkpt>
      <trkpt lat="46.13848" lon="4.51935">
        <ele>724</ele>
        <time>2016-07-02T05:29:26Z</time>
      </trkpt>
      <trkpt lat="46.13854" lon="4.51876">
        <ele>721</ele>
        <time>2016-07-02T05:31:26Z</time>
      </trkpt>
      <trkpt lat="46.13856" lon="4.51845">
        <ele>722</ele>
        <time>2016-07-02T05:33:26Z</time>
      </trkpt>
      <trkpt lat="46.13859" lon="4.51807">
        <ele>721</ele>
        <time>2016-07-02T05:35:26Z</time>
      </trkpt>
      <trkpt lat="46.13868" lon="4.51769">
        <ele>719</ele>
        <time>2016-07-02T05:37:26Z</time>
      </trkpt>
      <trkpt lat="46.13886" lon="4.51705">
        <ele>718</ele>
        <time>2016-07-02T05:39:26Z</time>
      </trkpt>
      <trkpt lat="46.13893" lon="4.5168">
        <ele>716</ele>
        <time>2016-07-02T05:41:26Z</time>
      </trkpt>
      <trkpt lat="46.13924" lon="4.51587">
        <ele>703</ele>
        <time>2016-07-02T05:43:26Z</time>
      </trkpt>
      <trkpt lat="46.13939" lon="4.51544">
        <ele>698</ele>
        <time>2016-07-02T05:45:26Z</time>
      </trkpt>
      <trkpt lat="46.13957" lon="4.51503">
        <ele>697</ele>
        <time>2016-07-02T05:47:26Z</time>
      </trkpt>
      <trkpt lat="46.13963" lon="4.51489">
        <ele>696</ele>
        <time>2016-07-02T05:49:26Z</time>
      </trkpt>
      <trkpt lat="46.13968" lon="4.51476">
        <ele>695</ele>
        <time>2016-07-02T05:51:26Z</time>
      </trkpt>
      <trkpt lat="46.13986" lon="4.5145">
        <ele>693</ele>
        <time>2016-07-02T05:53:26Z</time>
      </trkpt>
      <trkpt lat="46.14005" lon="4.51422">
        <ele>685</ele>
        <time>2016-07-02T05:55:26Z</time>
      </trkpt>
      <trkpt lat="46.14028" lon="4.51383">
        <ele>682</ele>
        <time>2016-07-02T05:57:26Z</time>
      </trkpt>
      <trkpt lat="46.14052" lon="4.51328">
        <ele>682</ele>
        <time>2016-07-02T05:59:26Z</time>
      </trkpt>
      <trkpt lat="46.14065" lon="4.51307">
        <ele>682</ele>
        <time>2016-07-02T06:01:26Z</time>
      </trkpt>
      <trkpt lat="46.14075" lon="4.51294">
        <ele>682</ele>
        <time>2016-07-02T06:03:26Z</time>
      </trkpt>
      <trkpt lat="46.14084" lon="4.51287">
        <ele>675</ele>
        <time>2016-07-02T06:05:26Z</time>
      </trkpt>
      <trkpt lat="46.141" lon="4.51271">
        <ele>676</ele>
        <time>2016-07-02T06:07:26Z</time>
      </trkpt>
      <trkpt lat="46.14131" lon="4.51237">
        <ele>678</ele>
        <time>2016-07-02T06:09:26Z</time>
      </trkpt>
      <trkpt lat="46.14141" lon="4.51223">
        <ele>678</ele>
        <time>2016-07-02T06:11:26Z</time>
      </trkpt>
      <trkpt lat="46.14145" lon="4.51216">
        <ele>679</ele>
        <time>2016-07-02T06:13:26Z</time>
      </trkpt>
      <trkpt lat="46.14152" lon="4.51205">
        <ele>679</ele>
        <time>2016-07-02T06:15:26Z</time>
      </trkpt>
      <trkpt lat="46.14162" lon="4.51183">
        <ele>680</ele>
        <time>2016-07-02T06:17:26Z</time>
      </trkpt>
      <trkpt lat="46.14168" lon="4.51176">
        <ele>678</ele>
        <time>2016-07-02T06:19:26Z</time>
      </trkpt>
      <trkpt lat="46.14176" lon="4.51169">
        <ele>678</ele>
        <time>2016-07-02T06:21:26Z</time>
      </trkpt>
      <trkpt lat="46.14183" lon="4.51167">
        <ele>678</ele>
        <time>2016-07-02T06:23:26Z</time>
      </trkpt>
      <trkpt lat="46.14199" lon="4.51166">
        <ele>683</ele>
        <time>2016-07-02T06:25:26Z</time>
      </trkpt>
      <trkpt lat="46.14227" lon="4.51167">
        <ele>677</ele>
        <time>2016-07-02T06:27:26Z</time>
      </trkpt>
      <trkpt lat="46.14243" lon="4.51167">
        <ele>678</ele>
        <time>2016-07-02T06:29:26Z</time>
      </trkpt>
      <trkpt lat="46.14249" lon="4.51166">
        <ele>679</ele>
        <time>2016-07-02T06:31:26Z</time>
      </trkpt>
      <trkpt lat="46.14286" lon="4.51153">
        <ele>682</ele>
        <time>2016-07-02T06:33:26Z</time>
      </trkpt>
      <trkpt lat="46.14313" lon="4.51138">
        <ele>683</ele>
        <time>2016-07-02T06:35:26Z</time>
      </trkpt>
      <trkpt lat="46.14317" lon="4.51136">
        <ele>683</ele>
        <time>2016-07-02T06:37:26Z</time>
      </trkpt>
      <trkpt lat="46.14345" lon="4.51116">
        <ele>684</ele>
        <time>2016-07-02T06:39:26Z</time>
      </trkpt>
      <trkpt lat="46.14354" lon="4.51112">
        <ele>684</ele>
        <time>2016-07-02T06:41:26Z</time>
      </trkpt>
      <trkpt lat="46.14366" lon="4.51109">
        <ele>684</ele>
        <time>2016-07-02T06:43:26Z</time>
      </trkpt>
      <trkpt lat="46.14412" lon="4.5111">
        <ele>685</ele>
        <time>2016-07-02T06:45:26Z</time>
      </trkpt>
      <trkpt lat="46.14421" lon="4.5111">
        <ele>688</ele>
        <time>2016-07-02T06:47:26Z</time>
      </trkpt>
      <trkpt lat="46.14446" lon="4.51116">
        <ele>689</ele>
        <time>2016-07-02T06:49:26Z</time>
      </trkpt>
      <trkpt lat="46.14455" lon="4.51119">
        <ele>689</ele>
        <time>2016-07-02T06:51:26Z</time>
      </trkpt>
      <trkpt lat="46.14478" lon="4.51137">
        <ele>688</ele>
        <time>2016-07-02T06:53:26Z</time>
      </trkpt>
      <trkpt lat="46.14489" lon="4.51149">
        <ele>687</ele>
        <time>2016-07-02T06:55:26Z</time>
      </trkpt>
      <trkpt lat="46.14502" lon="4.51169">
        <ele>683</ele>
        <time>2016-07-02T06:57:26Z</time>
      </trkpt>
      <trkpt lat="46.14513" lon="4.51192">
        <ele>681</ele>
        <time>2016-07-02T06:59:26Z</time>
      </trkpt>
      <trkpt lat="46.14522" lon="4.51213">
        <ele>679</ele>
        <time>2016-07-02T07:01:26Z</time>
      </trkpt>
      <trkpt lat="46.14537" lon="4.51264">
        <ele>670</ele>
        <time>2016-07-02T07:03:26Z</time>
      </trkpt>
      <trkpt lat="46.14542" lon="4.51277">
        <ele>670</ele>
        <time>2016-07-02T07:05:26Z</time>
      </trkpt>
      <trkpt lat="46.14547" lon="4.51285">
        <ele>669</ele>
        <time>2016-07-02T07:07:26Z</time>
      </trkpt>
      <trkpt lat="46.14553" lon="4.51292">
        <ele>669</ele>
        <time>2016-07-02T07:09:26Z</time>
      </trkpt>
      <trkpt lat="46.14565" lon="4.51301">
        <ele>669</ele>
        <time>2016-07-02T07:11:26Z</time>
      </trkpt>
      <trkpt lat="46.1458" lon="4.51305">
        <ele>668</ele>
        <time>2016-07-02T07:13:26Z</time>
      </trkpt>
      <trkpt lat="46.14603" lon="4.51306">
        <ele>670</ele>
        <time>2016-07-02T07:15:26Z</time>
      </trkpt>
      <trkpt lat="46.14614" lon="4.51306">
        <ele>670</ele>
        <time>2016-07-02T07:17:26Z</time>
      </trkpt>
      <trkpt lat="46.14652" lon="4.5131">
        <ele>669</ele>
        <time>2016-07-02T07:19:26Z</time>
      </trkpt>
      <trkpt lat="46.14668" lon="4.5131">
        <ele>667</ele>
        <time>2016-07-02T07:21:26Z</time>
      </trkpt>
      <trkpt lat="46.1467" lon="4.51311">
        <ele>667</ele>
        <time>2016-07-02T07:23:26Z</time>
      </trkpt>
      <trkpt lat="46.1468" lon="4.51315">
        <ele>667</ele>
        <time>2016-07-02T07:25:26Z</time>
      </trkpt>
      <trkpt lat="46.14682" lon="4.51309">
        <ele>668</ele>
        <time>2016-07-02T07:27:26Z</time>
      </trkpt>
      <trkpt lat="46.14686" lon="4.51302">
        <ele>668</ele>
        <time>2016-07-02T07:29:26Z</time>
      </trkpt>
      <trkpt lat="46.14705" lon="4.51278">
        <ele>669</ele>
        <time>2016-07-02T07:31:26Z</time>
      </trkpt>
      <trkpt lat="46.14711" lon="4.51272">
        <ele>670</ele>
        <time>2016-07-02T07:33:26Z</time>
      </trkpt>
      <trkpt lat="46.14724" lon="4.51263">
        <ele>670</ele>
        <time>2016-07-02T07:35:26Z</time>
      </trkpt>
      <trkpt lat="46.14733" lon="4.5126">
        <ele>670</ele>
        <time>2016-07-02T07:37:26Z</time>
      </trkpt>
      <trkpt lat="46.1475" lon="4.51252">
        <ele>671</ele>
        <time>2016-07-02T07:39:26Z</time>
      </trkpt>
      <trkpt lat="46.14765" lon="4.51242">
        <ele>673</ele>
        <time>2016-07-02T07:41:26Z</time>
      </trkpt>
      <trkpt lat="46.14785" lon="4.51226">
        <ele>673</ele>
        <time>2016-07-02T07:43:26Z</time>
      </trkpt>
      <trkpt lat="46.14798" lon="4.51211">
        <ele>674</ele>
        <time>2016-07-02T07:45:26Z</time>
      </trkpt>
      <trkpt lat="46.14806" lon="4.51201">
        <ele>675</ele>
        <time>2016-07-02T07:47:26Z</time>
      </trkpt>
      <trkpt lat="46.14816" lon="4.51192">
        <ele>676</ele>
        <time>2016-07-02T07:49:26Z</time>
      </trkpt>
      <trkpt lat="46.14816" lon="4.51192">
        <ele>676</ele>
        <time>2016-07-02T07:51:26Z</time>
      </trkpt>
      <trkpt lat="46.14812" lon="4.51188">
        <ele>676</ele>
        <time>2016-07-02T07:53:26Z</time>
      </trkpt>
      <trkpt lat="46.14811" lon="4.51184">
        <ele>677</ele>
        <time>2016-07-02T07:55:26Z</time>
      </trkpt>
      <trkpt lat="46.14811" lon="4.51175">
        <ele>677</ele>
        <time>2016-07-02T07:57:26Z</time>
      </trkpt>
      <trkpt lat="46.14812" lon="4.51171">
        <ele>677</ele>
        <time>2016-07-02T07:59:26Z</time>
      </trkpt>
      <trkpt lat="46.14814" lon="4.51168">
        <ele>678</ele>
        <time>2016-07-02T08:01:26Z</time>
      </trkpt>
      <trkpt lat="46.14817" lon="4.51167">
        <ele>678</ele>
        <time>2016-07-02T08:03:26Z</time>
      </trkpt>
      <trkpt lat="46.14832" lon="4.51168">
        <ele>680</ele>
        <time>2016-07-02T08:05:26Z</time>
      </trkpt>
      <trkpt lat="46.14845" lon="4.51171">
        <ele>679</ele>
        <time>2016-07-02T08:07:26Z</time>
      </trkpt>
      <trkpt lat="46.14851" lon="4.51174">
        <ele>678</ele>
        <time>2016-07-02T08:09:26Z</time>
      </trkpt>
      <trkpt lat="46.14869" lon="4.51185">
        <ele>677</ele>
        <time>2016-07-02T08:11:26Z</time>
      </trkpt>
      <trkpt lat="46.14885" lon="4.51198">
        <ele>677</ele>
        <time>2016-07-02T08:13:26Z</time>
      </trkpt>
      <trkpt lat="46.14896" lon="4.51207">
        <ele>676</ele>
        <time>2016-07-02T08:15:26Z</time>
      </trkpt>
      <trkpt lat="46.14907" lon="4.51212">
        <ele>676</ele>
        <time>2016-07-02T08:17:26Z</time>
      </trkpt>
      <trkpt lat="46.14918" lon="4.51215">
        <ele>676</ele>
        <time>2016-07-02T08:19:26Z</time>
      </trkpt>
      <trkpt lat="46.14938" lon="4.51211">
        <ele>677</ele>
        <time>2016-07-02T08:21:26Z</time>
      </trkpt>
      <trkpt lat="46.14948" lon="4.51207">
        <ele>677</ele>
        <time>2016-07-02T08:23:26Z</time>
      </trkpt>
      <trkpt lat="46.1496" lon="4.512">
        <ele>678</ele>
        <time>2016-07-02T08:25:26Z</time>
      </trkpt>
      <trkpt lat="46.14975" lon="4.51189">
        <ele>679</ele>
        <time>2016-07-02T08:27:26Z</time>
      </trkpt>
      <trkpt lat="46.14985" lon="4.5118">
        <ele>681</ele>
        <time>2016-07-02T08:29:26Z</time>
      </trkpt>
      <trkpt lat="46.15014" lon="4.51148">
        <ele>686</ele>
        <time>2016-07-02T08:31:26Z</time>
      </trkpt>
      <trkpt lat="46.15025" lon="4.51131">
        <ele>686</ele>
        <time>2016-07-02T08:33:26Z</time>
      </trkpt>
      <trkpt lat="46.15033" lon="4.51115">
        <ele>687</ele>
        <time>2016-07-02T08:35:26Z</time>
      </trkpt>
      <trkpt lat="46.15037" lon="4.51105">
        <ele>687</ele>
        <time>2016-07-02T08:37:26Z</time>
      </trkpt>
      <trkpt lat="46.15041" lon="4.51092">
        <ele>687</ele>
        <time>2016-07-02T08:39:26Z</time>
      </trkpt>
      <trkpt lat="46.15044" lon="4.5108">
        <ele>694</ele>
        <time>2016-07-02T08:41:26Z</time>
      </trkpt>
      <trkpt lat="46.15048" lon="4.51059">
        <ele>694</ele>
        <time>2016-07-02T08:43:26Z</time>
      </trkpt>
      <trkpt lat="46.15052" lon="4.51031">
        <ele>695</ele>
        <time>2016-07-02T08:45:26Z</time>
      </trkpt>
      <trkpt lat="46.15058" lon="4.50973">
        <ele>701</ele>
        <time>2016-07-02T08:47:26Z</time>
      </trkpt>
      <trkpt lat="46.15058" lon="4.50959">
        <ele>701</ele>
        <time>2016-07-02T08:49:26Z</time>
      </trkpt>
      <trkpt lat="46.15059" lon="4.50905">
        <ele>704</ele>
        <time>2016-07-02T08:51:26Z</time>
      </trkpt>
      <trkpt lat="46.15058" lon="4.50874">
        <ele>705</ele>
        <time>2016-07-02T08:53:26Z</time>
      </trkpt>
      <trkpt lat="46.15056" lon="4.50862">
        <ele>706</ele>
        <time>2016-07-02T08:55:26Z</time>
      </trkpt>
      <trkpt lat="46.15053" lon="4.50841">
        <ele>706</ele>
        <time>2016-07-02T08:57:26Z</time>
      </trkpt>
      <trkpt lat="46.15053" lon="4.5082">
        <ele>707</ele>
        <time>2016-07-02T08:59:26Z</time>
      </trkpt>
      <trkpt lat="46.15055" lon="4.50795">
        <ele>707</ele>
        <time>2016-07-02T09:01:26Z</time>
      </trkpt>
      <trkpt lat="46.15058" lon="4.50776">
        <ele>708</ele>
        <time>2016-07-02T09:03:26Z</time>
      </trkpt>
      <trkpt lat="46.15062" lon="4.50752">
        <ele>708</ele>
        <time>2016-07-02T09:05:26Z</time>
      </trkpt>
      <trkpt lat="46.15069" lon="4.50728">
        <ele>707</ele>
        <time>2016-07-02T09:07:26Z</time>
      </trkpt>
      <trkpt lat="46.15079" lon="4.50701">
        <ele>707</ele>
        <time>2016-07-02T09:09:26Z</time>
      </trkpt>
      <trkpt lat="46.15091" lon="4.50675">
        <ele>710</ele>
        <time>2016-07-02T09:11:26Z</time>
      </trkpt>
      <trkpt lat="46.15111" lon="4.50639">
        <ele>712</ele>
        <time>2016-07-02T09:13:26Z</time>
      </trkpt>
      <trkpt lat="46.15132" lon="4.50599">
        <ele>714</ele>
        <time>2016-07-02T09:15:26Z</time>
      </trkpt>
      <trkpt lat="46.15138" lon="4.50581">
        <ele>715</ele>
        <time>2016-07-02T09:17:26Z</time>
      </trkpt>
      <trkpt lat="46.15139" lon="4.50573">
        <ele>715</ele>
        <time>2016-07-02T09:19:26Z</time>
      </trkpt>
      <trkpt lat="46.15141" lon="4.50561">
        <ele>714</ele>
        <time>2016-07-02T09:21:26Z</time>
      </trkpt>
      <trkpt lat="46.15142" lon="4.50543">
        <ele>714</ele>
        <time>2016-07-02T09:23:26Z</time>
      </trkpt>
      <trkpt lat="46.1514" lon="4.5049">
        <ele>713</ele>
        <time>2016-07-02T09:25:26Z</time>
      </trkpt>
      <trkpt lat="46.15139" lon="4.50473">
        <ele>713</ele>
        <time>2016-07-02T09:27:26Z</time>
      </trkpt>
      <trkpt lat="46.15139" lon="4.50447">
        <ele>712</ele>
        <time>2016-07-02T09:29:26Z</time>
      </trkpt>
      <trkpt lat="46.1514" lon="4.50438">
        <ele>712</ele>
        <time>2016-07-02T09:31:26Z</time>
      </trkpt>
      <trkpt lat="46.15142" lon="4.50419">
        <ele>713</ele>
        <time>2016-07-02T09:33:26Z</time>
      </trkpt>
      <trkpt lat="46.1515" lon="4.50377">
        <ele>711</ele>
        <time>2016-07-02T09:35:26Z</time>
      </trkpt>
      <trkpt lat="46.15156" lon="4.50324">
        <ele>713</ele>
        <time>2016-07-02T09:37:26Z</time>
      </trkpt>
      <trkpt lat="46.15081" lon="4.50249">
        <ele>703.5</ele>
        <time>2016-07-02T14:29:26Z</time>
      </trkpt>
      <trkpt lat="46.15037" lon="4.50131">
        <ele>703.7</ele>
        <time>2016-07-02T14:31:26Z</time>
      </trkpt>
      <trkpt lat="46.1499" lon="4.50059">
        <ele>694.7</ele>
        <time>2016-07-02T14:33:26Z</time>
      </trkpt>
      <trkpt lat="46.14979" lon="4.50014">
        <ele>694.7</ele>
        <time>2016-07-02T14:35:26Z</time>
      </trkpt>
      <trkpt lat="46.1498" lon="4.49968">
        <ele>695.4</ele>
        <time>2016-07-02T14:37:26Z</time>
      </trkpt>
      <trkpt lat="46.14962" lon="4.49894">
        <ele>699.9</ele>
        <time>2016-07-02T14:39:26Z</time>
      </trkpt>
      <trkpt lat="46.14911" lon="4.49856">
        <ele>693.8</ele>
        <time>2016-07-02T14:41:26Z</time>
      </trkpt>
      <trkpt lat="46.14871" lon="4.49815">
        <ele>697.5</ele>
        <time>2016-07-02T14:43:26Z</time>
      </trkpt>
      <trkpt lat="46.14839" lon="4.49737">
        <ele>699.2</ele>
        <time>2016-07-02T14:45:26Z</time>
      </trkpt>
      <trkpt lat="46.14788" lon="4.49672">
        <ele>678.9</ele>
        <time>2016-07-02T14:47:26Z</time>
      </trkpt>
      <trkpt lat="46.14769" lon="4.49442">
        <ele>665.3</ele>
        <time>2016-07-02T14:49:26Z</time>
      </trkpt>
      <trkpt lat="46.14807" lon="4.49333">
        <ele>653.2</ele>
        <time>2016-07-02T14:51:26Z</time>
      </trkpt>
      <trkpt lat="46.14917" lon="4.49059">
        <ele>648.5</ele>
        <time>2016-07-02T14:53:26Z</time>
      </trkpt>
      <trkpt lat="46.14931" lon="4.48911">
        <ele>646.1</ele>
        <time>2016-07-02T14:55:26Z</time>
      </trkpt>
      <trkpt lat="46.14932" lon="4.48828">
        <ele>641.6</ele>
        <time>2016-07-02T14:57:26Z</time>
      </trkpt>
      <trkpt lat="46.14962" lon="4.48699">
        <ele>631.4</ele>
        <time>2016-07-02T14:59:26Z</time>
      </trkpt>
      <trkpt lat="46.14963" lon="4.48676">
        <ele>630.1</ele>
        <time>2016-07-02T15:01:26Z</time>
      </trkpt>
      <trkpt lat="46.14988" lon="4.48614">
        <ele>620.5</ele>
        <time>2016-07-02T15:03:26Z</time>
      </trkpt>
      <trkpt lat="46.14991" lon="4.48593">
        <ele>619.1</ele>
        <time>2016-07-02T15:05:26Z</time>
      </trkpt>
      <trkpt lat="46.15003" lon="4.48528">
        <ele>612.8</ele>
        <time>2016-07-02T15:07:26Z</time>
      </trkpt>
      <trkpt lat="46.15003" lon="4.4849">
        <ele>609.1</ele>
        <time>2016-07-02T15:09:26Z</time>
      </trkpt>
      <trkpt lat="46.15012" lon="4.48458">
        <ele>604.4</ele>
        <time>2016-07-02T15:11:26Z</time>
      </trkpt>
      <trkpt lat="46.15007" lon="4.48454">
        <ele>604</ele>
        <time>2016-07-02T15:13:26Z</time>
      </trkpt>
      <trkpt lat="46.15" lon="4.48452">
        <ele>603</ele>
        <time>2016-07-02T15:15:26Z</time>
      </trkpt>
      <trkpt lat="46.14986" lon="4.48452">
        <ele>603</ele>
        <time>2016-07-02T15:17:26Z</time>
      </trkpt>
      <trkpt lat="46.14982" lon="4.48452">
        <ele>602</ele>
        <time>2016-07-02T15:19:26Z</time>
      </trkpt>
      <trkpt lat="46.14961" lon="4.48457">
        <ele>602</ele>
        <time>2016-07-02T15:21:26Z</time>
      </trkpt>
      <trkpt lat="46.14931" lon="4.48471">
        <ele>602</ele>
        <time>2016-07-02T15:23:26Z</time>
      </trkpt>
      <trkpt lat="46.14888" lon="4.48495">
        <ele>596</ele>
        <time>2016-07-02T15:25:26Z</time>
      </trkpt>
      <trkpt lat="46.14869" lon="4.48506">
        <ele>600</ele>
        <time>2016-07-02T15:27:26Z</time>
      </trkpt>
      <trkpt lat="46.14858" lon="4.48515">
        <ele>599</ele>
        <time>2016-07-02T15:29:26Z</time>
      </trkpt>
      <trkpt lat="46.14837" lon="4.48538">
        <ele>600</ele>
        <time>2016-07-02T15:31:26Z</time>
      </trkpt>
      <trkpt lat="46.14827" lon="4.48554">
        <ele>594</ele>
        <time>2016-07-02T15:33:26Z</time>
      </trkpt>
      <trkpt lat="46.14815" lon="4.48569">
        <ele>595</ele>
        <time>2016-07-02T15:35:26Z</time>
      </trkpt>
      <trkpt lat="46.14801" lon="4.48592">
        <ele>599</ele>
        <time>2016-07-02T15:37:26Z</time>
      </trkpt>
      <trkpt lat="46.14775" lon="4.48629">
        <ele>598</ele>
        <time>2016-07-02T15:39:26Z</time>
      </trkpt>
      <trkpt lat="46.1476" lon="4.48647">
        <ele>598</ele>
        <time>2016-07-02T15:41:26Z</time>
      </trkpt>
      <trkpt lat="46.14747" lon="4.48661">
        <ele>594</ele>
        <time>2016-07-02T15:43:26Z</time>
      </trkpt>
      <trkpt lat="46.14721" lon="4.48692">
        <ele>594</ele>
        <time>2016-07-02T15:45:26Z</time>
      </trkpt>
      <trkpt lat="46.14698" lon="4.48727">
        <ele>593</ele>
        <time>2016-07-02T15:47:26Z</time>
      </trkpt>
      <trkpt lat="46.14696" lon="4.48728">
        <ele>593</ele>
        <time>2016-07-02T15:49:26Z</time>
      </trkpt>
      <trkpt lat="46.14683" lon="4.48747">
        <ele>592</ele>
        <time>2016-07-02T15:51:26Z</time>
      </trkpt>
      <trkpt lat="46.14667" lon="4.48769">
        <ele>596</ele>
        <time>2016-07-02T15:53:26Z</time>
      </trkpt>
      <trkpt lat="46.14662" lon="4.48775">
        <ele>587</ele>
        <time>2016-07-02T15:55:26Z</time>
      </trkpt>
      <trkpt lat="46.14653" lon="4.48786">
        <ele>587</ele>
        <time>2016-07-02T15:57:26Z</time>
      </trkpt>
      <trkpt lat="46.14622" lon="4.48816">
        <ele>586</ele>
        <time>2016-07-02T15:59:26Z</time>
      </trkpt>
      <trkpt lat="46.14567" lon="4.48852">
        <ele>583</ele>
        <time>2016-07-02T16:01:26Z</time>
      </trkpt>
      <trkpt lat="46.14551" lon="4.4886">
        <ele>583</ele>
        <time>2016-07-02T16:03:26Z</time>
      </trkpt>
      <trkpt lat="46.14517" lon="4.48881">
        <ele>582</ele>
        <time>2016-07-02T16:05:26Z</time>
      </trkpt>
      <trkpt lat="46.14506" lon="4.48889">
        <ele>582</ele>
        <time>2016-07-02T16:07:26Z</time>
      </trkpt>
      <trkpt lat="46.14493" lon="4.48896">
        <ele>577</ele>
        <time>2016-07-02T16:09:26Z</time>
      </trkpt>
      <trkpt lat="46.14483" lon="4.48901">
        <ele>577</ele>
        <time>2016-07-02T16:11:26Z</time>
      </trkpt>
      <trkpt lat="46.14471" lon="4.48907">
        <ele>576</ele>
        <time>2016-07-02T16:13:26Z</time>
      </trkpt>
      <trkpt lat="46.14409" lon="4.48929">
        <ele>575</ele>
        <time>2016-07-02T16:15:26Z</time>
      </trkpt>
      <trkpt lat="46.14395" lon="4.48934">
        <ele>575</ele>
        <time>2016-07-02T16:17:26Z</time>
      </trkpt>
      <trkpt lat="46.14367" lon="4.48944">
        <ele>574</ele>
        <time>2016-07-02T16:19:26Z</time>
      </trkpt>
      <trkpt lat="46.14361" lon="4.48946">
        <ele>574</ele>
        <time>2016-07-02T16:21:26Z</time>
      </trkpt>
      <trkpt lat="46.14352" lon="4.48948">
        <ele>573</ele>
        <time>2016-07-02T16:23:26Z</time>
      </trkpt>
      <trkpt lat="46.14332" lon="4.48948">
        <ele>573</ele>
        <time>2016-07-02T16:25:26Z</time>
      </trkpt>
      <trkpt lat="46.14321" lon="4.48946">
        <ele>574</ele>
        <time>2016-07-02T16:27:26Z</time>
      </trkpt>
      <trkpt lat="46.14307" lon="4.48942">
        <ele>574</ele>
        <time>2016-07-02T16:29:26Z</time>
      </trkpt>
      <trkpt lat="46.143" lon="4.4894">
        <ele>574</ele>
        <time>2016-07-02T16:31:26Z</time>
      </trkpt>
      <trkpt lat="46.14298" lon="4.48939">
        <ele>574</ele>
        <time>2016-07-02T16:33:26Z</time>
      </trkpt>
      <trkpt lat="46.14277" lon="4.48933">
        <ele>574</ele>
        <time>2016-07-02T16:35:26Z</time>
      </trkpt>
      <trkpt lat="46.14267" lon="4.4893">
        <ele>573</ele>
        <time>2016-07-02T16:37:26Z</time>
      </trkpt>
      <trkpt lat="46.14256" lon="4.48928">
        <ele>572</ele>
        <time>2016-07-02T16:39:26Z</time>
      </trkpt>
      <trkpt lat="46.14245" lon="4.48928">
        <ele>572</ele>
        <time>2016-07-02T16:41:26Z</time>
      </trkpt>
      <trkpt lat="46.1422" lon="4.48929">
        <ele>574</ele>
        <time>2016-07-02T16:43:26Z</time>
      </trkpt>
      <trkpt lat="46.14193" lon="4.48934">
        <ele>573</ele>
        <time>2016-07-02T16:45:26Z</time>
      </trkpt>
      <trkpt lat="46.14168" lon="4.48939">
        <ele>571</ele>
        <time>2016-07-02T16:47:26Z</time>
      </trkpt>
      <trkpt lat="46.14158" lon="4.48943">
        <ele>568</ele>
        <time>2016-07-02T16:49:26Z</time>
      </trkpt>
      <trkpt lat="46.14138" lon="4.48956">
        <ele>569</ele>
        <time>2016-07-02T16:51:26Z</time>
      </trkpt>
      <trkpt lat="46.14111" lon="4.48976">
        <ele>569</ele>
        <time>2016-07-02T16:53:26Z</time>
      </trkpt>
      <trkpt lat="46.14097" lon="4.48984">
        <ele>569</ele>
        <time>2016-07-02T16:55:26Z</time>
      </trkpt>
      <trkpt lat="46.14064" lon="4.49009">
        <ele>568</ele>
        <time>2016-07-02T16:57:26Z</time>
      </trkpt>
      <trkpt lat="46.14042" lon="4.49026">
        <ele>566</ele>
        <time>2016-07-02T16:59:26Z</time>
      </trkpt>
      <trkpt lat="46.14015" lon="4.49051">
        <ele>565</ele>
        <time>2016-07-02T17:01:26Z</time>
      </trkpt>
      <trkpt lat="46.14" lon="4.49068">
        <ele>565</ele>
        <time>2016-07-02T17:03:26Z</time>
      </trkpt>
      <trkpt lat="46.13984" lon="4.49088">
        <ele>562</ele>
        <time>2016-07-02T17:05:26Z</time>
      </trkpt>
      <trkpt lat="46.13975" lon="4.491">
        <ele>561</ele>
        <time>2016-07-02T17:07:26Z</time>
      </trkpt>
      <trkpt lat="46.13968" lon="4.49112">
        <ele>561</ele>
        <time>2016-07-02T17:09:26Z</time>
      </trkpt>
      <trkpt lat="46.13949" lon="4.49135">
        <ele>561</ele>
        <time>2016-07-02T17:11:26Z</time>
      </trkpt>
      <trkpt lat="46.13938" lon="4.49146">
        <ele>561</ele>
        <time>2016-07-02T17:13:26Z</time>
      </trkpt>
      <trkpt lat="46.13918" lon="4.49159">
        <ele>562</ele>
        <time>2016-07-02T17:15:26Z</time>
      </trkpt>
      <trkpt lat="46.13906" lon="4.49166">
        <ele>561</ele>
        <time>2016-07-02T17:17:26Z</time>
      </trkpt>
      <trkpt lat="46.13896" lon="4.4917">
        <ele>570</ele>
        <time>2016-07-02T17:19:26Z</time>
      </trkpt>
      <trkpt lat="46.13887" lon="4.49172">
        <ele>572</ele>
        <time>2016-07-02T17:21:26Z</time>
      </trkpt>
      <trkpt lat="46.13867" lon="4.49173">
        <ele>574</ele>
        <time>2016-07-02T17:23:26Z</time>
      </trkpt>
      <trkpt lat="46.13856" lon="4.49171">
        <ele>575</ele>
        <time>2016-07-02T17:25:26Z</time>
      </trkpt>
      <trkpt lat="46.1384" lon="4.49165">
        <ele>570</ele>
        <time>2016-07-02T17:27:26Z</time>
      </trkpt>
      <trkpt lat="46.13832" lon="4.49161">
        <ele>570</ele>
        <time>2016-07-02T17:29:26Z</time>
      </trkpt>
      <trkpt lat="46.1382" lon="4.49155">
        <ele>567</ele>
        <time>2016-07-02T17:31:26Z</time>
      </trkpt>
      <trkpt lat="46.13796" lon="4.49143">
        <ele>564</ele>
        <time>2016-07-02T17:33:26Z</time>
      </trkpt>
      <trkpt lat="46.13737" lon="4.49118">
        <ele>559</ele>
        <time>2016-07-02T17:35:26Z</time>
      </trkpt>
      <trkpt lat="46.13728" lon="4.49115">
        <ele>559</ele>
        <time>2016-07-02T17:37:26Z</time>
      </trkpt>
      <trkpt lat="46.1355" lon="4.49035">
        <ele>552</ele>
        <time>2016-07-02T17:39:26Z</time>
      </trkpt>
      <trkpt lat="46.1352" lon="4.49022">
        <ele>551</ele>
        <time>2016-07-02T17:41:26Z</time>
      </trkpt>
      <trkpt lat="46.13498" lon="4.49013">
        <ele>551</ele>
        <time>2016-07-02T17:43:26Z</time>
      </trkpt>
      <trkpt lat="46.13482" lon="4.49007">
        <ele>553</ele>
        <time>2016-07-02T17:45:26Z</time>
      </trkpt>
      <trkpt lat="46.1347" lon="4.49">
        <ele>555</ele>
        <time>2016-07-02T17:47:26Z</time>
      </trkpt>
      <trkpt lat="46.13466" lon="4.48998">
        <ele>542</ele>
        <time>2016-07-02T17:49:26Z</time>
      </trkpt>
      <trkpt lat="46.13444" lon="4.4899">
        <ele>543</ele>
        <time>2016-07-02T17:51:26Z</time>
      </trkpt>
      <trkpt lat="46.13424" lon="4.48984">
        <ele>544</ele>
        <time>2016-07-02T17:53:26Z</time>
      </trkpt>
      <trkpt lat="46.13405" lon="4.48982">
        <ele>544</ele>
        <time>2016-07-02T17:55:26Z</time>
      </trkpt>
      <trkpt lat="46.13401" lon="4.48982">
        <ele>543</ele>
        <time>2016-07-02T17:57:26Z</time>
      </trkpt>
      <trkpt lat="46.13374" lon="4.48982">
        <ele>543</ele>
        <time>2016-07-02T17:59:26Z</time>
      </trkpt>
      <trkpt lat="46.13345" lon="4.48984">
        <ele>544</ele>
        <time>2016-07-02T18:01:26Z</time>
      </trkpt>
      <trkpt lat="46.13345" lon="4.48984">
        <ele>544</ele>
        <time>2016-07-02T18:03:26Z</time>
      </trkpt>
      <trkpt lat="46.13342" lon="4.4898">
        <ele>544</ele>
        <time>2016-07-02T18:05:26Z</time>
      </trkpt>
      <trkpt lat="46.13337" lon="4.48977">
        <ele>544</ele>
        <time>2016-07-02T18:07:26Z</time>
      </trkpt>
      <trkpt lat="46.13325" lon="4.48974">
        <ele>542</ele>
        <time>2016-07-02T18:09:26Z</time>
      </trkpt>
      <trkpt lat="46.13294" lon="4.48971">
        <ele>540</ele>
        <time>2016-07-02T18:11:26Z</time>
      </trkpt>
      <trkpt lat="46.13246" lon="4.4897">
        <ele>539</ele>
        <time>2016-07-02T18:13:26Z</time>
      </trkpt>
      <trkpt lat="46.13239" lon="4.48968">
        <ele>538</ele>
        <time>2016-07-02T18:15:26Z</time>
      </trkpt>
      <trkpt lat="46.13225" lon="4.48959">
        <ele>537</ele>
        <time>2016-07-02T18:17:26Z</time>
      </trkpt>
      <trkpt lat="46.1322" lon="4.48951">
        <ele>537</ele>
        <time>2016-07-02T18:19:26Z</time>
      </trkpt>
      <trkpt lat="46.13216" lon="4.4894">
        <ele>536</ele>
        <time>2016-07-02T18:21:26Z</time>
      </trkpt>
      <trkpt lat="46.13214" lon="4.4893">
        <ele>535</ele>
        <time>2016-07-02T18:23:26Z</time>
      </trkpt>
      <trkpt lat="46.13213" lon="4.48917">
        <ele>535</ele>
        <time>2016-07-02T18:25:26Z</time>
      </trkpt>
      <trkpt lat="46.13213" lon="4.48909">
        <ele>533</ele>
        <time>2016-07-02T18:27:26Z</time>
      </trkpt>
      <trkpt lat="46.13213" lon="4.48903">
        <ele>533</ele>
        <time>2016-07-02T18:29:26Z</time>
      </trkpt>
      <trkpt lat="46.13213" lon="4.48895">
        <ele>533</ele>
        <time>2016-07-02T18:31:26Z</time>
      </trkpt>
      <trkpt lat="46.13214" lon="4.48886">
        <ele>533</ele>
        <time>2016-07-02T18:33:26Z</time>
      </trkpt>
      <trkpt lat="46.13216" lon="4.48875">
        <ele>534</ele>
        <time>2016-07-02T18:35:26Z</time>
      </trkpt>
      <trkpt lat="46.1322" lon="4.48869">
        <ele>534</ele>
        <time>2016-07-02T18:37:26Z</time>
      </trkpt>
      <trkpt lat="46.1322" lon="4.48869">
        <ele>534</ele>
        <time>2016-07-02T18:39:26Z</time>
      </trkpt>
      <trkpt lat="46.1323" lon="4.48858">
        <ele>534</ele>
        <time>2016-07-02T18:41:26Z</time>
      </trkpt>
      <trkpt lat="46.13259" lon="4.48831">
        <ele>536</ele>
        <time>2016-07-02T18:43:26Z</time>
      </trkpt>
      <trkpt lat="46.13275" lon="4.48813">
        <ele>538</ele>
        <time>2016-07-02T18:45:26Z</time>
      </trkpt>
      <trkpt lat="46.13283" lon="4.48802">
        <ele>539</ele>
        <time>2016-07-02T18:47:26Z</time>
      </trkpt>
      <trkpt lat="46.13299" lon="4.48779">
        <ele>540</ele>
        <time>2016-07-02T18:49:26Z</time>
      </trkpt>
      <trkpt lat="46.13307" lon="4.4877">
        <ele>540</ele>
        <time>2016-07-02T18:51:26Z</time>
      </trkpt>
      <trkpt lat="46.13315" lon="4.48758">
        <ele>540</ele>
        <time>2016-07-02T18:53:26Z</time>
      </trkpt>
      <trkpt lat="46.13331" lon="4.48738">
        <ele>545</ele>
        <time>2016-07-02T18:55:26Z</time>
      </trkpt>
      <trkpt lat="46.13337" lon="4.48728">
        <ele>543</ele>
        <time>2016-07-02T18:57:26Z</time>
      </trkpt>
      <trkpt lat="46.13346" lon="4.4872">
        <ele>545</ele>
        <time>2016-07-02T18:59:26Z</time>
      </trkpt>
      <trkpt lat="46.13359" lon="4.48711">
        <ele>546</ele>
        <time>2016-07-02T19:01:26Z</time>
      </trkpt>
      <trkpt lat="46.13375" lon="4.48705">
        <ele>546</ele>
        <time>2016-07-02T19:03:26Z</time>
      </trkpt>
      <trkpt lat="46.13384" lon="4.48704">
        <ele>547</ele>
        <time>2016-07-02T19:05:26Z</time>
      </trkpt>
      <trkpt lat="46.13419" lon="4.48706">
        <ele>551</ele>
        <time>2016-07-02T19:07:26Z</time>
      </trkpt>
      <trkpt lat="46.13465" lon="4.4871">
        <ele>552</ele>
        <time>2016-07-02T19:09:26Z</time>
      </trkpt>
      <trkpt lat="46.13475" lon="4.4871">
        <ele>553</ele>
        <time>2016-07-02T19:11:26Z</time>
      </trkpt>
      <trkpt lat="46.13485" lon="4.48708">
        <ele>553</ele>
        <time>2016-07-02T19:13:26Z</time>
      </trkpt>
      <trkpt lat="46.13493" lon="4.48704">
        <ele>554</ele>
        <time>2016-07-02T19:15:26Z</time>
      </trkpt>
      <trkpt lat="46.13509" lon="4.48695">
        <ele>559</ele>
        <time>2016-07-02T19:17:26Z</time>
      </trkpt>
      <trkpt lat="46.13522" lon="4.48679">
        <ele>560</ele>
        <time>2016-07-02T19:19:26Z</time>
      </trkpt>
      <trkpt lat="46.13528" lon="4.48668">
        <ele>560</ele>
        <time>2016-07-02T19:21:26Z</time>
      </trkpt>
      <trkpt lat="46.13542" lon="4.48638">
        <ele>566</ele>
        <time>2016-07-02T19:23:26Z</time>
      </trkpt>
      <trkpt lat="46.13549" lon="4.48629">
        <ele>567</ele>
        <time>2016-07-02T19:25:26Z</time>
      </trkpt>
      <trkpt lat="46.13555" lon="4.48621">
        <ele>567</ele>
        <time>2016-07-02T19:27:26Z</time>
      </trkpt>
      <trkpt lat="46.13561" lon="4.48616">
        <ele>568</ele>
        <time>2016-07-02T19:29:26Z</time>
      </trkpt>
      <trkpt lat="46.13567" lon="4.48613">
        <ele>568</ele>
        <time>2016-07-02T19:31:26Z</time>
      </trkpt>
      <trkpt lat="46.1359" lon="4.48604">
        <ele>571</ele>
        <time>2016-07-02T19:33:26Z</time>
      </trkpt>
      <trkpt lat="46.13606" lon="4.48599">
        <ele>571</ele>
        <time>2016-07-02T19:35:26Z</time>
      </trkpt>
      <trkpt lat="46.13614" lon="4.48595">
        <ele>572</ele>
        <time>2016-07-02T19:37:26Z</time>
      </trkpt>
      <trkpt lat="46.1362" lon="4.48591">
        <ele>572</ele>
        <time>2016-07-02T19:39:26Z</time>
      </trkpt>
      <trkpt lat="46.13633" lon="4.48585">
        <ele>573</ele>
        <time>2016-07-02T19:41:26Z</time>
      </trkpt>
      <trkpt lat="46.13639" lon="4.48586">
        <ele>574</ele>
        <time>2016-07-02T19:43:26Z</time>
      </trkpt>
      <trkpt lat="46.13644" lon="4.48588">
        <ele>574</ele>
        <time>2016-07-02T19:45:26Z</time>
      </trkpt>
      <trkpt lat="46.13652" lon="4.48599">
        <ele>574</ele>
        <time>2016-07-02T19:47:26Z</time>
      </trkpt>
      <trkpt lat="46.13655" lon="4.48606">
        <ele>574</ele>
        <time>2016-07-02T19:49:26Z</time>
      </trkpt>
      <trkpt lat="46.13658" lon="4.48623">
        <ele>573</ele>
        <time>2016-07-02T19:51:26Z</time>
      </trkpt>
      <trkpt lat="46.13661" lon="4.48635">
        <ele>573</ele>
        <time>2016-07-02T19:53:26Z</time>
      </trkpt>
      <trkpt lat="46.13667" lon="4.48669">
        <ele>576</ele>
        <time>2016-07-02T19:55:26Z</time>
      </trkpt>
      <trkpt lat="46.13669" lon="4.48679">
        <ele>578</ele>
        <time>2016-07-02T19:57:26Z</time>
      </trkpt>
      <trkpt lat="46.13674" lon="4.48686">
        <ele>579</ele>
        <time>2016-07-02T19:59:26Z</time>
      </trkpt>
      <trkpt lat="46.13678" lon="4.48691">
        <ele>580</ele>
        <time>2016-07-02T20:01:26Z</time>
      </trkpt>
      <trkpt lat="46.13682" lon="4.48694">
        <ele>581</ele>
        <time>2016-07-02T20:03:26Z</time>
      </trkpt>
      <trkpt lat="46.13687" lon="4.48695">
        <ele>581</ele>
        <time>2016-07-02T20:05:26Z</time>
      </trkpt>
      <trkpt lat="46.13691" lon="4.48695">
        <ele>582</ele>
        <time>2016-07-02T20:07:26Z</time>
      </trkpt>
      <trkpt lat="46.13698" lon="4.48693">
        <ele>582</ele>
        <time>2016-07-02T20:09:26Z</time>
      </trkpt>
      <trkpt lat="46.13703" lon="4.4869">
        <ele>583</ele>
        <time>2016-07-02T20:11:26Z</time>
      </trkpt>
      <trkpt lat="46.13707" lon="4.48685">
        <ele>583</ele>
        <time>2016-07-02T20:13:26Z</time>
      </trkpt>
      <trkpt lat="46.13711" lon="4.48677">
        <ele>584</ele>
        <time>2016-07-02T20:15:26Z</time>
      </trkpt>
      <trkpt lat="46.13737" lon="4.48617">
        <ele>586</ele>
        <time>2016-07-02T20:17:26Z</time>
      </trkpt>
      <trkpt lat="46.13749" lon="4.48589">
        <ele>590</ele>
        <time>2016-07-02T20:19:26Z</time>
      </trkpt>
      <trkpt lat="46.1376" lon="4.48568">
        <ele>597</ele>
        <time>2016-07-02T20:21:26Z</time>
      </trkpt>
      <trkpt lat="46.13766" lon="4.48558">
        <ele>598</ele>
        <time>2016-07-02T20:23:26Z</time>
      </trkpt>
      <trkpt lat="46.13777" lon="4.48541">
        <ele>600</ele>
        <time>2016-07-02T20:25:26Z</time>
      </trkpt>
      <trkpt lat="46.1379" lon="4.48525">
        <ele>602</ele>
        <time>2016-07-02T20:27:26Z</time>
      </trkpt>
      <trkpt lat="46.13795" lon="4.48515">
        <ele>602</ele>
        <time>2016-07-02T20:29:26Z</time>
      </trkpt>
      <trkpt lat="46.13799" lon="4.48505">
        <ele>603</ele>
        <time>2016-07-02T20:31:26Z</time>
      </trkpt>
      <trkpt lat="46.13802" lon="4.48496">
        <ele>606</ele>
        <time>2016-07-02T20:33:26Z</time>
      </trkpt>
      <trkpt lat="46.13803" lon="4.48488">
        <ele>607</ele>
        <time>2016-07-02T20:35:26Z</time>
      </trkpt>
      <trkpt lat="46.13803" lon="4.48476">
        <ele>607</ele>
        <time>2016-07-02T20:37:26Z</time>
      </trkpt>
      <trkpt lat="46.13802" lon="4.48457">
        <ele>608</ele>
        <time>2016-07-02T20:39:26Z</time>
      </trkpt>
      <trkpt lat="46.13801" lon="4.48443">
        <ele>609</ele>
        <time>2016-07-02T20:41:26Z</time>
      </trkpt>
      <trkpt lat="46.13801" lon="4.48428">
        <ele>610</ele>
        <time>2016-07-02T20:43:26Z</time>
      </trkpt>
      <trkpt lat="46.138" lon="4.48416">
        <ele>619</ele>
        <time>2016-07-02T20:45:26Z</time>
      </trkpt>
      <trkpt lat="46.13798" lon="4.48404">
        <ele>620</ele>
        <time>2016-07-02T20:47:26Z</time>
      </trkpt>
      <trkpt lat="46.13794" lon="4.48391">
        <ele>621</ele>
        <time>2016-07-02T20:49:26Z</time>
      </trkpt>
      <trkpt lat="46.1379" lon="4.48379">
        <ele>622</ele>
        <time>2016-07-02T20:51:26Z</time>
      </trkpt>
      <trkpt lat="46.13785" lon="4.4837">
        <ele>623</ele>
        <time>2016-07-02T20:53:26Z</time>
      </trkpt>
      <trkpt lat="46.13778" lon="4.48364">
        <ele>624</ele>
        <time>2016-07-02T20:55:26Z</time>
      </trkpt>
      <trkpt lat="46.13764" lon="4.48356">
        <ele>625</ele>
        <time>2016-07-02T20:57:26Z</time>
      </trkpt>
      <trkpt lat="46.13757" lon="4.48353">
        <ele>625</ele>
        <time>2016-07-02T20:59:26Z</time>
      </trkpt>
      <trkpt lat="46.13749" lon="4.48352">
        <ele>627</ele>
        <time>2016-07-02T21:01:26Z</time>
      </trkpt>
      <trkpt lat="46.13742" lon="4.48351">
        <ele>627</ele>
        <time>2016-07-02T21:03:26Z</time>
      </trkpt>
      <trkpt lat="46.13726" lon="4.48354">
        <ele>626</ele>
        <time>2016-07-02T21:05:26Z</time>
      </trkpt>
      <trkpt lat="46.13701" lon="4.48364">
        <ele>627</ele>
        <time>2016-07-02T21:07:26Z</time>
      </trkpt>
      <trkpt lat="46.13683" lon="4.48368">
        <ele>627</ele>
        <time>2016-07-02T21:09:26Z</time>
      </trkpt>
      <trkpt lat="46.13667" lon="4.4837">
        <ele>628</ele>
        <time>2016-07-02T21:11:26Z</time>
      </trkpt>
      <trkpt lat="46.13659" lon="4.48369">
        <ele>628</ele>
        <time>2016-07-02T21:13:26Z</time>
      </trkpt>
      <trkpt lat="46.13654" lon="4.48368">
        <ele>628</ele>
        <time>2016-07-02T21:15:26Z</time>
      </trkpt>
      <trkpt lat="46.13639" lon="4.48359">
        <ele>628</ele>
        <time>2016-07-02T21:17:26Z</time>
      </trkpt>
      <trkpt lat="46.13633" lon="4.48354">
        <ele>628</ele>
        <time>2016-07-02T21:19:26Z</time>
      </trkpt>
      <trkpt lat="46.13601" lon="4.48322">
        <ele>638</ele>
        <time>2016-07-02T21:21:26Z</time>
      </trkpt>
      <trkpt lat="46.1357" lon="4.48291">
        <ele>633</ele>
        <time>2016-07-02T21:23:26Z</time>
      </trkpt>
      <trkpt lat="46.13556" lon="4.48274">
        <ele>635</ele>
        <time>2016-07-02T21:25:26Z</time>
      </trkpt>
      <trkpt lat="46.13548" lon="4.48265">
        <ele>634</ele>
        <time>2016-07-02T21:27:26Z</time>
      </trkpt>
      <trkpt lat="46.13542" lon="4.48258">
        <ele>633</ele>
        <time>2016-07-02T21:29:26Z</time>
      </trkpt>
      <trkpt lat="46.13519" lon="4.4822">
        <ele>643</ele>
        <time>2016-07-02T21:31:26Z</time>
      </trkpt>
      <trkpt lat="46.13506" lon="4.48197">
        <ele>645</ele>
        <time>2016-07-02T21:33:26Z</time>
      </trkpt>
      <trkpt lat="46.13481" lon="4.48158">
        <ele>645</ele>
        <time>2016-07-02T21:35:26Z</time>
      </trkpt>
      <trkpt lat="46.13474" lon="4.48149">
        <ele>646</ele>
        <time>2016-07-02T21:37:26Z</time>
      </trkpt>
      <trkpt lat="46.13459" lon="4.48128">
        <ele>647</ele>
        <time>2016-07-02T21:39:26Z</time>
      </trkpt>
      <trkpt lat="46.13446" lon="4.48112">
        <ele>647</ele>
        <time>2016-07-02T21:41:26Z</time>
      </trkpt>
      <trkpt lat="46.13437" lon="4.48104">
        <ele>647</ele>
        <time>2016-07-02T21:43:26Z</time>
      </trkpt>
      <trkpt lat="46.1342" lon="4.4809">
        <ele>648</ele>
        <time>2016-07-02T21:45:26Z</time>
      </trkpt>
      <trkpt lat="46.13411" lon="4.48085">
        <ele>646</ele>
        <time>2016-07-02T21:47:26Z</time>
      </trkpt>
      <trkpt lat="46.13403" lon="4.48079">
        <ele>649</ele>
        <time>2016-07-02T21:49:26Z</time>
      </trkpt>
      <trkpt lat="46.13392" lon="4.48073">
        <ele>649</ele>
        <time>2016-07-02T21:51:26Z</time>
      </trkpt>
      <trkpt lat="46.13366" lon="4.48055">
        <ele>649</ele>
        <time>2016-07-02T21:53:26Z</time>
      </trkpt>
      <trkpt lat="46.13358" lon="4.48049">
        <ele>649</ele>
        <time>2016-07-02T21:55:26Z</time>
      </trkpt>
      <trkpt lat="46.13342" lon="4.48038">
        <ele>649</ele>
        <time>2016-07-02T21:57:26Z</time>
      </trkpt>
      <trkpt lat="46.13336" lon="4.48032">
        <ele>649</ele>
        <time>2016-07-02T21:59:26Z</time>
      </trkpt>
      <trkpt lat="46.1333" lon="4.48024">
        <ele>646</ele>
        <time>2016-07-02T22:01:26Z</time>
      </trkpt>
      <trkpt lat="46.13324" lon="4.48015">
        <ele>646</ele>
        <time>2016-07-02T22:03:26Z</time>
      </trkpt>
      <trkpt lat="46.13319" lon="4.48006">
        <ele>646</ele>
        <time>2016-07-02T22:05:26Z</time>
      </trkpt>
      <trkpt lat="46.13314" lon="4.47995">
        <ele>644</ele>
        <time>2016-07-02T22:07:26Z</time>
      </trkpt>
      <trkpt lat="46.13314" lon="4.47995">
        <ele>644</ele>
        <time>2016-07-02T22:09:26Z</time>
      </trkpt>
      <trkpt lat="46.13312" lon="4.47988">
        <ele>644</ele>
        <time>2016-07-02T22:11:26Z</time>
      </trkpt>
      <trkpt lat="46.13312" lon="4.47976">
        <ele>643</ele>
        <time>2016-07-02T22:13:26Z</time>
      </trkpt>
      <trkpt lat="46.13313" lon="4.47939">
        <ele>642</ele>
        <time>2016-07-02T22:15:26Z</time>
      </trkpt>
      <trkpt lat="46.13316" lon="4.47882">
        <ele>638</ele>
        <time>2016-07-02T22:17:26Z</time>
      </trkpt>
      <trkpt lat="46.13319" lon="4.47851">
        <ele>638</ele>
        <time>2016-07-02T22:19:26Z</time>
      </trkpt>
      <trkpt lat="46.13322" lon="4.47821">
        <ele>636</ele>
        <time>2016-07-02T22:21:26Z</time>
      </trkpt>
      <trkpt lat="46.13322" lon="4.47806">
        <ele>634</ele>
        <time>2016-07-02T22:23:26Z</time>
      </trkpt>
      <trkpt lat="46.1332" lon="4.47779">
        <ele>633</ele>
        <time>2016-07-02T22:25:26Z</time>
      </trkpt>
      <trkpt lat="46.13317" lon="4.47752">
        <ele>634</ele>
        <time>2016-07-02T22:27:26Z</time>
      </trkpt>
      <trkpt lat="46.13314" lon="4.47736">
        <ele>630</ele>
        <time>2016-07-02T22:29:26Z</time>
      </trkpt>
      <trkpt lat="46.13312" lon="4.47722">
        <ele>628</ele>
        <time>2016-07-02T22:31:26Z</time>
      </trkpt>
      <trkpt lat="46.13309" lon="4.47689">
        <ele>626</ele>
        <time>2016-07-02T22:33:26Z</time>
      </trkpt>
      <trkpt lat="46.13307" lon="4.47672">
        <ele>626</ele>
        <time>2016-07-02T22:35:26Z</time>
      </trkpt>
      <trkpt lat="46.13295" lon="4.47593">
        <ele>620</ele>
        <time>2016-07-02T22:37:26Z</time>
      </trkpt>
      <trkpt lat="46.13292" lon="4.47564">
        <ele>617</ele>
        <time>2016-07-02T22:39:26Z</time>
      </trkpt>
      <trkpt lat="46.1329" lon="4.47545">
        <ele>616</ele>
        <time>2016-07-02T22:41:26Z</time>
      </trkpt>
      <trkpt lat="46.13288" lon="4.47515">
        <ele>614</ele>
        <time>2016-07-02T22:43:26Z</time>
      </trkpt>
      <trkpt lat="46.13288" lon="4.47486">
        <ele>610</ele>
        <time>2016-07-02T22:45:26Z</time>
      </trkpt>
      <trkpt lat="46.13285" lon="4.4743">
        <ele>608</ele>
        <time>2016-07-02T22:47:26Z</time>
      </trkpt>
      <trkpt lat="46.13284" lon="4.47414">
        <ele>605</ele>
        <time>2016-07-02T22:49:26Z</time>
      </trkpt>
      <trkpt lat="46.13278" lon="4.47342">
        <ele>602</ele>
        <time>2016-07-02T22:51:26Z</time>
      </trkpt>
      <trkpt lat="46.13278" lon="4.47306">
        <ele>599</ele>
        <time>2016-07-02T22:53:26Z</time>
      </trkpt>
      <trkpt lat="46.13279" lon="4.47295">
        <ele>599</ele>
        <time>2016-07-02T22:55:26Z</time>
      </trkpt>
      <trkpt lat="46.13281" lon="4.47283">
        <ele>599</ele>
        <time>2016-07-02T22:57:26Z</time>
      </trkpt>
      <trkpt lat="46.13284" lon="4.47272">
        <ele>599</ele>
        <time>2016-07-02T22:59:26Z</time>
      </trkpt>
      <trkpt lat="46.13293" lon="4.47251">
        <ele>600</ele>
        <time>2016-07-02T23:01:26Z</time>
      </trkpt>
      <trkpt lat="46.13299" lon="4.47241">
        <ele>596</ele>
        <time>2016-07-02T23:03:26Z</time>
      </trkpt>
      <trkpt lat="46.13305" lon="4.47234">
        <ele>597</ele>
        <time>2016-07-02T23:05:26Z</time>
      </trkpt>
      <trkpt lat="46.13313" lon="4.47222">
        <ele>597</ele>
        <time>2016-07-02T23:07:26Z</time>
      </trkpt>
      <trkpt lat="46.13319" lon="4.47213">
        <ele>596</ele>
        <time>2016-07-02T23:09:26Z</time>
      </trkpt>
      <trkpt lat="46.13323" lon="4.4721">
        <ele>596</ele>
        <time>2016-07-02T23:11:26Z</time>
      </trkpt>
      <trkpt lat="46.13337" lon="4.47192">
        <ele>602</ele>
        <time>2016-07-02T23:13:26Z</time>
      </trkpt>
      <trkpt lat="46.13354" lon="4.47165">
        <ele>596</ele>
        <time>2016-07-02T23:15:26Z</time>
      </trkpt>
      <trkpt lat="46.13364" lon="4.47148">
        <ele>596</ele>
        <time>2016-07-02T23:17:26Z</time>
      </trkpt>
      <trkpt lat="46.13371" lon="4.4714">
        <ele>596</ele>
        <time>2016-07-02T23:19:26Z</time>
      </trkpt>
      <trkpt lat="46.13384" lon="4.47119">
        <ele>596</ele>
        <time>2016-07-02T23:21:26Z</time>
      </trkpt>
      <trkpt lat="46.13421" lon="4.47068">
        <ele>599</ele>
        <time>2016-07-02T23:23:26Z</time>
      </trkpt>
      <trkpt lat="46.13432" lon="4.4705">
        <ele>600</ele>
        <time>2016-07-02T23:25:26Z</time>
      </trkpt>
      <trkpt lat="46.13435" lon="4.47042">
        <ele>600</ele>
        <time>2016-07-02T23:27:26Z</time>
      </trkpt>
      <trkpt lat="46.13437" lon="4.47032">
        <ele>599</ele>
        <time>2016-07-02T23:29:26Z</time>
      </trkpt>
      <trkpt lat="46.13438" lon="4.47022">
        <ele>598</ele>
        <time>2016-07-02T23:31:26Z</time>
      </trkpt>
      <trkpt lat="46.13435" lon="4.46991">
        <ele>591</ele>
        <time>2016-07-02T23:33:26Z</time>
      </trkpt>
      <trkpt lat="46.13436" lon="4.46979">
        <ele>591</ele>
        <time>2016-07-02T23:35:26Z</time>
      </trkpt>
      <trkpt lat="46.13443" lon="4.46944">
        <ele>590</ele>
        <time>2016-07-02T23:37:26Z</time>
      </trkpt>
      <trkpt lat="46.13447" lon="4.46933">
        <ele>590</ele>
        <time>2016-07-02T23:39:26Z</time>
      </trkpt>
      <trkpt lat="46.13455" lon="4.4691">
        <ele>584</ele>
        <time>2016-07-02T23:41:26Z</time>
      </trkpt>
      <trkpt lat="46.13466" lon="4.46887">
        <ele>585</ele>
        <time>2016-07-02T23:43:26Z</time>
      </trkpt>
      <trkpt lat="46.13485" lon="4.46846">
        <ele>585</ele>
        <time>2016-07-02T23:45:26Z</time>
      </trkpt>
      <trkpt lat="46.13503" lon="4.46807">
        <ele>588</ele>
        <time>2016-07-02T23:47:26Z</time>
      </trkpt>
      <trkpt lat="46.13515" lon="4.46783">
        <ele>587</ele>
        <time>2016-07-02T23:49:26Z</time>
      </trkpt>
      <trkpt lat="46.1352" lon="4.46771">
        <ele>586</ele>
        <time>2016-07-02T23:51:26Z</time>
      </trkpt>
      <trkpt lat="46.13532" lon="4.46749">
        <ele>581</ele>
        <time>2016-07-02T23:53:26Z</time>
      </trkpt>
      <trkpt lat="46.13537" lon="4.46738">
        <ele>582</ele>
        <time>2016-07-02T23:55:26Z</time>
      </trkpt>
      <trkpt lat="46.13541" lon="4.46728">
        <ele>582</ele>
        <time>2016-07-02T23:57:26Z</time>
      </trkpt>
      <trkpt lat="46.13547" lon="4.46708">
        <ele>581</ele>
        <time>2016-07-02T23:59:26Z</time>
      </trkpt>
      <trkpt lat="46.13548" lon="4.46701">
        <ele>581</ele>
        <time>2016-07-03T00:01:26Z</time>
      </trkpt>
      <trkpt lat="46.13569" lon="4.46689">
        <ele>582.4</ele>
        <time>2016-07-03T06:45:26Z</time>
      </trkpt>
      <trkpt lat="46.13598" lon="4.46684">
        <ele>587.3</ele>
        <time>2016-07-03T06:47:26Z</time>
      </trkpt>
      <trkpt lat="46.13746" lon="4.4677">
        <ele>596.5</ele>
        <time>2016-07-03T06:49:26Z</time>
      </trkpt>
      <trkpt lat="46.13768" lon="4.46775">
        <ele>597</ele>
        <time>2016-07-03T06:51:26Z</time>
      </trkpt>
      <trkpt lat="46.13909" lon="4.46762">
        <ele>602.2</ele>
        <time>2016-07-03T06:53:26Z</time>
      </trkpt>
      <trkpt lat="46.13937" lon="4.46744">
        <ele>600.4</ele>
        <time>2016-07-03T06:55:26Z</time>
      </trkpt>
      <trkpt lat="46.13973" lon="4.46714">
        <ele>599.4</ele>
        <time>2016-07-03T06:57:26Z</time>
      </trkpt>
      <trkpt lat="46.14031" lon="4.46644">
        <ele>595.7</ele>
        <time>2016-07-03T06:59:26Z</time>
      </trkpt>
      <trkpt lat="46.14077" lon="4.46609">
        <ele>595.9</ele>
        <time>2016-07-03T07:01:26Z</time>
      </trkpt>
      <trkpt lat="46.14199" lon="4.46573">
        <ele>587.7</ele>
        <time>2016-07-03T07:03:26Z</time>
      </trkpt>
      <trkpt lat="46.14217" lon="4.46551">
        <ele>587.1</ele>
        <time>2016-07-03T07:05:26Z</time>
      </trkpt>
      <trkpt lat="46.14218" lon="4.46521">
        <ele>586.4</ele>
        <time>2016-07-03T07:07:26Z</time>
      </trkpt>
      <trkpt lat="46.14158" lon="4.46444">
        <ele>577.9</ele>
        <time>2016-07-03T07:09:26Z</time>
      </trkpt>
      <trkpt lat="46.14149" lon="4.46423">
        <ele>577.2</ele>
        <time>2016-07-03T07:11:26Z</time>
      </trkpt>
      <trkpt lat="46.14147" lon="4.46217">
        <ele>560.9</ele>
        <time>2016-07-03T07:13:26Z</time>
      </trkpt>
      <trkpt lat="46.14153" lon="4.46157">
        <ele>558.1</ele>
        <time>2016-07-03T07:15:26Z</time>
      </trkpt>
      <trkpt lat="46.14196" lon="4.46079">
        <ele>552.5</ele>
        <time>2016-07-03T07:17:26Z</time>
      </trkpt>
      <trkpt lat="46.14235" lon="4.4606">
        <ele>553.2</ele>
        <time>2016-07-03T07:19:26Z</time>
      </trkpt>
      <trkpt lat="46.14336" lon="4.46073">
        <ele>553</ele>
        <time>2016-07-03T07:21:26Z</time>
      </trkpt>
      <trkpt lat="46.14437" lon="4.46105">
        <ele>550.7</ele>
        <time>2016-07-03T07:23:26Z</time>
      </trkpt>
      <trkpt lat="46.14461" lon="4.46096">
        <ele>549.4</ele>
        <time>2016-07-03T07:25:26Z</time>
      </trkpt>
      <trkpt lat="46.14519" lon="4.46096">
        <ele>543.9</ele>
        <time>2016-07-03T07:27:26Z</time>
      </trkpt>
      <trkpt lat="46.14605" lon="4.46017">
        <ele>540.9</ele>
        <time>2016-07-03T07:29:26Z</time>
      </trkpt>
      <trkpt lat="46.1466" lon="4.46032">
        <ele>543.4</ele>
        <time>2016-07-03T07:31:26Z</time>
      </trkpt>
      <trkpt lat="46.14714" lon="4.46015">
        <ele>547.6</ele>
        <time>2016-07-03T07:33:26Z</time>
      </trkpt>
      <trkpt lat="46.14754" lon="4.45985">
        <ele>554.5</ele>
        <time>2016-07-03T07:35:26Z</time>
      </trkpt>
      <trkpt lat="46.14834" lon="4.4589">
        <ele>567.1</ele>
        <time>2016-07-03T07:37:26Z</time>
      </trkpt>
      <trkpt lat="46.14911" lon="4.45792">
        <ele>576</ele>
        <time>2016-07-03T07:39:26Z</time>
      </trkpt>
      <trkpt lat="46.14916" lon="4.45789">
        <ele>576</ele>
        <time>2016-07-03T07:41:26Z</time>
      </trkpt>
      <trkpt lat="46.14918" lon="4.4579">
        <ele>578</ele>
        <time>2016-07-03T07:43:26Z</time>
      </trkpt>
      <trkpt lat="46.14925" lon="4.4579">
        <ele>579</ele>
        <time>2016-07-03T07:45:26Z</time>
      </trkpt>
      <trkpt lat="46.14931" lon="4.45788">
        <ele>579</ele>
        <time>2016-07-03T07:47:26Z</time>
      </trkpt>
      <trkpt lat="46.14938" lon="4.45786">
        <ele>579</ele>
        <time>2016-07-03T07:49:26Z</time>
      </trkpt>
      <trkpt lat="46.14947" lon="4.45784">
        <ele>579</ele>
        <time>2016-07-03T07:51:26Z</time>
      </trkpt>
      <trkpt lat="46.14958" lon="4.45779">
        <ele>580</ele>
        <time>2016-07-03T07:53:26Z</time>
      </trkpt>
      <trkpt lat="46.14958" lon="4.45779">
        <ele>580</ele>
        <time>2016-07-03T07:55:26Z</time>
      </trkpt>
      <trkpt lat="46.14969" lon="4.45773">
        <ele>580</ele>
        <time>2016-07-03T07:57:26Z</time>
      </trkpt>
      <trkpt lat="46.14982" lon="4.45763">
        <ele>581</ele>
        <time>2016-07-03T07:59:26Z</time>
      </trkpt>
      <trkpt lat="46.14993" lon="4.45755">
        <ele>582</ele>
        <time>2016-07-03T08:01:26Z</time>
      </trkpt>
      <trkpt lat="46.15006" lon="4.45747">
        <ele>583</ele>
        <time>2016-07-03T08:03:26Z</time>
      </trkpt>
      <trkpt lat="46.15016" lon="4.45741">
        <ele>584</ele>
        <time>2016-07-03T08:05:26Z</time>
      </trkpt>
      <trkpt lat="46.15029" lon="4.45735">
        <ele>584</ele>
        <time>2016-07-03T08:07:26Z</time>
      </trkpt>
      <trkpt lat="46.15031" lon="4.45734">
        <ele>584</ele>
        <time>2016-07-03T08:09:26Z</time>
      </trkpt>
      <trkpt lat="46.15058" lon="4.45717">
        <ele>585</ele>
        <time>2016-07-03T08:11:26Z</time>
      </trkpt>
      <trkpt lat="46.15089" lon="4.45698">
        <ele>590</ele>
        <time>2016-07-03T08:13:26Z</time>
      </trkpt>
      <trkpt lat="46.15103" lon="4.45692">
        <ele>591</ele>
        <time>2016-07-03T08:15:26Z</time>
      </trkpt>
      <trkpt lat="46.15115" lon="4.45687">
        <ele>591</ele>
        <time>2016-07-03T08:17:26Z</time>
      </trkpt>
      <trkpt lat="46.15162" lon="4.4566">
        <ele>595</ele>
        <time>2016-07-03T08:19:26Z</time>
      </trkpt>
      <trkpt lat="46.15173" lon="4.45653">
        <ele>598</ele>
        <time>2016-07-03T08:21:26Z</time>
      </trkpt>
      <trkpt lat="46.15186" lon="4.45643">
        <ele>599</ele>
        <time>2016-07-03T08:23:26Z</time>
      </trkpt>
      <trkpt lat="46.15214" lon="4.45626">
        <ele>600</ele>
        <time>2016-07-03T08:25:26Z</time>
      </trkpt>
      <trkpt lat="46.15231" lon="4.45616">
        <ele>601</ele>
        <time>2016-07-03T08:27:26Z</time>
      </trkpt>
      <trkpt lat="46.15271" lon="4.45588">
        <ele>608</ele>
        <time>2016-07-03T08:29:26Z</time>
      </trkpt>
      <trkpt lat="46.15296" lon="4.4557">
        <ele>606</ele>
        <time>2016-07-03T08:31:26Z</time>
      </trkpt>
      <trkpt lat="46.15313" lon="4.4556">
        <ele>607</ele>
        <time>2016-07-03T08:33:26Z</time>
      </trkpt>
      <trkpt lat="46.15337" lon="4.45546">
        <ele>613</ele>
        <time>2016-07-03T08:35:26Z</time>
      </trkpt>
      <trkpt lat="46.15362" lon="4.45531">
        <ele>613</ele>
        <time>2016-07-03T08:37:26Z</time>
      </trkpt>
      <trkpt lat="46.15388" lon="4.45514">
        <ele>614</ele>
        <time>2016-07-03T08:39:26Z</time>
      </trkpt>
      <trkpt lat="46.1542" lon="4.45494">
        <ele>615</ele>
        <time>2016-07-03T08:41:26Z</time>
      </trkpt>
      <trkpt lat="46.15451" lon="4.45474">
        <ele>617</ele>
        <time>2016-07-03T08:43:26Z</time>
      </trkpt>
      <trkpt lat="46.155" lon="4.45442">
        <ele>624</ele>
        <time>2016-07-03T08:45:26Z</time>
      </trkpt>
      <trkpt lat="46.15526" lon="4.45425">
        <ele>624</ele>
        <time>2016-07-03T08:47:26Z</time>
      </trkpt>
      <trkpt lat="46.15551" lon="4.4541">
        <ele>622</ele>
        <time>2016-07-03T08:49:26Z</time>
      </trkpt>
      <trkpt lat="46.15573" lon="4.45397">
        <ele>624</ele>
        <time>2016-07-03T08:51:26Z</time>
      </trkpt>
      <trkpt lat="46.15592" lon="4.45386">
        <ele>628</ele>
        <time>2016-07-03T08:53:26Z</time>
      </trkpt>
      <trkpt lat="46.15601" lon="4.45382">
        <ele>629</ele>
        <time>2016-07-03T08:55:26Z</time>
      </trkpt>
      <trkpt lat="46.15615" lon="4.45377">
        <ele>629</ele>
        <time>2016-07-03T08:57:26Z</time>
      </trkpt>
      <trkpt lat="46.15633" lon="4.45375">
        <ele>630</ele>
        <time>2016-07-03T08:59:26Z</time>
      </trkpt>
      <trkpt lat="46.15649" lon="4.45372">
        <ele>630</ele>
        <time>2016-07-03T09:01:26Z</time>
      </trkpt>
      <trkpt lat="46.1568" lon="4.4537">
        <ele>635</ele>
        <time>2016-07-03T09:03:26Z</time>
      </trkpt>
      <trkpt lat="46.15703" lon="4.45371">
        <ele>635</ele>
        <time>2016-07-03T09:05:26Z</time>
      </trkpt>
      <trkpt lat="46.15709" lon="4.45372">
        <ele>635</ele>
        <time>2016-07-03T09:07:26Z</time>
      </trkpt>
      <trkpt lat="46.15716" lon="4.45373">
        <ele>636</ele>
        <time>2016-07-03T09:09:26Z</time>
      </trkpt>
      <trkpt lat="46.15727" lon="4.45376">
        <ele>636</ele>
        <time>2016-07-03T09:11:26Z</time>
      </trkpt>
      <trkpt lat="46.15737" lon="4.4538">
        <ele>636</ele>
        <time>2016-07-03T09:13:26Z</time>
      </trkpt>
      <trkpt lat="46.15744" lon="4.45383">
        <ele>637</ele>
        <time>2016-07-03T09:15:26Z</time>
      </trkpt>
      <trkpt lat="46.15763" lon="4.45395">
        <ele>640</ele>
        <time>2016-07-03T09:17:26Z</time>
      </trkpt>
      <trkpt lat="46.15773" lon="4.45403">
        <ele>640</ele>
        <time>2016-07-03T09:19:26Z</time>
      </trkpt>
      <trkpt lat="46.1579" lon="4.45419">
        <ele>645</ele>
        <time>2016-07-03T09:21:26Z</time>
      </trkpt>
      <trkpt lat="46.15798" lon="4.45428">
        <ele>645</ele>
        <time>2016-07-03T09:23:26Z</time>
      </trkpt>
      <trkpt lat="46.15812" lon="4.45447">
        <ele>645</ele>
        <time>2016-07-03T09:25:26Z</time>
      </trkpt>
      <trkpt lat="46.15821" lon="4.4546">
        <ele>646</ele>
        <time>2016-07-03T09:27:26Z</time>
      </trkpt>
      <trkpt lat="46.15831" lon="4.45474">
        <ele>646</ele>
        <time>2016-07-03T09:29:26Z</time>
      </trkpt>
      <trkpt lat="46.15845" lon="4.45493">
        <ele>649</ele>
        <time>2016-07-03T09:31:26Z</time>
      </trkpt>
      <trkpt lat="46.15852" lon="4.45503">
        <ele>650</ele>
        <time>2016-07-03T09:33:26Z</time>
      </trkpt>
      <trkpt lat="46.15891" lon="4.45543">
        <ele>653</ele>
        <time>2016-07-03T09:35:26Z</time>
      </trkpt>
      <trkpt lat="46.15927" lon="4.4558">
        <ele>658</ele>
        <time>2016-07-03T09:37:26Z</time>
      </trkpt>
      <trkpt lat="46.15953" lon="4.45604">
        <ele>661</ele>
        <time>2016-07-03T09:39:26Z</time>
      </trkpt>
      <trkpt lat="46.15955" lon="4.45605">
        <ele>661</ele>
        <time>2016-07-03T09:41:26Z</time>
      </trkpt>
      <trkpt lat="46.15988" lon="4.45644">
        <ele>663</ele>
        <time>2016-07-03T09:43:26Z</time>
      </trkpt>
      <trkpt lat="46.16049" lon="4.45705">
        <ele>671</ele>
        <time>2016-07-03T09:45:26Z</time>
      </trkpt>
      <trkpt lat="46.16076" lon="4.45737">
        <ele>672</ele>
        <time>2016-07-03T09:47:26Z</time>
      </trkpt>
      <trkpt lat="46.16077" lon="4.4574">
        <ele>673</ele>
        <time>2016-07-03T09:49:26Z</time>
      </trkpt>
      <trkpt lat="46.16079" lon="4.45744">
        <ele>673</ele>
        <time>2016-07-03T09:51:26Z</time>
      </trkpt>
      <trkpt lat="46.16081" lon="4.45745">
        <ele>673</ele>
        <time>2016-07-03T09:53:26Z</time>
      </trkpt>
      <trkpt lat="46.16082" lon="4.45747">
        <ele>674</ele>
        <time>2016-07-03T09:55:26Z</time>
      </trkpt>
      <trkpt lat="46.16084" lon="4.45748">
        <ele>675</ele>
        <time>2016-07-03T09:57:26Z</time>
      </trkpt>
      <trkpt lat="46.16085" lon="4.45748">
        <ele>675</ele>
        <time>2016-07-03T09:59:26Z</time>
      </trkpt>
      <trkpt lat="46.16087" lon="4.45748">
        <ele>676</ele>
        <time>2016-07-03T10:01:26Z</time>
      </trkpt>
      <trkpt lat="46.16089" lon="4.45748">
        <ele>677</ele>
        <time>2016-07-03T10:03:26Z</time>
      </trkpt>
      <trkpt lat="46.16091" lon="4.45748">
        <ele>677</ele>
        <time>2016-07-03T10:05:26Z</time>
      </trkpt>
      <trkpt lat="46.16093" lon="4.45748">
        <ele>678</ele>
        <time>2016-07-03T10:07:26Z</time>
      </trkpt>
      <trkpt lat="46.16093" lon="4.45748">
        <ele>678</ele>
        <time>2016-07-03T10:09:26Z</time>
      </trkpt>
      <trkpt lat="46.16098" lon="4.45746">
        <ele>680</ele>
        <time>2016-07-03T10:11:26Z</time>
      </trkpt>
      <trkpt lat="46.16095" lon="4.45737">
        <ele>680</ele>
        <time>2016-07-03T10:13:26Z</time>
      </trkpt>
      <trkpt lat="46.16087" lon="4.45716">
        <ele>683</ele>
        <time>2016-07-03T10:15:26Z</time>
      </trkpt>
      <trkpt lat="46.16078" lon="4.45693">
        <ele>674</ele>
        <time>2016-07-03T10:17:26Z</time>
      </trkpt>
      <trkpt lat="46.16069" lon="4.45668">
        <ele>676</ele>
        <time>2016-07-03T10:19:26Z</time>
      </trkpt>
      <trkpt lat="46.1605" lon="4.45617">
        <ele>676</ele>
        <time>2016-07-03T10:21:26Z</time>
      </trkpt>
      <trkpt lat="46.16043" lon="4.45608">
        <ele>676</ele>
        <time>2016-07-03T10:23:26Z</time>
      </trkpt>
      <trkpt lat="46.16033" lon="4.45579">
        <ele>677</ele>
        <time>2016-07-03T10:25:26Z</time>
      </trkpt>
      <trkpt lat="46.16026" lon="4.4556">
        <ele>677</ele>
        <time>2016-07-03T10:27:26Z</time>
      </trkpt>
      <trkpt lat="46.16022" lon="4.45546">
        <ele>677</ele>
        <time>2016-07-03T10:29:26Z</time>
      </trkpt>
      <trkpt lat="46.16019" lon="4.45532">
        <ele>676</ele>
        <time>2016-07-03T10:31:26Z</time>
      </trkpt>
      <trkpt lat="46.16017" lon="4.4552">
        <ele>676</ele>
        <time>2016-07-03T10:33:26Z</time>
      </trkpt>
      <trkpt lat="46.16017" lon="4.45495">
        <ele>675</ele>
        <time>2016-07-03T10:35:26Z</time>
      </trkpt>
      <trkpt lat="46.16017" lon="4.45483">
        <ele>675</ele>
        <time>2016-07-03T10:37:26Z</time>
      </trkpt>
      <trkpt lat="46.16019" lon="4.4547">
        <ele>676</ele>
        <time>2016-07-03T10:39:26Z</time>
      </trkpt>
      <trkpt lat="46.16025" lon="4.45441">
        <ele>676</ele>
        <time>2016-07-03T10:41:26Z</time>
      </trkpt>
      <trkpt lat="46.16028" lon="4.4543">
        <ele>676</ele>
        <time>2016-07-03T10:43:26Z</time>
      </trkpt>
      <trkpt lat="46.16034" lon="4.45408">
        <ele>674</ele>
        <time>2016-07-03T10:45:26Z</time>
      </trkpt>
      <trkpt lat="46.16044" lon="4.4538">
        <ele>675</ele>
        <time>2016-07-03T10:47:26Z</time>
      </trkpt>
      <trkpt lat="46.16067" lon="4.4532">
        <ele>675</ele>
        <time>2016-07-03T10:49:26Z</time>
      </trkpt>
      <trkpt lat="46.16084" lon="4.45282">
        <ele>684</ele>
        <time>2016-07-03T10:51:26Z</time>
      </trkpt>
      <trkpt lat="46.16142" lon="4.45168">
        <ele>685</ele>
        <time>2016-07-03T10:53:26Z</time>
      </trkpt>
      <trkpt lat="46.1617" lon="4.45116">
        <ele>693</ele>
        <time>2016-07-03T10:55:26Z</time>
      </trkpt>
      <trkpt lat="46.16184" lon="4.45092">
        <ele>690</ele>
        <time>2016-07-03T10:57:26Z</time>
      </trkpt>
      <trkpt lat="46.16203" lon="4.45069">
        <ele>688</ele>
        <time>2016-07-03T10:59:26Z</time>
      </trkpt>
      <trkpt lat="46.16214" lon="4.45057">
        <ele>689</ele>
        <time>2016-07-03T11:01:26Z</time>
      </trkpt>
      <trkpt lat="46.16231" lon="4.4504">
        <ele>689</ele>
        <time>2016-07-03T11:03:26Z</time>
      </trkpt>
      <trkpt lat="46.16263" lon="4.45013">
        <ele>695</ele>
        <time>2016-07-03T11:05:26Z</time>
      </trkpt>
      <trkpt lat="46.16301" lon="4.44989">
        <ele>689</ele>
        <time>2016-07-03T11:07:26Z</time>
      </trkpt>
      <trkpt lat="46.16342" lon="4.44962">
        <ele>695</ele>
        <time>2016-07-03T11:09:26Z</time>
      </trkpt>
      <trkpt lat="46.1638" lon="4.44937">
        <ele>695</ele>
        <time>2016-07-03T11:11:26Z</time>
      </trkpt>
      <trkpt lat="46.16404" lon="4.44919">
        <ele>697</ele>
        <time>2016-07-03T11:13:26Z</time>
      </trkpt>
      <trkpt lat="46.16413" lon="4.44912">
        <ele>696</ele>
        <time>2016-07-03T11:15:26Z</time>
      </trkpt>
      <trkpt lat="46.16423" lon="4.44899">
        <ele>699</ele>
        <time>2016-07-03T11:17:26Z</time>
      </trkpt>
      <trkpt lat="46.16442" lon="4.44866">
        <ele>699</ele>
        <time>2016-07-03T11:19:26Z</time>
      </trkpt>
      <trkpt lat="46.16449" lon="4.44853">
        <ele>699</ele>
        <time>2016-07-03T11:21:26Z</time>
      </trkpt>
      <trkpt lat="46.16457" lon="4.44834">
        <ele>699</ele>
        <time>2016-07-03T11:23:26Z</time>
      </trkpt>
      <trkpt lat="46.16465" lon="4.44814">
        <ele>694</ele>
        <time>2016-07-03T11:25:26Z</time>
      </trkpt>
      <trkpt lat="46.16472" lon="4.44791">
        <ele>694</ele>
        <time>2016-07-03T11:27:26Z</time>
      </trkpt>
      <trkpt lat="46.16479" lon="4.44769">
        <ele>694</ele>
        <time>2016-07-03T11:29:26Z</time>
      </trkpt>
      <trkpt lat="46.16487" lon="4.44726">
        <ele>692</ele>
        <time>2016-07-03T11:31:26Z</time>
      </trkpt>
      <trkpt lat="46.16489" lon="4.44705">
        <ele>691</ele>
        <time>2016-07-03T11:33:26Z</time>
      </trkpt>
      <trkpt lat="46.1649" lon="4.4469">
        <ele>693</ele>
        <time>2016-07-03T11:35:26Z</time>
      </trkpt>
      <trkpt lat="46.1649" lon="4.44678">
        <ele>694</ele>
        <time>2016-07-03T11:37:26Z</time>
      </trkpt>
      <trkpt lat="46.1649" lon="4.44674">
        <ele>695</ele>
        <time>2016-07-03T11:39:26Z</time>
      </trkpt>
      <trkpt lat="46.16488" lon="4.44636">
        <ele>694</ele>
        <time>2016-07-03T11:41:26Z</time>
      </trkpt>
      <trkpt lat="46.16488" lon="4.44616">
        <ele>695</ele>
        <time>2016-07-03T11:43:26Z</time>
      </trkpt>
      <trkpt lat="46.16491" lon="4.4459">
        <ele>699</ele>
        <time>2016-07-03T11:45:26Z</time>
      </trkpt>
      <trkpt lat="46.16493" lon="4.44578">
        <ele>700</ele>
        <time>2016-07-03T11:47:26Z</time>
      </trkpt>
      <trkpt lat="46.16496" lon="4.44565">
        <ele>698</ele>
        <time>2016-07-03T11:49:26Z</time>
      </trkpt>
      <trkpt lat="46.16502" lon="4.44544">
        <ele>705</ele>
        <time>2016-07-03T11:51:26Z</time>
      </trkpt>
      <trkpt lat="46.16509" lon="4.44524">
        <ele>703</ele>
        <time>2016-07-03T11:53:26Z</time>
      </trkpt>
      <trkpt lat="46.16517" lon="4.44506">
        <ele>702</ele>
        <time>2016-07-03T11:55:26Z</time>
      </trkpt>
      <trkpt lat="46.16524" lon="4.44495">
        <ele>700</ele>
        <time>2016-07-03T11:57:26Z</time>
      </trkpt>
      <trkpt lat="46.16527" lon="4.44491">
        <ele>700</ele>
        <time>2016-07-03T11:59:26Z</time>
      </trkpt>
      <trkpt lat="46.16549" lon="4.44466">
        <ele>701</ele>
        <time>2016-07-03T12:01:26Z</time>
      </trkpt>
      <trkpt lat="46.16567" lon="4.44448">
        <ele>701</ele>
        <time>2016-07-03T12:03:26Z</time>
      </trkpt>
      <trkpt lat="46.1658" lon="4.44435">
        <ele>701</ele>
        <time>2016-07-03T12:05:26Z</time>
      </trkpt>
      <trkpt lat="46.16607" lon="4.44409">
        <ele>705</ele>
        <time>2016-07-03T12:07:26Z</time>
      </trkpt>
      <trkpt lat="46.16647" lon="4.44368">
        <ele>707</ele>
        <time>2016-07-03T12:09:26Z</time>
      </trkpt>
      <trkpt lat="46.16664" lon="4.44346">
        <ele>707</ele>
        <time>2016-07-03T12:11:26Z</time>
      </trkpt>
      <trkpt lat="46.16674" lon="4.4433">
        <ele>709</ele>
        <time>2016-07-03T12:13:26Z</time>
      </trkpt>
      <trkpt lat="46.16679" lon="4.4432">
        <ele>711</ele>
        <time>2016-07-03T12:15:26Z</time>
      </trkpt>
      <trkpt lat="46.16683" lon="4.44312">
        <ele>712</ele>
        <time>2016-07-03T12:17:26Z</time>
      </trkpt>
      <trkpt lat="46.16687" lon="4.44302">
        <ele>712</ele>
        <time>2016-07-03T12:19:26Z</time>
      </trkpt>
      <trkpt lat="46.16691" lon="4.4429">
        <ele>712</ele>
        <time>2016-07-03T12:21:26Z</time>
      </trkpt>
      <trkpt lat="46.16698" lon="4.44266">
        <ele>712</ele>
        <time>2016-07-03T12:23:26Z</time>
      </trkpt>
      <trkpt lat="46.16705" lon="4.44238">
        <ele>710</ele>
        <time>2016-07-03T12:25:26Z</time>
      </trkpt>
      <trkpt lat="46.16706" lon="4.4423">
        <ele>710</ele>
        <time>2016-07-03T12:27:26Z</time>
      </trkpt>
      <trkpt lat="46.16719" lon="4.44178">
        <ele>711</ele>
        <time>2016-07-03T12:29:26Z</time>
      </trkpt>
      <trkpt lat="46.16719" lon="4.44178">
        <ele>711</ele>
        <time>2016-07-03T12:31:26Z</time>
      </trkpt>
      <trkpt lat="46.1672" lon="4.44177">
        <ele>711</ele>
        <time>2016-07-03T12:33:26Z</time>
      </trkpt>
      <trkpt lat="46.16722" lon="4.44176">
        <ele>711</ele>
        <time>2016-07-03T12:35:26Z</time>
      </trkpt>
      <trkpt lat="46.16723" lon="4.44176">
        <ele>711</ele>
        <time>2016-07-03T12:37:26Z</time>
      </trkpt>
      <trkpt lat="46.16724" lon="4.44175">
        <ele>711</ele>
        <time>2016-07-03T12:39:26Z</time>
      </trkpt>
      <trkpt lat="46.16725" lon="4.44174">
        <ele>711</ele>
        <time>2016-07-03T12:41:26Z</time>
      </trkpt>
      <trkpt lat="46.16726" lon="4.44173">
        <ele>711</ele>
        <time>2016-07-03T12:43:26Z</time>
      </trkpt>
      <trkpt lat="46.16727" lon="4.44172">
        <ele>711</ele>
        <time>2016-07-03T12:45:26Z</time>
      </trkpt>
      <trkpt lat="46.16728" lon="4.4417">
        <ele>712</ele>
        <time>2016-07-03T12:47:26Z</time>
      </trkpt>
      <trkpt lat="46.16729" lon="4.44169">
        <ele>712</ele>
        <time>2016-07-03T12:49:26Z</time>
      </trkpt>
      <trkpt lat="46.16729" lon="4.44167">
        <ele>712</ele>
        <time>2016-07-03T12:51:26Z</time>
      </trkpt>
      <trkpt lat="46.1673" lon="4.44166">
        <ele>711</ele>
        <time>2016-07-03T12:53:26Z</time>
      </trkpt>
      <trkpt lat="46.16731" lon="4.44164">
        <ele>711</ele>
        <time>2016-07-03T12:55:26Z</time>
      </trkpt>
      <trkpt lat="46.16731" lon="4.44162">
        <ele>711</ele>
        <time>2016-07-03T12:57:26Z</time>
      </trkpt>
      <trkpt lat="46.16732" lon="4.44158">
        <ele>711</ele>
        <time>2016-07-03T12:59:26Z</time>
      </trkpt>
      <trkpt lat="46.16732" lon="4.44156">
        <ele>711</ele>
        <time>2016-07-03T13:01:26Z</time>
      </trkpt>
      <trkpt lat="46.16732" lon="4.44155">
        <ele>711</ele>
        <time>2016-07-03T13:03:26Z</time>
      </trkpt>
      <trkpt lat="46.16732" lon="4.44153">
        <ele>711</ele>
        <time>2016-07-03T13:05:26Z</time>
      </trkpt>
      <trkpt lat="46.16732" lon="4.44151">
        <ele>711</ele>
        <time>2016-07-03T13:07:26Z</time>
      </trkpt>
      <trkpt lat="46.16732" lon="4.44149">
        <ele>711</ele>
        <time>2016-07-03T13:09:26Z</time>
      </trkpt>
      <trkpt lat="46.16732" lon="4.44147">
        <ele>711</ele>
        <time>2016-07-03T13:11:26Z</time>
      </trkpt>
      <trkpt lat="46.16731" lon="4.44146">
        <ele>711</ele>
        <time>2016-07-03T13:13:26Z</time>
      </trkpt>
      <trkpt lat="46.16731" lon="4.44144">
        <ele>711</ele>
        <time>2016-07-03T13:15:26Z</time>
      </trkpt>
      <trkpt lat="46.1673" lon="4.44142">
        <ele>711</ele>
        <time>2016-07-03T13:17:26Z</time>
      </trkpt>
      <trkpt lat="46.1673" lon="4.44141">
        <ele>711</ele>
        <time>2016-07-03T13:19:26Z</time>
      </trkpt>
      <trkpt lat="46.16729" lon="4.4414">
        <ele>710</ele>
        <time>2016-07-03T13:21:26Z</time>
      </trkpt>
      <trkpt lat="46.16729" lon="4.44139">
        <ele>710</ele>
        <time>2016-07-03T13:23:26Z</time>
      </trkpt>
      <trkpt lat="46.16728" lon="4.44138">
        <ele>710</ele>
        <time>2016-07-03T13:25:26Z</time>
      </trkpt>
      <trkpt lat="46.16728" lon="4.44137">
        <ele>710</ele>
        <time>2016-07-03T13:27:26Z</time>
      </trkpt>
      <trkpt lat="46.16727" lon="4.44136">
        <ele>710</ele>
        <time>2016-07-03T13:29:26Z</time>
      </trkpt>
      <trkpt lat="46.16726" lon="4.44135">
        <ele>710</ele>
        <time>2016-07-03T13:31:26Z</time>
      </trkpt>
      <trkpt lat="46.16726" lon="4.44134">
        <ele>710</ele>
        <time>2016-07-03T13:33:26Z</time>
      </trkpt>
      <trkpt lat="46.16725" lon="4.44134">
        <ele>710</ele>
        <time>2016-07-03T13:35:26Z</time>
      </trkpt>
      <trkpt lat="46.16724" lon="4.4412">
        <ele>710</ele>
        <time>2016-07-03T13:37:26Z</time>
      </trkpt>
      <trkpt lat="46.16723" lon="4.441">
        <ele>710</ele>
        <time>2016-07-03T13:39:26Z</time>
      </trkpt>
      <trkpt lat="46.16726" lon="4.44066">
        <ele>712</ele>
        <time>2016-07-03T13:41:26Z</time>
      </trkpt>
      <trkpt lat="46.16728" lon="4.44057">
        <ele>712</ele>
        <time>2016-07-03T13:43:26Z</time>
      </trkpt>
      <trkpt lat="46.16733" lon="4.44007">
        <ele>713</ele>
        <time>2016-07-03T13:45:26Z</time>
      </trkpt>
      <trkpt lat="46.16737" lon="4.43979">
        <ele>714</ele>
        <time>2016-07-03T13:47:26Z</time>
      </trkpt>
      <trkpt lat="46.16741" lon="4.43953">
        <ele>715</ele>
        <time>2016-07-03T13:49:26Z</time>
      </trkpt>
      <trkpt lat="46.16746" lon="4.4393">
        <ele>715</ele>
        <time>2016-07-03T13:51:26Z</time>
      </trkpt>
      <trkpt lat="46.16753" lon="4.43902">
        <ele>716</ele>
        <time>2016-07-03T13:53:26Z</time>
      </trkpt>
      <trkpt lat="46.16759" lon="4.43879">
        <ele>717</ele>
        <time>2016-07-03T13:55:26Z</time>
      </trkpt>
      <trkpt lat="46.16763" lon="4.43868">
        <ele>718</ele>
        <time>2016-07-03T13:57:26Z</time>
      </trkpt>
      <trkpt lat="46.16763" lon="4.43868">
        <ele>718</ele>
        <time>2016-07-03T13:59:26Z</time>
      </trkpt>
      <trkpt lat="46.16766" lon="4.4386">
        <ele>718</ele>
        <time>2016-07-03T14:01:26Z</time>
      </trkpt>
      <trkpt lat="46.16773" lon="4.4384">
        <ele>719</ele>
        <time>2016-07-03T14:03:26Z</time>
      </trkpt>
      <trkpt lat="46.16783" lon="4.43812">
        <ele>722</ele>
        <time>2016-07-03T14:05:26Z</time>
      </trkpt>
      <trkpt lat="46.16797" lon="4.43772">
        <ele>722</ele>
        <time>2016-07-03T14:07:26Z</time>
      </trkpt>
      <trkpt lat="46.16861" lon="4.43601">
        <ele>725</ele>
        <time>2016-07-03T14:09:26Z</time>
      </trkpt>
      <trkpt lat="46.16906" lon="4.43476">
        <ele>730</ele>
        <time>2016-07-03T14:11:26Z</time>
      </trkpt>
      <trkpt lat="46.16932" lon="4.43408">
        <ele>727</ele>
        <time>2016-07-03T14:13:26Z</time>
      </trkpt>
      <trkpt lat="46.16935" lon="4.43395">
        <ele>726</ele>
        <time>2016-07-03T14:15:26Z</time>
      </trkpt>
      <trkpt lat="46.16941" lon="4.4337">
        <ele>726</ele>
        <time>2016-07-03T14:17:26Z</time>
      </trkpt>
      <trkpt lat="46.16945" lon="4.43345">
        <ele>726</ele>
        <time>2016-07-03T14:19:26Z</time>
      </trkpt>
      <trkpt lat="46.16951" lon="4.43296">
        <ele>725</ele>
        <time>2016-07-03T14:21:26Z</time>
      </trkpt>
      <trkpt lat="46.16952" lon="4.43286">
        <ele>724</ele>
        <time>2016-07-03T14:23:26Z</time>
      </trkpt>
      <trkpt lat="46.1696" lon="4.43205">
        <ele>721</ele>
        <time>2016-07-03T14:25:26Z</time>
      </trkpt>
      <trkpt lat="46.16969" lon="4.43118">
        <ele>718</ele>
        <time>2016-07-03T14:27:26Z</time>
      </trkpt>
      <trkpt lat="46.16972" lon="4.4309">
        <ele>719</ele>
        <time>2016-07-03T14:29:26Z</time>
      </trkpt>
      <trkpt lat="46.16977" lon="4.43064">
        <ele>715</ele>
        <time>2016-07-03T14:31:26Z</time>
      </trkpt>
      <trkpt lat="46.1698" lon="4.43055">
        <ele>714</ele>
        <time>2016-07-03T14:33:26Z</time>
      </trkpt>
      <trkpt lat="46.16989" lon="4.43026">
        <ele>713</ele>
        <time>2016-07-03T14:35:26Z</time>
      </trkpt>
      <trkpt lat="46.16993" lon="4.43014">
        <ele>714</ele>
        <time>2016-07-03T14:37:26Z</time>
      </trkpt>
      <trkpt lat="46.17002" lon="4.42986">
        <ele>716</ele>
        <time>2016-07-03T14:39:26Z</time>
      </trkpt>
      <trkpt lat="46.17019" lon="4.42943">
        <ele>714</ele>
        <time>2016-07-03T14:41:26Z</time>
      </trkpt>
      <trkpt lat="46.1704" lon="4.42892">
        <ele>707</ele>
        <time>2016-07-03T14:43:26Z</time>
      </trkpt>
      <trkpt lat="46.17066" lon="4.42828">
        <ele>700</ele>
        <time>2016-07-03T14:45:26Z</time>
      </trkpt>
      <trkpt lat="46.1707" lon="4.42813">
        <ele>699</ele>
        <time>2016-07-03T14:47:26Z</time>
      </trkpt>
      <trkpt lat="46.17082" lon="4.42775">
        <ele>697</ele>
        <time>2016-07-03T14:49:26Z</time>
      </trkpt>
      <trkpt lat="46.17094" lon="4.4274">
        <ele>699</ele>
        <time>2016-07-03T14:51:26Z</time>
      </trkpt>
      <trkpt lat="46.17103" lon="4.42716">
        <ele>699</ele>
        <time>2016-07-03T14:53:26Z</time>
      </trkpt>
      <trkpt lat="46.1711" lon="4.42697">
        <ele>699</ele>
        <time>2016-07-03T14:55:26Z</time>
      </trkpt>
      <trkpt lat="46.1712" lon="4.42679">
        <ele>699</ele>
        <time>2016-07-03T14:57:26Z</time>
      </trkpt>
      <trkpt lat="46.17132" lon="4.42662">
        <ele>690</ele>
        <time>2016-07-03T14:59:26Z</time>
      </trkpt>
      <trkpt lat="46.17142" lon="4.4265">
        <ele>690</ele>
        <time>2016-07-03T15:01:26Z</time>
      </trkpt>
      <trkpt lat="46.17148" lon="4.42645">
        <ele>690</ele>
        <time>2016-07-03T15:03:26Z</time>
      </trkpt>
      <trkpt lat="46.17157" lon="4.42636">
        <ele>689</ele>
        <time>2016-07-03T15:05:26Z</time>
      </trkpt>
      <trkpt lat="46.17182" lon="4.4262">
        <ele>687</ele>
        <time>2016-07-03T15:07:26Z</time>
      </trkpt>
      <trkpt lat="46.17199" lon="4.42616">
        <ele>686</ele>
        <time>2016-07-03T15:09:26Z</time>
      </trkpt>
      <trkpt lat="46.17213" lon="4.42613">
        <ele>686</ele>
        <time>2016-07-03T15:11:26Z</time>
      </trkpt>
      <trkpt lat="46.17223" lon="4.42613">
        <ele>686</ele>
        <time>2016-07-03T15:13:26Z</time>
      </trkpt>
      <trkpt lat="46.17243" lon="4.42617">
        <ele>686</ele>
        <time>2016-07-03T15:15:26Z</time>
      </trkpt>
      <trkpt lat="46.17327" lon="4.42645">
        <ele>678</ele>
        <time>2016-07-03T15:17:26Z</time>
      </trkpt>
      <trkpt lat="46.17357" lon="4.42652">
        <ele>671</ele>
        <time>2016-07-03T15:19:26Z</time>
      </trkpt>
      <trkpt lat="46.17384" lon="4.4266">
        <ele>669</ele>
        <time>2016-07-03T15:21:26Z</time>
      </trkpt>
      <trkpt lat="46.17399" lon="4.42664">
        <ele>668</ele>
        <time>2016-07-03T15:23:26Z</time>
      </trkpt>
      <trkpt lat="46.17408" lon="4.42664">
        <ele>668</ele>
        <time>2016-07-03T15:25:26Z</time>
      </trkpt>
      <trkpt lat="46.17415" lon="4.42662">
        <ele>667</ele>
        <time>2016-07-03T15:27:26Z</time>
      </trkpt>
      <trkpt lat="46.17422" lon="4.42659">
        <ele>667</ele>
        <time>2016-07-03T15:29:26Z</time>
      </trkpt>
      <trkpt lat="46.17428" lon="4.42654">
        <ele>666</ele>
        <time>2016-07-03T15:31:26Z</time>
      </trkpt>
      <trkpt lat="46.1743" lon="4.42653">
        <ele>666</ele>
        <time>2016-07-03T15:33:26Z</time>
      </trkpt>
      <trkpt lat="46.17436" lon="4.42647">
        <ele>666</ele>
        <time>2016-07-03T15:35:26Z</time>
      </trkpt>
      <trkpt lat="46.17439" lon="4.42643">
        <ele>666</ele>
        <time>2016-07-03T15:37:26Z</time>
      </trkpt>
      <trkpt lat="46.17447" lon="4.42634">
        <ele>666</ele>
        <time>2016-07-03T15:39:26Z</time>
      </trkpt>
      <trkpt lat="46.17451" lon="4.42627">
        <ele>666</ele>
        <time>2016-07-03T15:41:26Z</time>
      </trkpt>
      <trkpt lat="46.17479" lon="4.42576">
        <ele>663</ele>
        <time>2016-07-03T15:43:26Z</time>
      </trkpt>
      <trkpt lat="46.17495" lon="4.42542">
        <ele>661</ele>
        <time>2016-07-03T15:45:26Z</time>
      </trkpt>
      <trkpt lat="46.17514" lon="4.42504">
        <ele>658</ele>
        <time>2016-07-03T15:47:26Z</time>
      </trkpt>
      <trkpt lat="46.1752" lon="4.42489">
        <ele>657</ele>
        <time>2016-07-03T15:49:26Z</time>
      </trkpt>
      <trkpt lat="46.17541" lon="4.42443">
        <ele>657</ele>
        <time>2016-07-03T15:51:26Z</time>
      </trkpt>
      <trkpt lat="46.17544" lon="4.42437">
        <ele>657</ele>
        <time>2016-07-03T15:53:26Z</time>
      </trkpt>
      <trkpt lat="46.17575" lon="4.42369">
        <ele>656</ele>
        <time>2016-07-03T15:55:26Z</time>
      </trkpt>
      <trkpt lat="46.17593" lon="4.42335">
        <ele>658</ele>
        <time>2016-07-03T15:57:26Z</time>
      </trkpt>
      <trkpt lat="46.17596" lon="4.4233">
        <ele>656</ele>
        <time>2016-07-03T15:59:26Z</time>
      </trkpt>
      <trkpt lat="46.17608" lon="4.42309">
        <ele>655</ele>
        <time>2016-07-03T16:01:26Z</time>
      </trkpt>
      <trkpt lat="46.17613" lon="4.42303">
        <ele>654</ele>
        <time>2016-07-03T16:03:26Z</time>
      </trkpt>
      <trkpt lat="46.17626" lon="4.42288">
        <ele>654</ele>
        <time>2016-07-03T16:05:26Z</time>
      </trkpt>
      <trkpt lat="46.17692" lon="4.42214">
        <ele>652</ele>
        <time>2016-07-03T16:07:26Z</time>
      </trkpt>
      <trkpt lat="46.17704" lon="4.42201">
        <ele>652</ele>
        <time>2016-07-03T16:09:26Z</time>
      </trkpt>
      <trkpt lat="46.17806" lon="4.42083">
        <ele>639</ele>
        <time>2016-07-03T16:11:26Z</time>
      </trkpt>
      <trkpt lat="46.17826" lon="4.42058">
        <ele>639</ele>
        <time>2016-07-03T16:13:26Z</time>
      </trkpt>
      <trkpt lat="46.17838" lon="4.42041">
        <ele>645</ele>
        <time>2016-07-03T16:15:26Z</time>
      </trkpt>
      <trkpt lat="46.17843" lon="4.42032">
        <ele>644</ele>
        <time>2016-07-03T16:17:26Z</time>
      </trkpt>
      <trkpt lat="46.17854" lon="4.42008">
        <ele>643</ele>
        <time>2016-07-03T16:19:26Z</time>
      </trkpt>
      <trkpt lat="46.17861" lon="4.41992">
        <ele>638</ele>
        <time>2016-07-03T16:21:26Z</time>
      </trkpt>
      <trkpt lat="46.17869" lon="4.41968">
        <ele>638</ele>
        <time>2016-07-03T16:23:26Z</time>
      </trkpt>
      <trkpt lat="46.17872" lon="4.41953">
        <ele>638</ele>
        <time>2016-07-03T16:25:26Z</time>
      </trkpt>
      <trkpt lat="46.17876" lon="4.41929">
        <ele>637</ele>
        <time>2016-07-03T16:27:26Z</time>
      </trkpt>
      <trkpt lat="46.17885" lon="4.41882">
        <ele>631</ele>
        <time>2016-07-03T16:29:26Z</time>
      </trkpt>
      <trkpt lat="46.17889" lon="4.41849">
        <ele>631</ele>
        <time>2016-07-03T16:31:26Z</time>
      </trkpt>
      <trkpt lat="46.1789" lon="4.41813">
        <ele>625</ele>
        <time>2016-07-03T16:33:26Z</time>
      </trkpt>
      <trkpt lat="46.17892" lon="4.41782">
        <ele>624</ele>
        <time>2016-07-03T16:35:26Z</time>
      </trkpt>
      <trkpt lat="46.17893" lon="4.41768">
        <ele>624</ele>
        <time>2016-07-03T16:37:26Z</time>
      </trkpt>
      <trkpt lat="46.17896" lon="4.4173">
        <ele>620</ele>
        <time>2016-07-03T16:39:26Z</time>
      </trkpt>
      <trkpt lat="46.17908" lon="4.41635">
        <ele>613</ele>
        <time>2016-07-03T16:41:26Z</time>
      </trkpt>
      <trkpt lat="46.17914" lon="4.41594">
        <ele>612</ele>
        <time>2016-07-03T16:43:26Z</time>
      </trkpt>
      <trkpt lat="46.17927" lon="4.41528">
        <ele>610</ele>
        <time>2016-07-03T16:45:26Z</time>
      </trkpt>
      <trkpt lat="46.1793" lon="4.41505">
        <ele>609</ele>
        <time>2016-07-03T16:47:26Z</time>
      </trkpt>
      <trkpt lat="46.17932" lon="4.41483">
        <ele>607</ele>
        <time>2016-07-03T16:49:26Z</time>
      </trkpt>
      <trkpt lat="46.17934" lon="4.41461">
        <ele>607</ele>
        <time>2016-07-03T16:51:26Z</time>
      </trkpt>
      <trkpt lat="46.17935" lon="4.41429">
        <ele>606</ele>
        <time>2016-07-03T16:53:26Z</time>
      </trkpt>
      <trkpt lat="46.17935" lon="4.41394">
        <ele>605</ele>
        <time>2016-07-03T16:55:26Z</time>
      </trkpt>
      <trkpt lat="46.17934" lon="4.41354">
        <ele>604</ele>
        <time>2016-07-03T16:57:26Z</time>
      </trkpt>
      <trkpt lat="46.1793" lon="4.41261">
        <ele>600</ele>
        <time>2016-07-03T16:59:26Z</time>
      </trkpt>
      <trkpt lat="46.1793" lon="4.41261">
        <ele>600</ele>
        <time>2016-07-03T17:01:26Z</time>
      </trkpt>
      <trkpt lat="46.17928" lon="4.4123">
        <ele>599</ele>
        <time>2016-07-03T17:03:26Z</time>
      </trkpt>
      <trkpt lat="46.1792" lon="4.41189">
        <ele>598</ele>
        <time>2016-07-03T17:05:26Z</time>
      </trkpt>
      <trkpt lat="46.17914" lon="4.41158">
        <ele>593</ele>
        <time>2016-07-03T17:07:26Z</time>
      </trkpt>
      <trkpt lat="46.17912" lon="4.41132">
        <ele>590</ele>
        <time>2016-07-03T17:09:26Z</time>
      </trkpt>
      <trkpt lat="46.17913" lon="4.4111">
        <ele>589</ele>
        <time>2016-07-03T17:11:26Z</time>
      </trkpt>
      <trkpt lat="46.17915" lon="4.41097">
        <ele>590</ele>
        <time>2016-07-03T17:13:26Z</time>
      </trkpt>
      <trkpt lat="46.17919" lon="4.41075">
        <ele>593</ele>
        <time>2016-07-03T17:15:26Z</time>
      </trkpt>
      <trkpt lat="46.17939" lon="4.41022">
        <ele>592</ele>
        <time>2016-07-03T17:17:26Z</time>
      </trkpt>
      <trkpt lat="46.17947" lon="4.41003">
        <ele>592</ele>
        <time>2016-07-03T17:19:26Z</time>
      </trkpt>
      <trkpt lat="46.17951" lon="4.40984">
        <ele>593</ele>
        <time>2016-07-03T17:21:26Z</time>
      </trkpt>
      <trkpt lat="46.17953" lon="4.4097">
        <ele>594</ele>
        <time>2016-07-03T17:23:26Z</time>
      </trkpt>
      <trkpt lat="46.17953" lon="4.40953">
        <ele>594</ele>
        <time>2016-07-03T17:25:26Z</time>
      </trkpt>
      <trkpt lat="46.1795" lon="4.40939">
        <ele>594</ele>
        <time>2016-07-03T17:27:26Z</time>
      </trkpt>
      <trkpt lat="46.17943" lon="4.40921">
        <ele>592</ele>
        <time>2016-07-03T17:29:26Z</time>
      </trkpt>
      <trkpt lat="46.17925" lon="4.40887">
        <ele>594</ele>
        <time>2016-07-03T17:31:26Z</time>
      </trkpt>
      <trkpt lat="46.17917" lon="4.40865">
        <ele>595</ele>
        <time>2016-07-03T17:33:26Z</time>
      </trkpt>
      <trkpt lat="46.17909" lon="4.40833">
        <ele>587</ele>
        <time>2016-07-03T17:35:26Z</time>
      </trkpt>
      <trkpt lat="46.17907" lon="4.40816">
        <ele>586</ele>
        <time>2016-07-03T17:37:26Z</time>
      </trkpt>
      <trkpt lat="46.17904" lon="4.40798">
        <ele>586</ele>
        <time>2016-07-03T17:39:26Z</time>
      </trkpt>
      <trkpt lat="46.179" lon="4.40779">
        <ele>587</ele>
        <time>2016-07-03T17:41:26Z</time>
      </trkpt>
      <trkpt lat="46.17895" lon="4.40764">
        <ele>588</ele>
        <time>2016-07-03T17:43:26Z</time>
      </trkpt>
      <trkpt lat="46.1789" lon="4.40753">
        <ele>588</ele>
        <time>2016-07-03T17:45:26Z</time>
      </trkpt>
      <trkpt lat="46.17882" lon="4.40741">
        <ele>591</ele>
        <time>2016-07-03T17:47:26Z</time>
      </trkpt>
      <trkpt lat="46.17873" lon="4.40729">
        <ele>590</ele>
        <time>2016-07-03T17:49:26Z</time>
      </trkpt>
      <trkpt lat="46.17849" lon="4.40705">
        <ele>588</ele>
        <time>2016-07-03T17:51:26Z</time>
      </trkpt>
      <trkpt lat="46.17839" lon="4.40693">
        <ele>588</ele>
        <time>2016-07-03T17:53:26Z</time>
      </trkpt>
      <trkpt lat="46.17832" lon="4.40682">
        <ele>581</ele>
        <time>2016-07-03T17:55:26Z</time>
      </trkpt>
      <trkpt lat="46.17826" lon="4.40671">
        <ele>582</ele>
        <time>2016-07-03T17:57:26Z</time>
      </trkpt>
      <trkpt lat="46.17815" lon="4.4065">
        <ele>581</ele>
        <time>2016-07-03T17:59:26Z</time>
      </trkpt>
      <trkpt lat="46.17796" lon="4.40605">
        <ele>580</ele>
        <time>2016-07-03T18:01:26Z</time>
      </trkpt>
      <trkpt lat="46.17777" lon="4.40563">
        <ele>578</ele>
        <time>2016-07-03T18:03:26Z</time>
      </trkpt>
      <trkpt lat="46.17764" lon="4.40532">
        <ele>578</ele>
        <time>2016-07-03T18:05:26Z</time>
      </trkpt>
      <trkpt lat="46.17739" lon="4.40483">
        <ele>572</ele>
        <time>2016-07-03T18:07:26Z</time>
      </trkpt>
      <trkpt lat="46.17723" lon="4.40458">
        <ele>572</ele>
        <time>2016-07-03T18:09:26Z</time>
      </trkpt>
      <trkpt lat="46.17712" lon="4.40448">
        <ele>571</ele>
        <time>2016-07-03T18:11:26Z</time>
      </trkpt>
      <trkpt lat="46.17701" lon="4.40441">
        <ele>571</ele>
        <time>2016-07-03T18:13:26Z</time>
      </trkpt>
      <trkpt lat="46.17689" lon="4.40436">
        <ele>570</ele>
        <time>2016-07-03T18:15:26Z</time>
      </trkpt>
      <trkpt lat="46.17675" lon="4.40434">
        <ele>570</ele>
        <time>2016-07-03T18:17:26Z</time>
      </trkpt>
      <trkpt lat="46.1766" lon="4.40433">
        <ele>569</ele>
        <time>2016-07-03T18:19:26Z</time>
      </trkpt>
      <trkpt lat="46.17645" lon="4.40436">
        <ele>569</ele>
        <time>2016-07-03T18:21:26Z</time>
      </trkpt>
      <trkpt lat="46.1763" lon="4.4044">
        <ele>570</ele>
        <time>2016-07-03T18:23:26Z</time>
      </trkpt>
      <trkpt lat="46.17609" lon="4.40445">
        <ele>570</ele>
        <time>2016-07-03T18:25:26Z</time>
      </trkpt>
      <trkpt lat="46.17562" lon="4.40462">
        <ele>569</ele>
        <time>2016-07-03T18:27:26Z</time>
      </trkpt>
      <trkpt lat="46.17552" lon="4.40463">
        <ele>569</ele>
        <time>2016-07-03T18:29:26Z</time>
      </trkpt>
      <trkpt lat="46.17543" lon="4.40464">
        <ele>568</ele>
        <time>2016-07-03T18:31:26Z</time>
      </trkpt>
      <trkpt lat="46.17526" lon="4.40462">
        <ele>568</ele>
        <time>2016-07-03T18:33:26Z</time>
      </trkpt>
      <trkpt lat="46.17513" lon="4.40456">
        <ele>569</ele>
        <time>2016-07-03T18:35:26Z</time>
      </trkpt>
      <trkpt lat="46.17491" lon="4.4044">
        <ele>566</ele>
        <time>2016-07-03T18:37:26Z</time>
      </trkpt>
      <trkpt lat="46.17451" lon="4.4041">
        <ele>566</ele>
        <time>2016-07-03T18:39:26Z</time>
      </trkpt>
      <trkpt lat="46.17425" lon="4.40399">
        <ele>563</ele>
        <time>2016-07-03T18:41:26Z</time>
      </trkpt>
      <trkpt lat="46.17414" lon="4.40394">
        <ele>558</ele>
        <time>2016-07-03T18:43:26Z</time>
      </trkpt>
      <trkpt lat="46.17405" lon="4.40393">
        <ele>558</ele>
        <time>2016-07-03T18:45:26Z</time>
      </trkpt>
      <trkpt lat="46.17347" lon="4.40394">
        <ele>555</ele>
        <time>2016-07-03T18:47:26Z</time>
      </trkpt>
      <trkpt lat="46.17337" lon="4.40393">
        <ele>555</ele>
        <time>2016-07-03T18:49:26Z</time>
      </trkpt>
      <trkpt lat="46.17324" lon="4.40391">
        <ele>552</ele>
        <time>2016-07-03T18:51:26Z</time>
      </trkpt>
      <trkpt lat="46.17318" lon="4.4039">
        <ele>552</ele>
        <time>2016-07-03T18:53:26Z</time>
      </trkpt>
      <trkpt lat="46.1731" lon="4.40386">
        <ele>552</ele>
        <time>2016-07-03T18:55:26Z</time>
      </trkpt>
      <trkpt lat="46.17297" lon="4.40378">
        <ele>552</ele>
        <time>2016-07-03T18:57:26Z</time>
      </trkpt>
      <trkpt lat="46.17261" lon="4.40354">
        <ele>551</ele>
        <time>2016-07-03T18:59:26Z</time>
      </trkpt>
      <trkpt lat="46.17192" lon="4.40304">
        <ele>544</ele>
        <time>2016-07-03T19:01:26Z</time>
      </trkpt>
      <trkpt lat="46.17104" lon="4.4024">
        <ele>536</ele>
        <time>2016-07-03T19:03:26Z</time>
      </trkpt>
      <trkpt lat="46.17048" lon="4.40201">
        <ele>532</ele>
        <time>2016-07-03T19:05:26Z</time>
      </trkpt>
      <trkpt lat="46.17029" lon="4.40187">
        <ele>531</ele>
        <time>2016-07-03T19:07:26Z</time>
      </trkpt>
      <trkpt lat="46.17017" lon="4.40178">
        <ele>530</ele>
        <time>2016-07-03T19:09:26Z</time>
      </trkpt>
      <trkpt lat="46.17004" lon="4.40161">
        <ele>528</ele>
        <time>2016-07-03T19:11:26Z</time>
      </trkpt>
      <trkpt lat="46.17" lon="4.40151">
        <ele>528</ele>
        <time>2016-07-03T19:13:26Z</time>
      </trkpt>
      <trkpt lat="46.16995" lon="4.40137">
        <ele>522</ele>
        <time>2016-07-03T19:15:26Z</time>
      </trkpt>
      <trkpt lat="46.1699" lon="4.40117">
        <ele>521</ele>
        <time>2016-07-03T19:17:26Z</time>
      </trkpt>
      <trkpt lat="46.16987" lon="4.40098">
        <ele>521</ele>
        <time>2016-07-03T19:19:26Z</time>
      </trkpt>
      <trkpt lat="46.16986" lon="4.40086">
        <ele>522</ele>
        <time>2016-07-03T19:21:26Z</time>
      </trkpt>
      <trkpt lat="46.16986" lon="4.40072">
        <ele>520</ele>
        <time>2016-07-03T19:23:26Z</time>
      </trkpt>
      <trkpt lat="46.16987" lon="4.40054">
        <ele>518</ele>
        <time>2016-07-03T19:25:26Z</time>
      </trkpt>
      <trkpt lat="46.16997" lon="4.40013">
        <ele>519</ele>
        <time>2016-07-03T19:27:26Z</time>
      </trkpt>
      <trkpt lat="46.17001" lon="4.39992">
        <ele>522</ele>
        <time>2016-07-03T19:29:26Z</time>
      </trkpt>
      <trkpt lat="46.17002" lon="4.39977">
        <ele>523</ele>
        <time>2016-07-03T19:31:26Z</time>
      </trkpt>
      <trkpt lat="46.16999" lon="4.39965">
        <ele>517</ele>
        <time>2016-07-03T19:33:26Z</time>
      </trkpt>
      <trkpt lat="46.16998" lon="4.3996">
        <ele>516</ele>
        <time>2016-07-03T19:35:26Z</time>
      </trkpt>
      <trkpt lat="46.16996" lon="4.39954">
        <ele>516</ele>
        <time>2016-07-03T19:37:26Z</time>
      </trkpt>
      <trkpt lat="46.16984" lon="4.39927">
        <ele>517</ele>
        <time>2016-07-03T19:39:26Z</time>
      </trkpt>
      <trkpt lat="46.1698" lon="4.39912">
        <ele>516</ele>
        <time>2016-07-03T19:41:26Z</time>
      </trkpt>
      <trkpt lat="46.16978" lon="4.39903">
        <ele>515</ele>
        <time>2016-07-03T19:43:26Z</time>
      </trkpt>
      <trkpt lat="46.16976" lon="4.39884">
        <ele>514</ele>
        <time>2016-07-03T19:45:26Z</time>
      </trkpt>
      <trkpt lat="46.16976" lon="4.39878">
        <ele>513</ele>
        <time>2016-07-03T19:47:26Z</time>
      </trkpt>
      <trkpt lat="46.16977" lon="4.39863">
        <ele>513</ele>
        <time>2016-07-03T19:49:26Z</time>
      </trkpt>
      <trkpt lat="46.16978" lon="4.39809">
        <ele>512</ele>
        <time>2016-07-03T19:51:26Z</time>
      </trkpt>
      <trkpt lat="46.16977" lon="4.39765">
        <ele>511</ele>
        <time>2016-07-03T19:53:26Z</time>
      </trkpt>
      <trkpt lat="46.16977" lon="4.39732">
        <ele>510</ele>
        <time>2016-07-03T19:55:26Z</time>
      </trkpt>
      <trkpt lat="46.16978" lon="4.39712">
        <ele>509</ele>
        <time>2016-07-03T19:57:26Z</time>
      </trkpt>
      <trkpt lat="46.16979" lon="4.39702">
        <ele>509</ele>
        <time>2016-07-03T19:59:26Z</time>
      </trkpt>
      <trkpt lat="46.16981" lon="4.39695">
        <ele>509</ele>
        <time>2016-07-03T20:01:26Z</time>
      </trkpt>
      <trkpt lat="46.16983" lon="4.39686">
        <ele>509</ele>
        <time>2016-07-03T20:03:26Z</time>
      </trkpt>
      <trkpt lat="46.16986" lon="4.39679">
        <ele>510</ele>
        <time>2016-07-03T20:05:26Z</time>
      </trkpt>
      <trkpt lat="46.16986" lon="4.39679">
        <ele>510</ele>
        <time>2016-07-03T20:07:26Z</time>
      </trkpt>
      <trkpt lat="46.16994" lon="4.39665">
        <ele>510</ele>
        <time>2016-07-03T20:09:26Z</time>
      </trkpt>
      <trkpt lat="46.17005" lon="4.39654">
        <ele>512</ele>
        <time>2016-07-03T20:11:26Z</time>
      </trkpt>
      <trkpt lat="46.17011" lon="4.39648">
        <ele>512</ele>
        <time>2016-07-03T20:13:26Z</time>
      </trkpt>
      <trkpt lat="46.17021" lon="4.39635">
        <ele>512</ele>
        <time>2016-07-03T20:15:26Z</time>
      </trkpt>
      <trkpt lat="46.17025" lon="4.39628">
        <ele>511</ele>
        <time>2016-07-03T20:17:26Z</time>
      </trkpt>
      <trkpt lat="46.17028" lon="4.39622">
        <ele>511</ele>
        <time>2016-07-03T20:19:26Z</time>
      </trkpt>
      <trkpt lat="46.1703" lon="4.39615">
        <ele>510</ele>
        <time>2016-07-03T20:21:26Z</time>
      </trkpt>
      <trkpt lat="46.17032" lon="4.39605">
        <ele>509</ele>
        <time>2016-07-03T20:23:26Z</time>
      </trkpt>
      <trkpt lat="46.17033" lon="4.3959">
        <ele>508</ele>
        <time>2016-07-03T20:25:26Z</time>
      </trkpt>
      <trkpt lat="46.17034" lon="4.39571">
        <ele>503</ele>
        <time>2016-07-03T20:27:26Z</time>
      </trkpt>
      <trkpt lat="46.17038" lon="4.39555">
        <ele>503</ele>
        <time>2016-07-03T20:29:26Z</time>
      </trkpt>
      <trkpt lat="46.17046" lon="4.39542">
        <ele>503</ele>
        <time>2016-07-03T20:31:26Z</time>
      </trkpt>
      <trkpt lat="46.17053" lon="4.39533">
        <ele>502</ele>
        <time>2016-07-03T20:33:26Z</time>
      </trkpt>
      <trkpt lat="46.17069" lon="4.3952">
        <ele>501</ele>
        <time>2016-07-03T20:35:26Z</time>
      </trkpt>
      <trkpt lat="46.1709" lon="4.39505">
        <ele>499</ele>
        <time>2016-07-03T20:37:26Z</time>
      </trkpt>
      <trkpt lat="46.17106" lon="4.39491">
        <ele>497</ele>
        <time>2016-07-03T20:39:26Z</time>
      </trkpt>
      <trkpt lat="46.17117" lon="4.39478">
        <ele>497</ele>
        <time>2016-07-03T20:41:26Z</time>
      </trkpt>
      <trkpt lat="46.1712" lon="4.39474">
        <ele>497</ele>
        <time>2016-07-03T20:43:26Z</time>
      </trkpt>
      <trkpt lat="46.17125" lon="4.39469">
        <ele>497</ele>
        <time>2016-07-03T20:45:26Z</time>
      </trkpt>
      <trkpt lat="46.17133" lon="4.39456">
        <ele>496</ele>
        <time>2016-07-03T20:47:26Z</time>
      </trkpt>
      <trkpt lat="46.17136" lon="4.39453">
        <ele>496</ele>
        <time>2016-07-03T20:49:26Z</time>
      </trkpt>
      <trkpt lat="46.17144" lon="4.39442">
        <ele>496</ele>
        <time>2016-07-03T20:51:26Z</time>
      </trkpt>
      <trkpt lat="46.17152" lon="4.39432">
        <ele>494</ele>
        <time>2016-07-03T20:53:26Z</time>
      </trkpt>
      <trkpt lat="46.1716" lon="4.39423">
        <ele>493</ele>
        <time>2016-07-03T20:55:26Z</time>
      </trkpt>
      <trkpt lat="46.1717" lon="4.39412">
        <ele>491</ele>
        <time>2016-07-03T20:57:26Z</time>
      </trkpt>
      <trkpt lat="46.1718" lon="4.39403">
        <ele>492</ele>
        <time>2016-07-03T20:59:26Z</time>
      </trkpt>
      <trkpt lat="46.1719" lon="4.39395">
        <ele>492</ele>
        <time>2016-07-03T21:01:26Z</time>
      </trkpt>
      <trkpt lat="46.17196" lon="4.3939">
        <ele>493</ele>
        <time>2016-07-03T21:03:26Z</time>
      </trkpt>
      <trkpt lat="46.17205" lon="4.39384">
        <ele>493</ele>
        <time>2016-07-03T21:05:26Z</time>
      </trkpt>
      <trkpt lat="46.17211" lon="4.39381">
        <ele>493</ele>
        <time>2016-07-03T21:07:26Z</time>
      </trkpt>
      <trkpt lat="46.17221" lon="4.39375">
        <ele>493</ele>
        <time>2016-07-03T21:09:26Z</time>
      </trkpt>
      <trkpt lat="46.17225" lon="4.39372">
        <ele>493</ele>
        <time>2016-07-03T21:11:26Z</time>
      </trkpt>
      <trkpt lat="46.17231" lon="4.39366">
        <ele>493</ele>
        <time>2016-07-03T21:13:26Z</time>
      </trkpt>
      <trkpt lat="46.1724" lon="4.39356">
        <ele>492</ele>
        <time>2016-07-03T21:15:26Z</time>
      </trkpt>
      <trkpt lat="46.17248" lon="4.39344">
        <ele>491</ele>
        <time>2016-07-03T21:17:26Z</time>
      </trkpt>
      <trkpt lat="46.17257" lon="4.39331">
        <ele>491</ele>
        <time>2016-07-03T21:19:26Z</time>
      </trkpt>
      <trkpt lat="46.17263" lon="4.39319">
        <ele>494</ele>
        <time>2016-07-03T21:21:26Z</time>
      </trkpt>
      <trkpt lat="46.1727" lon="4.39304">
        <ele>495</ele>
        <time>2016-07-03T21:23:26Z</time>
      </trkpt>
      <trkpt lat="46.1727" lon="4.39304">
        <ele>495</ele>
        <time>2016-07-03T21:25:26Z</time>
      </trkpt>
      <trkpt lat="46.1729" lon="4.39264">
        <ele>495</ele>
        <time>2016-07-03T21:27:26Z</time>
      </trkpt>
      <trkpt lat="46.17316" lon="4.39206">
        <ele>489</ele>
        <time>2016-07-03T21:29:26Z</time>
      </trkpt>
      <trkpt lat="46.17337" lon="4.39142">
        <ele>493</ele>
        <time>2016-07-03T21:31:26Z</time>
      </trkpt>
      <trkpt lat="46.1734" lon="4.39129">
        <ele>494</ele>
        <time>2016-07-03T21:33:26Z</time>
      </trkpt>
      <trkpt lat="46.17342" lon="4.39125">
        <ele>494</ele>
        <time>2016-07-03T21:35:26Z</time>
      </trkpt>
      <trkpt lat="46.17346" lon="4.39098">
        <ele>491</ele>
        <time>2016-07-03T21:37:26Z</time>
      </trkpt>
      <trkpt lat="46.17347" lon="4.39079">
        <ele>486</ele>
        <time>2016-07-03T21:39:26Z</time>
      </trkpt>
      <trkpt lat="46.17349" lon="4.39053">
        <ele>488</ele>
        <time>2016-07-03T21:41:26Z</time>
      </trkpt>
      <trkpt lat="46.17354" lon="4.39034">
        <ele>488</ele>
        <time>2016-07-03T21:43:26Z</time>
      </trkpt>
      <trkpt lat="46.17362" lon="4.39017">
        <ele>488</ele>
        <time>2016-07-03T21:45:26Z</time>
      </trkpt>
      <trkpt lat="46.17376" lon="4.38997">
        <ele>486</ele>
        <time>2016-07-03T21:47:26Z</time>
      </trkpt>
      <trkpt lat="46.17413" lon="4.38955">
        <ele>486</ele>
        <time>2016-07-03T21:49:26Z</time>
      </trkpt>
      <trkpt lat="46.17429" lon="4.3893">
        <ele>488</ele>
        <time>2016-07-03T21:51:26Z</time>
      </trkpt>
      <trkpt lat="46.17434" lon="4.38922">
        <ele>488</ele>
        <time>2016-07-03T21:53:26Z</time>
      </trkpt>
      <trkpt lat="46.17444" lon="4.38898">
        <ele>485</ele>
        <time>2016-07-03T21:55:26Z</time>
      </trkpt>
      <trkpt lat="46.17453" lon="4.38877">
        <ele>485</ele>
        <time>2016-07-03T21:57:26Z</time>
      </trkpt>
      <trkpt lat="46.1747" lon="4.38841">
        <ele>485</ele>
        <time>2016-07-03T21:59:26Z</time>
      </trkpt>
      <trkpt lat="46.17478" lon="4.38829">
        <ele>483</ele>
        <time>2016-07-03T22:01:26Z</time>
      </trkpt>
      <trkpt lat="46.17493" lon="4.3881">
        <ele>482</ele>
        <time>2016-07-03T22:03:26Z</time>
      </trkpt>
      <trkpt lat="46.17554" lon="4.38748">
        <ele>480</ele>
        <time>2016-07-03T22:05:26Z</time>
      </trkpt>
      <trkpt lat="46.1758" lon="4.38727">
        <ele>480</ele>
        <time>2016-07-03T22:07:26Z</time>
      </trkpt>
      <trkpt lat="46.1761" lon="4.38708">
        <ele>481</ele>
        <time>2016-07-03T22:09:26Z</time>
      </trkpt>
      <trkpt lat="46.17648" lon="4.38685">
        <ele>480</ele>
        <time>2016-07-03T22:11:26Z</time>
      </trkpt>
      <trkpt lat="46.17659" lon="4.38679">
        <ele>479</ele>
        <time>2016-07-03T22:13:26Z</time>
      </trkpt>
      <trkpt lat="46.17678" lon="4.38667">
        <ele>481</ele>
        <time>2016-07-03T22:15:26Z</time>
      </trkpt>
      <trkpt lat="46.17702" lon="4.38643">
        <ele>477</ele>
        <time>2016-07-03T22:17:26Z</time>
      </trkpt>
      <trkpt lat="46.17745" lon="4.38605">
        <ele>475</ele>
        <time>2016-07-03T22:19:26Z</time>
      </trkpt>
      <trkpt lat="46.17799" lon="4.38547">
        <ele>470</ele>
        <time>2016-07-03T22:21:26Z</time>
      </trkpt>
      <trkpt lat="46.17818" lon="4.3853">
        <ele>468</ele>
        <time>2016-07-03T22:23:26Z</time>
      </trkpt>
      <trkpt lat="46.17851" lon="4.38504">
        <ele>467</ele>
        <time>2016-07-03T22:25:26Z</time>
      </trkpt>
      <trkpt lat="46.17873" lon="4.38492">
        <ele>463</ele>
        <time>2016-07-03T22:27:26Z</time>
      </trkpt>
      <trkpt lat="46.17888" lon="4.38481">
        <ele>462</ele>
        <time>2016-07-03T22:29:26Z</time>
      </trkpt>
      <trkpt lat="46.17912" lon="4.38461">
        <ele>462</ele>
        <time>2016-07-03T22:31:26Z</time>
      </trkpt>
      <trkpt lat="46.17919" lon="4.38455">
        <ele>464</ele>
        <time>2016-07-03T22:33:26Z</time>
      </trkpt>
      <trkpt lat="46.17978" lon="4.38414">
        <ele>460</ele>
        <time>2016-07-03T22:35:26Z</time>
      </trkpt>
      <trkpt lat="46.17994" lon="4.38402">
        <ele>461</ele>
        <time>2016-07-03T22:37:26Z</time>
      </trkpt>
      <trkpt lat="46.18003" lon="4.38394">
        <ele>461</ele>
        <time>2016-07-03T22:39:26Z</time>
      </trkpt>
      <trkpt lat="46.18015" lon="4.38385">
        <ele>461</ele>
        <time>2016-07-03T22:41:26Z</time>
      </trkpt>
      <trkpt lat="46.18061" lon="4.38351">
        <ele>460</ele>
        <time>2016-07-03T22:43:26Z</time>
      </trkpt>
      <trkpt lat="46.18077" lon="4.38333">
        <ele>456</ele>
        <time>2016-07-03T22:45:26Z</time>
      </trkpt>
      <trkpt lat="46.18089" lon="4.38314">
        <ele>459</ele>
        <time>2016-07-03T22:47:26Z</time>
      </trkpt>
      <trkpt lat="46.18099" lon="4.38293">
        <ele>459</ele>
        <time>2016-07-03T22:49:26Z</time>
      </trkpt>
      <trkpt lat="46.18107" lon="4.38269">
        <ele>458</ele>
        <time>2016-07-03T22:51:26Z</time>
      </trkpt>
      <trkpt lat="46.18111" lon="4.38255">
        <ele>458</ele>
        <time>2016-07-03T22:53:26Z</time>
      </trkpt>
      <trkpt lat="46.18115" lon="4.38226">
        <ele>454</ele>
        <time>2016-07-03T22:55:26Z</time>
      </trkpt>
      <trkpt lat="46.18116" lon="4.38214">
        <ele>454</ele>
        <time>2016-07-03T22:57:26Z</time>
      </trkpt>
      <trkpt lat="46.18119" lon="4.38203">
        <ele>454</ele>
        <time>2016-07-03T22:59:26Z</time>
      </trkpt>
      <trkpt lat="46.18122" lon="4.38194">
        <ele>453</ele>
        <time>2016-07-03T23:01:26Z</time>
      </trkpt>
      <trkpt lat="46.18127" lon="4.38185">
        <ele>453</ele>
        <time>2016-07-03T23:03:26Z</time>
      </trkpt>
      <trkpt lat="46.18132" lon="4.38179">
        <ele>453</ele>
        <time>2016-07-03T23:05:26Z</time>
      </trkpt>
      <trkpt lat="46.18138" lon="4.38176">
        <ele>454</ele>
        <time>2016-07-03T23:07:26Z</time>
      </trkpt>
      <trkpt lat="46.18161" lon="4.38167">
        <ele>454</ele>
        <time>2016-07-03T23:09:26Z</time>
      </trkpt>
      <trkpt lat="46.18181" lon="4.3816">
        <ele>455</ele>
        <time>2016-07-03T23:11:26Z</time>
      </trkpt>
      <trkpt lat="46.18188" lon="4.38154">
        <ele>455</ele>
        <time>2016-07-03T23:13:26Z</time>
      </trkpt>
      <trkpt lat="46.18195" lon="4.38146">
        <ele>455</ele>
        <time>2016-07-03T23:15:26Z</time>
      </trkpt>
      <trkpt lat="46.18203" lon="4.38132">
        <ele>455</ele>
        <time>2016-07-03T23:17:26Z</time>
      </trkpt>
      <trkpt lat="46.1821" lon="4.38114">
        <ele>455</ele>
        <time>2016-07-03T23:19:26Z</time>
      </trkpt>
      <trkpt lat="46.18212" lon="4.38102">
        <ele>455</ele>
        <time>2016-07-03T23:21:26Z</time>
      </trkpt>
      <trkpt lat="46.18217" lon="4.38089">
        <ele>455</ele>
        <time>2016-07-03T23:23:26Z</time>
      </trkpt>
      <trkpt lat="46.18227" lon="4.3806">
        <ele>453</ele>
        <time>2016-07-03T23:25:26Z</time>
      </trkpt>
      <trkpt lat="46.18243" lon="4.38016">
        <ele>453</ele>
        <time>2016-07-03T23:27:26Z</time>
      </trkpt>
      <trkpt lat="46.18249" lon="4.37996">
        <ele>453</ele>
        <time>2016-07-03T23:29:26Z</time>
      </trkpt>
      <trkpt lat="46.18253" lon="4.37971">
        <ele>454</ele>
        <time>2016-07-03T23:31:26Z</time>
      </trkpt>
      <trkpt lat="46.18255" lon="4.37945">
        <ele>453</ele>
        <time>2016-07-03T23:33:26Z</time>
      </trkpt>
      <trkpt lat="46.1826" lon="4.37864">
        <ele>450</ele>
        <time>2016-07-03T23:35:26Z</time>
      </trkpt>
      <trkpt lat="46.1826" lon="4.37864">
        <ele>450</ele>
        <time>2016-07-03T23:37:26Z</time>
      </trkpt>
      <trkpt lat="46.18261" lon="4.37853">
        <ele>449</ele>
        <time>2016-07-03T23:39:26Z</time>
      </trkpt>
      <trkpt lat="46.18262" lon="4.37845">
        <ele>449</ele>
        <time>2016-07-03T23:41:26Z</time>
      </trkpt>
      <trkpt lat="46.18264" lon="4.37837">
        <ele>448</ele>
        <time>2016-07-03T23:43:26Z</time>
      </trkpt>
      <trkpt lat="46.18266" lon="4.37828">
        <ele>448</ele>
        <time>2016-07-03T23:45:26Z</time>
      </trkpt>
      <trkpt lat="46.18269" lon="4.37817">
        <ele>448</ele>
        <time>2016-07-03T23:47:26Z</time>
      </trkpt>
      <trkpt lat="46.18273" lon="4.37807">
        <ele>449</ele>
        <time>2016-07-03T23:49:26Z</time>
      </trkpt>
      <trkpt lat="46.18278" lon="4.37801">
        <ele>449</ele>
        <time>2016-07-03T23:51:26Z</time>
      </trkpt>
      <trkpt lat="46.18283" lon="4.37795">
        <ele>449</ele>
        <time>2016-07-03T23:53:26Z</time>
      </trkpt>
      <trkpt lat="46.18296" lon="4.37789">
        <ele>449</ele>
        <time>2016-07-03T23:55:26Z</time>
      </trkpt>
      <trkpt lat="46.18308" lon="4.37781">
        <ele>449</ele>
        <time>2016-07-03T23:57:26Z</time>
      </trkpt>
      <trkpt lat="46.18325" lon="4.37768">
        <ele>448</ele>
        <time>2016-07-03T23:59:26Z</time>
      </trkpt>
      <trkpt lat="46.18378" lon="4.37731">
        <ele>446</ele>
        <time>2016-07-04T00:01:26Z</time>
      </trkpt>
      <trkpt lat="46.18412" lon="4.37703">
        <ele>445</ele>
        <time>2016-07-04T00:03:26Z</time>
      </trkpt>
      <trkpt lat="46.18439" lon="4.37679">
        <ele>445</ele>
        <time>2016-07-04T00:05:26Z</time>
      </trkpt>
      <trkpt lat="46.18439" lon="4.37679">
        <ele>445</ele>
        <time>2016-07-04T00:07:26Z</time>
      </trkpt>
      <trkpt lat="46.18459" lon="4.3766">
        <ele>442</ele>
        <time>2016-07-04T00:09:26Z</time>
      </trkpt>
      <trkpt lat="46.18523" lon="4.37591">
        <ele>442</ele>
        <time>2016-07-04T00:11:26Z</time>
      </trkpt>
      <trkpt lat="46.18593" lon="4.37516">
        <ele>444</ele>
        <time>2016-07-04T00:13:26Z</time>
      </trkpt>
      <trkpt lat="46.18624" lon="4.37482">
        <ele>441</ele>
        <time>2016-07-04T00:15:26Z</time>
      </trkpt>
      <trkpt lat="46.18671" lon="4.37434">
        <ele>442</ele>
        <time>2016-07-04T00:17:26Z</time>
      </trkpt>
      <trkpt lat="46.1868" lon="4.37424">
        <ele>442</ele>
        <time>2016-07-04T00:19:26Z</time>
      </trkpt>
      <trkpt lat="46.18687" lon="4.37415">
        <ele>440</ele>
        <time>2016-07-04T00:21:26Z</time>
      </trkpt>
      <trkpt lat="46.18687" lon="4.37415">
        <ele>440</ele>
        <time>2016-07-04T00:23:26Z</time>
      </trkpt>
      <trkpt lat="46.18714" lon="4.37378">
        <ele>442</ele>
        <time>2016-07-04T00:25:26Z</time>
      </trkpt>
      <trkpt lat="46.18729" lon="4.37347">
        <ele>443</ele>
        <time>2016-07-04T00:27:26Z</time>
      </trkpt>
      <trkpt lat="46.18736" lon="4.37334">
        <ele>443</ele>
        <time>2016-07-04T00:29:26Z</time>
      </trkpt>
      <trkpt lat="46.18741" lon="4.37321">
        <ele>442</ele>
        <time>2016-07-04T00:31:26Z</time>
      </trkpt>
      <trkpt lat="46.18745" lon="4.37308">
        <ele>440</ele>
        <time>2016-07-04T00:33:26Z</time>
      </trkpt>
      <trkpt lat="46.18749" lon="4.37298">
        <ele>440</ele>
        <time>2016-07-04T00:35:26Z</time>
      </trkpt>
      <trkpt lat="46.18755" lon="4.37282">
        <ele>445</ele>
        <time>2016-07-04T00:37:26Z</time>
      </trkpt>
      <trkpt lat="46.18763" lon="4.37264">
        <ele>444</ele>
        <time>2016-07-04T00:39:26Z</time>
      </trkpt>
      <trkpt lat="46.18774" lon="4.37242">
        <ele>441</ele>
        <time>2016-07-04T00:41:26Z</time>
      </trkpt>
      <trkpt lat="46.18796" lon="4.37199">
        <ele>442</ele>
        <time>2016-07-04T00:43:26Z</time>
      </trkpt>
      <trkpt lat="46.18823" lon="4.37144">
        <ele>439</ele>
        <time>2016-07-04T00:45:26Z</time>
      </trkpt>
      <trkpt lat="46.18835" lon="4.37118">
        <ele>445</ele>
        <time>2016-07-04T00:47:26Z</time>
      </trkpt>
      <trkpt lat="46.18857" lon="4.37072">
        <ele>439</ele>
        <time>2016-07-04T00:49:26Z</time>
      </trkpt>
      <trkpt lat="46.18862" lon="4.3706">
        <ele>439</ele>
        <time>2016-07-04T00:51:26Z</time>
      </trkpt>
      <trkpt lat="46.18866" lon="4.37049">
        <ele>439</ele>
        <time>2016-07-04T00:53:26Z</time>
      </trkpt>
      <trkpt lat="46.18869" lon="4.3704">
        <ele>439</ele>
        <time>2016-07-04T00:55:26Z</time>
      </trkpt>
      <trkpt lat="46.18874" lon="4.37024">
        <ele>439</ele>
        <time>2016-07-04T00:57:26Z</time>
      </trkpt>
      <trkpt lat="46.18883" lon="4.36982">
        <ele>434</ele>
        <time>2016-07-04T00:59:26Z</time>
      </trkpt>
      <trkpt lat="46.18887" lon="4.36967">
        <ele>434</ele>
        <time>2016-07-04T01:01:26Z</time>
      </trkpt>
      <trkpt lat="46.18891" lon="4.36954">
        <ele>434</ele>
        <time>2016-06-24T14:35:26Z</time>
      </trkpt>
      <trkpt lat="46.18896" lon="4.36941">
        <ele>434</ele>
        <time>2016-06-24T14:37:26Z</time>
      </trkpt>
      <trkpt lat="46.18941" lon="4.36839">
        <ele>436</ele>
        <time>2016-06-24T14:39:26Z</time>
      </trkpt>
      <trkpt lat="46.18987" lon="4.36738">
        <ele>432</ele>
        <time>2016-06-24T14:41:26Z</time>
      </trkpt>
      <trkpt lat="46.19003" lon="4.36702">
        <ele>435</ele>
        <time>2016-06-24T14:43:26Z</time>
      </trkpt>
      <trkpt lat="46.19009" lon="4.3669">
        <ele>434</ele>
        <time>2016-06-24T14:45:26Z</time>
      </trkpt>
      <trkpt lat="46.19041" lon="4.36622">
        <ele>433</ele>
        <time>2016-06-24T14:47:26Z</time>
      </trkpt>
      <trkpt lat="46.19114" lon="4.36457">
        <ele>429</ele>
        <time>2016-06-24T14:49:26Z</time>
      </trkpt>
      <trkpt lat="46.19128" lon="4.36431">
        <ele>428</ele>
        <time>2016-06-24T14:51:26Z</time>
      </trkpt>
      <trkpt lat="46.19133" lon="4.36422">
        <ele>428</ele>
        <time>2016-06-24T14:53:26Z</time>
      </trkpt>
      <trkpt lat="46.19146" lon="4.36404">
        <ele>423</ele>
        <time>2016-06-24T14:55:26Z</time>
      </trkpt>
      <trkpt lat="46.19186" lon="4.3635">
        <ele>425</ele>
        <time>2016-06-24T14:57:26Z</time>
      </trkpt>
      <trkpt lat="46.19212" lon="4.36314">
        <ele>423</ele>
        <time>2016-06-24T14:59:26Z</time>
      </trkpt>
      <trkpt lat="46.19283" lon="4.3622">
        <ele>425</ele>
        <time>2016-06-24T15:01:26Z</time>
      </trkpt>
      <trkpt lat="46.19303" lon="4.3619">
        <ele>424</ele>
        <time>2016-06-24T15:03:26Z</time>
      </trkpt>
      <trkpt lat="46.19328" lon="4.36146">
        <ele>420</ele>
        <time>2016-06-24T15:05:26Z</time>
      </trkpt>
      <trkpt lat="46.19346" lon="4.36104">
        <ele>423</ele>
        <time>2016-06-24T15:07:26Z</time>
      </trkpt>
      <trkpt lat="46.19361" lon="4.36062">
        <ele>420</ele>
        <time>2016-06-24T15:09:26Z</time>
      </trkpt>
      <trkpt lat="46.19363" lon="4.36056">
        <ele>420</ele>
        <time>2016-06-24T15:11:26Z</time>
      </trkpt>
      <trkpt lat="46.19365" lon="4.3605">
        <ele>420</ele>
        <time>2016-06-24T15:13:26Z</time>
      </trkpt>
      <trkpt lat="46.19369" lon="4.36042">
        <ele>420</ele>
        <time>2016-06-24T15:15:26Z</time>
      </trkpt>
      <trkpt lat="46.19374" lon="4.36035">
        <ele>420</ele>
        <time>2016-06-24T15:17:26Z</time>
      </trkpt>
      <trkpt lat="46.19379" lon="4.36029">
        <ele>420</ele>
        <time>2016-06-24T15:19:26Z</time>
      </trkpt>
      <trkpt lat="46.19383" lon="4.36024">
        <ele>420</ele>
        <time>2016-06-24T15:21:26Z</time>
      </trkpt>
      <trkpt lat="46.19388" lon="4.3602">
        <ele>420</ele>
        <time>2016-06-24T15:23:26Z</time>
      </trkpt>
      <trkpt lat="46.19393" lon="4.36017">
        <ele>421</ele>
        <time>2016-06-24T15:25:26Z</time>
      </trkpt>
      <trkpt lat="46.19398" lon="4.36015">
        <ele>421</ele>
        <time>2016-06-24T15:27:26Z</time>
      </trkpt>
      <trkpt lat="46.1941" lon="4.3601">
        <ele>421</ele>
        <time>2016-06-24T15:29:26Z</time>
      </trkpt>
      <trkpt lat="46.19445" lon="4.36007">
        <ele>428.8</ele>
        <time>2016-06-24T15:31:26Z</time>
      </trkpt>
      <trkpt lat="46.19639" lon="4.35741">
        <ele>442.1</ele>
        <time>2016-06-24T15:33:26Z</time>
      </trkpt>
      <trkpt lat="46.19773" lon="4.35642">
        <ele>451.9</ele>
        <time>2016-06-24T15:35:26Z</time>
      </trkpt>
      <trkpt lat="46.19846" lon="4.3552">
        <ele>455.5</ele>
        <time>2016-06-24T15:37:26Z</time>
      </trkpt>
      <trkpt lat="46.19925" lon="4.35449">
        <ele>458.9</ele>
        <time>2016-06-24T15:39:26Z</time>
      </trkpt>
      <trkpt lat="46.20046" lon="4.35408">
        <ele>449.1</ele>
        <time>2016-06-24T15:41:26Z</time>
      </trkpt>
      <trkpt lat="46.20042" lon="4.35303">
        <ele>442.6</ele>
        <time>2016-06-24T15:43:26Z</time>
      </trkpt>
      <trkpt lat="46.20081" lon="4.3525">
        <ele>435.4</ele>
        <time>2016-06-24T15:45:26Z</time>
      </trkpt>
      <trkpt lat="46.20171" lon="4.35136">
        <ele>428.4</ele>
        <time>2016-06-24T15:47:26Z</time>
      </trkpt>
      <trkpt lat="46.20204" lon="4.34962">
        <ele>421.7</ele>
        <time>2016-06-24T15:49:26Z</time>
      </trkpt>
      <trkpt lat="46.20223" lon="4.34915">
        <ele>420.5</ele>
        <time>2016-06-24T15:51:26Z</time>
      </trkpt>
      <trkpt lat="46.2044" lon="4.34696">
        <ele>422.8</ele>
        <time>2016-06-24T15:53:26Z</time>
      </trkpt>
      <trkpt lat="46.20663" lon="4.33902">
        <ele>402.1</ele>
        <time>2016-06-24T15:55:26Z</time>
      </trkpt>
      <trkpt lat="46.20719" lon="4.33803">
        <ele>403.7</ele>
        <time>2016-06-24T15:57:26Z</time>
      </trkpt>
      <trkpt lat="46.20728" lon="4.33808">
        <ele>404</ele>
        <time>2016-06-24T15:59:26Z</time>
      </trkpt>
      <trkpt lat="46.20731" lon="4.33809">
        <ele>404</ele>
        <time>2016-06-24T16:01:26Z</time>
      </trkpt>
      <trkpt lat="46.20735" lon="4.33811">
        <ele>404</ele>
        <time>2016-06-24T16:03:26Z</time>
      </trkpt>
      <trkpt lat="46.20744" lon="4.33816">
        <ele>405</ele>
        <time>2016-06-24T16:05:26Z</time>
      </trkpt>
      <trkpt lat="46.20753" lon="4.3382">
        <ele>407</ele>
        <time>2016-06-24T16:07:26Z</time>
      </trkpt>
      <trkpt lat="46.20757" lon="4.33821">
        <ele>407</ele>
        <time>2016-06-24T16:09:26Z</time>
      </trkpt>
      <trkpt lat="46.20757" lon="4.33821">
        <ele>407</ele>
        <time>2016-06-24T16:11:26Z</time>
      </trkpt>
      <trkpt lat="46.20756" lon="4.33821">
        <ele>407</ele>
        <time>2016-06-24T16:13:26Z</time>
      </trkpt>
      <trkpt lat="46.20756" lon="4.33821">
        <ele>407</ele>
        <time>2016-06-24T16:15:26Z</time>
      </trkpt>
      <trkpt lat="46.20763" lon="4.33824">
        <ele>407</ele>
        <time>2016-06-24T16:17:26Z</time>
      </trkpt>
      <trkpt lat="46.20773" lon="4.3383">
        <ele>407</ele>
        <time>2016-06-24T16:19:26Z</time>
      </trkpt>
      <trkpt lat="46.20777" lon="4.33832">
        <ele>408</ele>
        <time>2016-06-24T16:21:26Z</time>
      </trkpt>
      <trkpt lat="46.20781" lon="4.33837">
        <ele>408</ele>
        <time>2016-06-24T16:23:26Z</time>
      </trkpt>
      <trkpt lat="46.20791" lon="4.33844">
        <ele>409</ele>
        <time>2016-06-24T16:25:26Z</time>
      </trkpt>
      <trkpt lat="46.20797" lon="4.33846">
        <ele>409</ele>
        <time>2016-06-24T16:27:26Z</time>
      </trkpt>
      <trkpt lat="46.20813" lon="4.33853">
        <ele>410</ele>
        <time>2016-06-24T16:29:26Z</time>
      </trkpt>
      <trkpt lat="46.20841" lon="4.33869">
        <ele>413</ele>
        <time>2016-06-24T16:31:26Z</time>
      </trkpt>
      <trkpt lat="46.20917" lon="4.3391">
        <ele>415</ele>
        <time>2016-06-24T16:33:26Z</time>
      </trkpt>
      <trkpt lat="46.20964" lon="4.33937">
        <ele>417</ele>
        <time>2016-06-24T16:35:26Z</time>
      </trkpt>
      <trkpt lat="46.21049" lon="4.33985">
        <ele>424</ele>
        <time>2016-06-24T16:37:26Z</time>
      </trkpt>
      <trkpt lat="46.21076" lon="4.34">
        <ele>426</ele>
        <time>2016-06-24T16:39:26Z</time>
      </trkpt>
      <trkpt lat="46.21102" lon="4.34014">
        <ele>429</ele>
        <time>2016-06-24T16:41:26Z</time>
      </trkpt>
      <trkpt lat="46.21144" lon="4.34031">
        <ele>432</ele>
        <time>2016-06-24T16:43:26Z</time>
      </trkpt>
      <trkpt lat="46.21247" lon="4.34065">
        <ele>440</ele>
        <time>2016-06-24T16:45:26Z</time>
      </trkpt>
      <trkpt lat="46.21266" lon="4.34069">
        <ele>440</ele>
        <time>2016-06-24T16:47:26Z</time>
      </trkpt>
      <trkpt lat="46.21299" lon="4.34078">
        <ele>439</ele>
        <time>2016-06-24T16:49:26Z</time>
      </trkpt>
      <trkpt lat="46.2131" lon="4.34082">
        <ele>439</ele>
        <time>2016-06-24T16:51:26Z</time>
      </trkpt>
      <trkpt lat="46.21319" lon="4.34087">
        <ele>440</ele>
        <time>2016-06-24T16:53:26Z</time>
      </trkpt>
      <trkpt lat="46.21332" lon="4.341">
        <ele>440</ele>
        <time>2016-06-24T16:55:26Z</time>
      </trkpt>
      <trkpt lat="46.21346" lon="4.34115">
        <ele>439</ele>
        <time>2016-06-24T16:57:26Z</time>
      </trkpt>
      <trkpt lat="46.21346" lon="4.34116">
        <ele>439</ele>
        <time>2016-06-24T16:59:26Z</time>
      </trkpt>
      <trkpt lat="46.21351" lon="4.34121">
        <ele>439</ele>
        <time>2016-06-24T17:01:26Z</time>
      </trkpt>
      <trkpt lat="46.21358" lon="4.3413">
        <ele>440</ele>
        <time>2016-06-24T17:03:26Z</time>
      </trkpt>
      <trkpt lat="46.21361" lon="4.34136">
        <ele>440</ele>
        <time>2016-06-24T17:05:26Z</time>
      </trkpt>
      <trkpt lat="46.21363" lon="4.34142">
        <ele>440</ele>
        <time>2016-06-24T17:07:26Z</time>
      </trkpt>
      <trkpt lat="46.21364" lon="4.34148">
        <ele>440</ele>
        <time>2016-06-24T17:09:26Z</time>
      </trkpt>
      <trkpt lat="46.21365" lon="4.34156">
        <ele>441</ele>
        <time>2016-06-24T17:11:26Z</time>
      </trkpt>
      <trkpt lat="46.21364" lon="4.34177">
        <ele>446</ele>
        <time>2016-06-24T17:13:26Z</time>
      </trkpt>
      <trkpt lat="46.21364" lon="4.34201">
        <ele>447</ele>
        <time>2016-06-24T17:15:26Z</time>
      </trkpt>
      <trkpt lat="46.21368" lon="4.34216">
        <ele>448</ele>
        <time>2016-06-24T17:17:26Z</time>
      </trkpt>
      <trkpt lat="46.21379" lon="4.34242">
        <ele>448</ele>
        <time>2016-06-24T17:19:26Z</time>
      </trkpt>
      <trkpt lat="46.21394" lon="4.34277">
        <ele>455</ele>
        <time>2016-06-24T17:21:26Z</time>
      </trkpt>
      <trkpt lat="46.21407" lon="4.34312">
        <ele>457</ele>
        <time>2016-06-24T17:23:26Z</time>
      </trkpt>
      <trkpt lat="46.21415" lon="4.3434">
        <ele>460</ele>
        <time>2016-06-24T17:25:26Z</time>
      </trkpt>
      <trkpt lat="46.21419" lon="4.34355">
        <ele>461</ele>
        <time>2016-06-24T17:27:26Z</time>
      </trkpt>
      <trkpt lat="46.21424" lon="4.34365">
        <ele>462</ele>
        <time>2016-06-24T17:29:26Z</time>
      </trkpt>
      <trkpt lat="46.21428" lon="4.3437">
        <ele>463</ele>
        <time>2016-06-24T17:31:26Z</time>
      </trkpt>
      <trkpt lat="46.21429" lon="4.34372">
        <ele>463</ele>
        <time>2016-06-24T17:33:26Z</time>
      </trkpt>
      <trkpt lat="46.21434" lon="4.34375">
        <ele>463</ele>
        <time>2016-06-24T17:35:26Z</time>
      </trkpt>
      <trkpt lat="46.21437" lon="4.34377">
        <ele>463</ele>
        <time>2016-06-24T17:37:26Z</time>
      </trkpt>
      <trkpt lat="46.21442" lon="4.34378">
        <ele>463</ele>
        <time>2016-06-24T17:39:26Z</time>
      </trkpt>
      <trkpt lat="46.21447" lon="4.34378">
        <ele>463</ele>
        <time>2016-06-24T17:41:26Z</time>
      </trkpt>
      <trkpt lat="46.21453" lon="4.34377">
        <ele>463</ele>
        <time>2016-06-24T17:43:26Z</time>
      </trkpt>
      <trkpt lat="46.21461" lon="4.34374">
        <ele>463</ele>
        <time>2016-06-24T17:45:26Z</time>
      </trkpt>
      <trkpt lat="46.2148" lon="4.34367">
        <ele>462</ele>
        <time>2016-06-24T17:47:26Z</time>
      </trkpt>
      <trkpt lat="46.21506" lon="4.34357">
        <ele>463</ele>
        <time>2016-06-24T17:49:26Z</time>
      </trkpt>
      <trkpt lat="46.21547" lon="4.34341">
        <ele>465</ele>
        <time>2016-06-24T17:51:26Z</time>
      </trkpt>
      <trkpt lat="46.21562" lon="4.34335">
        <ele>466</ele>
        <time>2016-06-24T17:53:26Z</time>
      </trkpt>
      <trkpt lat="46.21569" lon="4.34333">
        <ele>464</ele>
        <time>2016-06-24T17:55:26Z</time>
      </trkpt>
      <trkpt lat="46.21578" lon="4.34333">
        <ele>466</ele>
        <time>2016-06-24T17:57:26Z</time>
      </trkpt>
      <trkpt lat="46.21584" lon="4.34337">
        <ele>467</ele>
        <time>2016-06-24T17:59:26Z</time>
      </trkpt>
      <trkpt lat="46.2159" lon="4.34343">
        <ele>467</ele>
        <time>2016-06-24T18:01:26Z</time>
      </trkpt>
      <trkpt lat="46.21594" lon="4.34349">
        <ele>467</ele>
        <time>2016-06-24T18:03:26Z</time>
      </trkpt>
      <trkpt lat="46.21597" lon="4.34357">
        <ele>467</ele>
        <time>2016-06-24T18:05:26Z</time>
      </trkpt>
      <trkpt lat="46.21599" lon="4.34365">
        <ele>467</ele>
        <time>2016-06-24T18:07:26Z</time>
      </trkpt>
      <trkpt lat="46.216" lon="4.34378">
        <ele>467</ele>
        <time>2016-06-24T18:09:26Z</time>
      </trkpt>
      <trkpt lat="46.21601" lon="4.34391">
        <ele>468</ele>
        <time>2016-06-24T18:11:26Z</time>
      </trkpt>
      <trkpt lat="46.21602" lon="4.34409">
        <ele>469</ele>
        <time>2016-06-24T18:13:26Z</time>
      </trkpt>
      <trkpt lat="46.21603" lon="4.34423">
        <ele>470</ele>
        <time>2016-06-24T18:15:26Z</time>
      </trkpt>
      <trkpt lat="46.21606" lon="4.34445">
        <ele>471</ele>
        <time>2016-06-24T18:17:26Z</time>
      </trkpt>
      <trkpt lat="46.21608" lon="4.34454">
        <ele>471</ele>
        <time>2016-06-24T18:19:26Z</time>
      </trkpt>
      <trkpt lat="46.21612" lon="4.34471">
        <ele>471</ele>
        <time>2016-06-24T18:21:26Z</time>
      </trkpt>
      <trkpt lat="46.21616" lon="4.34484">
        <ele>472</ele>
        <time>2016-06-24T18:23:26Z</time>
      </trkpt>
      <trkpt lat="46.21627" lon="4.34518">
        <ele>476</ele>
        <time>2016-06-24T18:25:26Z</time>
      </trkpt>
      <trkpt lat="46.21635" lon="4.34545">
        <ele>477</ele>
        <time>2016-06-24T18:27:26Z</time>
      </trkpt>
      <trkpt lat="46.21646" lon="4.34574">
        <ele>477</ele>
        <time>2016-06-24T18:29:26Z</time>
      </trkpt>
      <trkpt lat="46.21649" lon="4.34582">
        <ele>477</ele>
        <time>2016-06-24T18:31:26Z</time>
      </trkpt>
      <trkpt lat="46.21655" lon="4.34594">
        <ele>479</ele>
        <time>2016-06-24T18:33:26Z</time>
      </trkpt>
      <trkpt lat="46.2166" lon="4.34603">
        <ele>479</ele>
        <time>2016-06-24T18:35:26Z</time>
      </trkpt>
      <trkpt lat="46.21666" lon="4.34611">
        <ele>480</ele>
        <time>2016-06-24T18:37:26Z</time>
      </trkpt>
      <trkpt lat="46.21681" lon="4.34634">
        <ele>479</ele>
        <time>2016-06-24T18:39:26Z</time>
      </trkpt>
      <trkpt lat="46.21689" lon="4.34644">
        <ele>480</ele>
        <time>2016-06-24T18:41:26Z</time>
      </trkpt>
      <trkpt lat="46.21697" lon="4.34656">
        <ele>480</ele>
        <time>2016-06-24T18:43:26Z</time>
      </trkpt>
      <trkpt lat="46.21706" lon="4.34666">
        <ele>481</ele>
        <time>2016-06-24T18:45:26Z</time>
      </trkpt>
      <trkpt lat="46.2172" lon="4.34678">
        <ele>486</ele>
        <time>2016-06-24T18:47:26Z</time>
      </trkpt>
      <trkpt lat="46.21734" lon="4.34689">
        <ele>486</ele>
        <time>2016-06-24T18:49:26Z</time>
      </trkpt>
      <trkpt lat="46.21759" lon="4.3471">
        <ele>488</ele>
        <time>2016-06-24T18:51:26Z</time>
      </trkpt>
      <trkpt lat="46.21774" lon="4.34723">
        <ele>489</ele>
        <time>2016-06-24T18:53:26Z</time>
      </trkpt>
      <trkpt lat="46.21782" lon="4.34732">
        <ele>489</ele>
        <time>2016-06-24T18:55:26Z</time>
      </trkpt>
      <trkpt lat="46.21793" lon="4.34745">
        <ele>489</ele>
        <time>2016-06-24T18:57:26Z</time>
      </trkpt>
      <trkpt lat="46.2181" lon="4.34769">
        <ele>494</ele>
        <time>2016-06-24T18:59:26Z</time>
      </trkpt>
      <trkpt lat="46.21821" lon="4.34785">
        <ele>495</ele>
        <time>2016-06-24T19:01:26Z</time>
      </trkpt>
      <trkpt lat="46.2183" lon="4.348">
        <ele>496</ele>
        <time>2016-06-24T19:03:26Z</time>
      </trkpt>
      <trkpt lat="46.21836" lon="4.34814">
        <ele>491</ele>
        <time>2016-06-24T19:05:26Z</time>
      </trkpt>
      <trkpt lat="46.2184" lon="4.34826">
        <ele>494</ele>
        <time>2016-06-24T19:07:26Z</time>
      </trkpt>
      <trkpt lat="46.21842" lon="4.34832">
        <ele>494</ele>
        <time>2016-06-24T19:09:26Z</time>
      </trkpt>
      <trkpt lat="46.21843" lon="4.34841">
        <ele>495</ele>
        <time>2016-06-24T19:11:26Z</time>
      </trkpt>
      <trkpt lat="46.21844" lon="4.34848">
        <ele>493</ele>
        <time>2016-06-24T19:13:26Z</time>
      </trkpt>
      <trkpt lat="46.21846" lon="4.34859">
        <ele>492</ele>
        <time>2016-06-24T19:15:26Z</time>
      </trkpt>
      <trkpt lat="46.21847" lon="4.34882">
        <ele>492</ele>
        <time>2016-06-24T19:17:26Z</time>
      </trkpt>
      <trkpt lat="46.21849" lon="4.34905">
        <ele>493</ele>
        <time>2016-06-24T19:19:26Z</time>
      </trkpt>
      <trkpt lat="46.2185" lon="4.34917">
        <ele>493</ele>
        <time>2016-06-24T19:21:26Z</time>
      </trkpt>
      <trkpt lat="46.21852" lon="4.34935">
        <ele>492</ele>
        <time>2016-06-24T19:23:26Z</time>
      </trkpt>
      <trkpt lat="46.21854" lon="4.34949">
        <ele>491</ele>
        <time>2016-06-24T19:25:26Z</time>
      </trkpt>
      <trkpt lat="46.21857" lon="4.3496">
        <ele>491</ele>
        <time>2016-06-24T19:27:26Z</time>
      </trkpt>
      <trkpt lat="46.21861" lon="4.34972">
        <ele>491</ele>
        <time>2016-06-24T19:29:26Z</time>
      </trkpt>
      <trkpt lat="46.21866" lon="4.34986">
        <ele>490</ele>
        <time>2016-06-24T19:31:26Z</time>
      </trkpt>
      <trkpt lat="46.2188" lon="4.35012">
        <ele>491</ele>
        <time>2016-06-24T19:33:26Z</time>
      </trkpt>
      <trkpt lat="46.21902" lon="4.35052">
        <ele>491</ele>
        <time>2016-06-24T19:35:26Z</time>
      </trkpt>
      <trkpt lat="46.21926" lon="4.35093">
        <ele>487</ele>
        <time>2016-06-24T19:37:26Z</time>
      </trkpt>
      <trkpt lat="46.21949" lon="4.35135">
        <ele>487</ele>
        <time>2016-06-24T19:39:26Z</time>
      </trkpt>
      <trkpt lat="46.21963" lon="4.35161">
        <ele>486</ele>
        <time>2016-06-24T19:41:26Z</time>
      </trkpt>
      <trkpt lat="46.2197" lon="4.35175">
        <ele>489</ele>
        <time>2016-06-24T19:43:26Z</time>
      </trkpt>
      <trkpt lat="46.21979" lon="4.35191">
        <ele>489</ele>
        <time>2016-06-24T19:45:26Z</time>
      </trkpt>
      <trkpt lat="46.21986" lon="4.352">
        <ele>489</ele>
        <time>2016-06-24T19:47:26Z</time>
      </trkpt>
      <trkpt lat="46.21991" lon="4.35204">
        <ele>489</ele>
        <time>2016-06-24T19:49:26Z</time>
      </trkpt>
      <trkpt lat="46.21996" lon="4.35207">
        <ele>489</ele>
        <time>2016-06-24T19:51:26Z</time>
      </trkpt>
      <trkpt lat="46.22001" lon="4.35209">
        <ele>487</ele>
        <time>2016-06-24T19:53:26Z</time>
      </trkpt>
      <trkpt lat="46.22007" lon="4.35209">
        <ele>487</ele>
        <time>2016-06-24T19:55:26Z</time>
      </trkpt>
      <trkpt lat="46.22011" lon="4.35207">
        <ele>487</ele>
        <time>2016-06-24T19:57:26Z</time>
      </trkpt>
      <trkpt lat="46.22014" lon="4.35206">
        <ele>487</ele>
        <time>2016-06-24T19:59:26Z</time>
      </trkpt>
      <trkpt lat="46.22023" lon="4.35199">
        <ele>487</ele>
        <time>2016-06-24T20:01:26Z</time>
      </trkpt>
      <trkpt lat="46.22026" lon="4.35194">
        <ele>487</ele>
        <time>2016-06-24T20:03:26Z</time>
      </trkpt>
      <trkpt lat="46.22061" lon="4.35143">
        <ele>483</ele>
        <time>2016-06-24T20:05:26Z</time>
      </trkpt>
      <trkpt lat="46.2209" lon="4.35098">
        <ele>484</ele>
        <time>2016-06-24T20:07:26Z</time>
      </trkpt>
      <trkpt lat="46.22108" lon="4.35073">
        <ele>480</ele>
        <time>2016-06-24T20:09:26Z</time>
      </trkpt>
      <trkpt lat="46.22119" lon="4.35058">
        <ele>480</ele>
        <time>2016-06-24T20:11:26Z</time>
      </trkpt>
      <trkpt lat="46.22128" lon="4.35046">
        <ele>480</ele>
        <time>2016-06-24T20:13:26Z</time>
      </trkpt>
      <trkpt lat="46.2214" lon="4.35032">
        <ele>480</ele>
        <time>2016-06-24T20:15:26Z</time>
      </trkpt>
      <trkpt lat="46.22152" lon="4.35022">
        <ele>479</ele>
        <time>2016-06-24T20:17:26Z</time>
      </trkpt>
      <trkpt lat="46.22163" lon="4.35014">
        <ele>479</ele>
        <time>2016-06-24T20:19:26Z</time>
      </trkpt>
      <trkpt lat="46.22199" lon="4.34985">
        <ele>479</ele>
        <time>2016-06-24T20:21:26Z</time>
      </trkpt>
      <trkpt lat="46.22223" lon="4.34969">
        <ele>479</ele>
        <time>2016-06-24T20:23:26Z</time>
      </trkpt>
      <trkpt lat="46.22252" lon="4.34948">
        <ele>482</ele>
        <time>2016-06-24T20:25:26Z</time>
      </trkpt>
      <trkpt lat="46.22265" lon="4.34938">
        <ele>482</ele>
        <time>2016-06-24T20:27:26Z</time>
      </trkpt>
      <trkpt lat="46.22274" lon="4.34932">
        <ele>482</ele>
        <time>2016-06-24T20:29:26Z</time>
      </trkpt>
      <trkpt lat="46.22285" lon="4.34927">
        <ele>483</ele>
        <time>2016-06-24T20:31:26Z</time>
      </trkpt>
      <trkpt lat="46.22296" lon="4.34925">
        <ele>483</ele>
        <time>2016-06-24T20:33:26Z</time>
      </trkpt>
      <trkpt lat="46.22303" lon="4.34927">
        <ele>483</ele>
        <time>2016-06-24T20:35:26Z</time>
      </trkpt>
      <trkpt lat="46.22308" lon="4.34928">
        <ele>484</ele>
        <time>2016-06-24T20:37:26Z</time>
      </trkpt>
      <trkpt lat="46.22317" lon="4.34935">
        <ele>484</ele>
        <time>2016-06-24T20:39:26Z</time>
      </trkpt>
      <trkpt lat="46.22323" lon="4.3494">
        <ele>484</ele>
        <time>2016-06-24T20:41:26Z</time>
      </trkpt>
      <trkpt lat="46.22336" lon="4.34961">
        <ele>479</ele>
        <time>2016-06-24T20:43:26Z</time>
      </trkpt>
      <trkpt lat="46.22361" lon="4.35008">
        <ele>478</ele>
        <time>2016-06-24T20:45:26Z</time>
      </trkpt>
      <trkpt lat="46.22374" lon="4.35033">
        <ele>478</ele>
        <time>2016-06-24T20:47:26Z</time>
      </trkpt>
      <trkpt lat="46.22381" lon="4.35051">
        <ele>478</ele>
        <time>2016-06-24T20:49:26Z</time>
      </trkpt>
      <trkpt lat="46.22386" lon="4.3507">
        <ele>478</ele>
        <time>2016-06-24T20:51:26Z</time>
      </trkpt>
      <trkpt lat="46.22391" lon="4.35101">
        <ele>482</ele>
        <time>2016-06-24T20:53:26Z</time>
      </trkpt>
      <trkpt lat="46.22394" lon="4.35133">
        <ele>483</ele>
        <time>2016-06-24T20:55:26Z</time>
      </trkpt>
      <trkpt lat="46.22399" lon="4.35183">
        <ele>484</ele>
        <time>2016-06-24T20:57:26Z</time>
      </trkpt>
      <trkpt lat="46.22403" lon="4.3523">
        <ele>483</ele>
        <time>2016-06-24T20:59:26Z</time>
      </trkpt>
      <trkpt lat="46.22404" lon="4.35245">
        <ele>480</ele>
        <time>2016-06-24T21:01:26Z</time>
      </trkpt>
      <trkpt lat="46.22404" lon="4.35259">
        <ele>479</ele>
        <time>2016-06-24T21:03:26Z</time>
      </trkpt>
      <trkpt lat="46.22402" lon="4.35286">
        <ele>481</ele>
        <time>2016-06-24T21:05:26Z</time>
      </trkpt>
      <trkpt lat="46.22395" lon="4.35325">
        <ele>479</ele>
        <time>2016-06-24T21:07:26Z</time>
      </trkpt>
      <trkpt lat="46.22391" lon="4.35371">
        <ele>479</ele>
        <time>2016-06-24T21:09:26Z</time>
      </trkpt>
      <trkpt lat="46.22391" lon="4.35396">
        <ele>478</ele>
        <time>2016-06-24T21:11:26Z</time>
      </trkpt>
      <trkpt lat="46.22392" lon="4.35408">
        <ele>478</ele>
        <time>2016-06-24T21:13:26Z</time>
      </trkpt>
      <trkpt lat="46.22396" lon="4.35422">
        <ele>479</ele>
        <time>2016-06-24T21:15:26Z</time>
      </trkpt>
      <trkpt lat="46.22401" lon="4.35436">
        <ele>480</ele>
        <time>2016-06-24T21:17:26Z</time>
      </trkpt>
      <trkpt lat="46.22413" lon="4.35457">
        <ele>481</ele>
        <time>2016-06-24T21:19:26Z</time>
      </trkpt>
      <trkpt lat="46.22435" lon="4.35482">
        <ele>471</ele>
        <time>2016-06-24T21:21:26Z</time>
      </trkpt>
      <trkpt lat="46.22446" lon="4.35494">
        <ele>470</ele>
        <time>2016-06-24T21:23:26Z</time>
      </trkpt>
      <trkpt lat="46.22468" lon="4.35514">
        <ele>472</ele>
        <time>2016-06-24T21:25:26Z</time>
      </trkpt>
      <trkpt lat="46.22493" lon="4.35533">
        <ele>470</ele>
        <time>2016-06-24T21:27:26Z</time>
      </trkpt>
      <trkpt lat="46.22508" lon="4.35541">
        <ele>463</ele>
        <time>2016-06-24T21:29:26Z</time>
      </trkpt>
      <trkpt lat="46.22527" lon="4.35552">
        <ele>463</ele>
        <time>2016-06-24T21:31:26Z</time>
      </trkpt>
      <trkpt lat="46.22546" lon="4.35568">
        <ele>462</ele>
        <time>2016-06-24T21:33:26Z</time>
      </trkpt>
      <trkpt lat="46.22557" lon="4.35581">
        <ele>462</ele>
        <time>2016-06-24T21:35:26Z</time>
      </trkpt>
      <trkpt lat="46.22563" lon="4.3559">
        <ele>462</ele>
        <time>2016-06-24T21:37:26Z</time>
      </trkpt>
      <trkpt lat="46.22573" lon="4.35605">
        <ele>462</ele>
        <time>2016-06-24T21:39:26Z</time>
      </trkpt>
      <trkpt lat="46.2258" lon="4.3562">
        <ele>461</ele>
        <time>2016-06-24T21:41:26Z</time>
      </trkpt>
      <trkpt lat="46.22586" lon="4.35633">
        <ele>455</ele>
        <time>2016-06-24T21:43:26Z</time>
      </trkpt>
      <trkpt lat="46.22591" lon="4.35645">
        <ele>455</ele>
        <time>2016-06-24T21:45:26Z</time>
      </trkpt>
      <trkpt lat="46.22593" lon="4.35658">
        <ele>455</ele>
        <time>2016-06-24T21:47:26Z</time>
      </trkpt>
      <trkpt lat="46.22594" lon="4.35669">
        <ele>453</ele>
        <time>2016-06-24T21:49:26Z</time>
      </trkpt>
      <trkpt lat="46.22593" lon="4.3568">
        <ele>452</ele>
        <time>2016-06-24T21:51:26Z</time>
      </trkpt>
      <trkpt lat="46.22589" lon="4.35693">
        <ele>450</ele>
        <time>2016-06-24T21:53:26Z</time>
      </trkpt>
      <trkpt lat="46.22588" lon="4.35696">
        <ele>450</ele>
        <time>2016-06-24T21:55:26Z</time>
      </trkpt>
      <trkpt lat="46.22583" lon="4.35703">
        <ele>456</ele>
        <time>2016-06-24T21:57:26Z</time>
      </trkpt>
      <trkpt lat="46.22571" lon="4.35715">
        <ele>456</ele>
        <time>2016-06-24T21:59:26Z</time>
      </trkpt>
      <trkpt lat="46.22553" lon="4.35727">
        <ele>456</ele>
        <time>2016-06-24T22:01:26Z</time>
      </trkpt>
      <trkpt lat="46.22542" lon="4.35732">
        <ele>457</ele>
        <time>2016-06-24T22:03:26Z</time>
      </trkpt>
      <trkpt lat="46.22526" lon="4.35736">
        <ele>458</ele>
        <time>2016-06-24T22:05:26Z</time>
      </trkpt>
      <trkpt lat="46.2251" lon="4.35741">
        <ele>460</ele>
        <time>2016-06-24T22:07:26Z</time>
      </trkpt>
      <trkpt lat="46.22499" lon="4.35748">
        <ele>462</ele>
        <time>2016-06-24T22:09:26Z</time>
      </trkpt>
      <trkpt lat="46.22494" lon="4.35758">
        <ele>462</ele>
        <time>2016-06-24T22:11:26Z</time>
      </trkpt>
      <trkpt lat="46.22491" lon="4.35766">
        <ele>463</ele>
        <time>2016-06-24T22:13:26Z</time>
      </trkpt>
      <trkpt lat="46.2249" lon="4.35775">
        <ele>463</ele>
        <time>2016-06-24T22:15:26Z</time>
      </trkpt>
      <trkpt lat="46.22491" lon="4.35794">
        <ele>463</ele>
        <time>2016-06-24T22:17:26Z</time>
      </trkpt>
      <trkpt lat="46.22495" lon="4.35826">
        <ele>459</ele>
        <time>2016-06-24T22:19:26Z</time>
      </trkpt>
      <trkpt lat="46.22499" lon="4.35846">
        <ele>459</ele>
        <time>2016-06-24T22:21:26Z</time>
      </trkpt>
      <trkpt lat="46.22501" lon="4.35856">
        <ele>455</ele>
        <time>2016-06-24T22:23:26Z</time>
      </trkpt>
      <trkpt lat="46.22506" lon="4.35869">
        <ele>454</ele>
        <time>2016-06-24T22:25:26Z</time>
      </trkpt>
      <trkpt lat="46.22525" lon="4.35915">
        <ele>455</ele>
        <time>2016-06-24T22:27:26Z</time>
      </trkpt>
      <trkpt lat="46.22547" lon="4.3597">
        <ele>453</ele>
        <time>2016-06-24T22:29:26Z</time>
      </trkpt>
      <trkpt lat="46.22558" lon="4.36001">
        <ele>450</ele>
        <time>2016-06-24T22:31:26Z</time>
      </trkpt>
      <trkpt lat="46.22567" lon="4.36036">
        <ele>448</ele>
        <time>2016-06-24T22:33:26Z</time>
      </trkpt>
      <trkpt lat="46.22573" lon="4.36064">
        <ele>445</ele>
        <time>2016-06-24T22:35:26Z</time>
      </trkpt>
      <trkpt lat="46.22577" lon="4.3609">
        <ele>440</ele>
        <time>2016-06-24T22:37:26Z</time>
      </trkpt>
      <trkpt lat="46.22578" lon="4.36129">
        <ele>439</ele>
        <time>2016-06-24T22:39:26Z</time>
      </trkpt>
      <trkpt lat="46.22578" lon="4.36145">
        <ele>438</ele>
        <time>2016-06-24T22:41:26Z</time>
      </trkpt>
      <trkpt lat="46.22577" lon="4.36159">
        <ele>436</ele>
        <time>2016-06-24T22:43:26Z</time>
      </trkpt>
      <trkpt lat="46.22572" lon="4.36173">
        <ele>433</ele>
        <time>2016-06-24T22:45:26Z</time>
      </trkpt>
      <trkpt lat="46.22566" lon="4.36182">
        <ele>432</ele>
        <time>2016-06-24T22:47:26Z</time>
      </trkpt>
      <trkpt lat="46.22561" lon="4.36188">
        <ele>432</ele>
        <time>2016-06-24T22:49:26Z</time>
      </trkpt>
      <trkpt lat="46.22556" lon="4.36191">
        <ele>432</ele>
        <time>2016-06-24T22:51:26Z</time>
      </trkpt>
      <trkpt lat="46.22548" lon="4.36193">
        <ele>432</ele>
        <time>2016-06-24T22:53:26Z</time>
      </trkpt>
      <trkpt lat="46.22534" lon="4.36191">
        <ele>433</ele>
        <time>2016-06-24T22:55:26Z</time>
      </trkpt>
      <trkpt lat="46.22514" lon="4.36186">
        <ele>435</ele>
        <time>2016-06-24T22:57:26Z</time>
      </trkpt>
      <trkpt lat="46.22504" lon="4.36185">
        <ele>436</ele>
        <time>2016-06-24T22:59:26Z</time>
      </trkpt>
      <trkpt lat="46.22498" lon="4.36185">
        <ele>440</ele>
        <time>2016-06-24T23:01:26Z</time>
      </trkpt>
      <trkpt lat="46.22486" lon="4.3619">
        <ele>440</ele>
        <time>2016-06-24T23:03:26Z</time>
      </trkpt>
      <trkpt lat="46.22479" lon="4.36199">
        <ele>440</ele>
        <time>2016-06-24T23:05:26Z</time>
      </trkpt>
      <trkpt lat="46.22474" lon="4.36209">
        <ele>439</ele>
        <time>2016-06-24T23:07:26Z</time>
      </trkpt>
      <trkpt lat="46.22468" lon="4.36236">
        <ele>438</ele>
        <time>2016-06-24T23:09:26Z</time>
      </trkpt>
      <trkpt lat="46.22465" lon="4.36251">
        <ele>430</ele>
        <time>2016-06-24T23:11:26Z</time>
      </trkpt>
      <trkpt lat="46.2246" lon="4.36265">
        <ele>430</ele>
        <time>2016-06-24T23:13:26Z</time>
      </trkpt>
      <trkpt lat="46.22456" lon="4.36278">
        <ele>429</ele>
        <time>2016-06-24T23:15:26Z</time>
      </trkpt>
      <trkpt lat="46.22453" lon="4.36286">
        <ele>429</ele>
        <time>2016-06-24T23:17:26Z</time>
      </trkpt>
      <trkpt lat="46.22447" lon="4.36299">
        <ele>428</ele>
        <time>2016-06-24T23:19:26Z</time>
      </trkpt>
      <trkpt lat="46.22442" lon="4.36307">
        <ele>428</ele>
        <time>2016-06-24T23:21:26Z</time>
      </trkpt>
      <trkpt lat="46.22435" lon="4.36317">
        <ele>428</ele>
        <time>2016-06-24T23:23:26Z</time>
      </trkpt>
      <trkpt lat="46.22427" lon="4.36325">
        <ele>428</ele>
        <time>2016-06-24T23:25:26Z</time>
      </trkpt>
      <trkpt lat="46.22419" lon="4.36329">
        <ele>428</ele>
        <time>2016-06-24T23:27:26Z</time>
      </trkpt>
      <trkpt lat="46.2241" lon="4.36332">
        <ele>430</ele>
        <time>2016-06-24T23:29:26Z</time>
      </trkpt>
      <trkpt lat="46.22387" lon="4.3633">
        <ele>433</ele>
        <time>2016-06-24T23:31:26Z</time>
      </trkpt>
      <trkpt lat="46.22363" lon="4.36325">
        <ele>434</ele>
        <time>2016-06-24T23:33:26Z</time>
      </trkpt>
      <trkpt lat="46.22342" lon="4.3632">
        <ele>433</ele>
        <time>2016-06-24T23:35:26Z</time>
      </trkpt>
      <trkpt lat="46.22324" lon="4.36316">
        <ele>435</ele>
        <time>2016-06-24T23:37:26Z</time>
      </trkpt>
      <trkpt lat="46.22307" lon="4.36314">
        <ele>436</ele>
        <time>2016-06-24T23:39:26Z</time>
      </trkpt>
      <trkpt lat="46.22302" lon="4.36316">
        <ele>436</ele>
        <time>2016-06-24T23:41:26Z</time>
      </trkpt>
      <trkpt lat="46.22298" lon="4.36319">
        <ele>436</ele>
        <time>2016-06-24T23:43:26Z</time>
      </trkpt>
      <trkpt lat="46.22291" lon="4.36327">
        <ele>436</ele>
        <time>2016-06-24T23:45:26Z</time>
      </trkpt>
      <trkpt lat="46.22288" lon="4.36337">
        <ele>432</ele>
        <time>2016-06-24T23:47:26Z</time>
      </trkpt>
      <trkpt lat="46.22287" lon="4.36345">
        <ele>432</ele>
        <time>2016-06-24T23:49:26Z</time>
      </trkpt>
      <trkpt lat="46.22288" lon="4.36357">
        <ele>432</ele>
        <time>2016-06-24T23:51:26Z</time>
      </trkpt>
      <trkpt lat="46.22293" lon="4.3638">
        <ele>432</ele>
        <time>2016-06-24T23:53:26Z</time>
      </trkpt>
      <trkpt lat="46.22298" lon="4.36401">
        <ele>430</ele>
        <time>2016-06-24T23:55:26Z</time>
      </trkpt>
      <trkpt lat="46.22308" lon="4.36429">
        <ele>429</ele>
        <time>2016-06-24T23:57:26Z</time>
      </trkpt>
      <trkpt lat="46.22336" lon="4.36492">
        <ele>419</ele>
        <time>2016-06-24T23:59:26Z</time>
      </trkpt>
      <trkpt lat="46.22342" lon="4.36511">
        <ele>419</ele>
        <time>2016-06-25T00:01:26Z</time>
      </trkpt>
      <trkpt lat="46.22351" lon="4.36538">
        <ele>418</ele>
        <time>2016-06-25T00:03:26Z</time>
      </trkpt>
      <trkpt lat="46.22352" lon="4.36544">
        <ele>418</ele>
        <time>2016-06-25T00:05:26Z</time>
      </trkpt>
      <trkpt lat="46.22355" lon="4.36564">
        <ele>419</ele>
        <time>2016-06-25T00:07:26Z</time>
      </trkpt>
      <trkpt lat="46.22357" lon="4.36589">
        <ele>421</ele>
        <time>2016-06-25T00:09:26Z</time>
      </trkpt>
      <trkpt lat="46.22358" lon="4.36634">
        <ele>419</ele>
        <time>2016-06-25T00:11:26Z</time>
      </trkpt>
      <trkpt lat="46.22359" lon="4.36665">
        <ele>420</ele>
        <time>2016-06-25T00:13:26Z</time>
      </trkpt>
      <trkpt lat="46.2236" lon="4.36708">
        <ele>413</ele>
        <time>2016-06-25T00:15:26Z</time>
      </trkpt>
      <trkpt lat="46.22359" lon="4.36719">
        <ele>413</ele>
        <time>2016-06-25T00:17:26Z</time>
      </trkpt>
      <trkpt lat="46.22357" lon="4.36737">
        <ele>413</ele>
        <time>2016-06-25T00:19:26Z</time>
      </trkpt>
      <trkpt lat="46.22354" lon="4.36745">
        <ele>414</ele>
        <time>2016-06-25T00:21:26Z</time>
      </trkpt>
      <trkpt lat="46.22351" lon="4.36756">
        <ele>412</ele>
        <time>2016-06-25T00:23:26Z</time>
      </trkpt>
      <trkpt lat="46.22344" lon="4.36771">
        <ele>411</ele>
        <time>2016-06-25T00:25:26Z</time>
      </trkpt>
      <trkpt lat="46.22334" lon="4.36787">
        <ele>409</ele>
        <time>2016-06-25T00:27:26Z</time>
      </trkpt>
      <trkpt lat="46.22312" lon="4.36825">
        <ele>421</ele>
        <time>2016-06-25T00:29:26Z</time>
      </trkpt>
      <trkpt lat="46.223" lon="4.36844">
        <ele>417</ele>
        <time>2016-06-25T00:31:26Z</time>
      </trkpt>
      <trkpt lat="46.22292" lon="4.36861">
        <ele>418</ele>
        <time>2016-06-25T00:33:26Z</time>
      </trkpt>
      <trkpt lat="46.22282" lon="4.36883">
        <ele>418</ele>
        <time>2016-06-25T00:35:26Z</time>
      </trkpt>
      <trkpt lat="46.22277" lon="4.36899">
        <ele>417</ele>
        <time>2016-06-25T00:37:26Z</time>
      </trkpt>
      <trkpt lat="46.22273" lon="4.36916">
        <ele>417</ele>
        <time>2016-06-25T00:39:26Z</time>
      </trkpt>
      <trkpt lat="46.22272" lon="4.36929">
        <ele>412</ele>
        <time>2016-06-25T00:41:26Z</time>
      </trkpt>
      <trkpt lat="46.22272" lon="4.36936">
        <ele>411</ele>
        <time>2016-06-25T00:43:26Z</time>
      </trkpt>
      <trkpt lat="46.22274" lon="4.36951">
        <ele>410</ele>
        <time>2016-06-25T00:45:26Z</time>
      </trkpt>
      <trkpt lat="46.22278" lon="4.36962">
        <ele>409</ele>
        <time>2016-06-25T00:47:26Z</time>
      </trkpt>
      <trkpt lat="46.22283" lon="4.3697">
        <ele>408</ele>
        <time>2016-06-25T00:49:26Z</time>
      </trkpt>
      <trkpt lat="46.22288" lon="4.36975">
        <ele>408</ele>
        <time>2016-06-25T00:51:26Z</time>
      </trkpt>
      <trkpt lat="46.2229" lon="4.36976">
        <ele>408</ele>
        <time>2016-06-25T00:53:26Z</time>
      </trkpt>
      <trkpt lat="46.22299" lon="4.3698">
        <ele>407</ele>
        <time>2016-06-25T00:55:26Z</time>
      </trkpt>
      <trkpt lat="46.22309" lon="4.36982">
        <ele>406</ele>
        <time>2016-06-25T00:57:26Z</time>
      </trkpt>
      <trkpt lat="46.22322" lon="4.36984">
        <ele>406</ele>
        <time>2016-06-25T00:59:26Z</time>
      </trkpt>
      <trkpt lat="46.22328" lon="4.36985">
        <ele>405</ele>
        <time>2016-06-25T01:01:26Z</time>
      </trkpt>
      <trkpt lat="46.22333" lon="4.36985">
        <ele>405</ele>
        <time>2016-06-25T01:03:26Z</time>
      </trkpt>
      <trkpt lat="46.22341" lon="4.36984">
        <ele>409</ele>
        <time>2016-06-25T01:05:26Z</time>
      </trkpt>
      <trkpt lat="46.22345" lon="4.36981">
        <ele>410</ele>
        <time>2016-06-25T01:07:26Z</time>
      </trkpt>
      <trkpt lat="46.22348" lon="4.36979">
        <ele>410</ele>
        <time>2016-06-25T01:09:26Z</time>
      </trkpt>
      <trkpt lat="46.22354" lon="4.36971">
        <ele>412</ele>
        <time>2016-06-25T01:11:26Z</time>
      </trkpt>
      <trkpt lat="46.22358" lon="4.36966">
        <ele>412</ele>
        <time>2016-06-25T01:13:26Z</time>
      </trkpt>
      <trkpt lat="46.22364" lon="4.36957">
        <ele>413</ele>
        <time>2016-06-25T01:15:26Z</time>
      </trkpt>
      <trkpt lat="46.22386" lon="4.36925">
        <ele>415</ele>
        <time>2016-06-25T01:17:26Z</time>
      </trkpt>
      <trkpt lat="46.22399" lon="4.36909">
        <ele>412</ele>
        <time>2016-06-25T01:19:26Z</time>
      </trkpt>
      <trkpt lat="46.22417" lon="4.36888">
        <ele>416</ele>
        <time>2016-06-25T01:21:26Z</time>
      </trkpt>
      <trkpt lat="46.22428" lon="4.36876">
        <ele>415</ele>
        <time>2016-06-25T01:23:26Z</time>
      </trkpt>
      <trkpt lat="46.22438" lon="4.36868">
        <ele>414</ele>
        <time>2016-06-25T01:25:26Z</time>
      </trkpt>
      <trkpt lat="46.22453" lon="4.36857">
        <ele>414</ele>
        <time>2016-06-25T01:27:26Z</time>
      </trkpt>
      <trkpt lat="46.22471" lon="4.36848">
        <ele>414</ele>
        <time>2016-06-25T01:29:26Z</time>
      </trkpt>
      <trkpt lat="46.22479" lon="4.36845">
        <ele>414</ele>
        <time>2016-06-25T01:31:26Z</time>
      </trkpt>
      <trkpt lat="46.2249" lon="4.36845">
        <ele>413</ele>
        <time>2016-06-25T01:33:26Z</time>
      </trkpt>
      <trkpt lat="46.22499" lon="4.36846">
        <ele>413</ele>
        <time>2016-06-25T01:35:26Z</time>
      </trkpt>
      <trkpt lat="46.22528" lon="4.36852">
        <ele>417</ele>
        <time>2016-06-25T01:37:26Z</time>
      </trkpt>
      <trkpt lat="46.22554" lon="4.36857">
        <ele>417</ele>
        <time>2016-06-25T01:39:26Z</time>
      </trkpt>
      <trkpt lat="46.22575" lon="4.36859">
        <ele>416</ele>
        <time>2016-06-25T01:41:26Z</time>
      </trkpt>
      <trkpt lat="46.22586" lon="4.36863">
        <ele>413</ele>
        <time>2016-06-25T01:43:26Z</time>
      </trkpt>
      <trkpt lat="46.22592" lon="4.36866">
        <ele>414</ele>
        <time>2016-06-25T01:45:26Z</time>
      </trkpt>
      <trkpt lat="46.22604" lon="4.3688">
        <ele>416</ele>
        <time>2016-06-25T01:47:26Z</time>
      </trkpt>
      <trkpt lat="46.22611" lon="4.36889">
        <ele>417</ele>
        <time>2016-06-25T01:49:26Z</time>
      </trkpt>
      <trkpt lat="46.22626" lon="4.36915">
        <ele>418</ele>
        <time>2016-06-25T01:51:26Z</time>
      </trkpt>
      <trkpt lat="46.22632" lon="4.36925">
        <ele>428</ele>
        <time>2016-06-25T01:53:26Z</time>
      </trkpt>
      <trkpt lat="46.22636" lon="4.36929">
        <ele>428</ele>
        <time>2016-06-25T01:55:26Z</time>
      </trkpt>
      <trkpt lat="46.22641" lon="4.36933">
        <ele>427</ele>
        <time>2016-06-25T01:57:26Z</time>
      </trkpt>
      <trkpt lat="46.22644" lon="4.36936">
        <ele>427</ele>
        <time>2016-06-25T01:59:26Z</time>
      </trkpt>
      <trkpt lat="46.22648" lon="4.36936">
        <ele>427</ele>
        <time>2016-06-25T02:01:26Z</time>
      </trkpt>
      <trkpt lat="46.22655" lon="4.36935">
        <ele>425</ele>
        <time>2016-06-25T02:03:26Z</time>
      </trkpt>
      <trkpt lat="46.22667" lon="4.3693">
        <ele>420</ele>
        <time>2016-06-25T02:05:26Z</time>
      </trkpt>
      <trkpt lat="46.22683" lon="4.3692">
        <ele>421</ele>
        <time>2016-06-25T02:07:26Z</time>
      </trkpt>
      <trkpt lat="46.22693" lon="4.36913">
        <ele>419</ele>
        <time>2016-06-25T02:09:26Z</time>
      </trkpt>
      <trkpt lat="46.22703" lon="4.36903">
        <ele>420</ele>
        <time>2016-06-25T02:11:26Z</time>
      </trkpt>
      <trkpt lat="46.2271" lon="4.36889">
        <ele>421</ele>
        <time>2016-06-25T02:13:26Z</time>
      </trkpt>
      <trkpt lat="46.22712" lon="4.3688">
        <ele>421</ele>
        <time>2016-06-25T02:15:26Z</time>
      </trkpt>
      <trkpt lat="46.22713" lon="4.36871">
        <ele>420</ele>
        <time>2016-06-25T02:17:26Z</time>
      </trkpt>
      <trkpt lat="46.22713" lon="4.36862">
        <ele>420</ele>
        <time>2016-06-25T02:19:26Z</time>
      </trkpt>
      <trkpt lat="46.22713" lon="4.36846">
        <ele>420</ele>
        <time>2016-06-25T02:21:26Z</time>
      </trkpt>
      <trkpt lat="46.22713" lon="4.36836">
        <ele>420</ele>
        <time>2016-06-25T02:23:26Z</time>
      </trkpt>
      <trkpt lat="46.22712" lon="4.3681">
        <ele>417</ele>
        <time>2016-06-25T02:25:26Z</time>
      </trkpt>
      <trkpt lat="46.22712" lon="4.368">
        <ele>417</ele>
        <time>2016-06-25T02:27:26Z</time>
      </trkpt>
      <trkpt lat="46.22713" lon="4.36789">
        <ele>417</ele>
        <time>2016-06-25T02:29:26Z</time>
      </trkpt>
      <trkpt lat="46.22714" lon="4.36782">
        <ele>417</ele>
        <time>2016-06-25T02:31:26Z</time>
      </trkpt>
      <trkpt lat="46.22715" lon="4.36772">
        <ele>418</ele>
        <time>2016-06-25T02:33:26Z</time>
      </trkpt>
      <trkpt lat="46.22722" lon="4.36748">
        <ele>418</ele>
        <time>2016-06-25T02:35:26Z</time>
      </trkpt>
      <trkpt lat="46.22724" lon="4.3674">
        <ele>418</ele>
        <time>2016-06-25T02:37:26Z</time>
      </trkpt>
      <trkpt lat="46.22726" lon="4.36729">
        <ele>418</ele>
        <time>2016-06-25T02:39:26Z</time>
      </trkpt>
      <trkpt lat="46.22728" lon="4.36713">
        <ele>418</ele>
        <time>2016-06-25T02:41:26Z</time>
      </trkpt>
      <trkpt lat="46.22729" lon="4.36687">
        <ele>418</ele>
        <time>2016-06-25T02:43:26Z</time>
      </trkpt>
      <trkpt lat="46.2273" lon="4.36678">
        <ele>419</ele>
        <time>2016-06-25T02:45:26Z</time>
      </trkpt>
      <trkpt lat="46.22732" lon="4.36668">
        <ele>419</ele>
        <time>2016-06-25T02:47:26Z</time>
      </trkpt>
      <trkpt lat="46.22735" lon="4.36662">
        <ele>418</ele>
        <time>2016-06-25T02:49:26Z</time>
      </trkpt>
      <trkpt lat="46.22738" lon="4.36656">
        <ele>418</ele>
        <time>2016-06-25T02:51:26Z</time>
      </trkpt>
      <trkpt lat="46.22744" lon="4.36651">
        <ele>418</ele>
        <time>2016-06-25T02:53:26Z</time>
      </trkpt>
      <trkpt lat="46.22754" lon="4.36646">
        <ele>421</ele>
        <time>2016-06-25T02:55:26Z</time>
      </trkpt>
      <trkpt lat="46.22761" lon="4.36645">
        <ele>421</ele>
        <time>2016-06-25T02:57:26Z</time>
      </trkpt>
      <trkpt lat="46.22773" lon="4.36646">
        <ele>421</ele>
        <time>2016-06-25T02:59:26Z</time>
      </trkpt>
      <trkpt lat="46.22796" lon="4.36652">
        <ele>422</ele>
        <time>2016-06-25T03:01:26Z</time>
      </trkpt>
      <trkpt lat="46.22822" lon="4.3666">
        <ele>424</ele>
        <time>2016-06-25T03:03:26Z</time>
      </trkpt>
      <trkpt lat="46.22862" lon="4.36672">
        <ele>430</ele>
        <time>2016-06-25T03:05:26Z</time>
      </trkpt>
      <trkpt lat="46.22946" lon="4.36696">
        <ele>432</ele>
        <time>2016-06-25T03:07:26Z</time>
      </trkpt>
      <trkpt lat="46.2296" lon="4.367">
        <ele>432</ele>
        <time>2016-06-25T03:09:26Z</time>
      </trkpt>
      <trkpt lat="46.22989" lon="4.36714">
        <ele>433</ele>
        <time>2016-06-25T03:11:26Z</time>
      </trkpt>
      <trkpt lat="46.23018" lon="4.36732">
        <ele>431</ele>
        <time>2016-06-25T03:13:26Z</time>
      </trkpt>
      <trkpt lat="46.23044" lon="4.36753">
        <ele>438</ele>
        <time>2016-06-25T03:15:26Z</time>
      </trkpt>
      <trkpt lat="46.23058" lon="4.36765">
        <ele>437</ele>
        <time>2016-06-25T03:17:26Z</time>
      </trkpt>
      <trkpt lat="46.23066" lon="4.36774">
        <ele>437</ele>
        <time>2016-06-25T03:19:26Z</time>
      </trkpt>
      <trkpt lat="46.23076" lon="4.36787">
        <ele>438</ele>
        <time>2016-06-25T03:21:26Z</time>
      </trkpt>
      <trkpt lat="46.23087" lon="4.36803">
        <ele>431</ele>
        <time>2016-06-25T03:23:26Z</time>
      </trkpt>
      <trkpt lat="46.231" lon="4.36828">
        <ele>434</ele>
        <time>2016-06-25T03:25:26Z</time>
      </trkpt>
      <trkpt lat="46.23131" lon="4.36897">
        <ele>441</ele>
        <time>2016-06-25T03:27:26Z</time>
      </trkpt>
      <trkpt lat="46.23163" lon="4.36975">
        <ele>451</ele>
        <time>2016-06-25T03:29:26Z</time>
      </trkpt>
      <trkpt lat="46.23176" lon="4.37009">
        <ele>446</ele>
        <time>2016-06-25T03:31:26Z</time>
      </trkpt>
      <trkpt lat="46.23187" lon="4.37039">
        <ele>446</ele>
        <time>2016-06-25T03:33:26Z</time>
      </trkpt>
      <trkpt lat="46.23198" lon="4.37068">
        <ele>447</ele>
        <time>2016-06-25T03:35:26Z</time>
      </trkpt>
      <trkpt lat="46.23218" lon="4.37101">
        <ele>455</ele>
        <time>2016-06-25T03:37:26Z</time>
      </trkpt>
      <trkpt lat="46.23237" lon="4.37127">
        <ele>455</ele>
        <time>2016-06-25T03:39:26Z</time>
      </trkpt>
      <trkpt lat="46.23253" lon="4.37153">
        <ele>450</ele>
        <time>2016-06-25T03:41:26Z</time>
      </trkpt>
      <trkpt lat="46.23266" lon="4.3718">
        <ele>454</ele>
        <time>2016-06-25T03:43:26Z</time>
      </trkpt>
      <trkpt lat="46.23278" lon="4.37219">
        <ele>456</ele>
        <time>2016-06-25T03:45:26Z</time>
      </trkpt>
      <trkpt lat="46.23288" lon="4.37268">
        <ele>462</ele>
        <time>2016-06-25T03:47:26Z</time>
      </trkpt>
      <trkpt lat="46.23291" lon="4.37285">
        <ele>462</ele>
        <time>2016-06-25T03:49:26Z</time>
      </trkpt>
      <trkpt lat="46.23294" lon="4.37312">
        <ele>463</ele>
        <time>2016-06-25T03:51:26Z</time>
      </trkpt>
      <trkpt lat="46.23295" lon="4.37347">
        <ele>464</ele>
        <time>2016-06-25T03:53:26Z</time>
      </trkpt>
      <trkpt lat="46.23294" lon="4.37371">
        <ele>464</ele>
        <time>2016-06-25T03:55:26Z</time>
      </trkpt>
      <trkpt lat="46.23292" lon="4.37393">
        <ele>464</ele>
        <time>2016-06-25T03:57:26Z</time>
      </trkpt>
      <trkpt lat="46.23277" lon="4.37473">
        <ele>463</ele>
        <time>2016-06-25T03:59:26Z</time>
      </trkpt>
      <trkpt lat="46.23267" lon="4.3752">
        <ele>463</ele>
        <time>2016-06-25T04:01:26Z</time>
      </trkpt>
      <trkpt lat="46.23259" lon="4.37549">
        <ele>463</ele>
        <time>2016-06-25T04:03:26Z</time>
      </trkpt>
      <trkpt lat="46.23254" lon="4.3756">
        <ele>464</ele>
        <time>2016-06-25T04:05:26Z</time>
      </trkpt>
      <trkpt lat="46.2325" lon="4.37567">
        <ele>465</ele>
        <time>2016-06-25T04:07:26Z</time>
      </trkpt>
      <trkpt lat="46.2324" lon="4.3758">
        <ele>472</ele>
        <time>2016-06-25T04:09:26Z</time>
      </trkpt>
      <trkpt lat="46.23231" lon="4.37591">
        <ele>473</ele>
        <time>2016-06-25T04:11:26Z</time>
      </trkpt>
      <trkpt lat="46.23219" lon="4.37602">
        <ele>475</ele>
        <time>2016-06-25T04:13:26Z</time>
      </trkpt>
      <trkpt lat="46.23207" lon="4.37615">
        <ele>476</ele>
        <time>2016-06-25T04:15:26Z</time>
      </trkpt>
      <trkpt lat="46.23198" lon="4.37628">
        <ele>477</ele>
        <time>2016-06-25T04:17:26Z</time>
      </trkpt>
      <trkpt lat="46.23194" lon="4.37639">
        <ele>477</ele>
        <time>2016-06-25T04:19:26Z</time>
      </trkpt>
      <trkpt lat="46.23193" lon="4.3765">
        <ele>477</ele>
        <time>2016-06-25T04:21:26Z</time>
      </trkpt>
      <trkpt lat="46.23194" lon="4.37657">
        <ele>477</ele>
        <time>2016-06-25T04:23:26Z</time>
      </trkpt>
      <trkpt lat="46.23198" lon="4.3767">
        <ele>479</ele>
        <time>2016-06-25T04:25:26Z</time>
      </trkpt>
      <trkpt lat="46.23203" lon="4.37677">
        <ele>479</ele>
        <time>2016-06-25T04:27:26Z</time>
      </trkpt>
      <trkpt lat="46.23231" lon="4.37701">
        <ele>479</ele>
        <time>2016-06-25T04:29:26Z</time>
      </trkpt>
      <trkpt lat="46.23241" lon="4.37715">
        <ele>481</ele>
        <time>2016-06-25T04:31:26Z</time>
      </trkpt>
      <trkpt lat="46.2325" lon="4.37737">
        <ele>478</ele>
        <time>2016-06-25T04:33:26Z</time>
      </trkpt>
      <trkpt lat="46.23261" lon="4.37773">
        <ele>480</ele>
        <time>2016-06-25T04:35:26Z</time>
      </trkpt>
      <trkpt lat="46.23263" lon="4.37778">
        <ele>480</ele>
        <time>2016-06-25T04:37:26Z</time>
      </trkpt>
      <trkpt lat="46.23269" lon="4.37789">
        <ele>479</ele>
        <time>2016-06-25T04:39:26Z</time>
      </trkpt>
      <trkpt lat="46.23276" lon="4.378">
        <ele>479</ele>
        <time>2016-06-25T04:41:26Z</time>
      </trkpt>
      <trkpt lat="46.23276" lon="4.37801">
        <ele>479</ele>
        <time>2016-06-25T04:43:26Z</time>
      </trkpt>
      <trkpt lat="46.23284" lon="4.37812">
        <ele>479</ele>
        <time>2016-06-25T04:45:26Z</time>
      </trkpt>
      <trkpt lat="46.23296" lon="4.37826">
        <ele>478</ele>
        <time>2016-06-25T04:47:26Z</time>
      </trkpt>
      <trkpt lat="46.23314" lon="4.37845">
        <ele>482</ele>
        <time>2016-06-25T04:49:26Z</time>
      </trkpt>
      <trkpt lat="46.23333" lon="4.37866">
        <ele>484</ele>
        <time>2016-06-25T04:51:26Z</time>
      </trkpt>
      <trkpt lat="46.23363" lon="4.379">
        <ele>485</ele>
        <time>2016-06-25T04:53:26Z</time>
      </trkpt>
      <trkpt lat="46.23372" lon="4.37908">
        <ele>486</ele>
        <time>2016-06-25T04:55:26Z</time>
      </trkpt>
      <trkpt lat="46.23378" lon="4.37912">
        <ele>486</ele>
        <time>2016-06-25T04:57:26Z</time>
      </trkpt>
      <trkpt lat="46.23395" lon="4.37916">
        <ele>488</ele>
        <time>2016-06-25T04:59:26Z</time>
      </trkpt>
      <trkpt lat="46.23406" lon="4.37914">
        <ele>490</ele>
        <time>2016-06-25T05:01:26Z</time>
      </trkpt>
      <trkpt lat="46.23419" lon="4.37906">
        <ele>492</ele>
        <time>2016-06-25T05:03:26Z</time>
      </trkpt>
      <trkpt lat="46.23434" lon="4.37894">
        <ele>491</ele>
        <time>2016-06-25T05:05:26Z</time>
      </trkpt>
      <trkpt lat="46.23456" lon="4.37876">
        <ele>491</ele>
        <time>2016-06-25T05:07:26Z</time>
      </trkpt>
      <trkpt lat="46.23474" lon="4.37864">
        <ele>492</ele>
        <time>2016-06-25T05:09:26Z</time>
      </trkpt>
      <trkpt lat="46.23494" lon="4.37855">
        <ele>492</ele>
        <time>2016-06-25T05:11:26Z</time>
      </trkpt>
      <trkpt lat="46.23502" lon="4.37853">
        <ele>494</ele>
        <time>2016-06-25T05:13:26Z</time>
      </trkpt>
      <trkpt lat="46.2351" lon="4.37852">
        <ele>494</ele>
        <time>2016-06-25T05:15:26Z</time>
      </trkpt>
      <trkpt lat="46.23518" lon="4.37852">
        <ele>494</ele>
        <time>2016-06-25T05:17:26Z</time>
      </trkpt>
      <trkpt lat="46.23527" lon="4.37856">
        <ele>494</ele>
        <time>2016-06-25T05:19:26Z</time>
      </trkpt>
      <trkpt lat="46.23537" lon="4.3786">
        <ele>494</ele>
        <time>2016-06-25T05:21:26Z</time>
      </trkpt>
      <trkpt lat="46.23546" lon="4.37868">
        <ele>494</ele>
        <time>2016-06-25T05:23:26Z</time>
      </trkpt>
      <trkpt lat="46.23567" lon="4.3789">
        <ele>495</ele>
        <time>2016-06-25T05:25:26Z</time>
      </trkpt>
      <trkpt lat="46.23583" lon="4.37908">
        <ele>496</ele>
        <time>2016-06-25T05:27:26Z</time>
      </trkpt>
      <trkpt lat="46.23602" lon="4.37932">
        <ele>495</ele>
        <time>2016-06-25T05:29:26Z</time>
      </trkpt>
      <trkpt lat="46.23618" lon="4.37954">
        <ele>494</ele>
        <time>2016-06-25T05:31:26Z</time>
      </trkpt>
      <trkpt lat="46.23627" lon="4.37969">
        <ele>493</ele>
        <time>2016-06-25T05:33:26Z</time>
      </trkpt>
      <trkpt lat="46.23633" lon="4.37982">
        <ele>493</ele>
        <time>2016-06-25T05:35:26Z</time>
      </trkpt>
      <trkpt lat="46.2364" lon="4.38008">
        <ele>496</ele>
        <time>2016-06-25T05:37:26Z</time>
      </trkpt>
      <trkpt lat="46.23647" lon="4.38058">
        <ele>497</ele>
        <time>2016-06-25T05:39:26Z</time>
      </trkpt>
      <trkpt lat="46.23648" lon="4.38078">
        <ele>497</ele>
        <time>2016-06-25T05:41:26Z</time>
      </trkpt>
      <trkpt lat="46.23648" lon="4.38095">
        <ele>499</ele>
        <time>2016-06-25T05:43:26Z</time>
      </trkpt>
      <trkpt lat="46.23647" lon="4.38113">
        <ele>500</ele>
        <time>2016-06-25T05:45:26Z</time>
      </trkpt>
      <trkpt lat="46.23644" lon="4.38136">
        <ele>501</ele>
        <time>2016-06-25T05:47:26Z</time>
      </trkpt>
      <trkpt lat="46.23644" lon="4.38149">
        <ele>500</ele>
        <time>2016-06-25T05:49:26Z</time>
      </trkpt>
      <trkpt lat="46.23646" lon="4.38169">
        <ele>501</ele>
        <time>2016-06-25T05:51:26Z</time>
      </trkpt>
      <trkpt lat="46.2365" lon="4.38186">
        <ele>501</ele>
        <time>2016-06-25T05:53:26Z</time>
      </trkpt>
      <trkpt lat="46.23653" lon="4.38195">
        <ele>502</ele>
        <time>2016-06-25T05:55:26Z</time>
      </trkpt>
      <trkpt lat="46.23658" lon="4.38206">
        <ele>503</ele>
        <time>2016-06-25T05:57:26Z</time>
      </trkpt>
      <trkpt lat="46.23664" lon="4.38216">
        <ele>503</ele>
        <time>2016-06-25T05:59:26Z</time>
      </trkpt>
      <trkpt lat="46.2367" lon="4.38227">
        <ele>495</ele>
        <time>2016-06-25T06:01:26Z</time>
      </trkpt>
      <trkpt lat="46.2368" lon="4.38239">
        <ele>495</ele>
        <time>2016-06-25T06:03:26Z</time>
      </trkpt>
      <trkpt lat="46.23695" lon="4.38254">
        <ele>497</ele>
        <time>2016-06-25T06:05:26Z</time>
      </trkpt>
      <trkpt lat="46.23722" lon="4.38277">
        <ele>495</ele>
        <time>2016-06-25T06:07:26Z</time>
      </trkpt>
      <trkpt lat="46.23732" lon="4.38286">
        <ele>494</ele>
        <time>2016-06-25T06:09:26Z</time>
      </trkpt>
      <trkpt lat="46.23736" lon="4.38293">
        <ele>494</ele>
        <time>2016-06-25T06:11:26Z</time>
      </trkpt>
      <trkpt lat="46.2374" lon="4.38302">
        <ele>494</ele>
        <time>2016-06-25T06:13:26Z</time>
      </trkpt>
      <trkpt lat="46.23742" lon="4.38308">
        <ele>493</ele>
        <time>2016-06-25T06:15:26Z</time>
      </trkpt>
      <trkpt lat="46.23743" lon="4.38318">
        <ele>492</ele>
        <time>2016-06-25T06:17:26Z</time>
      </trkpt>
      <trkpt lat="46.23743" lon="4.38325">
        <ele>492</ele>
        <time>2016-06-25T06:19:26Z</time>
      </trkpt>
      <trkpt lat="46.23742" lon="4.38331">
        <ele>491</ele>
        <time>2016-06-25T06:21:26Z</time>
      </trkpt>
      <trkpt lat="46.2374" lon="4.38344">
        <ele>493</ele>
        <time>2016-06-25T06:23:26Z</time>
      </trkpt>
      <trkpt lat="46.23726" lon="4.38391">
        <ele>495</ele>
        <time>2016-06-25T06:25:26Z</time>
      </trkpt>
      <trkpt lat="46.2371" lon="4.3843">
        <ele>498</ele>
        <time>2016-06-25T06:27:26Z</time>
      </trkpt>
      <trkpt lat="46.237" lon="4.38455">
        <ele>499</ele>
        <time>2016-06-25T06:29:26Z</time>
      </trkpt>
      <trkpt lat="46.23695" lon="4.38472">
        <ele>499</ele>
        <time>2016-06-25T06:31:26Z</time>
      </trkpt>
      <trkpt lat="46.23692" lon="4.38491">
        <ele>499</ele>
        <time>2016-06-25T06:33:26Z</time>
      </trkpt>
      <trkpt lat="46.2369" lon="4.38506">
        <ele>502</ele>
        <time>2016-06-25T06:35:26Z</time>
      </trkpt>
      <trkpt lat="46.23682" lon="4.3857">
        <ele>504</ele>
        <time>2016-06-25T06:37:26Z</time>
      </trkpt>
      <trkpt lat="46.2368" lon="4.38581">
        <ele>504</ele>
        <time>2016-06-25T06:39:26Z</time>
      </trkpt>
      <trkpt lat="46.23679" lon="4.3859">
        <ele>507</ele>
        <time>2016-06-25T06:41:26Z</time>
      </trkpt>
      <trkpt lat="46.23676" lon="4.38616">
        <ele>509</ele>
        <time>2016-06-25T06:43:26Z</time>
      </trkpt>
      <trkpt lat="46.23673" lon="4.38643">
        <ele>510</ele>
        <time>2016-06-25T06:45:26Z</time>
      </trkpt>
      <trkpt lat="46.23672" lon="4.38661">
        <ele>510</ele>
        <time>2016-06-25T06:47:26Z</time>
      </trkpt>
      <trkpt lat="46.23672" lon="4.38676">
        <ele>511</ele>
        <time>2016-06-25T06:49:26Z</time>
      </trkpt>
      <trkpt lat="46.23674" lon="4.3869">
        <ele>513</ele>
        <time>2016-06-25T06:51:26Z</time>
      </trkpt>
      <trkpt lat="46.23678" lon="4.38704">
        <ele>513</ele>
        <time>2016-06-25T06:53:26Z</time>
      </trkpt>
      <trkpt lat="46.23683" lon="4.38715">
        <ele>513</ele>
        <time>2016-06-25T06:55:26Z</time>
      </trkpt>
      <trkpt lat="46.23692" lon="4.38729">
        <ele>514</ele>
        <time>2016-06-25T06:57:26Z</time>
      </trkpt>
      <trkpt lat="46.23704" lon="4.38742">
        <ele>515</ele>
        <time>2016-06-25T06:59:26Z</time>
      </trkpt>
      <trkpt lat="46.23715" lon="4.38755">
        <ele>519</ele>
        <time>2016-06-25T07:01:26Z</time>
      </trkpt>
      <trkpt lat="46.23722" lon="4.38764">
        <ele>520</ele>
        <time>2016-06-25T07:03:26Z</time>
      </trkpt>
      <trkpt lat="46.23728" lon="4.38779">
        <ele>520</ele>
        <time>2016-06-25T07:05:26Z</time>
      </trkpt>
      <trkpt lat="46.23729" lon="4.38788">
        <ele>521</ele>
        <time>2016-06-25T07:07:26Z</time>
      </trkpt>
      <trkpt lat="46.2373" lon="4.38794">
        <ele>521</ele>
        <time>2016-06-25T07:09:26Z</time>
      </trkpt>
      <trkpt lat="46.2373" lon="4.38803">
        <ele>521</ele>
        <time>2016-06-25T07:11:26Z</time>
      </trkpt>
      <trkpt lat="46.23728" lon="4.38811">
        <ele>522</ele>
        <time>2016-06-25T07:13:26Z</time>
      </trkpt>
      <trkpt lat="46.23725" lon="4.3882">
        <ele>522</ele>
        <time>2016-06-25T07:15:26Z</time>
      </trkpt>
      <trkpt lat="46.2372" lon="4.38829">
        <ele>522</ele>
        <time>2016-06-25T07:17:26Z</time>
      </trkpt>
      <trkpt lat="46.23715" lon="4.38833">
        <ele>521</ele>
        <time>2016-06-25T07:19:26Z</time>
      </trkpt>
      <trkpt lat="46.23706" lon="4.38839">
        <ele>525</ele>
        <time>2016-06-25T07:21:26Z</time>
      </trkpt>
      <trkpt lat="46.237" lon="4.38841">
        <ele>525</ele>
        <time>2016-06-25T07:23:26Z</time>
      </trkpt>
      <trkpt lat="46.23694" lon="4.38841">
        <ele>524</ele>
        <time>2016-06-25T07:25:26Z</time>
      </trkpt>
      <trkpt lat="46.2368" lon="4.38848">
        <ele>523</ele>
        <time>2016-06-25T07:27:26Z</time>
      </trkpt>
      <trkpt lat="46.2367" lon="4.38854">
        <ele>523</ele>
        <time>2016-06-25T07:29:26Z</time>
      </trkpt>
      <trkpt lat="46.23659" lon="4.38865">
        <ele>520</ele>
        <time>2016-06-25T07:31:26Z</time>
      </trkpt>
      <trkpt lat="46.2365" lon="4.38875">
        <ele>521</ele>
        <time>2016-06-25T07:33:26Z</time>
      </trkpt>
      <trkpt lat="46.23641" lon="4.38889">
        <ele>522</ele>
        <time>2016-06-25T07:35:26Z</time>
      </trkpt>
      <trkpt lat="46.23625" lon="4.38919">
        <ele>529</ele>
        <time>2016-06-25T07:37:26Z</time>
      </trkpt>
      <trkpt lat="46.23619" lon="4.3893">
        <ele>528</ele>
        <time>2016-06-25T07:39:26Z</time>
      </trkpt>
      <trkpt lat="46.23613" lon="4.38944">
        <ele>529</ele>
        <time>2016-06-25T07:41:26Z</time>
      </trkpt>
      <trkpt lat="46.23605" lon="4.38956">
        <ele>529</ele>
        <time>2016-06-25T07:43:26Z</time>
      </trkpt>
      <trkpt lat="46.23601" lon="4.38962">
        <ele>529</ele>
        <time>2016-06-25T07:45:26Z</time>
      </trkpt>
      <trkpt lat="46.23597" lon="4.38965">
        <ele>529</ele>
        <time>2016-06-25T07:47:26Z</time>
      </trkpt>
      <trkpt lat="46.23592" lon="4.38968">
        <ele>530</ele>
        <time>2016-06-25T07:49:26Z</time>
      </trkpt>
      <trkpt lat="46.23587" lon="4.3897">
        <ele>530</ele>
        <time>2016-06-25T07:51:26Z</time>
      </trkpt>
      <trkpt lat="46.23582" lon="4.38972">
        <ele>527</ele>
        <time>2016-06-25T07:53:26Z</time>
      </trkpt>
      <trkpt lat="46.23564" lon="4.38976">
        <ele>527</ele>
        <time>2016-06-25T07:55:26Z</time>
      </trkpt>
      <trkpt lat="46.23536" lon="4.38981">
        <ele>526</ele>
        <time>2016-06-25T07:57:26Z</time>
      </trkpt>
      <trkpt lat="46.23514" lon="4.38984">
        <ele>527</ele>
        <time>2016-06-25T07:59:26Z</time>
      </trkpt>
      <trkpt lat="46.23504" lon="4.38987">
        <ele>528</ele>
        <time>2016-06-25T08:01:26Z</time>
      </trkpt>
      <trkpt lat="46.23499" lon="4.38989">
        <ele>526</ele>
        <time>2016-06-25T08:03:26Z</time>
      </trkpt>
      <trkpt lat="46.23496" lon="4.3899">
        <ele>526</ele>
        <time>2016-06-25T08:05:26Z</time>
      </trkpt>
      <trkpt lat="46.23492" lon="4.38994">
        <ele>526</ele>
        <time>2016-06-25T08:07:26Z</time>
      </trkpt>
      <trkpt lat="46.23489" lon="4.38999">
        <ele>526</ele>
        <time>2016-06-25T08:09:26Z</time>
      </trkpt>
      <trkpt lat="46.23487" lon="4.39003">
        <ele>530</ele>
        <time>2016-06-25T08:11:26Z</time>
      </trkpt>
      <trkpt lat="46.23485" lon="4.39008">
        <ele>530</ele>
        <time>2016-06-25T08:13:26Z</time>
      </trkpt>
      <trkpt lat="46.23485" lon="4.39014">
        <ele>530</ele>
        <time>2016-06-25T08:15:26Z</time>
      </trkpt>
      <trkpt lat="46.23485" lon="4.39022">
        <ele>530</ele>
        <time>2016-06-25T08:17:26Z</time>
      </trkpt>
      <trkpt lat="46.23487" lon="4.39027">
        <ele>531</ele>
        <time>2016-06-25T08:19:26Z</time>
      </trkpt>
      <trkpt lat="46.23488" lon="4.39033">
        <ele>531</ele>
        <time>2016-06-25T08:21:26Z</time>
      </trkpt>
      <trkpt lat="46.23491" lon="4.39037">
        <ele>532</ele>
        <time>2016-06-25T08:23:26Z</time>
      </trkpt>
      <trkpt lat="46.23495" lon="4.39039">
        <ele>533</ele>
        <time>2016-06-25T08:25:26Z</time>
      </trkpt>
      <trkpt lat="46.23499" lon="4.39041">
        <ele>533</ele>
        <time>2016-06-25T08:27:26Z</time>
      </trkpt>
      <trkpt lat="46.23502" lon="4.39041">
        <ele>538</ele>
        <time>2016-06-25T08:29:26Z</time>
      </trkpt>
      <trkpt lat="46.23511" lon="4.3904">
        <ele>538</ele>
        <time>2016-06-25T08:31:26Z</time>
      </trkpt>
      <trkpt lat="46.23521" lon="4.39036">
        <ele>537</ele>
        <time>2016-06-25T08:33:26Z</time>
      </trkpt>
      <trkpt lat="46.23532" lon="4.39032">
        <ele>537</ele>
        <time>2016-06-25T08:35:26Z</time>
      </trkpt>
      <trkpt lat="46.23538" lon="4.39031">
        <ele>537</ele>
        <time>2016-06-25T08:37:26Z</time>
      </trkpt>
      <trkpt lat="46.23544" lon="4.3903">
        <ele>537</ele>
        <time>2016-06-25T08:39:26Z</time>
      </trkpt>
      <trkpt lat="46.2355" lon="4.39031">
        <ele>537</ele>
        <time>2016-06-25T08:41:26Z</time>
      </trkpt>
      <trkpt lat="46.23556" lon="4.39031">
        <ele>537</ele>
        <time>2016-06-25T08:43:26Z</time>
      </trkpt>
      <trkpt lat="46.23568" lon="4.39036">
        <ele>537</ele>
        <time>2016-06-25T08:45:26Z</time>
      </trkpt>
      <trkpt lat="46.23581" lon="4.39042">
        <ele>538</ele>
        <time>2016-06-25T08:47:26Z</time>
      </trkpt>
      <trkpt lat="46.23594" lon="4.3905">
        <ele>538</ele>
        <time>2016-06-25T08:49:26Z</time>
      </trkpt>
      <trkpt lat="46.23615" lon="4.39061">
        <ele>539</ele>
        <time>2016-06-25T08:51:26Z</time>
      </trkpt>
      <trkpt lat="46.23622" lon="4.39064">
        <ele>539</ele>
        <time>2016-06-25T08:53:26Z</time>
      </trkpt>
      <trkpt lat="46.23635" lon="4.39068">
        <ele>539</ele>
        <time>2016-06-25T08:55:26Z</time>
      </trkpt>
      <trkpt lat="46.23649" lon="4.39071">
        <ele>539</ele>
        <time>2016-06-25T08:57:26Z</time>
      </trkpt>
      <trkpt lat="46.23661" lon="4.39075">
        <ele>539</ele>
        <time>2016-06-25T08:59:26Z</time>
      </trkpt>
      <trkpt lat="46.23669" lon="4.39078">
        <ele>540</ele>
        <time>2016-06-25T09:01:26Z</time>
      </trkpt>
      <trkpt lat="46.23676" lon="4.39083">
        <ele>540</ele>
        <time>2016-06-25T09:03:26Z</time>
      </trkpt>
      <trkpt lat="46.2368" lon="4.39087">
        <ele>541</ele>
        <time>2016-06-25T09:05:26Z</time>
      </trkpt>
      <trkpt lat="46.23684" lon="4.39091">
        <ele>541</ele>
        <time>2016-06-25T09:07:26Z</time>
      </trkpt>
      <trkpt lat="46.23688" lon="4.39096">
        <ele>542</ele>
        <time>2016-06-25T09:09:26Z</time>
      </trkpt>
      <trkpt lat="46.23691" lon="4.39102">
        <ele>542</ele>
        <time>2016-06-25T09:11:26Z</time>
      </trkpt>
      <trkpt lat="46.23694" lon="4.39109">
        <ele>542</ele>
        <time>2016-06-25T09:13:26Z</time>
      </trkpt>
      <trkpt lat="46.23697" lon="4.39115">
        <ele>542</ele>
        <time>2016-06-25T09:15:26Z</time>
      </trkpt>
      <trkpt lat="46.23699" lon="4.39122">
        <ele>542</ele>
        <time>2016-06-25T09:17:26Z</time>
      </trkpt>
      <trkpt lat="46.23701" lon="4.3913">
        <ele>543</ele>
        <time>2016-06-25T09:19:26Z</time>
      </trkpt>
      <trkpt lat="46.23703" lon="4.39139">
        <ele>543</ele>
        <time>2016-06-25T09:21:26Z</time>
      </trkpt>
      <trkpt lat="46.23705" lon="4.39147">
        <ele>543</ele>
        <time>2016-06-25T09:23:26Z</time>
      </trkpt>
      <trkpt lat="46.23708" lon="4.39164">
        <ele>543</ele>
        <time>2016-06-25T09:25:26Z</time>
      </trkpt>
      <trkpt lat="46.2371" lon="4.39177">
        <ele>544</ele>
        <time>2016-06-25T09:27:26Z</time>
      </trkpt>
      <trkpt lat="46.2371" lon="4.39177">
        <ele>544</ele>
        <time>2016-06-25T09:29:26Z</time>
      </trkpt>
      <trkpt lat="46.23713" lon="4.39187">
        <ele>544</ele>
        <time>2016-06-25T09:31:26Z</time>
      </trkpt>
      <trkpt lat="46.23714" lon="4.39195">
        <ele>544</ele>
        <time>2016-06-25T09:33:26Z</time>
      </trkpt>
      <trkpt lat="46.23715" lon="4.392">
        <ele>544</ele>
        <time>2016-06-25T09:35:26Z</time>
      </trkpt>
      <trkpt lat="46.23715" lon="4.39213">
        <ele>544</ele>
        <time>2016-06-25T09:37:26Z</time>
      </trkpt>
      <trkpt lat="46.23716" lon="4.39254">
        <ele>543</ele>
        <time>2016-06-25T09:39:26Z</time>
      </trkpt>
      <trkpt lat="46.23715" lon="4.39284">
        <ele>543</ele>
        <time>2016-06-25T09:41:26Z</time>
      </trkpt>
      <trkpt lat="46.23715" lon="4.39322">
        <ele>542</ele>
        <time>2016-06-25T09:43:26Z</time>
      </trkpt>
      <trkpt lat="46.23715" lon="4.39361">
        <ele>540</ele>
        <time>2016-06-25T09:45:26Z</time>
      </trkpt>
      <trkpt lat="46.23718" lon="4.39402">
        <ele>540</ele>
        <time>2016-06-25T09:47:26Z</time>
      </trkpt>
      <trkpt lat="46.23724" lon="4.3944">
        <ele>539</ele>
        <time>2016-06-25T09:49:26Z</time>
      </trkpt>
      <trkpt lat="46.23726" lon="4.39461">
        <ele>539</ele>
        <time>2016-06-25T09:51:26Z</time>
      </trkpt>
      <trkpt lat="46.23727" lon="4.39479">
        <ele>538</ele>
        <time>2016-06-25T09:53:26Z</time>
      </trkpt>
      <trkpt lat="46.23725" lon="4.39501">
        <ele>538</ele>
        <time>2016-06-25T09:55:26Z</time>
      </trkpt>
      <trkpt lat="46.23724" lon="4.39504">
        <ele>538</ele>
        <time>2016-06-25T09:57:26Z</time>
      </trkpt>
      <trkpt lat="46.23724" lon="4.39506">
        <ele>538</ele>
        <time>2016-06-25T09:59:26Z</time>
      </trkpt>
      <trkpt lat="46.23719" lon="4.39523">
        <ele>539</ele>
        <time>2016-06-25T10:01:26Z</time>
      </trkpt>
      <trkpt lat="46.23714" lon="4.39539">
        <ele>539</ele>
        <time>2016-06-25T10:03:26Z</time>
      </trkpt>
      <trkpt lat="46.23699" lon="4.39577">
        <ele>541</ele>
        <time>2016-06-25T10:05:26Z</time>
      </trkpt>
      <trkpt lat="46.23694" lon="4.39596">
        <ele>540</ele>
        <time>2016-06-25T10:07:26Z</time>
      </trkpt>
      <trkpt lat="46.23692" lon="4.39614">
        <ele>539</ele>
        <time>2016-06-25T10:09:26Z</time>
      </trkpt>
      <trkpt lat="46.2369" lon="4.39656">
        <ele>538</ele>
        <time>2016-06-25T10:11:26Z</time>
      </trkpt>
      <trkpt lat="46.2369" lon="4.39685">
        <ele>535</ele>
        <time>2016-06-25T10:13:26Z</time>
      </trkpt>
      <trkpt lat="46.23691" lon="4.39704">
        <ele>534</ele>
        <time>2016-06-25T10:15:26Z</time>
      </trkpt>
      <trkpt lat="46.23695" lon="4.39722">
        <ele>533</ele>
        <time>2016-06-25T10:17:26Z</time>
      </trkpt>
      <trkpt lat="46.237" lon="4.39737">
        <ele>532</ele>
        <time>2016-06-25T10:19:26Z</time>
      </trkpt>
      <trkpt lat="46.23705" lon="4.39748">
        <ele>532</ele>
        <time>2016-06-25T10:21:26Z</time>
      </trkpt>
      <trkpt lat="46.23712" lon="4.39758">
        <ele>530</ele>
        <time>2016-06-25T10:23:26Z</time>
      </trkpt>
      <trkpt lat="46.23716" lon="4.39764">
        <ele>530</ele>
        <time>2016-06-25T10:25:26Z</time>
      </trkpt>
      <trkpt lat="46.23727" lon="4.39773">
        <ele>529</ele>
        <time>2016-06-25T10:27:26Z</time>
      </trkpt>
      <trkpt lat="46.23734" lon="4.39777">
        <ele>529</ele>
        <time>2016-06-25T10:29:26Z</time>
      </trkpt>
      <trkpt lat="46.23746" lon="4.39783">
        <ele>528</ele>
        <time>2016-06-25T10:31:26Z</time>
      </trkpt>
      <trkpt lat="46.2376" lon="4.39789">
        <ele>520</ele>
        <time>2016-06-25T10:33:26Z</time>
      </trkpt>
      <trkpt lat="46.23771" lon="4.39796">
        <ele>520</ele>
        <time>2016-06-25T10:35:26Z</time>
      </trkpt>
      <trkpt lat="46.23775" lon="4.398">
        <ele>520</ele>
        <time>2016-06-25T10:37:26Z</time>
      </trkpt>
      <trkpt lat="46.23777" lon="4.39802">
        <ele>520</ele>
        <time>2016-06-25T10:39:26Z</time>
      </trkpt>
      <trkpt lat="46.23786" lon="4.3981">
        <ele>520</ele>
        <time>2016-06-25T10:41:26Z</time>
      </trkpt>
      <trkpt lat="46.23797" lon="4.39824">
        <ele>519</ele>
        <time>2016-06-25T10:43:26Z</time>
      </trkpt>
      <trkpt lat="46.23798" lon="4.39825">
        <ele>519</ele>
        <time>2016-06-25T10:45:26Z</time>
      </trkpt>
      <trkpt lat="46.23805" lon="4.39838">
        <ele>520</ele>
        <time>2016-06-25T10:47:26Z</time>
      </trkpt>
      <trkpt lat="46.23815" lon="4.39855">
        <ele>520</ele>
        <time>2016-06-25T10:49:26Z</time>
      </trkpt>
      <trkpt lat="46.23833" lon="4.39888">
        <ele>519</ele>
        <time>2016-06-25T10:51:26Z</time>
      </trkpt>
      <trkpt lat="46.23842" lon="4.39901">
        <ele>512</ele>
        <time>2016-06-25T10:53:26Z</time>
      </trkpt>
      <trkpt lat="46.23868" lon="4.39943">
        <ele>510</ele>
        <time>2016-06-25T10:55:26Z</time>
      </trkpt>
      <trkpt lat="46.23885" lon="4.39974">
        <ele>510</ele>
        <time>2016-06-25T10:57:26Z</time>
      </trkpt>
      <trkpt lat="46.23895" lon="4.39998">
        <ele>510</ele>
        <time>2016-06-25T10:59:26Z</time>
      </trkpt>
      <trkpt lat="46.23912" lon="4.40036">
        <ele>510</ele>
        <time>2016-06-25T11:01:26Z</time>
      </trkpt>
      <trkpt lat="46.23927" lon="4.40074">
        <ele>504</ele>
        <time>2016-06-25T11:03:26Z</time>
      </trkpt>
      <trkpt lat="46.23937" lon="4.40098">
        <ele>501</ele>
        <time>2016-06-25T11:05:26Z</time>
      </trkpt>
      <trkpt lat="46.23941" lon="4.40114">
        <ele>499</ele>
        <time>2016-06-25T11:07:26Z</time>
      </trkpt>
      <trkpt lat="46.23945" lon="4.4013">
        <ele>498</ele>
        <time>2016-06-25T11:09:26Z</time>
      </trkpt>
      <trkpt lat="46.23952" lon="4.40159">
        <ele>498</ele>
        <time>2016-06-25T11:11:26Z</time>
      </trkpt>
      <trkpt lat="46.23956" lon="4.4018">
        <ele>497</ele>
        <time>2016-06-25T11:13:26Z</time>
      </trkpt>
      <trkpt lat="46.23961" lon="4.40207">
        <ele>496</ele>
        <time>2016-06-25T11:15:26Z</time>
      </trkpt>
      <trkpt lat="46.23963" lon="4.40217">
        <ele>496</ele>
        <time>2016-06-25T11:17:26Z</time>
      </trkpt>
      <trkpt lat="46.23977" lon="4.40281">
        <ele>494</ele>
        <time>2016-06-25T11:19:26Z</time>
      </trkpt>
      <trkpt lat="46.2398" lon="4.40297">
        <ele>493</ele>
        <time>2016-06-25T11:21:26Z</time>
      </trkpt>
      <trkpt lat="46.23981" lon="4.40305">
        <ele>493</ele>
        <time>2016-06-25T11:23:26Z</time>
      </trkpt>
      <trkpt lat="46.23983" lon="4.40334">
        <ele>489</ele>
        <time>2016-06-25T11:25:26Z</time>
      </trkpt>
      <trkpt lat="46.23983" lon="4.4035">
        <ele>489</ele>
        <time>2016-06-25T11:27:26Z</time>
      </trkpt>
      <trkpt lat="46.23982" lon="4.40381">
        <ele>488</ele>
        <time>2016-06-25T11:29:26Z</time>
      </trkpt>
      <trkpt lat="46.23978" lon="4.40406">
        <ele>487</ele>
        <time>2016-06-25T11:31:26Z</time>
      </trkpt>
      <trkpt lat="46.23973" lon="4.40438">
        <ele>483</ele>
        <time>2016-06-25T11:33:26Z</time>
      </trkpt>
      <trkpt lat="46.23967" lon="4.40464">
        <ele>482</ele>
        <time>2016-06-25T11:35:26Z</time>
      </trkpt>
      <trkpt lat="46.23958" lon="4.40497">
        <ele>482</ele>
        <time>2016-06-25T11:37:26Z</time>
      </trkpt>
      <trkpt lat="46.23952" lon="4.40509">
        <ele>476</ele>
        <time>2016-06-25T11:39:26Z</time>
      </trkpt>
      <trkpt lat="46.23945" lon="4.40522">
        <ele>475</ele>
        <time>2016-06-25T11:41:26Z</time>
      </trkpt>
      <trkpt lat="46.23938" lon="4.40531">
        <ele>475</ele>
        <time>2016-06-25T11:43:26Z</time>
      </trkpt>
      <trkpt lat="46.2393" lon="4.40538">
        <ele>475</ele>
        <time>2016-06-25T11:45:26Z</time>
      </trkpt>
      <trkpt lat="46.23919" lon="4.40545">
        <ele>474</ele>
        <time>2016-06-25T11:47:26Z</time>
      </trkpt>
      <trkpt lat="46.23912" lon="4.40547">
        <ele>476</ele>
        <time>2016-06-25T11:49:26Z</time>
      </trkpt>
      <trkpt lat="46.23904" lon="4.40547">
        <ele>476</ele>
        <time>2016-06-25T11:51:26Z</time>
      </trkpt>
      <trkpt lat="46.23896" lon="4.40547">
        <ele>476</ele>
        <time>2016-06-25T11:53:26Z</time>
      </trkpt>
      <trkpt lat="46.23879" lon="4.40544">
        <ele>476</ele>
        <time>2016-06-25T11:55:26Z</time>
      </trkpt>
      <trkpt lat="46.23849" lon="4.40537">
        <ele>476</ele>
        <time>2016-06-25T11:57:26Z</time>
      </trkpt>
      <trkpt lat="46.23829" lon="4.40535">
        <ele>475</ele>
        <time>2016-06-25T11:59:26Z</time>
      </trkpt>
      <trkpt lat="46.2382" lon="4.40536">
        <ele>475</ele>
        <time>2016-06-25T12:01:26Z</time>
      </trkpt>
      <trkpt lat="46.23805" lon="4.4054">
        <ele>475</ele>
        <time>2016-06-25T12:03:26Z</time>
      </trkpt>
      <trkpt lat="46.23792" lon="4.40549">
        <ele>474</ele>
        <time>2016-06-25T12:05:26Z</time>
      </trkpt>
      <trkpt lat="46.23787" lon="4.40555">
        <ele>474</ele>
        <time>2016-06-25T12:07:26Z</time>
      </trkpt>
      <trkpt lat="46.23782" lon="4.40563">
        <ele>474</ele>
        <time>2016-06-25T12:09:26Z</time>
      </trkpt>
      <trkpt lat="46.23778" lon="4.40571">
        <ele>473</ele>
        <time>2016-06-25T12:11:26Z</time>
      </trkpt>
      <trkpt lat="46.23775" lon="4.40583">
        <ele>473</ele>
        <time>2016-06-25T12:13:26Z</time>
      </trkpt>
      <trkpt lat="46.23773" lon="4.40595">
        <ele>469</ele>
        <time>2016-06-25T12:15:26Z</time>
      </trkpt>
      <trkpt lat="46.23771" lon="4.40619">
        <ele>469</ele>
        <time>2016-06-25T12:17:26Z</time>
      </trkpt>
      <trkpt lat="46.23769" lon="4.4067">
        <ele>467</ele>
        <time>2016-06-25T12:19:26Z</time>
      </trkpt>
      <trkpt lat="46.23768" lon="4.4068">
        <ele>467</ele>
        <time>2016-06-25T12:21:26Z</time>
      </trkpt>
      <trkpt lat="46.23766" lon="4.40715">
        <ele>467</ele>
        <time>2016-06-25T12:23:26Z</time>
      </trkpt>
      <trkpt lat="46.23767" lon="4.40728">
        <ele>468</ele>
        <time>2016-06-25T12:25:26Z</time>
      </trkpt>
      <trkpt lat="46.23768" lon="4.40736">
        <ele>469</ele>
        <time>2016-06-25T12:27:26Z</time>
      </trkpt>
      <trkpt lat="46.23771" lon="4.40747">
        <ele>469</ele>
        <time>2016-06-25T12:29:26Z</time>
      </trkpt>
      <trkpt lat="46.23775" lon="4.40757">
        <ele>471</ele>
        <time>2016-06-25T12:31:26Z</time>
      </trkpt>
      <trkpt lat="46.2378" lon="4.4077">
        <ele>470</ele>
        <time>2016-06-25T12:33:26Z</time>
      </trkpt>
      <trkpt lat="46.23799" lon="4.40797">
        <ele>469</ele>
        <time>2016-06-25T12:35:26Z</time>
      </trkpt>
      <trkpt lat="46.23818" lon="4.40822">
        <ele>465</ele>
        <time>2016-06-25T12:37:26Z</time>
      </trkpt>
      <trkpt lat="46.23834" lon="4.40843">
        <ele>458</ele>
        <time>2016-06-25T12:39:26Z</time>
      </trkpt>
      <trkpt lat="46.23839" lon="4.40851">
        <ele>458</ele>
        <time>2016-06-25T12:41:26Z</time>
      </trkpt>
      <trkpt lat="46.2384" lon="4.40852">
        <ele>457</ele>
        <time>2016-06-25T12:43:26Z</time>
      </trkpt>
      <trkpt lat="46.23843" lon="4.40858">
        <ele>457</ele>
        <time>2016-06-25T12:45:26Z</time>
      </trkpt>
      <trkpt lat="46.23847" lon="4.40865">
        <ele>457</ele>
        <time>2016-06-25T12:47:26Z</time>
      </trkpt>
      <trkpt lat="46.23849" lon="4.40871">
        <ele>457</ele>
        <time>2016-06-25T12:49:26Z</time>
      </trkpt>
      <trkpt lat="46.2385" lon="4.40877">
        <ele>457</ele>
        <time>2016-06-25T12:51:26Z</time>
      </trkpt>
      <trkpt lat="46.23852" lon="4.40885">
        <ele>457</ele>
        <time>2016-06-25T12:53:26Z</time>
      </trkpt>
      <trkpt lat="46.23853" lon="4.40895">
        <ele>458</ele>
        <time>2016-06-25T12:55:26Z</time>
      </trkpt>
      <trkpt lat="46.23853" lon="4.40906">
        <ele>458</ele>
        <time>2016-06-25T12:57:26Z</time>
      </trkpt>
      <trkpt lat="46.23855" lon="4.4092">
        <ele>459</ele>
        <time>2016-06-25T12:59:26Z</time>
      </trkpt>
      <trkpt lat="46.23858" lon="4.40945">
        <ele>458</ele>
        <time>2016-06-25T13:01:26Z</time>
      </trkpt>
      <trkpt lat="46.23861" lon="4.40952">
        <ele>458</ele>
        <time>2016-06-25T13:03:26Z</time>
      </trkpt>
      <trkpt lat="46.23864" lon="4.40961">
        <ele>457</ele>
        <time>2016-06-25T13:05:26Z</time>
      </trkpt>
      <trkpt lat="46.23869" lon="4.40972">
        <ele>457</ele>
        <time>2016-06-25T13:07:26Z</time>
      </trkpt>
      <trkpt lat="46.23878" lon="4.40992">
        <ele>457</ele>
        <time>2016-06-25T13:09:26Z</time>
      </trkpt>
      <trkpt lat="46.2389" lon="4.41016">
        <ele>456</ele>
        <time>2016-06-25T13:11:26Z</time>
      </trkpt>
      <trkpt lat="46.239" lon="4.41032">
        <ele>455</ele>
        <time>2016-06-25T13:13:26Z</time>
      </trkpt>
      <trkpt lat="46.23915" lon="4.41049">
        <ele>455</ele>
        <time>2016-06-25T13:15:26Z</time>
      </trkpt>
      <trkpt lat="46.23922" lon="4.41057">
        <ele>456</ele>
        <time>2016-06-25T13:17:26Z</time>
      </trkpt>
      <trkpt lat="46.23932" lon="4.4107">
        <ele>456</ele>
        <time>2016-06-25T13:19:26Z</time>
      </trkpt>
      <trkpt lat="46.23936" lon="4.41077">
        <ele>456</ele>
        <time>2016-06-25T13:21:26Z</time>
      </trkpt>
      <trkpt lat="46.23946" lon="4.41087">
        <ele>460</ele>
        <time>2016-06-25T13:23:26Z</time>
      </trkpt>
      <trkpt lat="46.2395" lon="4.41091">
        <ele>460</ele>
        <time>2016-06-25T13:25:26Z</time>
      </trkpt>
      <trkpt lat="46.23956" lon="4.41093">
        <ele>461</ele>
        <time>2016-06-25T13:27:26Z</time>
      </trkpt>
      <trkpt lat="46.23961" lon="4.41094">
        <ele>461</ele>
        <time>2016-06-25T13:29:26Z</time>
      </trkpt>
      <trkpt lat="46.23967" lon="4.41093">
        <ele>462</ele>
        <time>2016-06-25T13:31:26Z</time>
      </trkpt>
      <trkpt lat="46.23973" lon="4.41091">
        <ele>462</ele>
        <time>2016-06-25T13:33:26Z</time>
      </trkpt>
      <trkpt lat="46.23978" lon="4.41086">
        <ele>463</ele>
        <time>2016-06-25T13:35:26Z</time>
      </trkpt>
      <trkpt lat="46.23983" lon="4.41079">
        <ele>461</ele>
        <time>2016-06-25T13:37:26Z</time>
      </trkpt>
      <trkpt lat="46.23988" lon="4.41067">
        <ele>461</ele>
        <time>2016-06-25T13:39:26Z</time>
      </trkpt>
      <trkpt lat="46.24008" lon="4.41013">
        <ele>465</ele>
        <time>2016-06-25T13:41:26Z</time>
      </trkpt>
      <trkpt lat="46.24025" lon="4.40969">
        <ele>461</ele>
        <time>2016-06-25T13:43:26Z</time>
      </trkpt>
      <trkpt lat="46.24029" lon="4.40959">
        <ele>461</ele>
        <time>2016-06-25T13:45:26Z</time>
      </trkpt>
      <trkpt lat="46.24039" lon="4.40946">
        <ele>461</ele>
        <time>2016-06-25T13:47:26Z</time>
      </trkpt>
      <trkpt lat="46.24046" lon="4.40941">
        <ele>461</ele>
        <time>2016-06-25T13:49:26Z</time>
      </trkpt>
      <trkpt lat="46.24053" lon="4.40937">
        <ele>461</ele>
        <time>2016-06-25T13:51:26Z</time>
      </trkpt>
      <trkpt lat="46.24059" lon="4.40935">
        <ele>461</ele>
        <time>2016-06-25T13:53:26Z</time>
      </trkpt>
      <trkpt lat="46.24072" lon="4.40933">
        <ele>460</ele>
        <time>2016-06-25T13:55:26Z</time>
      </trkpt>
      <trkpt lat="46.2409" lon="4.40934">
        <ele>462</ele>
        <time>2016-06-25T13:57:26Z</time>
      </trkpt>
      <trkpt lat="46.24102" lon="4.40936">
        <ele>463</ele>
        <time>2016-06-25T13:59:26Z</time>
      </trkpt>
      <trkpt lat="46.24112" lon="4.4094">
        <ele>464</ele>
        <time>2016-06-25T14:01:26Z</time>
      </trkpt>
      <trkpt lat="46.24144" lon="4.40953">
        <ele>465</ele>
        <time>2016-06-25T14:03:26Z</time>
      </trkpt>
      <trkpt lat="46.24151" lon="4.40956">
        <ele>465</ele>
        <time>2016-06-25T14:05:26Z</time>
      </trkpt>
      <trkpt lat="46.24191" lon="4.40979">
        <ele>467</ele>
        <time>2016-06-25T14:07:26Z</time>
      </trkpt>
      <trkpt lat="46.24202" lon="4.40984">
        <ele>467</ele>
        <time>2016-06-25T14:09:26Z</time>
      </trkpt>
      <trkpt lat="46.24236" lon="4.40991">
        <ele>470</ele>
        <time>2016-06-25T14:11:26Z</time>
      </trkpt>
      <trkpt lat="46.24317" lon="4.40999">
        <ele>472</ele>
        <time>2016-06-25T14:13:26Z</time>
      </trkpt>
      <trkpt lat="46.24322" lon="4.41">
        <ele>477</ele>
        <time>2016-06-25T14:15:26Z</time>
      </trkpt>
      <trkpt lat="46.24335" lon="4.41006">
        <ele>476</ele>
        <time>2016-06-25T14:17:26Z</time>
      </trkpt>
      <trkpt lat="46.24345" lon="4.41011">
        <ele>476</ele>
        <time>2016-06-25T14:19:26Z</time>
      </trkpt>
      <trkpt lat="46.24357" lon="4.4102">
        <ele>477</ele>
        <time>2016-06-25T14:21:26Z</time>
      </trkpt>
      <trkpt lat="46.24367" lon="4.41025">
        <ele>477</ele>
        <time>2016-06-25T14:23:26Z</time>
      </trkpt>
      <trkpt lat="46.24376" lon="4.41034">
        <ele>477</ele>
        <time>2016-06-25T14:25:26Z</time>
      </trkpt>
      <trkpt lat="46.24382" lon="4.41041">
        <ele>477</ele>
        <time>2016-06-25T14:27:26Z</time>
      </trkpt>
      <trkpt lat="46.24395" lon="4.41061">
        <ele>478</ele>
        <time>2016-06-25T14:29:26Z</time>
      </trkpt>
      <trkpt lat="46.24399" lon="4.41071">
        <ele>478</ele>
        <time>2016-06-25T14:31:26Z</time>
      </trkpt>
      <trkpt lat="46.24407" lon="4.41092">
        <ele>485</ele>
        <time>2016-06-25T14:33:26Z</time>
      </trkpt>
      <trkpt lat="46.24415" lon="4.41113">
        <ele>489</ele>
        <time>2016-06-25T14:35:26Z</time>
      </trkpt>
      <trkpt lat="46.24425" lon="4.41137">
        <ele>485</ele>
        <time>2016-06-25T14:37:26Z</time>
      </trkpt>
      <trkpt lat="46.24436" lon="4.41152">
        <ele>487</ele>
        <time>2016-06-25T14:39:26Z</time>
      </trkpt>
      <trkpt lat="46.2446" lon="4.4118">
        <ele>493</ele>
        <time>2016-06-25T14:41:26Z</time>
      </trkpt>
      <trkpt lat="46.24465" lon="4.41187">
        <ele>493</ele>
        <time>2016-06-25T14:43:26Z</time>
      </trkpt>
      <trkpt lat="46.24473" lon="4.41202">
        <ele>494</ele>
        <time>2016-06-25T14:45:26Z</time>
      </trkpt>
      <trkpt lat="46.24479" lon="4.41221">
        <ele>495</ele>
        <time>2016-06-25T14:47:26Z</time>
      </trkpt>
      <trkpt lat="46.24493" lon="4.41319">
        <ele>499</ele>
        <time>2016-06-25T14:49:26Z</time>
      </trkpt>
      <trkpt lat="46.24493" lon="4.41338">
        <ele>498</ele>
        <time>2016-06-25T14:51:26Z</time>
      </trkpt>
      <trkpt lat="46.24491" lon="4.41349">
        <ele>500</ele>
        <time>2016-06-25T14:53:26Z</time>
      </trkpt>
      <trkpt lat="46.24485" lon="4.41378">
        <ele>503</ele>
        <time>2016-06-25T14:55:26Z</time>
      </trkpt>
      <trkpt lat="46.24479" lon="4.41401">
        <ele>502</ele>
        <time>2016-06-25T14:57:26Z</time>
      </trkpt>
      <trkpt lat="46.24461" lon="4.41451">
        <ele>506</ele>
        <time>2016-06-25T14:59:26Z</time>
      </trkpt>
      <trkpt lat="46.24447" lon="4.41476">
        <ele>507</ele>
        <time>2016-06-25T15:01:26Z</time>
      </trkpt>
      <trkpt lat="46.24444" lon="4.41484">
        <ele>508</ele>
        <time>2016-06-25T15:03:26Z</time>
      </trkpt>
      <trkpt lat="46.24442" lon="4.41492">
        <ele>508</ele>
        <time>2016-06-25T15:05:26Z</time>
      </trkpt>
      <trkpt lat="46.24442" lon="4.41501">
        <ele>511</ele>
        <time>2016-06-25T15:07:26Z</time>
      </trkpt>
      <trkpt lat="46.24442" lon="4.41516">
        <ele>512</ele>
        <time>2016-06-25T15:09:26Z</time>
      </trkpt>
      <trkpt lat="46.24443" lon="4.41524">
        <ele>512</ele>
        <time>2016-06-25T15:11:26Z</time>
      </trkpt>
      <trkpt lat="46.24447" lon="4.41534">
        <ele>512</ele>
        <time>2016-06-25T15:13:26Z</time>
      </trkpt>
      <trkpt lat="46.24453" lon="4.41541">
        <ele>512</ele>
        <time>2016-06-25T15:15:26Z</time>
      </trkpt>
      <trkpt lat="46.24462" lon="4.41547">
        <ele>512</ele>
        <time>2016-06-25T15:17:26Z</time>
      </trkpt>
      <trkpt lat="46.2447" lon="4.4155">
        <ele>512</ele>
        <time>2016-06-25T15:19:26Z</time>
      </trkpt>
      <trkpt lat="46.24475" lon="4.4155">
        <ele>512</ele>
        <time>2016-06-25T15:21:26Z</time>
      </trkpt>
      <trkpt lat="46.24491" lon="4.41547">
        <ele>511</ele>
        <time>2016-06-25T15:23:26Z</time>
      </trkpt>
      <trkpt lat="46.24505" lon="4.41543">
        <ele>508</ele>
        <time>2016-06-25T15:25:26Z</time>
      </trkpt>
      <trkpt lat="46.24514" lon="4.41538">
        <ele>508</ele>
        <time>2016-06-25T15:27:26Z</time>
      </trkpt>
      <trkpt lat="46.24523" lon="4.41533">
        <ele>508</ele>
        <time>2016-06-25T15:29:26Z</time>
      </trkpt>
      <trkpt lat="46.2453" lon="4.41531">
        <ele>508</ele>
        <time>2016-06-25T15:31:26Z</time>
      </trkpt>
      <trkpt lat="46.24537" lon="4.4153">
        <ele>508</ele>
        <time>2016-06-25T15:33:26Z</time>
      </trkpt>
      <trkpt lat="46.24543" lon="4.4153">
        <ele>508</ele>
        <time>2016-06-25T15:35:26Z</time>
      </trkpt>
      <trkpt lat="46.24556" lon="4.41532">
        <ele>508</ele>
        <time>2016-06-25T15:37:26Z</time>
      </trkpt>
      <trkpt lat="46.24613" lon="4.41559">
        <ele>512</ele>
        <time>2016-06-25T15:39:26Z</time>
      </trkpt>
      <trkpt lat="46.24617" lon="4.4156">
        <ele>512</ele>
        <time>2016-06-25T15:41:26Z</time>
      </trkpt>
      <trkpt lat="46.24639" lon="4.41567">
        <ele>513</ele>
        <time>2016-06-25T15:43:26Z</time>
      </trkpt>
      <trkpt lat="46.24647" lon="4.41568">
        <ele>514</ele>
        <time>2016-06-25T15:45:26Z</time>
      </trkpt>
      <trkpt lat="46.24694" lon="4.41572">
        <ele>516</ele>
        <time>2016-06-25T15:47:26Z</time>
      </trkpt>
      <trkpt lat="46.24719" lon="4.41573">
        <ele>517</ele>
        <time>2016-06-25T15:49:26Z</time>
      </trkpt>
      <trkpt lat="46.24734" lon="4.41572">
        <ele>517</ele>
        <time>2016-06-25T15:51:26Z</time>
      </trkpt>
      <trkpt lat="46.24734" lon="4.41572">
        <ele>517</ele>
        <time>2016-06-25T15:53:26Z</time>
      </trkpt>
      <trkpt lat="46.24733" lon="4.41587">
        <ele>518</ele>
        <time>2016-06-25T15:55:26Z</time>
      </trkpt>
      <trkpt lat="46.24732" lon="4.41593">
        <ele>518</ele>
        <time>2016-06-25T15:57:26Z</time>
      </trkpt>
      <trkpt lat="46.2473" lon="4.41604">
        <ele>518</ele>
        <time>2016-06-25T15:59:26Z</time>
      </trkpt>
      <trkpt lat="46.24723" lon="4.41629">
        <ele>518</ele>
        <time>2016-06-25T16:01:26Z</time>
      </trkpt>
      <trkpt lat="46.24716" lon="4.41652">
        <ele>518</ele>
        <time>2016-06-25T16:03:26Z</time>
      </trkpt>
      <trkpt lat="46.24707" lon="4.41677">
        <ele>519</ele>
        <time>2016-06-25T16:05:26Z</time>
      </trkpt>
      <trkpt lat="46.2469" lon="4.41727">
        <ele>520</ele>
        <time>2016-06-25T16:07:26Z</time>
      </trkpt>
      <trkpt lat="46.24682" lon="4.41752">
        <ele>522</ele>
        <time>2016-06-25T16:09:26Z</time>
      </trkpt>
      <trkpt lat="46.2468" lon="4.4176">
        <ele>522</ele>
        <time>2016-06-25T16:11:26Z</time>
      </trkpt>
      <trkpt lat="46.24679" lon="4.41769">
        <ele>521</ele>
        <time>2016-06-25T16:13:26Z</time>
      </trkpt>
      <trkpt lat="46.24678" lon="4.41777">
        <ele>521</ele>
        <time>2016-06-25T16:15:26Z</time>
      </trkpt>
      <trkpt lat="46.24677" lon="4.41786">
        <ele>521</ele>
        <time>2016-06-25T16:17:26Z</time>
      </trkpt>
      <trkpt lat="46.24678" lon="4.41794">
        <ele>521</ele>
        <time>2016-06-25T16:19:26Z</time>
      </trkpt>
      <trkpt lat="46.24678" lon="4.41804">
        <ele>521</ele>
        <time>2016-06-25T16:21:26Z</time>
      </trkpt>
      <trkpt lat="46.2468" lon="4.41813">
        <ele>521</ele>
        <time>2016-06-25T16:23:26Z</time>
      </trkpt>
      <trkpt lat="46.24683" lon="4.41822">
        <ele>522</ele>
        <time>2016-06-25T16:25:26Z</time>
      </trkpt>
      <trkpt lat="46.24686" lon="4.41831">
        <ele>521</ele>
        <time>2016-06-25T16:27:26Z</time>
      </trkpt>
      <trkpt lat="46.2469" lon="4.4184">
        <ele>524</ele>
        <time>2016-06-25T16:29:26Z</time>
      </trkpt>
      <trkpt lat="46.24707" lon="4.4187">
        <ele>523</ele>
        <time>2016-06-25T16:31:26Z</time>
      </trkpt>
      <trkpt lat="46.24727" lon="4.41902">
        <ele>523</ele>
        <time>2016-06-25T16:33:26Z</time>
      </trkpt>
      <trkpt lat="46.2474" lon="4.41925">
        <ele>527</ele>
        <time>2016-06-25T16:35:26Z</time>
      </trkpt>
      <trkpt lat="46.24754" lon="4.41949">
        <ele>524</ele>
        <time>2016-06-25T16:37:26Z</time>
      </trkpt>
      <trkpt lat="46.24762" lon="4.41963">
        <ele>526</ele>
        <time>2016-06-25T16:39:26Z</time>
      </trkpt>
      <trkpt lat="46.24766" lon="4.41971">
        <ele>526</ele>
        <time>2016-06-25T16:41:26Z</time>
      </trkpt>
      <trkpt lat="46.2477" lon="4.41978">
        <ele>527</ele>
        <time>2016-06-25T16:43:26Z</time>
      </trkpt>
      <trkpt lat="46.24773" lon="4.41985">
        <ele>528</ele>
        <time>2016-06-25T16:45:26Z</time>
      </trkpt>
      <trkpt lat="46.24776" lon="4.41992">
        <ele>528</ele>
        <time>2016-06-25T16:47:26Z</time>
      </trkpt>
      <trkpt lat="46.24779" lon="4.42">
        <ele>528</ele>
        <time>2016-06-25T16:49:26Z</time>
      </trkpt>
      <trkpt lat="46.24782" lon="4.42007">
        <ele>530</ele>
        <time>2016-06-25T16:51:26Z</time>
      </trkpt>
      <trkpt lat="46.24784" lon="4.42015">
        <ele>530</ele>
        <time>2016-06-25T16:53:26Z</time>
      </trkpt>
      <trkpt lat="46.24785" lon="4.42022">
        <ele>530</ele>
        <time>2016-06-25T16:55:26Z</time>
      </trkpt>
      <trkpt lat="46.24786" lon="4.4203">
        <ele>529</ele>
        <time>2016-06-25T16:57:26Z</time>
      </trkpt>
      <trkpt lat="46.24786" lon="4.42038">
        <ele>529</ele>
        <time>2016-06-25T16:59:26Z</time>
      </trkpt>
      <trkpt lat="46.24786" lon="4.42046">
        <ele>529</ele>
        <time>2016-06-25T17:01:26Z</time>
      </trkpt>
      <trkpt lat="46.24786" lon="4.42054">
        <ele>529</ele>
        <time>2016-06-25T17:03:26Z</time>
      </trkpt>
      <trkpt lat="46.24784" lon="4.42062">
        <ele>529</ele>
        <time>2016-06-25T17:05:26Z</time>
      </trkpt>
      <trkpt lat="46.24783" lon="4.4207">
        <ele>529</ele>
        <time>2016-06-25T17:07:26Z</time>
      </trkpt>
      <trkpt lat="46.24781" lon="4.42078">
        <ele>530</ele>
        <time>2016-06-25T17:09:26Z</time>
      </trkpt>
      <trkpt lat="46.24778" lon="4.42086">
        <ele>526</ele>
        <time>2016-06-25T17:11:26Z</time>
      </trkpt>
      <trkpt lat="46.24772" lon="4.42104">
        <ele>525</ele>
        <time>2016-06-25T17:13:26Z</time>
      </trkpt>
      <trkpt lat="46.24762" lon="4.4213">
        <ele>523</ele>
        <time>2016-06-25T17:15:26Z</time>
      </trkpt>
      <trkpt lat="46.24758" lon="4.42139">
        <ele>522</ele>
        <time>2016-06-25T17:17:26Z</time>
      </trkpt>
      <trkpt lat="46.24755" lon="4.42149">
        <ele>521</ele>
        <time>2016-06-25T17:19:26Z</time>
      </trkpt>
      <trkpt lat="46.24751" lon="4.42158">
        <ele>519</ele>
        <time>2016-06-25T17:21:26Z</time>
      </trkpt>
      <trkpt lat="46.24746" lon="4.4217">
        <ele>517</ele>
        <time>2016-06-25T17:23:26Z</time>
      </trkpt>
      <trkpt lat="46.2474" lon="4.42185">
        <ele>516</ele>
        <time>2016-06-25T17:25:26Z</time>
      </trkpt>
      <trkpt lat="46.24736" lon="4.42193">
        <ele>515</ele>
        <time>2016-06-25T17:27:26Z</time>
      </trkpt>
      <trkpt lat="46.24732" lon="4.42201">
        <ele>515</ele>
        <time>2016-06-25T17:29:26Z</time>
      </trkpt>
      <trkpt lat="46.24727" lon="4.42208">
        <ele>514</ele>
        <time>2016-06-25T17:31:26Z</time>
      </trkpt>
      <trkpt lat="46.24722" lon="4.42216">
        <ele>513</ele>
        <time>2016-06-25T17:33:26Z</time>
      </trkpt>
      <trkpt lat="46.24716" lon="4.42224">
        <ele>513</ele>
        <time>2016-06-25T17:35:26Z</time>
      </trkpt>
      <trkpt lat="46.24695" lon="4.42249">
        <ele>512</ele>
        <time>2016-06-25T17:37:26Z</time>
      </trkpt>
      <trkpt lat="46.2469" lon="4.42253">
        <ele>506</ele>
        <time>2016-06-25T17:39:26Z</time>
      </trkpt>
      <trkpt lat="46.24684" lon="4.42262">
        <ele>506</ele>
        <time>2016-06-25T17:41:26Z</time>
      </trkpt>
      <trkpt lat="46.24679" lon="4.4227">
        <ele>505</ele>
        <time>2016-06-25T17:43:26Z</time>
      </trkpt>
      <trkpt lat="46.24675" lon="4.42278">
        <ele>505</ele>
        <time>2016-06-25T17:45:26Z</time>
      </trkpt>
      <trkpt lat="46.24671" lon="4.42288">
        <ele>504</ele>
        <time>2016-06-25T17:47:26Z</time>
      </trkpt>
      <trkpt lat="46.24667" lon="4.42296">
        <ele>503</ele>
        <time>2016-06-25T17:49:26Z</time>
      </trkpt>
      <trkpt lat="46.24663" lon="4.42303">
        <ele>505</ele>
        <time>2016-06-25T17:51:26Z</time>
      </trkpt>
      <trkpt lat="46.24659" lon="4.42311">
        <ele>504</ele>
        <time>2016-06-25T17:53:26Z</time>
      </trkpt>
      <trkpt lat="46.24654" lon="4.42319">
        <ele>504</ele>
        <time>2016-06-25T17:55:26Z</time>
      </trkpt>
      <trkpt lat="46.24649" lon="4.42326">
        <ele>504</ele>
        <time>2016-06-25T17:57:26Z</time>
      </trkpt>
      <trkpt lat="46.24644" lon="4.42332">
        <ele>504</ele>
        <time>2016-06-25T17:59:26Z</time>
      </trkpt>
      <trkpt lat="46.24639" lon="4.42338">
        <ele>499</ele>
        <time>2016-06-25T18:01:26Z</time>
      </trkpt>
      <trkpt lat="46.24631" lon="4.42345">
        <ele>499</ele>
        <time>2016-06-25T18:03:26Z</time>
      </trkpt>
      <trkpt lat="46.24618" lon="4.42357">
        <ele>499</ele>
        <time>2016-06-25T18:05:26Z</time>
      </trkpt>
      <trkpt lat="46.24607" lon="4.4237">
        <ele>499</ele>
        <time>2016-06-25T18:07:26Z</time>
      </trkpt>
      <trkpt lat="46.24602" lon="4.42377">
        <ele>499</ele>
        <time>2016-06-25T18:09:26Z</time>
      </trkpt>
      <trkpt lat="46.246" lon="4.42381">
        <ele>499</ele>
        <time>2016-06-25T18:11:26Z</time>
      </trkpt>
      <trkpt lat="46.24595" lon="4.42389">
        <ele>498</ele>
        <time>2016-06-25T18:13:26Z</time>
      </trkpt>
      <trkpt lat="46.24591" lon="4.42397">
        <ele>498</ele>
        <time>2016-06-25T18:15:26Z</time>
      </trkpt>
      <trkpt lat="46.24583" lon="4.42419">
        <ele>498</ele>
        <time>2016-06-25T18:17:26Z</time>
      </trkpt>
      <trkpt lat="46.24571" lon="4.42461">
        <ele>501</ele>
        <time>2016-06-25T18:19:26Z</time>
      </trkpt>
      <trkpt lat="46.24567" lon="4.42473">
        <ele>501</ele>
        <time>2016-06-25T18:21:26Z</time>
      </trkpt>
      <trkpt lat="46.2456" lon="4.42495">
        <ele>500</ele>
        <time>2016-06-25T18:23:26Z</time>
      </trkpt>
      <trkpt lat="46.24555" lon="4.42508">
        <ele>497</ele>
        <time>2016-06-25T18:25:26Z</time>
      </trkpt>
      <trkpt lat="46.24543" lon="4.42538">
        <ele>497</ele>
        <time>2016-06-25T18:27:26Z</time>
      </trkpt>
      <trkpt lat="46.24538" lon="4.42551">
        <ele>497</ele>
        <time>2016-06-25T18:29:26Z</time>
      </trkpt>
      <trkpt lat="46.24523" lon="4.42586">
        <ele>494</ele>
        <time>2016-06-25T18:31:26Z</time>
      </trkpt>
      <trkpt lat="46.24513" lon="4.4261">
        <ele>494</ele>
        <time>2016-06-25T18:33:26Z</time>
      </trkpt>
      <trkpt lat="46.24503" lon="4.42634">
        <ele>493</ele>
        <time>2016-06-25T18:35:26Z</time>
      </trkpt>
      <trkpt lat="46.24493" lon="4.42657">
        <ele>496</ele>
        <time>2016-06-25T18:37:26Z</time>
      </trkpt>
      <trkpt lat="46.24472" lon="4.42705">
        <ele>496</ele>
        <time>2016-06-25T18:39:26Z</time>
      </trkpt>
      <trkpt lat="46.24467" lon="4.42716">
        <ele>496</ele>
        <time>2016-06-25T18:41:26Z</time>
      </trkpt>
      <trkpt lat="46.2446" lon="4.42735">
        <ele>496</ele>
        <time>2016-06-25T18:43:26Z</time>
      </trkpt>
      <trkpt lat="46.24445" lon="4.42776">
        <ele>495</ele>
        <time>2016-06-25T18:45:26Z</time>
      </trkpt>
      <trkpt lat="46.24433" lon="4.42815">
        <ele>495</ele>
        <time>2016-06-25T18:47:26Z</time>
      </trkpt>
      <trkpt lat="46.24413" lon="4.42881">
        <ele>497</ele>
        <time>2016-06-25T18:49:26Z</time>
      </trkpt>
      <trkpt lat="46.24403" lon="4.4291">
        <ele>496</ele>
        <time>2016-06-25T18:51:26Z</time>
      </trkpt>
      <trkpt lat="46.24395" lon="4.42933">
        <ele>496</ele>
        <time>2016-06-25T18:53:26Z</time>
      </trkpt>
      <trkpt lat="46.24392" lon="4.4294">
        <ele>497</ele>
        <time>2016-06-25T18:55:26Z</time>
      </trkpt>
      <trkpt lat="46.24389" lon="4.42948">
        <ele>497</ele>
        <time>2016-06-25T18:57:26Z</time>
      </trkpt>
      <trkpt lat="46.24381" lon="4.42971">
        <ele>497</ele>
        <time>2016-06-25T18:59:26Z</time>
      </trkpt>
      <trkpt lat="46.24374" lon="4.4299">
        <ele>497</ele>
        <time>2016-06-25T19:01:26Z</time>
      </trkpt>
      <trkpt lat="46.24369" lon="4.43004">
        <ele>501</ele>
        <time>2016-06-25T19:03:26Z</time>
      </trkpt>
      <trkpt lat="46.24364" lon="4.43016">
        <ele>502</ele>
        <time>2016-06-25T19:05:26Z</time>
      </trkpt>
      <trkpt lat="46.2436" lon="4.43023">
        <ele>502</ele>
        <time>2016-06-25T19:07:26Z</time>
      </trkpt>
      <trkpt lat="46.24356" lon="4.43032">
        <ele>503</ele>
        <time>2016-06-25T19:09:26Z</time>
      </trkpt>
      <trkpt lat="46.24351" lon="4.4304">
        <ele>503</ele>
        <time>2016-06-25T19:11:26Z</time>
      </trkpt>
      <trkpt lat="46.24341" lon="4.43052">
        <ele>504</ele>
        <time>2016-06-25T19:13:26Z</time>
      </trkpt>
      <trkpt lat="46.24334" lon="4.4306">
        <ele>505</ele>
        <time>2016-06-25T19:15:26Z</time>
      </trkpt>
      <trkpt lat="46.24329" lon="4.43065">
        <ele>504</ele>
        <time>2016-06-25T19:17:26Z</time>
      </trkpt>
      <trkpt lat="46.24324" lon="4.43071">
        <ele>504</ele>
        <time>2016-06-25T19:19:26Z</time>
      </trkpt>
      <trkpt lat="46.24312" lon="4.43083">
        <ele>504</ele>
        <time>2016-06-25T19:21:26Z</time>
      </trkpt>
      <trkpt lat="46.24292" lon="4.43102">
        <ele>509</ele>
        <time>2016-06-25T19:23:26Z</time>
      </trkpt>
      <trkpt lat="46.24281" lon="4.43113">
        <ele>509</ele>
        <time>2016-06-25T19:25:26Z</time>
      </trkpt>
      <trkpt lat="46.24217" lon="4.43176">
        <ele>512</ele>
        <time>2016-06-25T19:27:26Z</time>
      </trkpt>
      <trkpt lat="46.24193" lon="4.43199">
        <ele>512</ele>
        <time>2016-06-25T19:29:26Z</time>
      </trkpt>
      <trkpt lat="46.24181" lon="4.43211">
        <ele>513</ele>
        <time>2016-06-25T19:31:26Z</time>
      </trkpt>
      <trkpt lat="46.24176" lon="4.43218">
        <ele>513</ele>
        <time>2016-06-25T19:33:26Z</time>
      </trkpt>
      <trkpt lat="46.24166" lon="4.4323">
        <ele>511</ele>
        <time>2016-06-25T19:35:26Z</time>
      </trkpt>
      <trkpt lat="46.24162" lon="4.43235">
        <ele>512</ele>
        <time>2016-06-25T19:37:26Z</time>
      </trkpt>
      <trkpt lat="46.24158" lon="4.43242">
        <ele>512</ele>
        <time>2016-06-25T19:39:26Z</time>
      </trkpt>
      <trkpt lat="46.24154" lon="4.43247">
        <ele>512</ele>
        <time>2016-06-25T19:41:26Z</time>
      </trkpt>
      <trkpt lat="46.24151" lon="4.43253">
        <ele>515</ele>
        <time>2016-06-25T19:43:26Z</time>
      </trkpt>
      <trkpt lat="46.24148" lon="4.43259">
        <ele>515</ele>
        <time>2016-06-25T19:45:26Z</time>
      </trkpt>
      <trkpt lat="46.24145" lon="4.43265">
        <ele>515</ele>
        <time>2016-06-25T19:47:26Z</time>
      </trkpt>
      <trkpt lat="46.24142" lon="4.43271">
        <ele>515</ele>
        <time>2016-06-25T19:49:26Z</time>
      </trkpt>
      <trkpt lat="46.24139" lon="4.43277">
        <ele>515</ele>
        <time>2016-06-25T19:51:26Z</time>
      </trkpt>
      <trkpt lat="46.24137" lon="4.43284">
        <ele>515</ele>
        <time>2016-06-25T19:53:26Z</time>
      </trkpt>
      <trkpt lat="46.24134" lon="4.4329">
        <ele>516</ele>
        <time>2016-06-25T19:55:26Z</time>
      </trkpt>
      <trkpt lat="46.24132" lon="4.43298">
        <ele>516</ele>
        <time>2016-06-25T19:57:26Z</time>
      </trkpt>
      <trkpt lat="46.24128" lon="4.43314">
        <ele>516</ele>
        <time>2016-06-25T19:59:26Z</time>
      </trkpt>
      <trkpt lat="46.24126" lon="4.43329">
        <ele>517</ele>
        <time>2016-06-25T20:01:26Z</time>
      </trkpt>
      <trkpt lat="46.24125" lon="4.43338">
        <ele>521</ele>
        <time>2016-06-25T20:03:26Z</time>
      </trkpt>
      <trkpt lat="46.24124" lon="4.43359">
        <ele>521</ele>
        <time>2016-06-25T20:05:26Z</time>
      </trkpt>
      <trkpt lat="46.24124" lon="4.43376">
        <ele>521</ele>
        <time>2016-06-25T20:07:26Z</time>
      </trkpt>
      <trkpt lat="46.24125" lon="4.43396">
        <ele>522</ele>
        <time>2016-06-25T20:09:26Z</time>
      </trkpt>
      <trkpt lat="46.24126" lon="4.43404">
        <ele>522</ele>
        <time>2016-06-25T20:11:26Z</time>
      </trkpt>
      <trkpt lat="46.24126" lon="4.43412">
        <ele>522</ele>
        <time>2016-06-25T20:13:26Z</time>
      </trkpt>
      <trkpt lat="46.24129" lon="4.43431">
        <ele>526</ele>
        <time>2016-06-25T20:15:26Z</time>
      </trkpt>
      <trkpt lat="46.24131" lon="4.43448">
        <ele>526</ele>
        <time>2016-06-25T20:17:26Z</time>
      </trkpt>
      <trkpt lat="46.24135" lon="4.4347">
        <ele>527</ele>
        <time>2016-06-25T20:19:26Z</time>
      </trkpt>
      <trkpt lat="46.24139" lon="4.43494">
        <ele>528</ele>
        <time>2016-06-25T20:21:26Z</time>
      </trkpt>
      <trkpt lat="46.24139" lon="4.43501">
        <ele>532</ele>
        <time>2016-06-25T20:23:26Z</time>
      </trkpt>
      <trkpt lat="46.2414" lon="4.43511">
        <ele>532</ele>
        <time>2016-06-25T20:25:26Z</time>
      </trkpt>
      <trkpt lat="46.2414" lon="4.43517">
        <ele>532</ele>
        <time>2016-06-25T20:27:26Z</time>
      </trkpt>
      <trkpt lat="46.2414" lon="4.43525">
        <ele>532</ele>
        <time>2016-06-25T20:29:26Z</time>
      </trkpt>
      <trkpt lat="46.24139" lon="4.43536">
        <ele>532</ele>
        <time>2016-06-25T20:31:26Z</time>
      </trkpt>
      <trkpt lat="46.24137" lon="4.43546">
        <ele>533</ele>
        <time>2016-06-25T20:33:26Z</time>
      </trkpt>
      <trkpt lat="46.24133" lon="4.43561">
        <ele>533</ele>
        <time>2016-06-25T20:35:26Z</time>
      </trkpt>
      <trkpt lat="46.24131" lon="4.43573">
        <ele>534</ele>
        <time>2016-06-25T20:37:26Z</time>
      </trkpt>
      <trkpt lat="46.24128" lon="4.4358">
        <ele>534</ele>
        <time>2016-06-25T20:39:26Z</time>
      </trkpt>
      <trkpt lat="46.24124" lon="4.43589">
        <ele>539</ele>
        <time>2016-06-25T20:41:26Z</time>
      </trkpt>
      <trkpt lat="46.24116" lon="4.43601">
        <ele>539</ele>
        <time>2016-06-25T20:43:26Z</time>
      </trkpt>
      <trkpt lat="46.24101" lon="4.43618">
        <ele>539</ele>
        <time>2016-06-25T20:45:26Z</time>
      </trkpt>
      <trkpt lat="46.24076" lon="4.43642">
        <ele>537</ele>
        <time>2016-06-25T20:47:26Z</time>
      </trkpt>
      <trkpt lat="46.2406" lon="4.43659">
        <ele>537</ele>
        <time>2016-06-25T20:49:26Z</time>
      </trkpt>
      <trkpt lat="46.24048" lon="4.43676">
        <ele>540</ele>
        <time>2016-06-25T20:51:26Z</time>
      </trkpt>
      <trkpt lat="46.24044" lon="4.4368">
        <ele>540</ele>
        <time>2016-06-25T20:53:26Z</time>
      </trkpt>
      <trkpt lat="46.24039" lon="4.43685">
        <ele>540</ele>
        <time>2016-06-25T20:55:26Z</time>
      </trkpt>
      <trkpt lat="46.24032" lon="4.43692">
        <ele>540</ele>
        <time>2016-06-25T20:57:26Z</time>
      </trkpt>
      <trkpt lat="46.24023" lon="4.43703">
        <ele>540</ele>
        <time>2016-06-25T20:59:26Z</time>
      </trkpt>
      <trkpt lat="46.24011" lon="4.43723">
        <ele>540</ele>
        <time>2016-06-25T21:01:26Z</time>
      </trkpt>
      <trkpt lat="46.24005" lon="4.43734">
        <ele>540</ele>
        <time>2016-06-25T21:03:26Z</time>
      </trkpt>
      <trkpt lat="46.23999" lon="4.43748">
        <ele>538</ele>
        <time>2016-06-25T21:05:26Z</time>
      </trkpt>
      <trkpt lat="46.23994" lon="4.43765">
        <ele>537</ele>
        <time>2016-06-25T21:07:26Z</time>
      </trkpt>
      <trkpt lat="46.23989" lon="4.43785">
        <ele>535</ele>
        <time>2016-06-25T21:09:26Z</time>
      </trkpt>
      <trkpt lat="46.23981" lon="4.43818">
        <ele>535</ele>
        <time>2016-06-25T21:11:26Z</time>
      </trkpt>
      <trkpt lat="46.2398" lon="4.43827">
        <ele>536</ele>
        <time>2016-06-25T21:13:26Z</time>
      </trkpt>
      <trkpt lat="46.23978" lon="4.43835">
        <ele>536</ele>
        <time>2016-06-25T21:15:26Z</time>
      </trkpt>
      <trkpt lat="46.23973" lon="4.43851">
        <ele>536</ele>
        <time>2016-06-25T21:17:26Z</time>
      </trkpt>
      <trkpt lat="46.2397" lon="4.43866">
        <ele>536</ele>
        <time>2016-06-25T21:19:26Z</time>
      </trkpt>
      <trkpt lat="46.23966" lon="4.43879">
        <ele>536</ele>
        <time>2016-06-25T21:21:26Z</time>
      </trkpt>
      <trkpt lat="46.23962" lon="4.43891">
        <ele>536</ele>
        <time>2016-06-25T21:23:26Z</time>
      </trkpt>
      <trkpt lat="46.23958" lon="4.43902">
        <ele>536</ele>
        <time>2016-06-25T21:25:26Z</time>
      </trkpt>
      <trkpt lat="46.23949" lon="4.43918">
        <ele>540</ele>
        <time>2016-06-25T21:27:26Z</time>
      </trkpt>
      <trkpt lat="46.23944" lon="4.43924">
        <ele>540</ele>
        <time>2016-06-25T21:29:26Z</time>
      </trkpt>
      <trkpt lat="46.23935" lon="4.43934">
        <ele>540</ele>
        <time>2016-06-25T21:31:26Z</time>
      </trkpt>
      <trkpt lat="46.2393" lon="4.43937">
        <ele>540</ele>
        <time>2016-06-25T21:33:26Z</time>
      </trkpt>
      <trkpt lat="46.23924" lon="4.43941">
        <ele>540</ele>
        <time>2016-06-25T21:35:26Z</time>
      </trkpt>
      <trkpt lat="46.23912" lon="4.43946">
        <ele>540</ele>
        <time>2016-06-25T21:37:26Z</time>
      </trkpt>
      <trkpt lat="46.23899" lon="4.43949">
        <ele>540</ele>
        <time>2016-06-25T21:39:26Z</time>
      </trkpt>
      <trkpt lat="46.23883" lon="4.43952">
        <ele>541</ele>
        <time>2016-06-25T21:41:26Z</time>
      </trkpt>
      <trkpt lat="46.23863" lon="4.43954">
        <ele>541</ele>
        <time>2016-06-25T21:43:26Z</time>
      </trkpt>
      <trkpt lat="46.23847" lon="4.4396">
        <ele>541</ele>
        <time>2016-06-25T21:45:26Z</time>
      </trkpt>
      <trkpt lat="46.23839" lon="4.43966">
        <ele>541</ele>
        <time>2016-06-25T21:47:26Z</time>
      </trkpt>
      <trkpt lat="46.23833" lon="4.43973">
        <ele>541</ele>
        <time>2016-06-25T21:49:26Z</time>
      </trkpt>
      <trkpt lat="46.23825" lon="4.43985">
        <ele>542</ele>
        <time>2016-06-25T21:51:26Z</time>
      </trkpt>
      <trkpt lat="46.23818" lon="4.44">
        <ele>544</ele>
        <time>2016-06-25T21:53:26Z</time>
      </trkpt>
      <trkpt lat="46.23809" lon="4.44021">
        <ele>544</ele>
        <time>2016-06-25T21:55:26Z</time>
      </trkpt>
      <trkpt lat="46.23801" lon="4.44043">
        <ele>544</ele>
        <time>2016-06-25T21:57:26Z</time>
      </trkpt>
      <trkpt lat="46.238" lon="4.44048">
        <ele>544</ele>
        <time>2016-06-25T21:59:26Z</time>
      </trkpt>
      <trkpt lat="46.23795" lon="4.44065">
        <ele>544</ele>
        <time>2016-06-25T22:01:26Z</time>
      </trkpt>
      <trkpt lat="46.23791" lon="4.44086">
        <ele>546</ele>
        <time>2016-06-25T22:03:26Z</time>
      </trkpt>
      <trkpt lat="46.2379" lon="4.441">
        <ele>547</ele>
        <time>2016-06-25T22:05:26Z</time>
      </trkpt>
      <trkpt lat="46.23789" lon="4.4411">
        <ele>547</ele>
        <time>2016-06-25T22:07:26Z</time>
      </trkpt>
      <trkpt lat="46.23789" lon="4.44116">
        <ele>547</ele>
        <time>2016-06-25T22:09:26Z</time>
      </trkpt>
      <trkpt lat="46.2379" lon="4.4413">
        <ele>547</ele>
        <time>2016-06-25T22:11:26Z</time>
      </trkpt>
      <trkpt lat="46.23794" lon="4.44164">
        <ele>548</ele>
        <time>2016-06-25T22:13:26Z</time>
      </trkpt>
      <trkpt lat="46.23796" lon="4.44183">
        <ele>548</ele>
        <time>2016-06-25T22:15:26Z</time>
      </trkpt>
      <trkpt lat="46.23796" lon="4.44208">
        <ele>548</ele>
        <time>2016-06-25T22:17:26Z</time>
      </trkpt>
      <trkpt lat="46.23797" lon="4.44211">
        <ele>548</ele>
        <time>2016-06-25T22:19:26Z</time>
      </trkpt>
      <trkpt lat="46.23798" lon="4.44228">
        <ele>548</ele>
        <time>2016-06-25T22:21:26Z</time>
      </trkpt>
      <trkpt lat="46.23799" lon="4.44237">
        <ele>548</ele>
        <time>2016-06-25T22:23:26Z</time>
      </trkpt>
      <trkpt lat="46.23801" lon="4.44246">
        <ele>549</ele>
        <time>2016-06-25T22:25:26Z</time>
      </trkpt>
      <trkpt lat="46.23806" lon="4.4426">
        <ele>547</ele>
        <time>2016-06-25T22:27:26Z</time>
      </trkpt>
      <trkpt lat="46.23811" lon="4.44273">
        <ele>546</ele>
        <time>2016-06-25T22:29:26Z</time>
      </trkpt>
      <trkpt lat="46.23818" lon="4.44289">
        <ele>546</ele>
        <time>2016-06-25T22:31:26Z</time>
      </trkpt>
      <trkpt lat="46.23822" lon="4.44298">
        <ele>546</ele>
        <time>2016-06-25T22:33:26Z</time>
      </trkpt>
      <trkpt lat="46.23827" lon="4.44312">
        <ele>546</ele>
        <time>2016-06-25T22:35:26Z</time>
      </trkpt>
      <trkpt lat="46.23834" lon="4.44332">
        <ele>549</ele>
        <time>2016-06-25T22:37:26Z</time>
      </trkpt>
      <trkpt lat="46.23841" lon="4.44359">
        <ele>549</ele>
        <time>2016-06-25T22:39:26Z</time>
      </trkpt>
      <trkpt lat="46.23848" lon="4.44384">
        <ele>548</ele>
        <time>2016-06-25T22:41:26Z</time>
      </trkpt>
      <trkpt lat="46.23856" lon="4.44407">
        <ele>546</ele>
        <time>2016-06-25T22:43:26Z</time>
      </trkpt>
      <trkpt lat="46.23863" lon="4.44425">
        <ele>542</ele>
        <time>2016-06-25T22:45:26Z</time>
      </trkpt>
      <trkpt lat="46.2387" lon="4.44443">
        <ele>542</ele>
        <time>2016-06-25T22:47:26Z</time>
      </trkpt>
      <trkpt lat="46.23879" lon="4.44465">
        <ele>541</ele>
        <time>2016-06-25T22:49:26Z</time>
      </trkpt>
      <trkpt lat="46.23883" lon="4.44473">
        <ele>541</ele>
        <time>2016-06-25T22:51:26Z</time>
      </trkpt>
      <trkpt lat="46.23887" lon="4.44481">
        <ele>541</ele>
        <time>2016-06-25T22:53:26Z</time>
      </trkpt>
      <trkpt lat="46.23893" lon="4.4449">
        <ele>541</ele>
        <time>2016-06-25T22:55:26Z</time>
      </trkpt>
      <trkpt lat="46.239" lon="4.445">
        <ele>540</ele>
        <time>2016-06-25T22:57:26Z</time>
      </trkpt>
      <trkpt lat="46.23905" lon="4.44508">
        <ele>540</ele>
        <time>2016-06-25T22:59:26Z</time>
      </trkpt>
      <trkpt lat="46.23912" lon="4.44516">
        <ele>540</ele>
        <time>2016-06-25T23:01:26Z</time>
      </trkpt>
      <trkpt lat="46.23917" lon="4.44524">
        <ele>543</ele>
        <time>2016-06-25T23:03:26Z</time>
      </trkpt>
      <trkpt lat="46.23922" lon="4.44533">
        <ele>543</ele>
        <time>2016-06-25T23:05:26Z</time>
      </trkpt>
      <trkpt lat="46.23926" lon="4.44542">
        <ele>543</ele>
        <time>2016-06-25T23:07:26Z</time>
      </trkpt>
      <trkpt lat="46.23931" lon="4.44555">
        <ele>543</ele>
        <time>2016-06-25T23:09:26Z</time>
      </trkpt>
      <trkpt lat="46.23934" lon="4.44567">
        <ele>542</ele>
        <time>2016-06-25T23:11:26Z</time>
      </trkpt>
      <trkpt lat="46.23935" lon="4.44576">
        <ele>542</ele>
        <time>2016-06-25T23:13:26Z</time>
      </trkpt>
      <trkpt lat="46.23936" lon="4.44585">
        <ele>542</ele>
        <time>2016-06-25T23:15:26Z</time>
      </trkpt>
      <trkpt lat="46.23937" lon="4.44599">
        <ele>543</ele>
        <time>2016-06-25T23:17:26Z</time>
      </trkpt>
      <trkpt lat="46.23937" lon="4.4461">
        <ele>543</ele>
        <time>2016-06-25T23:19:26Z</time>
      </trkpt>
      <trkpt lat="46.23936" lon="4.44619">
        <ele>543</ele>
        <time>2016-06-25T23:21:26Z</time>
      </trkpt>
      <trkpt lat="46.23935" lon="4.44628">
        <ele>544</ele>
        <time>2016-06-25T23:23:26Z</time>
      </trkpt>
      <trkpt lat="46.23935" lon="4.44632">
        <ele>544</ele>
        <time>2016-06-25T23:25:26Z</time>
      </trkpt>
      <trkpt lat="46.23934" lon="4.44636">
        <ele>544</ele>
        <time>2016-06-25T23:27:26Z</time>
      </trkpt>
      <trkpt lat="46.23933" lon="4.4464">
        <ele>544</ele>
        <time>2016-06-25T23:29:26Z</time>
      </trkpt>
      <trkpt lat="46.23933" lon="4.44645">
        <ele>543</ele>
        <time>2016-06-25T23:31:26Z</time>
      </trkpt>
      <trkpt lat="46.23932" lon="4.4465">
        <ele>543</ele>
        <time>2016-06-25T23:33:26Z</time>
      </trkpt>
      <trkpt lat="46.23931" lon="4.44654">
        <ele>543</ele>
        <time>2016-06-25T23:35:26Z</time>
      </trkpt>
      <trkpt lat="46.2393" lon="4.44658">
        <ele>543</ele>
        <time>2016-06-25T23:37:26Z</time>
      </trkpt>
      <trkpt lat="46.23928" lon="4.44663">
        <ele>543</ele>
        <time>2016-06-25T23:39:26Z</time>
      </trkpt>
      <trkpt lat="46.23927" lon="4.44668">
        <ele>545</ele>
        <time>2016-06-25T23:41:26Z</time>
      </trkpt>
      <trkpt lat="46.23925" lon="4.44673">
        <ele>545</ele>
        <time>2016-06-25T23:43:26Z</time>
      </trkpt>
      <trkpt lat="46.23925" lon="4.44676">
        <ele>545</ele>
        <time>2016-06-25T23:45:26Z</time>
      </trkpt>
      <trkpt lat="46.23922" lon="4.44682">
        <ele>546</ele>
        <time>2016-06-25T23:47:26Z</time>
      </trkpt>
      <trkpt lat="46.23921" lon="4.44685">
        <ele>547</ele>
        <time>2016-06-25T23:49:26Z</time>
      </trkpt>
      <trkpt lat="46.23919" lon="4.44691">
        <ele>548</ele>
        <time>2016-06-25T23:51:26Z</time>
      </trkpt>
      <trkpt lat="46.23918" lon="4.44695">
        <ele>548</ele>
        <time>2016-06-25T23:53:26Z</time>
      </trkpt>
      <trkpt lat="46.23916" lon="4.447">
        <ele>542</ele>
        <time>2016-06-25T23:55:26Z</time>
      </trkpt>
      <trkpt lat="46.23912" lon="4.4471">
        <ele>542</ele>
        <time>2016-06-25T23:57:26Z</time>
      </trkpt>
      <trkpt lat="46.23909" lon="4.4472">
        <ele>543</ele>
        <time>2016-06-25T23:59:26Z</time>
      </trkpt>
      <trkpt lat="46.23905" lon="4.4473">
        <ele>544</ele>
        <time>2016-06-26T00:01:26Z</time>
      </trkpt>
      <trkpt lat="46.23901" lon="4.4474">
        <ele>544</ele>
        <time>2016-06-26T00:03:26Z</time>
      </trkpt>
      <trkpt lat="46.23898" lon="4.4475">
        <ele>544</ele>
        <time>2016-06-26T00:05:26Z</time>
      </trkpt>
      <trkpt lat="46.23894" lon="4.44761">
        <ele>548</ele>
        <time>2016-06-26T00:07:26Z</time>
      </trkpt>
      <trkpt lat="46.2389" lon="4.44771">
        <ele>547</ele>
        <time>2016-06-26T00:09:26Z</time>
      </trkpt>
      <trkpt lat="46.23886" lon="4.44782">
        <ele>548</ele>
        <time>2016-06-26T00:11:26Z</time>
      </trkpt>
      <trkpt lat="46.23882" lon="4.44793">
        <ele>548</ele>
        <time>2016-06-26T00:13:26Z</time>
      </trkpt>
      <trkpt lat="46.23878" lon="4.44804">
        <ele>548</ele>
        <time>2016-06-26T00:15:26Z</time>
      </trkpt>
      <trkpt lat="46.23875" lon="4.44814">
        <ele>548</ele>
        <time>2016-06-26T00:17:26Z</time>
      </trkpt>
      <trkpt lat="46.23871" lon="4.44825">
        <ele>548</ele>
        <time>2016-06-26T00:19:26Z</time>
      </trkpt>
      <trkpt lat="46.23867" lon="4.44835">
        <ele>552</ele>
        <time>2016-06-26T00:21:26Z</time>
      </trkpt>
      <trkpt lat="46.23864" lon="4.44846">
        <ele>552</ele>
        <time>2016-06-26T00:23:26Z</time>
      </trkpt>
      <trkpt lat="46.23863" lon="4.44849">
        <ele>552</ele>
        <time>2016-06-26T00:25:26Z</time>
      </trkpt>
      <trkpt lat="46.23858" lon="4.44866">
        <ele>552</ele>
        <time>2016-06-26T00:27:26Z</time>
      </trkpt>
      <trkpt lat="46.23856" lon="4.44876">
        <ele>553</ele>
        <time>2016-06-26T00:29:26Z</time>
      </trkpt>
      <trkpt lat="46.23854" lon="4.44887">
        <ele>553</ele>
        <time>2016-06-26T00:31:26Z</time>
      </trkpt>
      <trkpt lat="46.23853" lon="4.44897">
        <ele>553</ele>
        <time>2016-06-26T00:33:26Z</time>
      </trkpt>
      <trkpt lat="46.23852" lon="4.44907">
        <ele>552</ele>
        <time>2016-06-26T00:35:26Z</time>
      </trkpt>
      <trkpt lat="46.23852" lon="4.44917">
        <ele>554</ele>
        <time>2016-06-26T00:37:26Z</time>
      </trkpt>
      <trkpt lat="46.23852" lon="4.44927">
        <ele>554</ele>
        <time>2016-06-26T00:39:26Z</time>
      </trkpt>
      <trkpt lat="46.23853" lon="4.44938">
        <ele>555</ele>
        <time>2016-06-26T00:41:26Z</time>
      </trkpt>
      <trkpt lat="46.23853" lon="4.44948">
        <ele>556</ele>
        <time>2016-06-26T00:43:26Z</time>
      </trkpt>
      <trkpt lat="46.23854" lon="4.44959">
        <ele>557</ele>
        <time>2016-06-26T00:45:26Z</time>
      </trkpt>
      <trkpt lat="46.23856" lon="4.44971">
        <ele>557</ele>
        <time>2016-06-26T00:47:26Z</time>
      </trkpt>
      <trkpt lat="46.23856" lon="4.44982">
        <ele>557</ele>
        <time>2016-06-26T00:49:26Z</time>
      </trkpt>
      <trkpt lat="46.23858" lon="4.44994">
        <ele>556</ele>
        <time>2016-06-26T00:51:26Z</time>
      </trkpt>
      <trkpt lat="46.23859" lon="4.45006">
        <ele>557</ele>
        <time>2016-06-26T00:53:26Z</time>
      </trkpt>
      <trkpt lat="46.2386" lon="4.45018">
        <ele>558</ele>
        <time>2016-06-26T00:55:26Z</time>
      </trkpt>
      <trkpt lat="46.23862" lon="4.4503">
        <ele>559</ele>
        <time>2016-06-26T00:57:26Z</time>
      </trkpt>
      <trkpt lat="46.23864" lon="4.45041">
        <ele>559</ele>
        <time>2016-06-26T00:59:26Z</time>
      </trkpt>
      <trkpt lat="46.23866" lon="4.45052">
        <ele>559</ele>
        <time>2016-06-26T01:01:26Z</time>
      </trkpt>
      <trkpt lat="46.23869" lon="4.45063">
        <ele>559</ele>
        <time>2016-06-26T01:03:26Z</time>
      </trkpt>
      <trkpt lat="46.2387" lon="4.45067">
        <ele>559</ele>
        <time>2016-06-26T01:05:26Z</time>
      </trkpt>
      <trkpt lat="46.23871" lon="4.45074">
        <ele>559</ele>
        <time>2016-06-26T01:07:26Z</time>
      </trkpt>
      <trkpt lat="46.23874" lon="4.45084">
        <ele>559</ele>
        <time>2016-06-26T01:09:26Z</time>
      </trkpt>
      <trkpt lat="46.23878" lon="4.45094">
        <ele>559</ele>
        <time>2016-06-26T01:11:26Z</time>
      </trkpt>
      <trkpt lat="46.23881" lon="4.45103">
        <ele>559</ele>
        <time>2016-06-26T01:13:26Z</time>
      </trkpt>
      <trkpt lat="46.23886" lon="4.45112">
        <ele>559</ele>
        <time>2016-06-26T01:15:26Z</time>
      </trkpt>
      <trkpt lat="46.2389" lon="4.45121">
        <ele>559</ele>
        <time>2016-06-26T01:17:26Z</time>
      </trkpt>
      <trkpt lat="46.23896" lon="4.4513">
        <ele>559</ele>
        <time>2016-06-26T01:19:26Z</time>
      </trkpt>
      <trkpt lat="46.23901" lon="4.45138">
        <ele>559</ele>
        <time>2016-06-26T01:21:26Z</time>
      </trkpt>
      <trkpt lat="46.23906" lon="4.45146">
        <ele>558</ele>
        <time>2016-06-26T01:23:26Z</time>
      </trkpt>
      <trkpt lat="46.23911" lon="4.45154">
        <ele>558</ele>
        <time>2016-06-26T01:25:26Z</time>
      </trkpt>
      <trkpt lat="46.23916" lon="4.45162">
        <ele>558</ele>
        <time>2016-06-26T01:27:26Z</time>
      </trkpt>
      <trkpt lat="46.23921" lon="4.4517">
        <ele>560</ele>
        <time>2016-06-26T01:29:26Z</time>
      </trkpt>
      <trkpt lat="46.23923" lon="4.45174">
        <ele>561</ele>
        <time>2016-06-26T01:31:26Z</time>
      </trkpt>
      <trkpt lat="46.23925" lon="4.45178">
        <ele>563</ele>
        <time>2016-06-26T01:33:26Z</time>
      </trkpt>
      <trkpt lat="46.23927" lon="4.45183">
        <ele>564</ele>
        <time>2016-06-26T01:35:26Z</time>
      </trkpt>
      <trkpt lat="46.23929" lon="4.45187">
        <ele>564</ele>
        <time>2016-06-26T01:37:26Z</time>
      </trkpt>
      <trkpt lat="46.23932" lon="4.45196">
        <ele>565</ele>
        <time>2016-06-26T01:39:26Z</time>
      </trkpt>
      <trkpt lat="46.23934" lon="4.45205">
        <ele>566</ele>
        <time>2016-06-26T01:41:26Z</time>
      </trkpt>
      <trkpt lat="46.23936" lon="4.45214">
        <ele>566</ele>
        <time>2016-06-26T01:43:26Z</time>
      </trkpt>
      <trkpt lat="46.23937" lon="4.45224">
        <ele>565</ele>
        <time>2016-06-26T01:45:26Z</time>
      </trkpt>
      <trkpt lat="46.23938" lon="4.45234">
        <ele>565</ele>
        <time>2016-06-26T01:47:26Z</time>
      </trkpt>
      <trkpt lat="46.23937" lon="4.45244">
        <ele>564</ele>
        <time>2016-06-26T01:49:26Z</time>
      </trkpt>
      <trkpt lat="46.23936" lon="4.45254">
        <ele>565</ele>
        <time>2016-06-26T01:51:26Z</time>
      </trkpt>
      <trkpt lat="46.23934" lon="4.45264">
        <ele>565</ele>
        <time>2016-06-26T01:53:26Z</time>
      </trkpt>
      <trkpt lat="46.23932" lon="4.45274">
        <ele>567</ele>
        <time>2016-06-26T01:55:26Z</time>
      </trkpt>
      <trkpt lat="46.23928" lon="4.45291">
        <ele>568</ele>
        <time>2016-06-26T01:57:26Z</time>
      </trkpt>
      <trkpt lat="46.23924" lon="4.45306">
        <ele>568</ele>
        <time>2016-06-26T01:59:26Z</time>
      </trkpt>
      <trkpt lat="46.23918" lon="4.45325">
        <ele>565</ele>
        <time>2016-06-26T02:01:26Z</time>
      </trkpt>
      <trkpt lat="46.23912" lon="4.45342">
        <ele>563</ele>
        <time>2016-06-26T02:03:26Z</time>
      </trkpt>
      <trkpt lat="46.23909" lon="4.45353">
        <ele>564</ele>
        <time>2016-06-26T02:05:26Z</time>
      </trkpt>
      <trkpt lat="46.23905" lon="4.45364">
        <ele>564</ele>
        <time>2016-06-26T02:07:26Z</time>
      </trkpt>
      <trkpt lat="46.23901" lon="4.45377">
        <ele>565</ele>
        <time>2016-06-26T02:09:26Z</time>
      </trkpt>
      <trkpt lat="46.23898" lon="4.45386">
        <ele>565</ele>
        <time>2016-06-26T02:11:26Z</time>
      </trkpt>
      <trkpt lat="46.23895" lon="4.45397">
        <ele>566</ele>
        <time>2016-06-26T02:13:26Z</time>
      </trkpt>
      <trkpt lat="46.23892" lon="4.45407">
        <ele>566</ele>
        <time>2016-06-26T02:15:26Z</time>
      </trkpt>
      <trkpt lat="46.23889" lon="4.45416">
        <ele>566</ele>
        <time>2016-06-26T02:17:26Z</time>
      </trkpt>
      <trkpt lat="46.23885" lon="4.45427">
        <ele>567</ele>
        <time>2016-06-26T02:19:26Z</time>
      </trkpt>
      <trkpt lat="46.23883" lon="4.45434">
        <ele>567</ele>
        <time>2016-06-26T02:21:26Z</time>
      </trkpt>
      <trkpt lat="46.23879" lon="4.4545">
        <ele>567</ele>
        <time>2016-06-26T02:23:26Z</time>
      </trkpt>
      <trkpt lat="46.23876" lon="4.45467">
        <ele>567</ele>
        <time>2016-06-26T02:25:26Z</time>
      </trkpt>
      <trkpt lat="46.23875" lon="4.45475">
        <ele>567</ele>
        <time>2016-06-26T02:27:26Z</time>
      </trkpt>
      <trkpt lat="46.23875" lon="4.45483">
        <ele>567</ele>
        <time>2016-06-26T02:29:26Z</time>
      </trkpt>
      <trkpt lat="46.23875" lon="4.45493">
        <ele>567</ele>
        <time>2016-06-26T02:31:26Z</time>
      </trkpt>
      <trkpt lat="46.23876" lon="4.45506">
        <ele>567</ele>
        <time>2016-06-26T02:33:26Z</time>
      </trkpt>
      <trkpt lat="46.23881" lon="4.45539">
        <ele>567</ele>
        <time>2016-06-26T02:35:26Z</time>
      </trkpt>
      <trkpt lat="46.23886" lon="4.45563">
        <ele>567</ele>
        <time>2016-06-26T02:37:26Z</time>
      </trkpt>
      <trkpt lat="46.23889" lon="4.45573">
        <ele>568</ele>
        <time>2016-06-26T02:39:26Z</time>
      </trkpt>
      <trkpt lat="46.23895" lon="4.4559">
        <ele>568</ele>
        <time>2016-06-26T02:41:26Z</time>
      </trkpt>
      <trkpt lat="46.23905" lon="4.45614">
        <ele>568</ele>
        <time>2016-06-26T02:43:26Z</time>
      </trkpt>
      <trkpt lat="46.23908" lon="4.45623">
        <ele>568</ele>
        <time>2016-06-26T02:45:26Z</time>
      </trkpt>
      <trkpt lat="46.23913" lon="4.45639">
        <ele>568</ele>
        <time>2016-06-26T02:47:26Z</time>
      </trkpt>
      <trkpt lat="46.23915" lon="4.45656">
        <ele>569</ele>
        <time>2016-06-26T02:49:26Z</time>
      </trkpt>
      <trkpt lat="46.23914" lon="4.45686">
        <ele>571</ele>
        <time>2016-06-26T02:51:26Z</time>
      </trkpt>
      <trkpt lat="46.23915" lon="4.45708">
        <ele>571</ele>
        <time>2016-06-26T02:53:26Z</time>
      </trkpt>
      <trkpt lat="46.23916" lon="4.45724">
        <ele>572</ele>
        <time>2016-06-26T02:55:26Z</time>
      </trkpt>
      <trkpt lat="46.23923" lon="4.45762">
        <ele>579</ele>
        <time>2016-06-26T02:57:26Z</time>
      </trkpt>
      <trkpt lat="46.23929" lon="4.45796">
        <ele>582</ele>
        <time>2016-06-26T02:59:26Z</time>
      </trkpt>
      <trkpt lat="46.23934" lon="4.45818">
        <ele>583</ele>
        <time>2016-06-26T03:01:26Z</time>
      </trkpt>
      <trkpt lat="46.23936" lon="4.45825">
        <ele>583</ele>
        <time>2016-06-26T03:03:26Z</time>
      </trkpt>
      <trkpt lat="46.23945" lon="4.45842">
        <ele>586</ele>
        <time>2016-06-26T03:05:26Z</time>
      </trkpt>
      <trkpt lat="46.2395" lon="4.45849">
        <ele>587</ele>
        <time>2016-06-26T03:07:26Z</time>
      </trkpt>
      <trkpt lat="46.2396" lon="4.45858">
        <ele>588</ele>
        <time>2016-06-26T03:09:26Z</time>
      </trkpt>
      <trkpt lat="46.23966" lon="4.45864">
        <ele>588</ele>
        <time>2016-06-26T03:11:26Z</time>
      </trkpt>
      <trkpt lat="46.23978" lon="4.45872">
        <ele>588</ele>
        <time>2016-06-26T03:13:26Z</time>
      </trkpt>
      <trkpt lat="46.23991" lon="4.45883">
        <ele>589</ele>
        <time>2016-06-26T03:15:26Z</time>
      </trkpt>
      <trkpt lat="46.24004" lon="4.45895">
        <ele>595</ele>
        <time>2016-06-26T03:17:26Z</time>
      </trkpt>
      <trkpt lat="46.24016" lon="4.45909">
        <ele>595</ele>
        <time>2016-06-26T03:19:26Z</time>
      </trkpt>
      <trkpt lat="46.24027" lon="4.45925">
        <ele>597</ele>
        <time>2016-06-26T03:21:26Z</time>
      </trkpt>
      <trkpt lat="46.24037" lon="4.45943">
        <ele>598</ele>
        <time>2016-06-26T03:23:26Z</time>
      </trkpt>
      <trkpt lat="46.24068" lon="4.46002">
        <ele>599</ele>
        <time>2016-06-26T03:25:26Z</time>
      </trkpt>
      <trkpt lat="46.24118" lon="4.46099">
        <ele>606</ele>
        <time>2016-06-26T03:27:26Z</time>
      </trkpt>
      <trkpt lat="46.2413" lon="4.46137">
        <ele>608</ele>
        <time>2016-06-26T03:29:26Z</time>
      </trkpt>
      <trkpt lat="46.24136" lon="4.46157">
        <ele>608</ele>
        <time>2016-06-26T03:31:26Z</time>
      </trkpt>
      <trkpt lat="46.2414" lon="4.46174">
        <ele>608</ele>
        <time>2016-06-26T03:33:26Z</time>
      </trkpt>
      <trkpt lat="46.24145" lon="4.46209">
        <ele>607</ele>
        <time>2016-06-26T03:35:26Z</time>
      </trkpt>
      <trkpt lat="46.2415" lon="4.46243">
        <ele>607</ele>
        <time>2016-06-26T03:37:26Z</time>
      </trkpt>
      <trkpt lat="46.24156" lon="4.46282">
        <ele>609</ele>
        <time>2016-06-26T03:39:26Z</time>
      </trkpt>
      <trkpt lat="46.24161" lon="4.46325">
        <ele>608</ele>
        <time>2016-06-26T03:41:26Z</time>
      </trkpt>
      <trkpt lat="46.24168" lon="4.4638">
        <ele>614</ele>
        <time>2016-06-26T03:43:26Z</time>
      </trkpt>
      <trkpt lat="46.24172" lon="4.46411">
        <ele>610</ele>
        <time>2016-06-26T03:45:26Z</time>
      </trkpt>
      <trkpt lat="46.24179" lon="4.46467">
        <ele>614</ele>
        <time>2016-06-26T03:47:26Z</time>
      </trkpt>
      <trkpt lat="46.24185" lon="4.46511">
        <ele>614</ele>
        <time>2016-06-26T03:49:26Z</time>
      </trkpt>
      <trkpt lat="46.2419" lon="4.46557">
        <ele>616</ele>
        <time>2016-06-26T03:51:26Z</time>
      </trkpt>
      <trkpt lat="46.24194" lon="4.46594">
        <ele>615</ele>
        <time>2016-06-26T03:53:26Z</time>
      </trkpt>
      <trkpt lat="46.24198" lon="4.46631">
        <ele>615</ele>
        <time>2016-06-26T03:55:26Z</time>
      </trkpt>
      <trkpt lat="46.24202" lon="4.46654">
        <ele>615</ele>
        <time>2016-06-26T03:57:26Z</time>
      </trkpt>
      <trkpt lat="46.24205" lon="4.46669">
        <ele>614</ele>
        <time>2016-06-26T03:59:26Z</time>
      </trkpt>
      <trkpt lat="46.24212" lon="4.46685">
        <ele>614</ele>
        <time>2016-06-26T04:01:26Z</time>
      </trkpt>
      <trkpt lat="46.24216" lon="4.46695">
        <ele>614</ele>
        <time>2016-06-26T04:03:26Z</time>
      </trkpt>
      <trkpt lat="46.2422" lon="4.46699">
        <ele>614</ele>
        <time>2016-06-26T04:05:26Z</time>
      </trkpt>
      <trkpt lat="46.24224" lon="4.46704">
        <ele>615</ele>
        <time>2016-06-26T04:07:26Z</time>
      </trkpt>
      <trkpt lat="46.24234" lon="4.46711">
        <ele>615</ele>
        <time>2016-06-26T04:09:26Z</time>
      </trkpt>
      <trkpt lat="46.24259" lon="4.46724">
        <ele>619</ele>
        <time>2016-06-26T04:11:26Z</time>
      </trkpt>
      <trkpt lat="46.24271" lon="4.4673">
        <ele>619</ele>
        <time>2016-06-26T04:13:26Z</time>
      </trkpt>
      <trkpt lat="46.24277" lon="4.46733">
        <ele>620</ele>
        <time>2016-06-26T04:15:26Z</time>
      </trkpt>
      <trkpt lat="46.24285" lon="4.4674">
        <ele>620</ele>
        <time>2016-06-26T04:17:26Z</time>
      </trkpt>
      <trkpt lat="46.24293" lon="4.4675">
        <ele>619</ele>
        <time>2016-06-26T04:19:26Z</time>
      </trkpt>
      <trkpt lat="46.24297" lon="4.4676">
        <ele>620</ele>
        <time>2016-06-26T04:21:26Z</time>
      </trkpt>
      <trkpt lat="46.243" lon="4.46768">
        <ele>620</ele>
        <time>2016-06-26T04:23:26Z</time>
      </trkpt>
      <trkpt lat="46.24301" lon="4.46776">
        <ele>620</ele>
        <time>2016-06-26T04:25:26Z</time>
      </trkpt>
      <trkpt lat="46.24302" lon="4.46782">
        <ele>620</ele>
        <time>2016-06-26T04:27:26Z</time>
      </trkpt>
      <trkpt lat="46.24302" lon="4.46796">
        <ele>621</ele>
        <time>2016-06-26T04:29:26Z</time>
      </trkpt>
      <trkpt lat="46.24302" lon="4.46803">
        <ele>621</ele>
        <time>2016-06-26T04:31:26Z</time>
      </trkpt>
      <trkpt lat="46.243" lon="4.46816">
        <ele>622</ele>
        <time>2016-06-26T04:33:26Z</time>
      </trkpt>
      <trkpt lat="46.24296" lon="4.46827">
        <ele>622</ele>
        <time>2016-06-26T04:35:26Z</time>
      </trkpt>
      <trkpt lat="46.2429" lon="4.46841">
        <ele>627</ele>
        <time>2016-06-26T04:37:26Z</time>
      </trkpt>
      <trkpt lat="46.24277" lon="4.46861">
        <ele>627</ele>
        <time>2016-06-26T04:39:26Z</time>
      </trkpt>
      <trkpt lat="46.24262" lon="4.46882">
        <ele>627</ele>
        <time>2016-06-26T04:41:26Z</time>
      </trkpt>
      <trkpt lat="46.24243" lon="4.46909">
        <ele>623</ele>
        <time>2016-06-26T04:43:26Z</time>
      </trkpt>
      <trkpt lat="46.24227" lon="4.46932">
        <ele>625</ele>
        <time>2016-06-26T04:45:26Z</time>
      </trkpt>
      <trkpt lat="46.24215" lon="4.46951">
        <ele>626</ele>
        <time>2016-06-26T04:47:26Z</time>
      </trkpt>
      <trkpt lat="46.24204" lon="4.46971">
        <ele>626</ele>
        <time>2016-06-26T04:49:26Z</time>
      </trkpt>
      <trkpt lat="46.24196" lon="4.46989">
        <ele>626</ele>
        <time>2016-06-26T04:51:26Z</time>
      </trkpt>
      <trkpt lat="46.24188" lon="4.47012">
        <ele>629</ele>
        <time>2016-06-26T04:53:26Z</time>
      </trkpt>
      <trkpt lat="46.24182" lon="4.47037">
        <ele>631</ele>
        <time>2016-06-26T04:55:26Z</time>
      </trkpt>
      <trkpt lat="46.24179" lon="4.47055">
        <ele>631</ele>
        <time>2016-06-26T04:57:26Z</time>
      </trkpt>
      <trkpt lat="46.24177" lon="4.47081">
        <ele>631</ele>
        <time>2016-06-26T04:59:26Z</time>
      </trkpt>
      <trkpt lat="46.24176" lon="4.47093">
        <ele>633</ele>
        <time>2016-06-26T05:01:26Z</time>
      </trkpt>
      <trkpt lat="46.24175" lon="4.47117">
        <ele>635</ele>
        <time>2016-06-26T05:03:26Z</time>
      </trkpt>
      <trkpt lat="46.24174" lon="4.47127">
        <ele>635</ele>
        <time>2016-06-26T05:05:26Z</time>
      </trkpt>
      <trkpt lat="46.24173" lon="4.47149">
        <ele>635</ele>
        <time>2016-06-26T05:07:26Z</time>
      </trkpt>
      <trkpt lat="46.24172" lon="4.47172">
        <ele>635</ele>
        <time>2016-06-26T05:09:26Z</time>
      </trkpt>
      <trkpt lat="46.24169" lon="4.47221">
        <ele>638</ele>
        <time>2016-06-26T05:11:26Z</time>
      </trkpt>
      <trkpt lat="46.24168" lon="4.47255">
        <ele>638</ele>
        <time>2016-06-26T05:13:26Z</time>
      </trkpt>
      <trkpt lat="46.24167" lon="4.47275">
        <ele>640</ele>
        <time>2016-06-26T05:15:26Z</time>
      </trkpt>
      <trkpt lat="46.24167" lon="4.47289">
        <ele>640</ele>
        <time>2016-06-26T05:17:26Z</time>
      </trkpt>
      <trkpt lat="46.24166" lon="4.47312">
        <ele>636</ele>
        <time>2016-06-26T05:19:26Z</time>
      </trkpt>
      <trkpt lat="46.24167" lon="4.47352">
        <ele>641</ele>
        <time>2016-06-26T05:21:26Z</time>
      </trkpt>
      <trkpt lat="46.2417" lon="4.47373">
        <ele>642</ele>
        <time>2016-06-26T05:23:26Z</time>
      </trkpt>
      <trkpt lat="46.24176" lon="4.47398">
        <ele>642</ele>
        <time>2016-06-26T05:25:26Z</time>
      </trkpt>
      <trkpt lat="46.24182" lon="4.4742">
        <ele>643</ele>
        <time>2016-06-26T05:27:26Z</time>
      </trkpt>
      <trkpt lat="46.24189" lon="4.47439">
        <ele>644</ele>
        <time>2016-06-26T05:29:26Z</time>
      </trkpt>
      <trkpt lat="46.24191" lon="4.47446">
        <ele>644</ele>
        <time>2016-06-26T05:31:26Z</time>
      </trkpt>
      <trkpt lat="46.24194" lon="4.47456">
        <ele>644</ele>
        <time>2016-06-26T05:33:26Z</time>
      </trkpt>
      <trkpt lat="46.24205" lon="4.47482">
        <ele>645</ele>
        <time>2016-06-26T05:35:26Z</time>
      </trkpt>
      <trkpt lat="46.24218" lon="4.47518">
        <ele>646</ele>
        <time>2016-06-26T05:37:26Z</time>
      </trkpt>
      <trkpt lat="46.24222" lon="4.47534">
        <ele>646</ele>
        <time>2016-06-26T05:39:26Z</time>
      </trkpt>
      <trkpt lat="46.24226" lon="4.47551">
        <ele>646</ele>
        <time>2016-06-26T05:41:26Z</time>
      </trkpt>
      <trkpt lat="46.24228" lon="4.47563">
        <ele>646</ele>
        <time>2016-06-26T05:43:26Z</time>
      </trkpt>
      <trkpt lat="46.24229" lon="4.4757">
        <ele>646</ele>
        <time>2016-06-26T05:45:26Z</time>
      </trkpt>
      <trkpt lat="46.24231" lon="4.47593">
        <ele>648</ele>
        <time>2016-06-26T05:47:26Z</time>
      </trkpt>
      <trkpt lat="46.24231" lon="4.47608">
        <ele>648</ele>
        <time>2016-06-26T05:49:26Z</time>
      </trkpt>
      <trkpt lat="46.24231" lon="4.47608">
        <ele>648</ele>
        <time>2016-06-26T05:51:26Z</time>
      </trkpt>
      <trkpt lat="46.24218" lon="4.47613">
        <ele>649</ele>
        <time>2016-06-26T05:53:26Z</time>
      </trkpt>
      <trkpt lat="46.24208" lon="4.47615">
        <ele>649</ele>
        <time>2016-06-26T05:55:26Z</time>
      </trkpt>
      <trkpt lat="46.24186" lon="4.47621">
        <ele>649</ele>
        <time>2016-06-26T05:57:26Z</time>
      </trkpt>
      <trkpt lat="46.24164" lon="4.47627">
        <ele>651</ele>
        <time>2016-06-26T05:59:26Z</time>
      </trkpt>
      <trkpt lat="46.24083" lon="4.47649">
        <ele>655</ele>
        <time>2016-06-26T06:01:26Z</time>
      </trkpt>
      <trkpt lat="46.24075" lon="4.47651">
        <ele>655</ele>
        <time>2016-06-26T06:03:26Z</time>
      </trkpt>
      <trkpt lat="46.24067" lon="4.47653">
        <ele>655</ele>
        <time>2016-06-26T06:05:26Z</time>
      </trkpt>
      <trkpt lat="46.2406" lon="4.47655">
        <ele>655</ele>
        <time>2016-06-26T06:07:26Z</time>
      </trkpt>
      <trkpt lat="46.24051" lon="4.47658">
        <ele>655</ele>
        <time>2016-06-26T06:09:26Z</time>
      </trkpt>
      <trkpt lat="46.24043" lon="4.4766">
        <ele>655</ele>
        <time>2016-06-26T06:11:26Z</time>
      </trkpt>
      <trkpt lat="46.24037" lon="4.47661">
        <ele>655</ele>
        <time>2016-06-26T06:13:26Z</time>
      </trkpt>
      <trkpt lat="46.24031" lon="4.47663">
        <ele>655</ele>
        <time>2016-06-26T06:15:26Z</time>
      </trkpt>
      <trkpt lat="46.24025" lon="4.47664">
        <ele>656</ele>
        <time>2016-06-26T06:17:26Z</time>
      </trkpt>
      <trkpt lat="46.24018" lon="4.47666">
        <ele>656</ele>
        <time>2016-06-26T06:19:26Z</time>
      </trkpt>
      <trkpt lat="46.24015" lon="4.47666">
        <ele>657</ele>
        <time>2016-06-26T06:21:26Z</time>
      </trkpt>
      <trkpt lat="46.24012" lon="4.47667">
        <ele>660</ele>
        <time>2016-06-26T06:23:26Z</time>
      </trkpt>
      <trkpt lat="46.24005" lon="4.47667">
        <ele>659</ele>
        <time>2016-06-26T06:25:26Z</time>
      </trkpt>
      <trkpt lat="46.23996" lon="4.47668">
        <ele>661</ele>
        <time>2016-06-26T06:27:26Z</time>
      </trkpt>
      <trkpt lat="46.23989" lon="4.47667">
        <ele>663</ele>
        <time>2016-06-26T06:29:26Z</time>
      </trkpt>
      <trkpt lat="46.23982" lon="4.47666">
        <ele>659</ele>
        <time>2016-06-26T06:31:26Z</time>
      </trkpt>
      <trkpt lat="46.23974" lon="4.47664">
        <ele>659</ele>
        <time>2016-06-26T06:33:26Z</time>
      </trkpt>
      <trkpt lat="46.23967" lon="4.47661">
        <ele>660</ele>
        <time>2016-06-26T06:35:26Z</time>
      </trkpt>
      <trkpt lat="46.2396" lon="4.47659">
        <ele>660</ele>
        <time>2016-06-26T06:37:26Z</time>
      </trkpt>
      <trkpt lat="46.23952" lon="4.47656">
        <ele>661</ele>
        <time>2016-06-26T06:39:26Z</time>
      </trkpt>
      <trkpt lat="46.23945" lon="4.47653">
        <ele>661</ele>
        <time>2016-06-26T06:41:26Z</time>
      </trkpt>
      <trkpt lat="46.23938" lon="4.4765">
        <ele>662</ele>
        <time>2016-06-26T06:43:26Z</time>
      </trkpt>
      <trkpt lat="46.2393" lon="4.47647">
        <ele>662</ele>
        <time>2016-06-26T06:45:26Z</time>
      </trkpt>
      <trkpt lat="46.23923" lon="4.47644">
        <ele>662</ele>
        <time>2016-06-26T06:47:26Z</time>
      </trkpt>
      <trkpt lat="46.23916" lon="4.47642">
        <ele>666</ele>
        <time>2016-06-26T06:49:26Z</time>
      </trkpt>
      <trkpt lat="46.23908" lon="4.47639">
        <ele>666</ele>
        <time>2016-06-26T06:51:26Z</time>
      </trkpt>
      <trkpt lat="46.23901" lon="4.47637">
        <ele>666</ele>
        <time>2016-06-26T06:53:26Z</time>
      </trkpt>
      <trkpt lat="46.23894" lon="4.47636">
        <ele>666</ele>
        <time>2016-06-26T06:55:26Z</time>
      </trkpt>
      <trkpt lat="46.23887" lon="4.47635">
        <ele>666</ele>
        <time>2016-06-26T06:57:26Z</time>
      </trkpt>
      <trkpt lat="46.2388" lon="4.47634">
        <ele>666</ele>
        <time>2016-06-26T06:59:26Z</time>
      </trkpt>
      <trkpt lat="46.23873" lon="4.47634">
        <ele>666</ele>
        <time>2016-06-26T07:01:26Z</time>
      </trkpt>
      <trkpt lat="46.23865" lon="4.47634">
        <ele>666</ele>
        <time>2016-06-26T07:03:26Z</time>
      </trkpt>
      <trkpt lat="46.23858" lon="4.47635">
        <ele>667</ele>
        <time>2016-06-26T07:05:26Z</time>
      </trkpt>
      <trkpt lat="46.23851" lon="4.47637">
        <ele>667</ele>
        <time>2016-06-26T07:07:26Z</time>
      </trkpt>
      <trkpt lat="46.23844" lon="4.47639">
        <ele>668</ele>
        <time>2016-06-26T07:09:26Z</time>
      </trkpt>
      <trkpt lat="46.23836" lon="4.47642">
        <ele>668</ele>
        <time>2016-06-26T07:11:26Z</time>
      </trkpt>
      <trkpt lat="46.23828" lon="4.47645">
        <ele>671</ele>
        <time>2016-06-26T07:13:26Z</time>
      </trkpt>
      <trkpt lat="46.23821" lon="4.47648">
        <ele>671</ele>
        <time>2016-06-26T07:15:26Z</time>
      </trkpt>
      <trkpt lat="46.23814" lon="4.47651">
        <ele>672</ele>
        <time>2016-06-26T07:17:26Z</time>
      </trkpt>
      <trkpt lat="46.23806" lon="4.47654">
        <ele>672</ele>
        <time>2016-06-26T07:19:26Z</time>
      </trkpt>
      <trkpt lat="46.23799" lon="4.47657">
        <ele>672</ele>
        <time>2016-06-26T07:21:26Z</time>
      </trkpt>
      <trkpt lat="46.23791" lon="4.4766">
        <ele>672</ele>
        <time>2016-06-26T07:23:26Z</time>
      </trkpt>
      <trkpt lat="46.23784" lon="4.47664">
        <ele>672</ele>
        <time>2016-06-26T07:25:26Z</time>
      </trkpt>
      <trkpt lat="46.23777" lon="4.47667">
        <ele>677</ele>
        <time>2016-06-26T07:27:26Z</time>
      </trkpt>
      <trkpt lat="46.2377" lon="4.47671">
        <ele>677</ele>
        <time>2016-06-26T07:29:26Z</time>
      </trkpt>
      <trkpt lat="46.23763" lon="4.47675">
        <ele>677</ele>
        <time>2016-06-26T07:31:26Z</time>
      </trkpt>
      <trkpt lat="46.23756" lon="4.4768">
        <ele>677</ele>
        <time>2016-06-26T07:33:26Z</time>
      </trkpt>
      <trkpt lat="46.23749" lon="4.47685">
        <ele>678</ele>
        <time>2016-06-26T07:35:26Z</time>
      </trkpt>
      <trkpt lat="46.23743" lon="4.4769">
        <ele>678</ele>
        <time>2016-06-26T07:37:26Z</time>
      </trkpt>
      <trkpt lat="46.23737" lon="4.47696">
        <ele>679</ele>
        <time>2016-06-26T07:39:26Z</time>
      </trkpt>
      <trkpt lat="46.23731" lon="4.47702">
        <ele>680</ele>
        <time>2016-06-26T07:41:26Z</time>
      </trkpt>
      <trkpt lat="46.23725" lon="4.47708">
        <ele>680</ele>
        <time>2016-06-26T07:43:26Z</time>
      </trkpt>
      <trkpt lat="46.23719" lon="4.47715">
        <ele>681</ele>
        <time>2016-06-26T07:45:26Z</time>
      </trkpt>
      <trkpt lat="46.23713" lon="4.47722">
        <ele>681</ele>
        <time>2016-06-26T07:47:26Z</time>
      </trkpt>
      <trkpt lat="46.23708" lon="4.47729">
        <ele>682</ele>
        <time>2016-06-26T07:49:26Z</time>
      </trkpt>
      <trkpt lat="46.23702" lon="4.47736">
        <ele>682</ele>
        <time>2016-06-26T07:51:26Z</time>
      </trkpt>
      <trkpt lat="46.23696" lon="4.47744">
        <ele>683</ele>
        <time>2016-06-26T07:53:26Z</time>
      </trkpt>
      <trkpt lat="46.2369" lon="4.47751">
        <ele>689</ele>
        <time>2016-06-26T07:55:26Z</time>
      </trkpt>
      <trkpt lat="46.23683" lon="4.47759">
        <ele>689</ele>
        <time>2016-06-26T07:57:26Z</time>
      </trkpt>
      <trkpt lat="46.23677" lon="4.47767">
        <ele>689</ele>
        <time>2016-06-26T07:59:26Z</time>
      </trkpt>
      <trkpt lat="46.23671" lon="4.47774">
        <ele>689</ele>
        <time>2016-06-26T08:01:26Z</time>
      </trkpt>
      <trkpt lat="46.23664" lon="4.47782">
        <ele>690</ele>
        <time>2016-06-26T08:03:26Z</time>
      </trkpt>
      <trkpt lat="46.23618" lon="4.47839">
        <ele>696</ele>
        <time>2016-06-26T08:05:26Z</time>
      </trkpt>
      <trkpt lat="46.23592" lon="4.47868">
        <ele>696</ele>
        <time>2016-06-26T08:07:26Z</time>
      </trkpt>
      <trkpt lat="46.23572" lon="4.47891">
        <ele>694</ele>
        <time>2016-06-26T08:09:26Z</time>
      </trkpt>
      <trkpt lat="46.23558" lon="4.47902">
        <ele>693</ele>
        <time>2016-06-26T08:11:26Z</time>
      </trkpt>
      <trkpt lat="46.23551" lon="4.47908">
        <ele>693</ele>
        <time>2016-06-26T08:13:26Z</time>
      </trkpt>
      <trkpt lat="46.23544" lon="4.47911">
        <ele>692</ele>
        <time>2016-06-26T08:15:26Z</time>
      </trkpt>
      <trkpt lat="46.23536" lon="4.47914">
        <ele>692</ele>
        <time>2016-06-26T08:17:26Z</time>
      </trkpt>
      <trkpt lat="46.23514" lon="4.47916">
        <ele>690</ele>
        <time>2016-06-26T08:19:26Z</time>
      </trkpt>
      <trkpt lat="46.235" lon="4.47916">
        <ele>688</ele>
        <time>2016-06-26T08:21:26Z</time>
      </trkpt>
      <trkpt lat="46.23441" lon="4.47915">
        <ele>693</ele>
        <time>2016-06-26T08:23:26Z</time>
      </trkpt>
      <trkpt lat="46.23429" lon="4.47916">
        <ele>694</ele>
        <time>2016-06-26T08:25:26Z</time>
      </trkpt>
      <trkpt lat="46.23418" lon="4.47917">
        <ele>696</ele>
        <time>2016-06-26T08:27:26Z</time>
      </trkpt>
      <trkpt lat="46.23413" lon="4.47919">
        <ele>698</ele>
        <time>2016-06-26T08:29:26Z</time>
      </trkpt>
      <trkpt lat="46.23404" lon="4.47924">
        <ele>702</ele>
        <time>2016-06-26T08:31:26Z</time>
      </trkpt>
      <trkpt lat="46.23404" lon="4.47924">
        <ele>702</ele>
        <time>2016-06-26T08:33:26Z</time>
      </trkpt>
      <trkpt lat="46.23401" lon="4.47928">
        <ele>703</ele>
        <time>2016-06-26T08:35:26Z</time>
      </trkpt>
      <trkpt lat="46.23399" lon="4.47931">
        <ele>704</ele>
        <time>2016-06-26T08:37:26Z</time>
      </trkpt>
      <trkpt lat="46.23398" lon="4.47934">
        <ele>704</ele>
        <time>2016-06-26T08:39:26Z</time>
      </trkpt>
      <trkpt lat="46.23395" lon="4.4794">
        <ele>705</ele>
        <time>2016-06-26T08:41:26Z</time>
      </trkpt>
      <trkpt lat="46.23394" lon="4.47946">
        <ele>706</ele>
        <time>2016-06-26T08:43:26Z</time>
      </trkpt>
      <trkpt lat="46.23394" lon="4.47948">
        <ele>706</ele>
        <time>2016-06-26T08:45:26Z</time>
      </trkpt>
      <trkpt lat="46.23395" lon="4.47953">
        <ele>706</ele>
        <time>2016-06-26T08:47:26Z</time>
      </trkpt>
      <trkpt lat="46.23396" lon="4.4796">
        <ele>707</ele>
        <time>2016-06-26T08:49:26Z</time>
      </trkpt>
      <trkpt lat="46.234" lon="4.47977">
        <ele>706</ele>
        <time>2016-06-26T08:51:26Z</time>
      </trkpt>
      <trkpt lat="46.23496" lon="4.48226">
        <ele>716</ele>
        <time>2016-06-26T08:53:26Z</time>
      </trkpt>
      <trkpt lat="46.23511" lon="4.48275">
        <ele>716</ele>
        <time>2016-06-26T08:55:26Z</time>
      </trkpt>
      <trkpt lat="46.23522" lon="4.48329">
        <ele>716</ele>
        <time>2016-06-26T08:57:26Z</time>
      </trkpt>
      <trkpt lat="46.23525" lon="4.48361">
        <ele>717</ele>
        <time>2016-06-26T08:59:26Z</time>
      </trkpt>
      <trkpt lat="46.23526" lon="4.48386">
        <ele>718</ele>
        <time>2016-06-26T09:01:26Z</time>
      </trkpt>
      <trkpt lat="46.23526" lon="4.48418">
        <ele>718</ele>
        <time>2016-06-26T09:03:26Z</time>
      </trkpt>
      <trkpt lat="46.23523" lon="4.48448">
        <ele>719</ele>
        <time>2016-06-26T09:05:26Z</time>
      </trkpt>
      <trkpt lat="46.23521" lon="4.48457">
        <ele>719</ele>
        <time>2016-06-26T09:07:26Z</time>
      </trkpt>
      <trkpt lat="46.23514" lon="4.48496">
        <ele>719</ele>
        <time>2016-06-26T09:09:26Z</time>
      </trkpt>
      <trkpt lat="46.23512" lon="4.48501">
        <ele>721</ele>
        <time>2016-06-26T09:11:26Z</time>
      </trkpt>
      <trkpt lat="46.23504" lon="4.48523">
        <ele>722</ele>
        <time>2016-06-26T09:13:26Z</time>
      </trkpt>
      <trkpt lat="46.23486" lon="4.48556">
        <ele>723</ele>
        <time>2016-06-26T09:15:26Z</time>
      </trkpt>
      <trkpt lat="46.23454" lon="4.486">
        <ele>727</ele>
        <time>2016-06-26T09:17:26Z</time>
      </trkpt>
      <trkpt lat="46.23408" lon="4.48669">
        <ele>729</ele>
        <time>2016-06-26T09:19:26Z</time>
      </trkpt>
      <trkpt lat="46.23394" lon="4.48688">
        <ele>730</ele>
        <time>2016-06-26T09:21:26Z</time>
      </trkpt>
      <trkpt lat="46.2337" lon="4.48725">
        <ele>731</ele>
        <time>2016-06-26T09:23:26Z</time>
      </trkpt>
      <trkpt lat="46.23359" lon="4.48739">
        <ele>731</ele>
        <time>2016-06-26T09:25:26Z</time>
      </trkpt>
      <trkpt lat="46.23346" lon="4.48756">
        <ele>730</ele>
        <time>2016-06-26T09:27:26Z</time>
      </trkpt>
      <trkpt lat="46.23337" lon="4.48765">
        <ele>730</ele>
        <time>2016-06-26T09:29:26Z</time>
      </trkpt>
      <trkpt lat="46.23325" lon="4.48773">
        <ele>730</ele>
        <time>2016-06-26T09:31:26Z</time>
      </trkpt>
      <trkpt lat="46.2331" lon="4.48781">
        <ele>730</ele>
        <time>2016-06-26T09:33:26Z</time>
      </trkpt>
      <trkpt lat="46.23262" lon="4.48798">
        <ele>731</ele>
        <time>2016-06-26T09:35:26Z</time>
      </trkpt>
      <trkpt lat="46.23231" lon="4.48806">
        <ele>734</ele>
        <time>2016-06-26T09:37:26Z</time>
      </trkpt>
      <trkpt lat="46.23231" lon="4.48806">
        <ele>734</ele>
        <time>2016-06-26T09:39:26Z</time>
      </trkpt>
      <trkpt lat="46.23228" lon="4.48778">
        <ele>735</ele>
        <time>2016-06-26T09:41:26Z</time>
      </trkpt>
      <trkpt lat="46.23223" lon="4.48748">
        <ele>738</ele>
        <time>2016-06-26T09:43:26Z</time>
      </trkpt>
      <trkpt lat="46.2321" lon="4.487">
        <ele>740</ele>
        <time>2016-06-26T09:45:26Z</time>
      </trkpt>
      <trkpt lat="46.23206" lon="4.4869">
        <ele>741</ele>
        <time>2016-06-26T09:47:26Z</time>
      </trkpt>
      <trkpt lat="46.23187" lon="4.4865">
        <ele>747</ele>
        <time>2016-06-26T09:49:26Z</time>
      </trkpt>
      <trkpt lat="46.23186" lon="4.48646">
        <ele>747</ele>
        <time>2016-06-26T09:51:26Z</time>
      </trkpt>
      <trkpt lat="46.23185" lon="4.48643">
        <ele>747</ele>
        <time>2016-06-26T09:53:26Z</time>
      </trkpt>
      <trkpt lat="46.23183" lon="4.48637">
        <ele>748</ele>
        <time>2016-06-26T09:55:26Z</time>
      </trkpt>
      <trkpt lat="46.23181" lon="4.48625">
        <ele>749</ele>
        <time>2016-06-26T09:57:26Z</time>
      </trkpt>
      <trkpt lat="46.2318" lon="4.48618">
        <ele>749</ele>
        <time>2016-06-26T09:59:26Z</time>
      </trkpt>
      <trkpt lat="46.23181" lon="4.48608">
        <ele>751</ele>
        <time>2016-06-26T10:01:26Z</time>
      </trkpt>
      <trkpt lat="46.23181" lon="4.486">
        <ele>752</ele>
        <time>2016-06-26T10:03:26Z</time>
      </trkpt>
      <trkpt lat="46.23185" lon="4.48575">
        <ele>758</ele>
        <time>2016-06-26T10:05:26Z</time>
      </trkpt>
      <trkpt lat="46.23191" lon="4.4852">
        <ele>761</ele>
        <time>2016-06-26T10:07:26Z</time>
      </trkpt>
      <trkpt lat="46.23191" lon="4.48512">
        <ele>762</ele>
        <time>2016-06-26T10:09:26Z</time>
      </trkpt>
      <trkpt lat="46.2319" lon="4.48504">
        <ele>763</ele>
        <time>2016-06-26T10:11:26Z</time>
      </trkpt>
      <trkpt lat="46.23186" lon="4.48491">
        <ele>766</ele>
        <time>2016-06-26T10:13:26Z</time>
      </trkpt>
      <trkpt lat="46.23171" lon="4.48459">
        <ele>766</ele>
        <time>2016-06-26T10:15:26Z</time>
      </trkpt>
      <trkpt lat="46.23136" lon="4.48403">
        <ele>770</ele>
        <time>2016-06-26T10:17:26Z</time>
      </trkpt>
      <trkpt lat="46.2313" lon="4.48395">
        <ele>770</ele>
        <time>2016-06-26T10:19:26Z</time>
      </trkpt>
      <trkpt lat="46.23126" lon="4.48391">
        <ele>770</ele>
        <time>2016-06-26T10:21:26Z</time>
      </trkpt>
      <trkpt lat="46.23122" lon="4.48387">
        <ele>770</ele>
        <time>2016-06-26T10:23:26Z</time>
      </trkpt>
      <trkpt lat="46.23113" lon="4.48383">
        <ele>771</ele>
        <time>2016-06-26T10:25:26Z</time>
      </trkpt>
      <trkpt lat="46.231" lon="4.4838">
        <ele>771</ele>
        <time>2016-06-26T10:27:26Z</time>
      </trkpt>
      <trkpt lat="46.2309" lon="4.48378">
        <ele>771</ele>
        <time>2016-06-26T10:29:26Z</time>
      </trkpt>
      <trkpt lat="46.23083" lon="4.48377">
        <ele>773</ele>
        <time>2016-06-26T10:31:26Z</time>
      </trkpt>
      <trkpt lat="46.23075" lon="4.48373">
        <ele>774</ele>
        <time>2016-06-26T10:33:26Z</time>
      </trkpt>
      <trkpt lat="46.23063" lon="4.48367">
        <ele>774</ele>
        <time>2016-06-26T10:35:26Z</time>
      </trkpt>
      <trkpt lat="46.23059" lon="4.48366">
        <ele>774</ele>
        <time>2016-06-26T10:37:26Z</time>
      </trkpt>
      <trkpt lat="46.23055" lon="4.48365">
        <ele>774</ele>
        <time>2016-06-26T10:39:26Z</time>
      </trkpt>
      <trkpt lat="46.23048" lon="4.48363">
        <ele>775</ele>
        <time>2016-06-26T10:41:26Z</time>
      </trkpt>
      <trkpt lat="46.22992" lon="4.48358">
        <ele>780</ele>
        <time>2016-06-26T10:43:26Z</time>
      </trkpt>
      <trkpt lat="46.22985" lon="4.48356">
        <ele>781</ele>
        <time>2016-06-26T10:45:26Z</time>
      </trkpt>
      <trkpt lat="46.22979" lon="4.48352">
        <ele>781</ele>
        <time>2016-06-26T10:47:26Z</time>
      </trkpt>
      <trkpt lat="46.22971" lon="4.48345">
        <ele>781</ele>
        <time>2016-06-26T10:49:26Z</time>
      </trkpt>
      <trkpt lat="46.22956" lon="4.48334">
        <ele>782</ele>
        <time>2016-06-26T10:51:26Z</time>
      </trkpt>
      <trkpt lat="46.22942" lon="4.48328">
        <ele>781</ele>
        <time>2016-06-26T10:53:26Z</time>
      </trkpt>
      <trkpt lat="46.22914" lon="4.48322">
        <ele>787</ele>
        <time>2016-06-26T10:55:26Z</time>
      </trkpt>
      <trkpt lat="46.22905" lon="4.48319">
        <ele>787</ele>
        <time>2016-06-26T10:57:26Z</time>
      </trkpt>
      <trkpt lat="46.22895" lon="4.48314">
        <ele>788</ele>
        <time>2016-06-26T10:59:26Z</time>
      </trkpt>
      <trkpt lat="46.22887" lon="4.48311">
        <ele>788</ele>
        <time>2016-06-26T11:01:26Z</time>
      </trkpt>
      <trkpt lat="46.22878" lon="4.48309">
        <ele>788</ele>
        <time>2016-06-26T11:03:26Z</time>
      </trkpt>
      <trkpt lat="46.22868" lon="4.48309">
        <ele>789</ele>
        <time>2016-06-26T11:05:26Z</time>
      </trkpt>
      <trkpt lat="46.22859" lon="4.48311">
        <ele>790</ele>
        <time>2016-06-26T11:07:26Z</time>
      </trkpt>
      <trkpt lat="46.22834" lon="4.48323">
        <ele>793</ele>
        <time>2016-06-26T11:09:26Z</time>
      </trkpt>
      <trkpt lat="46.22809" lon="4.48341">
        <ele>799</ele>
        <time>2016-06-26T11:11:26Z</time>
      </trkpt>
      <trkpt lat="46.22758" lon="4.48371">
        <ele>802</ele>
        <time>2016-06-26T11:13:26Z</time>
      </trkpt>
      <trkpt lat="46.22744" lon="4.48375">
        <ele>807</ele>
        <time>2016-06-26T11:15:26Z</time>
      </trkpt>
      <trkpt lat="46.22689" lon="4.4838">
        <ele>809</ele>
        <time>2016-06-26T11:17:26Z</time>
      </trkpt>
      <trkpt lat="46.22656" lon="4.48385">
        <ele>813</ele>
        <time>2016-06-26T11:19:26Z</time>
      </trkpt>
      <trkpt lat="46.22623" lon="4.4839">
        <ele>814</ele>
        <time>2016-06-26T11:21:26Z</time>
      </trkpt>
      <trkpt lat="46.22602" lon="4.48395">
        <ele>815</ele>
        <time>2016-06-26T11:23:26Z</time>
      </trkpt>
      <trkpt lat="46.22569" lon="4.48406">
        <ele>819</ele>
        <time>2016-06-26T11:25:26Z</time>
      </trkpt>
      <trkpt lat="46.2256" lon="4.48413">
        <ele>820</ele>
        <time>2016-06-26T11:27:26Z</time>
      </trkpt>
      <trkpt lat="46.2256" lon="4.48413">
        <ele>820</ele>
        <time>2016-06-26T11:29:26Z</time>
      </trkpt>
      <trkpt lat="46.22557" lon="4.48408">
        <ele>820</ele>
        <time>2016-06-26T11:31:26Z</time>
      </trkpt>
      <trkpt lat="46.22556" lon="4.48405">
        <ele>820</ele>
        <time>2016-06-26T11:33:26Z</time>
      </trkpt>
      <trkpt lat="46.22545" lon="4.48395">
        <ele>822</ele>
        <time>2016-06-26T11:35:26Z</time>
      </trkpt>
      <trkpt lat="46.22534" lon="4.48385">
        <ele>822</ele>
        <time>2016-06-26T11:37:26Z</time>
      </trkpt>
      <trkpt lat="46.22523" lon="4.48369">
        <ele>823</ele>
        <time>2016-06-26T11:39:26Z</time>
      </trkpt>
      <trkpt lat="46.22513" lon="4.48355">
        <ele>824</ele>
        <time>2016-06-26T11:41:26Z</time>
      </trkpt>
      <trkpt lat="46.22507" lon="4.48348">
        <ele>825</ele>
        <time>2016-06-26T11:43:26Z</time>
      </trkpt>
      <trkpt lat="46.22492" lon="4.48335">
        <ele>829</ele>
        <time>2016-06-26T11:45:26Z</time>
      </trkpt>
      <trkpt lat="46.22481" lon="4.48328">
        <ele>830</ele>
        <time>2016-06-26T11:47:26Z</time>
      </trkpt>
      <trkpt lat="46.22474" lon="4.48323">
        <ele>831</ele>
        <time>2016-06-26T11:49:26Z</time>
      </trkpt>
      <trkpt lat="46.2247" lon="4.48318">
        <ele>832</ele>
        <time>2016-06-26T11:51:26Z</time>
      </trkpt>
      <trkpt lat="46.22457" lon="4.483">
        <ele>833</ele>
        <time>2016-06-26T11:53:26Z</time>
      </trkpt>
      <trkpt lat="46.22423" lon="4.48245">
        <ele>834</ele>
        <time>2016-06-26T11:55:26Z</time>
      </trkpt>
      <trkpt lat="46.22406" lon="4.4822">
        <ele>839</ele>
        <time>2016-06-26T11:57:26Z</time>
      </trkpt>
      <trkpt lat="46.22394" lon="4.48199">
        <ele>839</ele>
        <time>2016-06-26T11:59:26Z</time>
      </trkpt>
      <trkpt lat="46.22376" lon="4.48173">
        <ele>839</ele>
        <time>2016-06-26T12:01:26Z</time>
      </trkpt>
      <trkpt lat="46.22371" lon="4.48167">
        <ele>839</ele>
        <time>2016-06-26T12:03:26Z</time>
      </trkpt>
      <trkpt lat="46.22354" lon="4.48147">
        <ele>838</ele>
        <time>2016-06-26T12:05:26Z</time>
      </trkpt>
      <trkpt lat="46.22342" lon="4.48134">
        <ele>838</ele>
        <time>2016-06-26T12:07:26Z</time>
      </trkpt>
      <trkpt lat="46.22329" lon="4.48122">
        <ele>840</ele>
        <time>2016-06-26T12:09:26Z</time>
      </trkpt>
      <trkpt lat="46.2231" lon="4.48109">
        <ele>839</ele>
        <time>2016-06-26T12:11:26Z</time>
      </trkpt>
      <trkpt lat="46.22289" lon="4.481">
        <ele>840</ele>
        <time>2016-06-26T12:13:26Z</time>
      </trkpt>
      <trkpt lat="46.22248" lon="4.48086">
        <ele>839</ele>
        <time>2016-06-26T12:15:26Z</time>
      </trkpt>
      <trkpt lat="46.22239" lon="4.48085">
        <ele>841</ele>
        <time>2016-06-26T12:17:26Z</time>
      </trkpt>
      <trkpt lat="46.22217" lon="4.48086">
        <ele>845</ele>
        <time>2016-06-26T12:19:26Z</time>
      </trkpt>
      <trkpt lat="46.22189" lon="4.48091">
        <ele>847</ele>
        <time>2016-06-26T12:21:26Z</time>
      </trkpt>
      <trkpt lat="46.22148" lon="4.48101">
        <ele>854</ele>
        <time>2016-06-26T12:23:26Z</time>
      </trkpt>
      <trkpt lat="46.22137" lon="4.48105">
        <ele>855</ele>
        <time>2016-06-26T12:25:26Z</time>
      </trkpt>
      <trkpt lat="46.22121" lon="4.48109">
        <ele>856</ele>
        <time>2016-06-26T12:27:26Z</time>
      </trkpt>
      <trkpt lat="46.22103" lon="4.48112">
        <ele>857</ele>
        <time>2016-06-26T12:29:26Z</time>
      </trkpt>
      <trkpt lat="46.22062" lon="4.48112">
        <ele>863</ele>
        <time>2016-06-26T12:31:26Z</time>
      </trkpt>
      <trkpt lat="46.22051" lon="4.48114">
        <ele>863</ele>
        <time>2016-06-26T12:33:26Z</time>
      </trkpt>
      <trkpt lat="46.22006" lon="4.48128">
        <ele>865</ele>
        <time>2016-06-26T12:35:26Z</time>
      </trkpt>
      <trkpt lat="46.21998" lon="4.48127">
        <ele>869</ele>
        <time>2016-06-26T12:37:26Z</time>
      </trkpt>
      <trkpt lat="46.21965" lon="4.48117">
        <ele>870</ele>
        <time>2016-06-26T12:39:26Z</time>
      </trkpt>
      <trkpt lat="46.21929" lon="4.4811">
        <ele>870</ele>
        <time>2016-06-26T12:41:26Z</time>
      </trkpt>
      <trkpt lat="46.21909" lon="4.48104">
        <ele>875</ele>
        <time>2016-06-26T12:43:26Z</time>
      </trkpt>
      <trkpt lat="46.21892" lon="4.48099">
        <ele>876</ele>
        <time>2016-06-26T12:45:26Z</time>
      </trkpt>
      <trkpt lat="46.21871" lon="4.48094">
        <ele>879</ele>
        <time>2016-06-26T12:47:26Z</time>
      </trkpt>
      <trkpt lat="46.21853" lon="4.48092">
        <ele>880</ele>
        <time>2016-06-26T12:49:26Z</time>
      </trkpt>
      <trkpt lat="46.21782" lon="4.48092">
        <ele>892</ele>
        <time>2016-06-26T12:51:26Z</time>
      </trkpt>
      <trkpt lat="46.2176" lon="4.48091">
        <ele>892</ele>
        <time>2016-06-26T12:53:26Z</time>
      </trkpt>
      <trkpt lat="46.21728" lon="4.48088">
        <ele>895</ele>
        <time>2016-06-26T12:55:26Z</time>
      </trkpt>
      <trkpt lat="46.21709" lon="4.48087">
        <ele>896</ele>
        <time>2016-06-26T12:57:26Z</time>
      </trkpt>
      <trkpt lat="46.21686" lon="4.48089">
        <ele>895</ele>
        <time>2016-06-26T12:59:26Z</time>
      </trkpt>
      <trkpt lat="46.21662" lon="4.48095">
        <ele>894</ele>
        <time>2016-06-26T13:01:26Z</time>
      </trkpt>
      <trkpt lat="46.21642" lon="4.48104">
        <ele>896</ele>
        <time>2016-06-26T13:03:26Z</time>
      </trkpt>
      <trkpt lat="46.21618" lon="4.48113">
        <ele>896</ele>
        <time>2016-06-26T13:05:26Z</time>
      </trkpt>
      <trkpt lat="46.21592" lon="4.4812">
        <ele>896</ele>
        <time>2016-06-26T13:07:26Z</time>
      </trkpt>
      <trkpt lat="46.21556" lon="4.48125">
        <ele>896</ele>
        <time>2016-06-26T13:09:26Z</time>
      </trkpt>
      <trkpt lat="46.21506" lon="4.48127">
        <ele>897</ele>
        <time>2016-06-26T13:11:26Z</time>
      </trkpt>
      <trkpt lat="46.2147" lon="4.48134">
        <ele>898</ele>
        <time>2016-06-26T13:13:26Z</time>
      </trkpt>
      <trkpt lat="46.21449" lon="4.48141">
        <ele>899</ele>
        <time>2016-06-26T13:15:26Z</time>
      </trkpt>
      <trkpt lat="46.21437" lon="4.48148">
        <ele>900</ele>
        <time>2016-06-26T13:17:26Z</time>
      </trkpt>
      <trkpt lat="46.21427" lon="4.48156">
        <ele>901</ele>
        <time>2016-06-26T13:19:26Z</time>
      </trkpt>
      <trkpt lat="46.21416" lon="4.48166">
        <ele>903</ele>
        <time>2016-06-26T13:21:26Z</time>
      </trkpt>
      <trkpt lat="46.21409" lon="4.48176">
        <ele>904</ele>
        <time>2016-06-26T13:23:26Z</time>
      </trkpt>
      <trkpt lat="46.21384" lon="4.48215">
        <ele>906</ele>
        <time>2016-06-26T13:25:26Z</time>
      </trkpt>
      <trkpt lat="46.21371" lon="4.48234">
        <ele>906</ele>
        <time>2016-06-26T13:27:26Z</time>
      </trkpt>
      <trkpt lat="46.21364" lon="4.48242">
        <ele>906</ele>
        <time>2016-06-26T13:29:26Z</time>
      </trkpt>
      <trkpt lat="46.21343" lon="4.48261">
        <ele>907</ele>
        <time>2016-06-26T13:31:26Z</time>
      </trkpt>
      <trkpt lat="46.21306" lon="4.4829">
        <ele>904</ele>
        <time>2016-06-26T13:33:26Z</time>
      </trkpt>
      <trkpt lat="46.21268" lon="4.48318">
        <ele>902</ele>
        <time>2016-06-26T13:35:26Z</time>
      </trkpt>
      <trkpt lat="46.21253" lon="4.48329">
        <ele>901</ele>
        <time>2016-06-26T13:37:26Z</time>
      </trkpt>
      <trkpt lat="46.2124" lon="4.48336">
        <ele>901</ele>
        <time>2016-06-26T13:39:26Z</time>
      </trkpt>
      <trkpt lat="46.2123" lon="4.4834">
        <ele>901</ele>
        <time>2016-06-26T13:41:26Z</time>
      </trkpt>
      <trkpt lat="46.21195" lon="4.48351">
        <ele>901</ele>
        <time>2016-06-26T13:43:26Z</time>
      </trkpt>
      <trkpt lat="46.21186" lon="4.48354">
        <ele>901</ele>
        <time>2016-06-26T13:45:26Z</time>
      </trkpt>
      <trkpt lat="46.21178" lon="4.48356">
        <ele>901</ele>
        <time>2016-06-26T13:47:26Z</time>
      </trkpt>
      <trkpt lat="46.21174" lon="4.48358">
        <ele>901</ele>
        <time>2016-06-26T13:49:26Z</time>
      </trkpt>
      <trkpt lat="46.21163" lon="4.48362">
        <ele>903</ele>
        <time>2016-06-26T13:51:26Z</time>
      </trkpt>
      <trkpt lat="46.21147" lon="4.48367">
        <ele>904</ele>
        <time>2016-06-26T13:53:26Z</time>
      </trkpt>
      <trkpt lat="46.21138" lon="4.48372">
        <ele>904</ele>
        <time>2016-06-26T13:55:26Z</time>
      </trkpt>
      <trkpt lat="46.21128" lon="4.48379">
        <ele>905</ele>
        <time>2016-06-26T13:57:26Z</time>
      </trkpt>
      <trkpt lat="46.2111" lon="4.48394">
        <ele>906</ele>
        <time>2016-06-26T13:59:26Z</time>
      </trkpt>
      <trkpt lat="46.21099" lon="4.48401">
        <ele>908</ele>
        <time>2016-06-26T14:01:26Z</time>
      </trkpt>
      <trkpt lat="46.21075" lon="4.48414">
        <ele>913</ele>
        <time>2016-06-26T14:03:26Z</time>
      </trkpt>
      <trkpt lat="46.21061" lon="4.48416">
        <ele>914</ele>
        <time>2016-06-26T14:05:26Z</time>
      </trkpt>
      <trkpt lat="46.21047" lon="4.48415">
        <ele>915</ele>
        <time>2016-06-26T14:07:26Z</time>
      </trkpt>
      <trkpt lat="46.21036" lon="4.48411">
        <ele>916</ele>
        <time>2016-06-26T14:09:26Z</time>
      </trkpt>
      <trkpt lat="46.21028" lon="4.48409">
        <ele>917</ele>
        <time>2016-06-26T14:11:26Z</time>
      </trkpt>
      <trkpt lat="46.21009" lon="4.48397">
        <ele>918</ele>
        <time>2016-06-26T14:13:26Z</time>
      </trkpt>
      <trkpt lat="46.20995" lon="4.48385">
        <ele>925</ele>
        <time>2016-06-26T14:15:26Z</time>
      </trkpt>
      <trkpt lat="46.20979" lon="4.48373">
        <ele>925</ele>
        <time>2016-06-26T14:17:26Z</time>
      </trkpt>
      <trkpt lat="46.20959" lon="4.48361">
        <ele>926</ele>
        <time>2016-06-26T14:19:26Z</time>
      </trkpt>
      <trkpt lat="46.20927" lon="4.48347">
        <ele>928</ele>
        <time>2016-06-26T14:21:26Z</time>
      </trkpt>
      <trkpt lat="46.20896" lon="4.48336">
        <ele>936</ele>
        <time>2016-06-26T14:23:26Z</time>
      </trkpt>
      <trkpt lat="46.20873" lon="4.48329">
        <ele>931</ele>
        <time>2016-06-26T14:25:26Z</time>
      </trkpt>
      <trkpt lat="46.20854" lon="4.48323">
        <ele>933</ele>
        <time>2016-06-26T14:27:26Z</time>
      </trkpt>
      <trkpt lat="46.20826" lon="4.48313">
        <ele>938</ele>
        <time>2016-06-26T14:29:26Z</time>
      </trkpt>
      <trkpt lat="46.20817" lon="4.48312">
        <ele>937</ele>
        <time>2016-06-26T14:31:26Z</time>
      </trkpt>
      <trkpt lat="46.20797" lon="4.48312">
        <ele>937</ele>
        <time>2016-06-26T14:33:26Z</time>
      </trkpt>
      <trkpt lat="46.20772" lon="4.48317">
        <ele>938</ele>
        <time>2016-06-26T14:35:26Z</time>
      </trkpt>
      <trkpt lat="46.20763" lon="4.4832">
        <ele>939</ele>
        <time>2016-06-26T14:37:26Z</time>
      </trkpt>
      <trkpt lat="46.20754" lon="4.48326">
        <ele>941</ele>
        <time>2016-06-26T14:39:26Z</time>
      </trkpt>
      <trkpt lat="46.20752" lon="4.48327">
        <ele>941</ele>
        <time>2016-06-26T14:41:26Z</time>
      </trkpt>
      <trkpt lat="46.20742" lon="4.4834">
        <ele>944</ele>
        <time>2016-06-26T14:43:26Z</time>
      </trkpt>
      <trkpt lat="46.20715" lon="4.48365">
        <ele>945</ele>
        <time>2016-06-26T14:45:26Z</time>
      </trkpt>
      <trkpt lat="46.20672" lon="4.48414">
        <ele>947</ele>
        <time>2016-06-26T14:47:26Z</time>
      </trkpt>
      <trkpt lat="46.20633" lon="4.48467">
        <ele>950</ele>
        <time>2016-06-26T14:49:26Z</time>
      </trkpt>
      <trkpt lat="46.20606" lon="4.48499">
        <ele>950</ele>
        <time>2016-06-26T14:51:26Z</time>
      </trkpt>
      <trkpt lat="46.20593" lon="4.48514">
        <ele>954</ele>
        <time>2016-06-26T14:53:26Z</time>
      </trkpt>
      <trkpt lat="46.20585" lon="4.48523">
        <ele>955</ele>
        <time>2016-06-26T14:55:26Z</time>
      </trkpt>
      <trkpt lat="46.20584" lon="4.48525">
        <ele>956</ele>
        <time>2016-06-26T23:11:26Z</time>
      </trkpt>
      <trkpt lat="46.20569" lon="4.48541">
        <ele>951</ele>
        <time>2016-06-26T23:13:26Z</time>
      </trkpt>
      <trkpt lat="46.20533" lon="4.48573">
        <ele>950</ele>
        <time>2016-06-26T23:15:26Z</time>
      </trkpt>
      <trkpt lat="46.20531" lon="4.48575">
        <ele>950</ele>
        <time>2016-06-26T23:17:26Z</time>
      </trkpt>
      <trkpt lat="46.20515" lon="4.48589">
        <ele>952</ele>
        <time>2016-06-26T23:19:26Z</time>
      </trkpt>
      <trkpt lat="46.20483" lon="4.48615">
        <ele>949</ele>
        <time>2016-06-26T23:21:26Z</time>
      </trkpt>
      <trkpt lat="46.20473" lon="4.48626">
        <ele>949</ele>
        <time>2016-06-26T23:23:26Z</time>
      </trkpt>
      <trkpt lat="46.20465" lon="4.48633">
        <ele>950</ele>
        <time>2016-06-26T23:25:26Z</time>
      </trkpt>
      <trkpt lat="46.20457" lon="4.48639">
        <ele>950</ele>
        <time>2016-06-26T23:27:26Z</time>
      </trkpt>
      <trkpt lat="46.20448" lon="4.48641">
        <ele>949</ele>
        <time>2016-06-26T23:29:26Z</time>
      </trkpt>
      <trkpt lat="46.20441" lon="4.48642">
        <ele>949</ele>
        <time>2016-06-26T23:31:26Z</time>
      </trkpt>
      <trkpt lat="46.20439" lon="4.48642">
        <ele>949</ele>
        <time>2016-06-26T23:33:26Z</time>
      </trkpt>
      <trkpt lat="46.20426" lon="4.48641">
        <ele>949</ele>
        <time>2016-06-26T23:35:26Z</time>
      </trkpt>
      <trkpt lat="46.20415" lon="4.48639">
        <ele>951</ele>
        <time>2016-06-26T23:37:26Z</time>
      </trkpt>
      <trkpt lat="46.20382" lon="4.48626">
        <ele>952</ele>
        <time>2016-06-26T23:39:26Z</time>
      </trkpt>
      <trkpt lat="46.20381" lon="4.48626">
        <ele>952</ele>
        <time>2016-06-26T23:41:26Z</time>
      </trkpt>
      <trkpt lat="46.20358" lon="4.48611">
        <ele>953</ele>
        <time>2016-06-26T23:43:26Z</time>
      </trkpt>
      <trkpt lat="46.2035" lon="4.48608">
        <ele>953</ele>
        <time>2016-06-26T23:45:26Z</time>
      </trkpt>
      <trkpt lat="46.2034" lon="4.48603">
        <ele>953</ele>
        <time>2016-06-26T23:47:26Z</time>
      </trkpt>
      <trkpt lat="46.20324" lon="4.48596">
        <ele>957</ele>
        <time>2016-06-26T23:49:26Z</time>
      </trkpt>
      <trkpt lat="46.20263" lon="4.48566">
        <ele>958</ele>
        <time>2016-06-26T23:51:26Z</time>
      </trkpt>
      <trkpt lat="46.20242" lon="4.48559">
        <ele>961</ele>
        <time>2016-06-26T23:53:26Z</time>
      </trkpt>
      <trkpt lat="46.20224" lon="4.48557">
        <ele>960</ele>
        <time>2016-06-26T23:55:26Z</time>
      </trkpt>
      <trkpt lat="46.20203" lon="4.48556">
        <ele>960</ele>
        <time>2016-06-26T23:57:26Z</time>
      </trkpt>
      <trkpt lat="46.20201" lon="4.48556">
        <ele>960</ele>
        <time>2016-06-26T23:59:26Z</time>
      </trkpt>
      <trkpt lat="46.20193" lon="4.48558">
        <ele>960</ele>
        <time>2016-06-27T00:01:26Z</time>
      </trkpt>
      <trkpt lat="46.20182" lon="4.48564">
        <ele>961</ele>
        <time>2016-06-27T00:03:26Z</time>
      </trkpt>
      <trkpt lat="46.20175" lon="4.48567">
        <ele>961</ele>
        <time>2016-06-27T00:05:26Z</time>
      </trkpt>
      <trkpt lat="46.20173" lon="4.48567">
        <ele>961</ele>
        <time>2016-06-27T00:07:26Z</time>
      </trkpt>
      <trkpt lat="46.20166" lon="4.48568">
        <ele>961</ele>
        <time>2016-06-27T00:09:26Z</time>
      </trkpt>
      <trkpt lat="46.20155" lon="4.48571">
        <ele>961</ele>
        <time>2016-06-27T00:11:26Z</time>
      </trkpt>
      <trkpt lat="46.20144" lon="4.48576">
        <ele>960</ele>
        <time>2016-06-27T00:13:26Z</time>
      </trkpt>
      <trkpt lat="46.20132" lon="4.48584">
        <ele>966</ele>
        <time>2016-06-27T00:15:26Z</time>
      </trkpt>
      <trkpt lat="46.20112" lon="4.48604">
        <ele>966</ele>
        <time>2016-06-27T00:17:26Z</time>
      </trkpt>
      <trkpt lat="46.20104" lon="4.48612">
        <ele>966</ele>
        <time>2016-06-27T00:19:26Z</time>
      </trkpt>
      <trkpt lat="46.20097" lon="4.48617">
        <ele>967</ele>
        <time>2016-06-27T00:21:26Z</time>
      </trkpt>
      <trkpt lat="46.20089" lon="4.48621">
        <ele>967</ele>
        <time>2016-06-27T00:23:26Z</time>
      </trkpt>
      <trkpt lat="46.20087" lon="4.48621">
        <ele>967</ele>
        <time>2016-06-27T00:25:26Z</time>
      </trkpt>
      <trkpt lat="46.20082" lon="4.48621">
        <ele>969</ele>
        <time>2016-06-27T00:27:26Z</time>
      </trkpt>
      <trkpt lat="46.20074" lon="4.48619">
        <ele>970</ele>
        <time>2016-06-27T00:29:26Z</time>
      </trkpt>
      <trkpt lat="46.20066" lon="4.48614">
        <ele>969</ele>
        <time>2016-06-27T00:31:26Z</time>
      </trkpt>
      <trkpt lat="46.20048" lon="4.48597">
        <ele>970</ele>
        <time>2016-06-27T00:33:26Z</time>
      </trkpt>
      <trkpt lat="46.20026" lon="4.4857">
        <ele>963</ele>
        <time>2016-06-27T00:35:26Z</time>
      </trkpt>
      <trkpt lat="46.20008" lon="4.48542">
        <ele>961</ele>
        <time>2016-06-27T00:37:26Z</time>
      </trkpt>
      <trkpt lat="46.19995" lon="4.4851">
        <ele>961</ele>
        <time>2016-06-27T00:39:26Z</time>
      </trkpt>
      <trkpt lat="46.19986" lon="4.48487">
        <ele>957</ele>
        <time>2016-06-27T00:41:26Z</time>
      </trkpt>
      <trkpt lat="46.19982" lon="4.48467">
        <ele>956</ele>
        <time>2016-06-27T00:43:26Z</time>
      </trkpt>
      <trkpt lat="46.19979" lon="4.48449">
        <ele>954</ele>
        <time>2016-06-27T00:45:26Z</time>
      </trkpt>
      <trkpt lat="46.19976" lon="4.48436">
        <ele>953</ele>
        <time>2016-06-27T00:47:26Z</time>
      </trkpt>
      <trkpt lat="46.19965" lon="4.48402">
        <ele>944</ele>
        <time>2016-06-27T00:49:26Z</time>
      </trkpt>
      <trkpt lat="46.19953" lon="4.48378">
        <ele>943</ele>
        <time>2016-06-27T00:51:26Z</time>
      </trkpt>
      <trkpt lat="46.19932" lon="4.48332">
        <ele>935</ele>
        <time>2016-06-27T00:53:26Z</time>
      </trkpt>
      <trkpt lat="46.19926" lon="4.48319">
        <ele>934</ele>
        <time>2016-06-27T00:55:26Z</time>
      </trkpt>
      <trkpt lat="46.19917" lon="4.483">
        <ele>930</ele>
        <time>2016-06-27T00:57:26Z</time>
      </trkpt>
      <trkpt lat="46.19907" lon="4.48283">
        <ele>936</ele>
        <time>2016-06-27T00:59:26Z</time>
      </trkpt>
      <trkpt lat="46.19866" lon="4.4824">
        <ele>925</ele>
        <time>2016-06-27T01:01:26Z</time>
      </trkpt>
      <trkpt lat="46.19852" lon="4.48226">
        <ele>925</ele>
        <time>2016-06-27T01:03:26Z</time>
      </trkpt>
      <trkpt lat="46.19839" lon="4.48216">
        <ele>924</ele>
        <time>2016-06-27T01:05:26Z</time>
      </trkpt>
      <trkpt lat="46.19804" lon="4.48191">
        <ele>922</ele>
        <time>2016-06-27T01:07:26Z</time>
      </trkpt>
      <trkpt lat="46.19795" lon="4.48182">
        <ele>922</ele>
        <time>2016-06-27T01:09:26Z</time>
      </trkpt>
      <trkpt lat="46.19782" lon="4.48164">
        <ele>915</ele>
        <time>2016-06-27T01:11:26Z</time>
      </trkpt>
      <trkpt lat="46.19776" lon="4.48154">
        <ele>915</ele>
        <time>2016-06-27T01:13:26Z</time>
      </trkpt>
      <trkpt lat="46.19771" lon="4.48144">
        <ele>915</ele>
        <time>2016-06-27T01:15:26Z</time>
      </trkpt>
      <trkpt lat="46.19766" lon="4.48125">
        <ele>914</ele>
        <time>2016-06-27T01:17:26Z</time>
      </trkpt>
      <trkpt lat="46.19725" lon="4.48164">
        <ele>910.7</ele>
        <time>2016-06-27T01:19:26Z</time>
      </trkpt>
      <trkpt lat="46.19675" lon="4.48197">
        <ele>913.1</ele>
        <time>2016-06-27T01:21:26Z</time>
      </trkpt>
      <trkpt lat="46.19629" lon="4.48231">
        <ele>907.6</ele>
        <time>2016-06-27T01:23:26Z</time>
      </trkpt>
      <trkpt lat="46.19583" lon="4.48242">
        <ele>904.1</ele>
        <time>2016-06-27T01:25:26Z</time>
      </trkpt>
      <trkpt lat="46.19519" lon="4.48243">
        <ele>898.7</ele>
        <time>2016-06-27T01:27:26Z</time>
      </trkpt>
      <trkpt lat="46.1947" lon="4.48253">
        <ele>902</ele>
        <time>2016-06-27T01:29:26Z</time>
      </trkpt>
      <trkpt lat="46.19469" lon="4.48254">
        <ele>902</ele>
        <time>2016-06-27T01:31:26Z</time>
      </trkpt>
      <trkpt lat="46.19469" lon="4.48254">
        <ele>902</ele>
        <time>2016-06-27T01:33:26Z</time>
      </trkpt>
      <trkpt lat="46.19498" lon="4.48293">
        <ele>904</ele>
        <time>2016-06-27T01:35:26Z</time>
      </trkpt>
      <trkpt lat="46.19507" lon="4.48309">
        <ele>907</ele>
        <time>2016-06-27T01:37:26Z</time>
      </trkpt>
      <trkpt lat="46.19509" lon="4.48313">
        <ele>908</ele>
        <time>2016-06-27T01:39:26Z</time>
      </trkpt>
      <trkpt lat="46.19523" lon="4.48354">
        <ele>909</ele>
        <time>2016-06-27T01:41:26Z</time>
      </trkpt>
      <trkpt lat="46.1953" lon="4.48372">
        <ele>909</ele>
        <time>2016-06-27T01:43:26Z</time>
      </trkpt>
      <trkpt lat="46.19532" lon="4.48382">
        <ele>909</ele>
        <time>2016-06-27T01:45:26Z</time>
      </trkpt>
      <trkpt lat="46.1953" lon="4.48403">
        <ele>908</ele>
        <time>2016-06-27T01:47:26Z</time>
      </trkpt>
      <trkpt lat="46.19528" lon="4.48427">
        <ele>905</ele>
        <time>2016-06-27T01:49:26Z</time>
      </trkpt>
      <trkpt lat="46.19527" lon="4.48436">
        <ele>905</ele>
        <time>2016-06-27T01:51:26Z</time>
      </trkpt>
      <trkpt lat="46.19528" lon="4.48473">
        <ele>904</ele>
        <time>2016-06-27T01:53:26Z</time>
      </trkpt>
      <trkpt lat="46.1953" lon="4.48502">
        <ele>901</ele>
        <time>2016-06-27T01:55:26Z</time>
      </trkpt>
      <trkpt lat="46.19533" lon="4.48531">
        <ele>901</ele>
        <time>2016-06-27T01:57:26Z</time>
      </trkpt>
      <trkpt lat="46.19541" lon="4.48591">
        <ele>897</ele>
        <time>2016-06-27T01:59:26Z</time>
      </trkpt>
      <trkpt lat="46.19548" lon="4.4863">
        <ele>896</ele>
        <time>2016-06-27T02:01:26Z</time>
      </trkpt>
      <trkpt lat="46.19557" lon="4.48682">
        <ele>896</ele>
        <time>2016-06-27T02:03:26Z</time>
      </trkpt>
      <trkpt lat="46.19562" lon="4.48714">
        <ele>896</ele>
        <time>2016-06-27T02:05:26Z</time>
      </trkpt>
      <trkpt lat="46.19564" lon="4.48733">
        <ele>898</ele>
        <time>2016-06-27T02:07:26Z</time>
      </trkpt>
      <trkpt lat="46.19565" lon="4.48746">
        <ele>899</ele>
        <time>2016-06-27T02:09:26Z</time>
      </trkpt>
      <trkpt lat="46.19565" lon="4.4876">
        <ele>898</ele>
        <time>2016-06-27T02:11:26Z</time>
      </trkpt>
      <trkpt lat="46.19562" lon="4.48789">
        <ele>894</ele>
        <time>2016-06-27T02:13:26Z</time>
      </trkpt>
      <trkpt lat="46.19561" lon="4.48806">
        <ele>894</ele>
        <time>2016-06-27T02:15:26Z</time>
      </trkpt>
      <trkpt lat="46.19561" lon="4.48839">
        <ele>891</ele>
        <time>2016-06-27T02:17:26Z</time>
      </trkpt>
      <trkpt lat="46.19564" lon="4.4887">
        <ele>887</ele>
        <time>2016-06-27T02:19:26Z</time>
      </trkpt>
      <trkpt lat="46.19568" lon="4.48889">
        <ele>887</ele>
        <time>2016-06-27T02:21:26Z</time>
      </trkpt>
      <trkpt lat="46.19588" lon="4.48946">
        <ele>896</ele>
        <time>2016-06-27T02:23:26Z</time>
      </trkpt>
      <trkpt lat="46.19599" lon="4.48979">
        <ele>895</ele>
        <time>2016-06-27T02:25:26Z</time>
      </trkpt>
      <trkpt lat="46.19605" lon="4.49004">
        <ele>893</ele>
        <time>2016-06-27T02:27:26Z</time>
      </trkpt>
      <trkpt lat="46.19607" lon="4.49011">
        <ele>894</ele>
        <time>2016-06-27T02:29:26Z</time>
      </trkpt>
      <trkpt lat="46.19608" lon="4.49035">
        <ele>896</ele>
        <time>2016-06-27T02:31:26Z</time>
      </trkpt>
      <trkpt lat="46.19612" lon="4.49064">
        <ele>896</ele>
        <time>2016-06-27T02:33:26Z</time>
      </trkpt>
      <trkpt lat="46.19626" lon="4.49107">
        <ele>898</ele>
        <time>2016-06-27T02:35:26Z</time>
      </trkpt>
      <trkpt lat="46.19633" lon="4.49122">
        <ele>898</ele>
        <time>2016-06-27T02:37:26Z</time>
      </trkpt>
      <trkpt lat="46.19652" lon="4.49159">
        <ele>900</ele>
        <time>2016-06-27T02:39:26Z</time>
      </trkpt>
      <trkpt lat="46.19661" lon="4.49185">
        <ele>897</ele>
        <time>2016-06-27T02:41:26Z</time>
      </trkpt>
      <trkpt lat="46.19664" lon="4.49193">
        <ele>896</ele>
        <time>2016-06-27T02:43:26Z</time>
      </trkpt>
      <trkpt lat="46.19684" lon="4.49239">
        <ele>904</ele>
        <time>2016-06-27T02:45:26Z</time>
      </trkpt>
      <trkpt lat="46.1969" lon="4.49254">
        <ele>900</ele>
        <time>2016-06-27T02:47:26Z</time>
      </trkpt>
      <trkpt lat="46.19698" lon="4.49271">
        <ele>902</ele>
        <time>2016-06-27T02:49:26Z</time>
      </trkpt>
      <trkpt lat="46.19706" lon="4.49294">
        <ele>902</ele>
        <time>2016-06-27T02:51:26Z</time>
      </trkpt>
      <trkpt lat="46.19712" lon="4.49311">
        <ele>902</ele>
        <time>2016-06-27T02:53:26Z</time>
      </trkpt>
      <trkpt lat="46.19724" lon="4.49349">
        <ele>896</ele>
        <time>2016-06-27T02:55:26Z</time>
      </trkpt>
      <trkpt lat="46.19729" lon="4.49366">
        <ele>895</ele>
        <time>2016-06-27T02:57:26Z</time>
      </trkpt>
      <trkpt lat="46.1976" lon="4.49431">
        <ele>897</ele>
        <time>2016-06-27T02:59:26Z</time>
      </trkpt>
      <trkpt lat="46.19795" lon="4.49485">
        <ele>899</ele>
        <time>2016-06-27T03:01:26Z</time>
      </trkpt>
      <trkpt lat="46.19813" lon="4.49515">
        <ele>896</ele>
        <time>2016-06-27T03:03:26Z</time>
      </trkpt>
      <trkpt lat="46.1983" lon="4.49539">
        <ele>894</ele>
        <time>2016-06-27T03:05:26Z</time>
      </trkpt>
      <trkpt lat="46.19859" lon="4.49595">
        <ele>893</ele>
        <time>2016-06-27T03:07:26Z</time>
      </trkpt>
      <trkpt lat="46.19886" lon="4.49641">
        <ele>892</ele>
        <time>2016-06-27T03:09:26Z</time>
      </trkpt>
      <trkpt lat="46.199" lon="4.49668">
        <ele>885</ele>
        <time>2016-06-27T03:11:26Z</time>
      </trkpt>
      <trkpt lat="46.19912" lon="4.49695">
        <ele>882</ele>
        <time>2016-06-27T03:13:26Z</time>
      </trkpt>
      <trkpt lat="46.19931" lon="4.49728">
        <ele>884</ele>
        <time>2016-06-27T03:15:26Z</time>
      </trkpt>
      <trkpt lat="46.19945" lon="4.49752">
        <ele>878</ele>
        <time>2016-06-27T03:17:26Z</time>
      </trkpt>
      <trkpt lat="46.19959" lon="4.4977">
        <ele>879</ele>
        <time>2016-06-27T03:19:26Z</time>
      </trkpt>
      <trkpt lat="46.19983" lon="4.49802">
        <ele>879</ele>
        <time>2016-06-27T03:21:26Z</time>
      </trkpt>
      <trkpt lat="46.19993" lon="4.49824">
        <ele>879</ele>
        <time>2016-06-27T03:23:26Z</time>
      </trkpt>
      <trkpt lat="46.19994" lon="4.49828">
        <ele>879</ele>
        <time>2016-06-27T03:25:26Z</time>
      </trkpt>
      <trkpt lat="46.20003" lon="4.49854">
        <ele>878</ele>
        <time>2016-06-27T03:27:26Z</time>
      </trkpt>
      <trkpt lat="46.20012" lon="4.49886">
        <ele>876</ele>
        <time>2016-06-27T03:29:26Z</time>
      </trkpt>
      <trkpt lat="46.20016" lon="4.49899">
        <ele>875</ele>
        <time>2016-06-27T03:31:26Z</time>
      </trkpt>
      <trkpt lat="46.20025" lon="4.49926">
        <ele>870</ele>
        <time>2016-06-27T03:33:26Z</time>
      </trkpt>
      <trkpt lat="46.2003" lon="4.49948">
        <ele>869</ele>
        <time>2016-06-27T03:35:26Z</time>
      </trkpt>
      <trkpt lat="46.20032" lon="4.49958">
        <ele>868</ele>
        <time>2016-06-27T03:37:26Z</time>
      </trkpt>
      <trkpt lat="46.20042" lon="4.50025">
        <ele>861</ele>
        <time>2016-06-27T03:39:26Z</time>
      </trkpt>
      <trkpt lat="46.20044" lon="4.50051">
        <ele>860</ele>
        <time>2016-06-27T03:41:26Z</time>
      </trkpt>
      <trkpt lat="46.20047" lon="4.50076">
        <ele>860</ele>
        <time>2016-06-27T03:43:26Z</time>
      </trkpt>
      <trkpt lat="46.20052" lon="4.50102">
        <ele>856</ele>
        <time>2016-06-27T03:45:26Z</time>
      </trkpt>
      <trkpt lat="46.20056" lon="4.50132">
        <ele>856</ele>
        <time>2016-06-27T03:47:26Z</time>
      </trkpt>
      <trkpt lat="46.20058" lon="4.50153">
        <ele>857</ele>
        <time>2016-06-27T03:49:26Z</time>
      </trkpt>
      <trkpt lat="46.20058" lon="4.50159">
        <ele>857</ele>
        <time>2016-06-27T03:51:26Z</time>
      </trkpt>
      <trkpt lat="46.20058" lon="4.50175">
        <ele>856</ele>
        <time>2016-06-27T03:53:26Z</time>
      </trkpt>
      <trkpt lat="46.20057" lon="4.50191">
        <ele>855</ele>
        <time>2016-06-27T03:55:26Z</time>
      </trkpt>
      <trkpt lat="46.20055" lon="4.5021">
        <ele>854</ele>
        <time>2016-06-27T03:57:26Z</time>
      </trkpt>
      <trkpt lat="46.20052" lon="4.50223">
        <ele>854</ele>
        <time>2016-06-27T03:59:26Z</time>
      </trkpt>
      <trkpt lat="46.20036" lon="4.50265">
        <ele>851</ele>
        <time>2016-06-27T04:01:26Z</time>
      </trkpt>
      <trkpt lat="46.20028" lon="4.50295">
        <ele>850</ele>
        <time>2016-06-27T04:03:26Z</time>
      </trkpt>
      <trkpt lat="46.20021" lon="4.50314">
        <ele>849</ele>
        <time>2016-06-27T04:05:26Z</time>
      </trkpt>
      <trkpt lat="46.20011" lon="4.50333">
        <ele>847</ele>
        <time>2016-06-27T04:07:26Z</time>
      </trkpt>
      <trkpt lat="46.19999" lon="4.50351">
        <ele>840</ele>
        <time>2016-06-27T04:09:26Z</time>
      </trkpt>
      <trkpt lat="46.1999" lon="4.50369">
        <ele>838</ele>
        <time>2016-06-27T04:11:26Z</time>
      </trkpt>
      <trkpt lat="46.19981" lon="4.50391">
        <ele>837</ele>
        <time>2016-06-27T04:13:26Z</time>
      </trkpt>
      <trkpt lat="46.19968" lon="4.5043">
        <ele>835</ele>
        <time>2016-06-27T04:15:26Z</time>
      </trkpt>
      <trkpt lat="46.19961" lon="4.50454">
        <ele>834</ele>
        <time>2016-06-27T04:17:26Z</time>
      </trkpt>
      <trkpt lat="46.19946" lon="4.50509">
        <ele>829</ele>
        <time>2016-06-27T04:19:26Z</time>
      </trkpt>
      <trkpt lat="46.1994" lon="4.5053">
        <ele>828</ele>
        <time>2016-06-27T04:21:26Z</time>
      </trkpt>
      <trkpt lat="46.19926" lon="4.50556">
        <ele>826</ele>
        <time>2016-06-27T04:23:26Z</time>
      </trkpt>
      <trkpt lat="46.19918" lon="4.50568">
        <ele>825</ele>
        <time>2016-06-27T04:25:26Z</time>
      </trkpt>
      <trkpt lat="46.19893" lon="4.50586">
        <ele>817</ele>
        <time>2016-06-27T04:27:26Z</time>
      </trkpt>
      <trkpt lat="46.19884" lon="4.5059">
        <ele>816</ele>
        <time>2016-06-27T04:29:26Z</time>
      </trkpt>
      <trkpt lat="46.19875" lon="4.50591">
        <ele>815</ele>
        <time>2016-06-27T04:31:26Z</time>
      </trkpt>
      <trkpt lat="46.19867" lon="4.5059">
        <ele>815</ele>
        <time>2016-06-27T04:33:26Z</time>
      </trkpt>
      <trkpt lat="46.19857" lon="4.50587">
        <ele>815</ele>
        <time>2016-06-27T04:35:26Z</time>
      </trkpt>
      <trkpt lat="46.19848" lon="4.50583">
        <ele>819</ele>
        <time>2016-06-27T04:37:26Z</time>
      </trkpt>
      <trkpt lat="46.19831" lon="4.50577">
        <ele>816</ele>
        <time>2016-06-27T04:39:26Z</time>
      </trkpt>
      <trkpt lat="46.19828" lon="4.50577">
        <ele>815</ele>
        <time>2016-06-27T04:41:26Z</time>
      </trkpt>
      <trkpt lat="46.19825" lon="4.50577">
        <ele>815</ele>
        <time>2016-06-27T04:43:26Z</time>
      </trkpt>
      <trkpt lat="46.19821" lon="4.50579">
        <ele>815</ele>
        <time>2016-06-27T04:45:26Z</time>
      </trkpt>
      <trkpt lat="46.19819" lon="4.50581">
        <ele>814</ele>
        <time>2016-06-27T04:47:26Z</time>
      </trkpt>
      <trkpt lat="46.19815" lon="4.50589">
        <ele>810</ele>
        <time>2016-06-27T04:49:26Z</time>
      </trkpt>
      <trkpt lat="46.19815" lon="4.50589">
        <ele>810</ele>
        <time>2016-06-27T04:51:26Z</time>
      </trkpt>
      <trkpt lat="46.19816" lon="4.50599">
        <ele>809</ele>
        <time>2016-06-27T04:53:26Z</time>
      </trkpt>
      <trkpt lat="46.1982" lon="4.50607">
        <ele>808</ele>
        <time>2016-06-27T04:55:26Z</time>
      </trkpt>
      <trkpt lat="46.19826" lon="4.50614">
        <ele>808</ele>
        <time>2016-06-27T04:57:26Z</time>
      </trkpt>
      <trkpt lat="46.19839" lon="4.50622">
        <ele>812</ele>
        <time>2016-06-27T04:59:26Z</time>
      </trkpt>
      <trkpt lat="46.19866" lon="4.50633">
        <ele>812</ele>
        <time>2016-06-27T05:01:26Z</time>
      </trkpt>
      <trkpt lat="46.19903" lon="4.50645">
        <ele>812</ele>
        <time>2016-06-27T05:03:26Z</time>
      </trkpt>
      <trkpt lat="46.19934" lon="4.50649">
        <ele>811</ele>
        <time>2016-06-27T05:05:26Z</time>
      </trkpt>
      <trkpt lat="46.19949" lon="4.50649">
        <ele>811</ele>
        <time>2016-06-27T05:07:26Z</time>
      </trkpt>
      <trkpt lat="46.19962" lon="4.50648">
        <ele>811</ele>
        <time>2016-06-27T05:09:26Z</time>
      </trkpt>
      <trkpt lat="46.1998" lon="4.50644">
        <ele>810</ele>
        <time>2016-06-27T05:11:26Z</time>
      </trkpt>
      <trkpt lat="46.20037" lon="4.50638">
        <ele>807</ele>
        <time>2016-06-27T05:13:26Z</time>
      </trkpt>
      <trkpt lat="46.20053" lon="4.50638">
        <ele>806</ele>
        <time>2016-06-27T05:15:26Z</time>
      </trkpt>
      <trkpt lat="46.20068" lon="4.50641">
        <ele>805</ele>
        <time>2016-06-27T05:17:26Z</time>
      </trkpt>
      <trkpt lat="46.20069" lon="4.50641">
        <ele>805</ele>
        <time>2016-06-27T05:19:26Z</time>
      </trkpt>
      <trkpt lat="46.20089" lon="4.50647">
        <ele>803</ele>
        <time>2016-06-27T05:21:26Z</time>
      </trkpt>
      <trkpt lat="46.20099" lon="4.50651">
        <ele>803</ele>
        <time>2016-06-27T05:23:26Z</time>
      </trkpt>
      <trkpt lat="46.20107" lon="4.50656">
        <ele>803</ele>
        <time>2016-06-27T05:25:26Z</time>
      </trkpt>
      <trkpt lat="46.20114" lon="4.50666">
        <ele>803</ele>
        <time>2016-06-27T05:27:26Z</time>
      </trkpt>
      <trkpt lat="46.20125" lon="4.50688">
        <ele>793</ele>
        <time>2016-06-27T05:29:26Z</time>
      </trkpt>
      <trkpt lat="46.20132" lon="4.50698">
        <ele>793</ele>
        <time>2016-06-27T05:31:26Z</time>
      </trkpt>
      <trkpt lat="46.20154" lon="4.50723">
        <ele>791</ele>
        <time>2016-06-27T05:33:26Z</time>
      </trkpt>
      <trkpt lat="46.20165" lon="4.50744">
        <ele>789</ele>
        <time>2016-06-27T05:35:26Z</time>
      </trkpt>
      <trkpt lat="46.20173" lon="4.50753">
        <ele>788</ele>
        <time>2016-06-27T05:37:26Z</time>
      </trkpt>
      <trkpt lat="46.20182" lon="4.5077">
        <ele>787</ele>
        <time>2016-06-27T05:39:26Z</time>
      </trkpt>
      <trkpt lat="46.20188" lon="4.50786">
        <ele>786</ele>
        <time>2016-06-27T05:41:26Z</time>
      </trkpt>
      <trkpt lat="46.20193" lon="4.50799">
        <ele>785</ele>
        <time>2016-06-27T05:43:26Z</time>
      </trkpt>
      <trkpt lat="46.20196" lon="4.50813">
        <ele>784</ele>
        <time>2016-06-27T05:45:26Z</time>
      </trkpt>
      <trkpt lat="46.20202" lon="4.50829">
        <ele>784</ele>
        <time>2016-06-27T05:47:26Z</time>
      </trkpt>
      <trkpt lat="46.20222" lon="4.50864">
        <ele>775</ele>
        <time>2016-06-27T05:49:26Z</time>
      </trkpt>
      <trkpt lat="46.20239" lon="4.50889">
        <ele>773</ele>
        <time>2016-06-27T05:51:26Z</time>
      </trkpt>
      <trkpt lat="46.20244" lon="4.50898">
        <ele>772</ele>
        <time>2016-06-27T05:53:26Z</time>
      </trkpt>
      <trkpt lat="46.20252" lon="4.50923">
        <ele>768</ele>
        <time>2016-06-27T05:55:26Z</time>
      </trkpt>
      <trkpt lat="46.20259" lon="4.50937">
        <ele>765</ele>
        <time>2016-06-27T05:57:26Z</time>
      </trkpt>
      <trkpt lat="46.20264" lon="4.50952">
        <ele>763</ele>
        <time>2016-06-27T05:59:26Z</time>
      </trkpt>
      <trkpt lat="46.20267" lon="4.50967">
        <ele>761</ele>
        <time>2016-06-27T06:01:26Z</time>
      </trkpt>
      <trkpt lat="46.20273" lon="4.50982">
        <ele>760</ele>
        <time>2016-06-27T06:03:26Z</time>
      </trkpt>
      <trkpt lat="46.2028" lon="4.50998">
        <ele>759</ele>
        <time>2016-06-27T06:05:26Z</time>
      </trkpt>
      <trkpt lat="46.20295" lon="4.51022">
        <ele>752</ele>
        <time>2016-06-27T06:07:26Z</time>
      </trkpt>
      <trkpt lat="46.20301" lon="4.51041">
        <ele>751</ele>
        <time>2016-06-27T06:09:26Z</time>
      </trkpt>
      <trkpt lat="46.2031" lon="4.51099">
        <ele>746</ele>
        <time>2016-06-27T06:11:26Z</time>
      </trkpt>
      <trkpt lat="46.20317" lon="4.51134">
        <ele>744</ele>
        <time>2016-06-27T06:13:26Z</time>
      </trkpt>
      <trkpt lat="46.20322" lon="4.51151">
        <ele>744</ele>
        <time>2016-06-27T06:15:26Z</time>
      </trkpt>
      <trkpt lat="46.20326" lon="4.51175">
        <ele>743</ele>
        <time>2016-06-27T06:17:26Z</time>
      </trkpt>
      <trkpt lat="46.20324" lon="4.51244">
        <ele>740</ele>
        <time>2016-06-27T06:19:26Z</time>
      </trkpt>
      <trkpt lat="46.20324" lon="4.51331">
        <ele>737</ele>
        <time>2016-06-27T06:21:26Z</time>
      </trkpt>
      <trkpt lat="46.20327" lon="4.51364">
        <ele>731</ele>
        <time>2016-06-27T06:23:26Z</time>
      </trkpt>
      <trkpt lat="46.2033" lon="4.51377">
        <ele>730</ele>
        <time>2016-06-27T06:25:26Z</time>
      </trkpt>
      <trkpt lat="46.20332" lon="4.51387">
        <ele>730</ele>
        <time>2016-06-27T06:27:26Z</time>
      </trkpt>
      <trkpt lat="46.20341" lon="4.51416">
        <ele>732</ele>
        <time>2016-06-27T06:29:26Z</time>
      </trkpt>
      <trkpt lat="46.20347" lon="4.51431">
        <ele>728</ele>
        <time>2016-06-27T06:31:26Z</time>
      </trkpt>
      <trkpt lat="46.20348" lon="4.51432">
        <ele>728</ele>
        <time>2016-06-27T06:33:26Z</time>
      </trkpt>
      <trkpt lat="46.20359" lon="4.51458">
        <ele>725</ele>
        <time>2016-06-27T06:35:26Z</time>
      </trkpt>
      <trkpt lat="46.20378" lon="4.51494">
        <ele>723</ele>
        <time>2016-06-27T06:37:26Z</time>
      </trkpt>
      <trkpt lat="46.20383" lon="4.51503">
        <ele>716</ele>
        <time>2016-06-27T06:39:26Z</time>
      </trkpt>
      <trkpt lat="46.20397" lon="4.51532">
        <ele>715</ele>
        <time>2016-06-27T06:41:26Z</time>
      </trkpt>
      <trkpt lat="46.20405" lon="4.51552">
        <ele>714</ele>
        <time>2016-06-27T06:43:26Z</time>
      </trkpt>
      <trkpt lat="46.20409" lon="4.51567">
        <ele>713</ele>
        <time>2016-06-27T06:45:26Z</time>
      </trkpt>
      <trkpt lat="46.20416" lon="4.51601">
        <ele>709</ele>
        <time>2016-06-27T06:47:26Z</time>
      </trkpt>
      <trkpt lat="46.20417" lon="4.51604">
        <ele>709</ele>
        <time>2016-06-27T06:49:26Z</time>
      </trkpt>
      <trkpt lat="46.20422" lon="4.51625">
        <ele>709</ele>
        <time>2016-06-27T06:51:26Z</time>
      </trkpt>
      <trkpt lat="46.20438" lon="4.51648">
        <ele>709</ele>
        <time>2016-06-27T06:53:26Z</time>
      </trkpt>
      <trkpt lat="46.20524" lon="4.51769">
        <ele>714</ele>
        <time>2016-06-27T06:55:26Z</time>
      </trkpt>
      <trkpt lat="46.20563" lon="4.51826">
        <ele>713</ele>
        <time>2016-06-27T06:57:26Z</time>
      </trkpt>
      <trkpt lat="46.20572" lon="4.51838">
        <ele>714</ele>
        <time>2016-06-27T06:59:26Z</time>
      </trkpt>
      <trkpt lat="46.20664" lon="4.51949">
        <ele>720</ele>
        <time>2016-06-27T07:01:26Z</time>
      </trkpt>
      <trkpt lat="46.20724" lon="4.52016">
        <ele>716</ele>
        <time>2016-06-27T07:03:26Z</time>
      </trkpt>
      <trkpt lat="46.20741" lon="4.52039">
        <ele>717</ele>
        <time>2016-06-27T07:05:26Z</time>
      </trkpt>
      <trkpt lat="46.20775" lon="4.52105">
        <ele>713</ele>
        <time>2016-06-27T07:07:26Z</time>
      </trkpt>
      <trkpt lat="46.20822" lon="4.52201">
        <ele>714</ele>
        <time>2016-06-27T07:09:26Z</time>
      </trkpt>
      <trkpt lat="46.20836" lon="4.52236">
        <ele>710</ele>
        <time>2016-06-27T07:11:26Z</time>
      </trkpt>
      <trkpt lat="46.20845" lon="4.52261">
        <ele>713</ele>
        <time>2016-06-27T07:13:26Z</time>
      </trkpt>
      <trkpt lat="46.20854" lon="4.52292">
        <ele>713</ele>
        <time>2016-06-27T07:15:26Z</time>
      </trkpt>
      <trkpt lat="46.20859" lon="4.52322">
        <ele>714</ele>
        <time>2016-06-27T07:17:26Z</time>
      </trkpt>
      <trkpt lat="46.20866" lon="4.52396">
        <ele>714</ele>
        <time>2016-06-27T07:19:26Z</time>
      </trkpt>
      <trkpt lat="46.20872" lon="4.52481">
        <ele>707</ele>
        <time>2016-06-27T07:21:26Z</time>
      </trkpt>
      <trkpt lat="46.20876" lon="4.5252">
        <ele>702</ele>
        <time>2016-06-27T07:23:26Z</time>
      </trkpt>
      <trkpt lat="46.20877" lon="4.5255">
        <ele>701</ele>
        <time>2016-06-27T07:25:26Z</time>
      </trkpt>
      <trkpt lat="46.20876" lon="4.52623">
        <ele>697</ele>
        <time>2016-06-27T07:27:26Z</time>
      </trkpt>
      <trkpt lat="46.20874" lon="4.52656">
        <ele>696</ele>
        <time>2016-06-27T07:29:26Z</time>
      </trkpt>
      <trkpt lat="46.20874" lon="4.5268">
        <ele>693</ele>
        <time>2016-06-27T07:31:26Z</time>
      </trkpt>
      <trkpt lat="46.20881" lon="4.52739">
        <ele>690</ele>
        <time>2016-06-27T07:33:26Z</time>
      </trkpt>
      <trkpt lat="46.20881" lon="4.52771">
        <ele>686</ele>
        <time>2016-06-27T07:35:26Z</time>
      </trkpt>
      <trkpt lat="46.20878" lon="4.52796">
        <ele>685</ele>
        <time>2016-06-27T07:37:26Z</time>
      </trkpt>
      <trkpt lat="46.20871" lon="4.52829">
        <ele>684</ele>
        <time>2016-06-27T07:39:26Z</time>
      </trkpt>
      <trkpt lat="46.20862" lon="4.52862">
        <ele>678</ele>
        <time>2016-06-27T07:41:26Z</time>
      </trkpt>
      <trkpt lat="46.20858" lon="4.52876">
        <ele>678</ele>
        <time>2016-06-27T07:43:26Z</time>
      </trkpt>
      <trkpt lat="46.2085" lon="4.52901">
        <ele>677</ele>
        <time>2016-06-27T07:45:26Z</time>
      </trkpt>
      <trkpt lat="46.2084" lon="4.52919">
        <ele>674</ele>
        <time>2016-06-27T07:47:26Z</time>
      </trkpt>
      <trkpt lat="46.20824" lon="4.5294">
        <ele>677</ele>
        <time>2016-06-27T07:49:26Z</time>
      </trkpt>
      <trkpt lat="46.20806" lon="4.52958">
        <ele>677</ele>
        <time>2016-06-27T07:51:26Z</time>
      </trkpt>
      <trkpt lat="46.20778" lon="4.52984">
        <ele>677</ele>
        <time>2016-06-27T07:53:26Z</time>
      </trkpt>
      <trkpt lat="46.20728" lon="4.53036">
        <ele>676</ele>
        <time>2016-06-27T07:55:26Z</time>
      </trkpt>
      <trkpt lat="46.20724" lon="4.53044">
        <ele>676</ele>
        <time>2016-06-27T07:57:26Z</time>
      </trkpt>
      <trkpt lat="46.20687" lon="4.531">
        <ele>670</ele>
        <time>2016-06-27T07:59:26Z</time>
      </trkpt>
      <trkpt lat="46.20654" lon="4.53161">
        <ele>668</ele>
        <time>2016-06-27T08:01:26Z</time>
      </trkpt>
      <trkpt lat="46.2064" lon="4.53205">
        <ele>663</ele>
        <time>2016-06-27T08:03:26Z</time>
      </trkpt>
      <trkpt lat="46.20622" lon="4.53268">
        <ele>656</ele>
        <time>2016-06-27T08:05:26Z</time>
      </trkpt>
      <trkpt lat="46.20609" lon="4.53334">
        <ele>651</ele>
        <time>2016-06-27T08:07:26Z</time>
      </trkpt>
      <trkpt lat="46.20604" lon="4.53345">
        <ele>651</ele>
        <time>2016-06-27T08:09:26Z</time>
      </trkpt>
      <trkpt lat="46.20604" lon="4.53358">
        <ele>650</ele>
        <time>2016-06-27T08:11:26Z</time>
      </trkpt>
      <trkpt lat="46.20612" lon="4.53467">
        <ele>638</ele>
        <time>2016-06-27T08:13:26Z</time>
      </trkpt>
      <trkpt lat="46.20617" lon="4.53554">
        <ele>632</ele>
        <time>2016-06-27T08:15:26Z</time>
      </trkpt>
      <trkpt lat="46.20623" lon="4.53635">
        <ele>628</ele>
        <time>2016-06-27T08:17:26Z</time>
      </trkpt>
      <trkpt lat="46.20624" lon="4.5366">
        <ele>627</ele>
        <time>2016-06-27T08:19:26Z</time>
      </trkpt>
      <trkpt lat="46.20627" lon="4.53681">
        <ele>625</ele>
        <time>2016-06-27T08:21:26Z</time>
      </trkpt>
      <trkpt lat="46.20634" lon="4.53682">
        <ele>625</ele>
        <time>2016-06-27T08:23:26Z</time>
      </trkpt>
      <trkpt lat="46.20638" lon="4.53682">
        <ele>625</ele>
        <time>2016-06-27T08:25:26Z</time>
      </trkpt>
      <trkpt lat="46.2064" lon="4.53681">
        <ele>625</ele>
        <time>2016-06-27T08:27:26Z</time>
      </trkpt>
      <trkpt lat="46.2065" lon="4.53675">
        <ele>625</ele>
        <time>2016-06-27T08:29:26Z</time>
      </trkpt>
      <trkpt lat="46.20656" lon="4.5367">
        <ele>625</ele>
        <time>2016-06-27T08:31:26Z</time>
      </trkpt>
      <trkpt lat="46.20656" lon="4.5367">
        <ele>625</ele>
        <time>2016-06-27T08:33:26Z</time>
      </trkpt>
      <trkpt lat="46.20667" lon="4.53696">
        <ele>625</ele>
        <time>2016-06-27T08:35:26Z</time>
      </trkpt>
      <trkpt lat="46.20667" lon="4.53696">
        <ele>625</ele>
        <time>2016-06-27T08:37:26Z</time>
      </trkpt>
      <trkpt lat="46.20662" lon="4.53699">
        <ele>625</ele>
        <time>2016-06-27T08:39:26Z</time>
      </trkpt>
      <trkpt lat="46.2066" lon="4.53703">
        <ele>625</ele>
        <time>2016-06-27T08:41:26Z</time>
      </trkpt>
      <trkpt lat="46.20658" lon="4.53706">
        <ele>625</ele>
        <time>2016-06-27T08:43:26Z</time>
      </trkpt>
      <trkpt lat="46.20657" lon="4.5371">
        <ele>624</ele>
        <time>2016-06-27T08:45:26Z</time>
      </trkpt>
      <trkpt lat="46.20656" lon="4.53715">
        <ele>624</ele>
        <time>2016-06-27T08:47:26Z</time>
      </trkpt>
      <trkpt lat="46.20657" lon="4.53721">
        <ele>624</ele>
        <time>2016-06-27T08:49:26Z</time>
      </trkpt>
      <trkpt lat="46.20659" lon="4.53726">
        <ele>624</ele>
        <time>2016-06-27T08:51:26Z</time>
      </trkpt>
      <trkpt lat="46.2066" lon="4.53728">
        <ele>624</ele>
        <time>2016-06-27T08:53:26Z</time>
      </trkpt>
      <trkpt lat="46.20663" lon="4.53732">
        <ele>624</ele>
        <time>2016-06-27T08:55:26Z</time>
      </trkpt>
      <trkpt lat="46.2067" lon="4.53735">
        <ele>624</ele>
        <time>2016-06-27T08:57:26Z</time>
      </trkpt>
      <trkpt lat="46.20673" lon="4.53735">
        <ele>624</ele>
        <time>2016-06-27T08:59:26Z</time>
      </trkpt>
      <trkpt lat="46.20676" lon="4.53734">
        <ele>624</ele>
        <time>2016-06-27T09:01:26Z</time>
      </trkpt>
      <trkpt lat="46.20679" lon="4.53732">
        <ele>624</ele>
        <time>2016-06-27T09:03:26Z</time>
      </trkpt>
      <trkpt lat="46.2068" lon="4.5373">
        <ele>624</ele>
        <time>2016-06-27T09:05:26Z</time>
      </trkpt>
      <trkpt lat="46.20681" lon="4.53728">
        <ele>625</ele>
        <time>2016-06-27T09:07:26Z</time>
      </trkpt>
      <trkpt lat="46.20682" lon="4.53727">
        <ele>625</ele>
        <time>2016-06-27T09:09:26Z</time>
      </trkpt>
      <trkpt lat="46.20689" lon="4.53733">
        <ele>625</ele>
        <time>2016-06-27T09:11:26Z</time>
      </trkpt>
      <trkpt lat="46.20695" lon="4.53738">
        <ele>625</ele>
        <time>2016-06-27T09:13:26Z</time>
      </trkpt>
      <trkpt lat="46.207" lon="4.53743">
        <ele>625</ele>
        <time>2016-06-27T09:15:26Z</time>
      </trkpt>
      <trkpt lat="46.20702" lon="4.53749">
        <ele>625</ele>
        <time>2016-06-27T09:17:26Z</time>
      </trkpt>
      <trkpt lat="46.20705" lon="4.53756">
        <ele>624</ele>
        <time>2016-06-27T09:19:26Z</time>
      </trkpt>
      <trkpt lat="46.20705" lon="4.53765">
        <ele>624</ele>
        <time>2016-06-27T09:21:26Z</time>
      </trkpt>
      <trkpt lat="46.20704" lon="4.53808">
        <ele>623</ele>
        <time>2016-06-27T09:23:26Z</time>
      </trkpt>
      <trkpt lat="46.20706" lon="4.5382">
        <ele>623</ele>
        <time>2016-06-27T09:25:26Z</time>
      </trkpt>
      <trkpt lat="46.20705" lon="4.53852">
        <ele>621</ele>
        <time>2016-06-27T09:27:26Z</time>
      </trkpt>
      <trkpt lat="46.2071" lon="4.53881">
        <ele>621</ele>
        <time>2016-06-27T09:29:26Z</time>
      </trkpt>
      <trkpt lat="46.20717" lon="4.53904">
        <ele>621</ele>
        <time>2016-06-27T09:31:26Z</time>
      </trkpt>
      <trkpt lat="46.20724" lon="4.53922">
        <ele>621</ele>
        <time>2016-06-27T09:33:26Z</time>
      </trkpt>
      <trkpt lat="46.20742" lon="4.53954">
        <ele>621</ele>
        <time>2016-06-27T09:35:26Z</time>
      </trkpt>
      <trkpt lat="46.20747" lon="4.53962">
        <ele>621</ele>
        <time>2016-06-27T09:37:26Z</time>
      </trkpt>
      <trkpt lat="46.20754" lon="4.53975">
        <ele>625</ele>
        <time>2016-06-27T09:39:26Z</time>
      </trkpt>
      <trkpt lat="46.20754" lon="4.53975">
        <ele>625</ele>
        <time>2016-06-27T09:41:26Z</time>
      </trkpt>
      <trkpt lat="46.20754" lon="4.53979">
        <ele>625</ele>
        <time>2016-06-27T09:43:26Z</time>
      </trkpt>
      <trkpt lat="46.20753" lon="4.5399">
        <ele>625</ele>
        <time>2016-06-27T09:45:26Z</time>
      </trkpt>
      <trkpt lat="46.20752" lon="4.53999">
        <ele>625</ele>
        <time>2016-06-27T09:47:26Z</time>
      </trkpt>
      <trkpt lat="46.20751" lon="4.54013">
        <ele>627</ele>
        <time>2016-06-27T09:49:26Z</time>
      </trkpt>
      <trkpt lat="46.2075" lon="4.54042">
        <ele>629</ele>
        <time>2016-06-27T09:51:26Z</time>
      </trkpt>
      <trkpt lat="46.20749" lon="4.5408">
        <ele>630</ele>
        <time>2016-06-27T09:53:26Z</time>
      </trkpt>
      <trkpt lat="46.20747" lon="4.54138">
        <ele>629</ele>
        <time>2016-06-27T09:55:26Z</time>
      </trkpt>
      <trkpt lat="46.20743" lon="4.54209">
        <ele>632</ele>
        <time>2016-06-27T09:57:26Z</time>
      </trkpt>
      <trkpt lat="46.20741" lon="4.54263">
        <ele>637</ele>
        <time>2016-06-27T09:59:26Z</time>
      </trkpt>
      <trkpt lat="46.2074" lon="4.54292">
        <ele>636</ele>
        <time>2016-06-27T10:01:26Z</time>
      </trkpt>
      <trkpt lat="46.20739" lon="4.54322">
        <ele>641</ele>
        <time>2016-06-27T10:03:26Z</time>
      </trkpt>
      <trkpt lat="46.20739" lon="4.54348">
        <ele>642</ele>
        <time>2016-06-27T10:05:26Z</time>
      </trkpt>
      <trkpt lat="46.20739" lon="4.54378">
        <ele>640</ele>
        <time>2016-06-27T10:07:26Z</time>
      </trkpt>
      <trkpt lat="46.2074" lon="4.54399">
        <ele>643</ele>
        <time>2016-06-27T10:09:26Z</time>
      </trkpt>
      <trkpt lat="46.20744" lon="4.54419">
        <ele>648</ele>
        <time>2016-06-27T10:11:26Z</time>
      </trkpt>
      <trkpt lat="46.20748" lon="4.54438">
        <ele>643</ele>
        <time>2016-06-27T10:13:26Z</time>
      </trkpt>
      <trkpt lat="46.20751" lon="4.54456">
        <ele>651</ele>
        <time>2016-06-27T10:15:26Z</time>
      </trkpt>
      <trkpt lat="46.20754" lon="4.54466">
        <ele>650</ele>
        <time>2016-06-27T10:17:26Z</time>
      </trkpt>
      <trkpt lat="46.20756" lon="4.54481">
        <ele>648</ele>
        <time>2016-06-27T10:19:26Z</time>
      </trkpt>
      <trkpt lat="46.20758" lon="4.54493">
        <ele>647</ele>
        <time>2016-06-27T10:21:26Z</time>
      </trkpt>
      <trkpt lat="46.20758" lon="4.54503">
        <ele>645</ele>
        <time>2016-06-27T10:23:26Z</time>
      </trkpt>
      <trkpt lat="46.20759" lon="4.54514">
        <ele>647</ele>
        <time>2016-06-27T10:25:26Z</time>
      </trkpt>
      <trkpt lat="46.20758" lon="4.54527">
        <ele>648</ele>
        <time>2016-06-27T10:27:26Z</time>
      </trkpt>
      <trkpt lat="46.20757" lon="4.54544">
        <ele>648</ele>
        <time>2016-06-27T10:29:26Z</time>
      </trkpt>
      <trkpt lat="46.20754" lon="4.54567">
        <ele>647</ele>
        <time>2016-06-27T10:31:26Z</time>
      </trkpt>
      <trkpt lat="46.2075" lon="4.54585">
        <ele>645</ele>
        <time>2016-06-27T10:33:26Z</time>
      </trkpt>
      <trkpt lat="46.20747" lon="4.54607">
        <ele>641</ele>
        <time>2016-06-27T10:35:26Z</time>
      </trkpt>
      <trkpt lat="46.20746" lon="4.54618">
        <ele>641</ele>
        <time>2016-06-27T10:37:26Z</time>
      </trkpt>
      <trkpt lat="46.20744" lon="4.5464">
        <ele>642</ele>
        <time>2016-06-27T10:39:26Z</time>
      </trkpt>
      <trkpt lat="46.20744" lon="4.54661">
        <ele>645</ele>
        <time>2016-06-27T10:41:26Z</time>
      </trkpt>
      <trkpt lat="46.20745" lon="4.54697">
        <ele>643</ele>
        <time>2016-06-27T10:43:26Z</time>
      </trkpt>
      <trkpt lat="46.20748" lon="4.54761">
        <ele>647</ele>
        <time>2016-06-27T10:45:26Z</time>
      </trkpt>
      <trkpt lat="46.2075" lon="4.54787">
        <ele>655</ele>
        <time>2016-06-27T10:47:26Z</time>
      </trkpt>
      <trkpt lat="46.20751" lon="4.548">
        <ele>655</ele>
        <time>2016-06-27T10:49:26Z</time>
      </trkpt>
      <trkpt lat="46.20751" lon="4.5481">
        <ele>654</ele>
        <time>2016-06-27T10:51:26Z</time>
      </trkpt>
      <trkpt lat="46.20754" lon="4.54837">
        <ele>651</ele>
        <time>2016-06-27T10:53:26Z</time>
      </trkpt>
      <trkpt lat="46.20757" lon="4.54858">
        <ele>654</ele>
        <time>2016-06-27T10:55:26Z</time>
      </trkpt>
      <trkpt lat="46.20758" lon="4.54864">
        <ele>654</ele>
        <time>2016-06-27T10:57:26Z</time>
      </trkpt>
      <trkpt lat="46.20763" lon="4.54898">
        <ele>654</ele>
        <time>2016-06-27T10:59:26Z</time>
      </trkpt>
      <trkpt lat="46.20768" lon="4.54917">
        <ele>651</ele>
        <time>2016-06-27T11:01:26Z</time>
      </trkpt>
      <trkpt lat="46.20774" lon="4.54933">
        <ele>652</ele>
        <time>2016-06-27T11:03:26Z</time>
      </trkpt>
      <trkpt lat="46.20781" lon="4.54951">
        <ele>652</ele>
        <time>2016-06-27T11:05:26Z</time>
      </trkpt>
      <trkpt lat="46.20786" lon="4.54961">
        <ele>652</ele>
        <time>2016-06-27T11:07:26Z</time>
      </trkpt>
      <trkpt lat="46.20793" lon="4.5497">
        <ele>652</ele>
        <time>2016-06-27T11:09:26Z</time>
      </trkpt>
      <trkpt lat="46.208" lon="4.54976">
        <ele>652</ele>
        <time>2016-06-27T11:11:26Z</time>
      </trkpt>
      <trkpt lat="46.20808" lon="4.54981">
        <ele>653</ele>
        <time>2016-06-27T11:13:26Z</time>
      </trkpt>
      <trkpt lat="46.20818" lon="4.54984">
        <ele>653</ele>
        <time>2016-06-27T11:15:26Z</time>
      </trkpt>
      <trkpt lat="46.20825" lon="4.54985">
        <ele>653</ele>
        <time>2016-06-27T11:17:26Z</time>
      </trkpt>
      <trkpt lat="46.20836" lon="4.54984">
        <ele>658</ele>
        <time>2016-06-27T11:19:26Z</time>
      </trkpt>
      <trkpt lat="46.20846" lon="4.54978">
        <ele>659</ele>
        <time>2016-06-27T11:21:26Z</time>
      </trkpt>
      <trkpt lat="46.20854" lon="4.54969">
        <ele>660</ele>
        <time>2016-06-27T11:23:26Z</time>
      </trkpt>
      <trkpt lat="46.20862" lon="4.54956">
        <ele>661</ele>
        <time>2016-06-27T11:25:26Z</time>
      </trkpt>
      <trkpt lat="46.20869" lon="4.54945">
        <ele>662</ele>
        <time>2016-06-27T11:27:26Z</time>
      </trkpt>
      <trkpt lat="46.20877" lon="4.54934">
        <ele>663</ele>
        <time>2016-06-27T11:29:26Z</time>
      </trkpt>
      <trkpt lat="46.20884" lon="4.54928">
        <ele>664</ele>
        <time>2016-06-27T11:31:26Z</time>
      </trkpt>
      <trkpt lat="46.20891" lon="4.54923">
        <ele>665</ele>
        <time>2016-06-27T11:33:26Z</time>
      </trkpt>
      <trkpt lat="46.20898" lon="4.54922">
        <ele>666</ele>
        <time>2016-06-27T11:35:26Z</time>
      </trkpt>
      <trkpt lat="46.20904" lon="4.54922">
        <ele>667</ele>
        <time>2016-06-27T11:37:26Z</time>
      </trkpt>
      <trkpt lat="46.2091" lon="4.54924">
        <ele>668</ele>
        <time>2016-06-27T11:39:26Z</time>
      </trkpt>
      <trkpt lat="46.20918" lon="4.54928">
        <ele>674</ele>
        <time>2016-06-27T11:41:26Z</time>
      </trkpt>
      <trkpt lat="46.20933" lon="4.54939">
        <ele>676</ele>
        <time>2016-06-27T11:43:26Z</time>
      </trkpt>
      <trkpt lat="46.20942" lon="4.54947">
        <ele>677</ele>
        <time>2016-06-27T11:45:26Z</time>
      </trkpt>
      <trkpt lat="46.20948" lon="4.54953">
        <ele>678</ele>
        <time>2016-06-27T11:47:26Z</time>
      </trkpt>
      <trkpt lat="46.20958" lon="4.54964">
        <ele>678</ele>
        <time>2016-06-27T11:49:26Z</time>
      </trkpt>
      <trkpt lat="46.20964" lon="4.54972">
        <ele>679</ele>
        <time>2016-06-27T11:51:26Z</time>
      </trkpt>
      <trkpt lat="46.20968" lon="4.54979">
        <ele>679</ele>
        <time>2016-06-27T11:53:26Z</time>
      </trkpt>
      <trkpt lat="46.20971" lon="4.54984">
        <ele>680</ele>
        <time>2016-06-27T11:55:26Z</time>
      </trkpt>
      <trkpt lat="46.20976" lon="4.54998">
        <ele>680</ele>
        <time>2016-06-27T11:57:26Z</time>
      </trkpt>
      <trkpt lat="46.2098" lon="4.55014">
        <ele>677</ele>
        <time>2016-06-27T11:59:26Z</time>
      </trkpt>
      <trkpt lat="46.20982" lon="4.5503">
        <ele>676</ele>
        <time>2016-06-27T12:01:26Z</time>
      </trkpt>
      <trkpt lat="46.20983" lon="4.55043">
        <ele>676</ele>
        <time>2016-06-27T12:03:26Z</time>
      </trkpt>
      <trkpt lat="46.20983" lon="4.55056">
        <ele>677</ele>
        <time>2016-06-27T12:05:26Z</time>
      </trkpt>
      <trkpt lat="46.20983" lon="4.55071">
        <ele>678</ele>
        <time>2016-06-27T12:07:26Z</time>
      </trkpt>
      <trkpt lat="46.20981" lon="4.5508">
        <ele>678</ele>
        <time>2016-06-27T12:09:26Z</time>
      </trkpt>
      <trkpt lat="46.20978" lon="4.55095">
        <ele>681</ele>
        <time>2016-06-27T12:11:26Z</time>
      </trkpt>
      <trkpt lat="46.20976" lon="4.55103">
        <ele>680</ele>
        <time>2016-06-27T12:13:26Z</time>
      </trkpt>
      <trkpt lat="46.20972" lon="4.55109">
        <ele>680</ele>
        <time>2016-06-27T12:15:26Z</time>
      </trkpt>
      <trkpt lat="46.20968" lon="4.55115">
        <ele>679</ele>
        <time>2016-06-27T12:17:26Z</time>
      </trkpt>
      <trkpt lat="46.20964" lon="4.5512">
        <ele>679</ele>
        <time>2016-06-27T12:19:26Z</time>
      </trkpt>
      <trkpt lat="46.20955" lon="4.55128">
        <ele>678</ele>
        <time>2016-06-27T12:21:26Z</time>
      </trkpt>
      <trkpt lat="46.20945" lon="4.55137">
        <ele>677</ele>
        <time>2016-06-27T12:23:26Z</time>
      </trkpt>
      <trkpt lat="46.20937" lon="4.55145">
        <ele>676</ele>
        <time>2016-06-27T12:25:26Z</time>
      </trkpt>
      <trkpt lat="46.2093" lon="4.55155">
        <ele>675</ele>
        <time>2016-06-27T12:27:26Z</time>
      </trkpt>
      <trkpt lat="46.20922" lon="4.5517">
        <ele>675</ele>
        <time>2016-06-27T12:29:26Z</time>
      </trkpt>
      <trkpt lat="46.20915" lon="4.55184">
        <ele>669</ele>
        <time>2016-06-27T12:31:26Z</time>
      </trkpt>
      <trkpt lat="46.2091" lon="4.55199">
        <ele>669</ele>
        <time>2016-06-27T12:33:26Z</time>
      </trkpt>
      <trkpt lat="46.20906" lon="4.55218">
        <ele>671</ele>
        <time>2016-06-27T12:35:26Z</time>
      </trkpt>
      <trkpt lat="46.20904" lon="4.55234">
        <ele>674</ele>
        <time>2016-06-27T12:37:26Z</time>
      </trkpt>
      <trkpt lat="46.20902" lon="4.55247">
        <ele>676</ele>
        <time>2016-06-27T12:39:26Z</time>
      </trkpt>
      <trkpt lat="46.20902" lon="4.55266">
        <ele>680</ele>
        <time>2016-06-27T12:41:26Z</time>
      </trkpt>
      <trkpt lat="46.20903" lon="4.55289">
        <ele>679</ele>
        <time>2016-06-27T12:43:26Z</time>
      </trkpt>
      <trkpt lat="46.20902" lon="4.55305">
        <ele>680</ele>
        <time>2016-06-27T12:45:26Z</time>
      </trkpt>
      <trkpt lat="46.20902" lon="4.55324">
        <ele>683</ele>
        <time>2016-06-27T12:47:26Z</time>
      </trkpt>
      <trkpt lat="46.20898" lon="4.55336">
        <ele>689</ele>
        <time>2016-06-27T12:49:26Z</time>
      </trkpt>
      <trkpt lat="46.20895" lon="4.55346">
        <ele>688</ele>
        <time>2016-06-27T12:51:26Z</time>
      </trkpt>
      <trkpt lat="46.2089" lon="4.55354">
        <ele>688</ele>
        <time>2016-06-27T12:53:26Z</time>
      </trkpt>
      <trkpt lat="46.20889" lon="4.55355">
        <ele>688</ele>
        <time>2016-06-27T12:55:26Z</time>
      </trkpt>
      <trkpt lat="46.20882" lon="4.55363">
        <ele>688</ele>
        <time>2016-06-27T12:57:26Z</time>
      </trkpt>
      <trkpt lat="46.20874" lon="4.55372">
        <ele>688</ele>
        <time>2016-06-27T12:59:26Z</time>
      </trkpt>
      <trkpt lat="46.2086" lon="4.55386">
        <ele>687</ele>
        <time>2016-06-27T13:01:26Z</time>
      </trkpt>
      <trkpt lat="46.20848" lon="4.55396">
        <ele>687</ele>
        <time>2016-06-27T13:03:26Z</time>
      </trkpt>
      <trkpt lat="46.20836" lon="4.55408">
        <ele>687</ele>
        <time>2016-06-27T13:05:26Z</time>
      </trkpt>
      <trkpt lat="46.20819" lon="4.55424">
        <ele>687</ele>
        <time>2016-06-27T13:07:26Z</time>
      </trkpt>
      <trkpt lat="46.20802" lon="4.5544">
        <ele>687</ele>
        <time>2016-06-27T13:09:26Z</time>
      </trkpt>
      <trkpt lat="46.20782" lon="4.55461">
        <ele>687</ele>
        <time>2016-06-27T13:11:26Z</time>
      </trkpt>
      <trkpt lat="46.2077" lon="4.55482">
        <ele>687</ele>
        <time>2016-06-27T13:13:26Z</time>
      </trkpt>
      <trkpt lat="46.20761" lon="4.55507">
        <ele>692</ele>
        <time>2016-06-27T13:15:26Z</time>
      </trkpt>
      <trkpt lat="46.20754" lon="4.55528">
        <ele>696</ele>
        <time>2016-06-27T13:17:26Z</time>
      </trkpt>
      <trkpt lat="46.2075" lon="4.55539">
        <ele>698</ele>
        <time>2016-06-27T13:19:26Z</time>
      </trkpt>
      <trkpt lat="46.20745" lon="4.5556">
        <ele>686</ele>
        <time>2016-06-27T13:21:26Z</time>
      </trkpt>
      <trkpt lat="46.2074" lon="4.55582">
        <ele>691</ele>
        <time>2016-06-27T13:23:26Z</time>
      </trkpt>
      <trkpt lat="46.20736" lon="4.55602">
        <ele>690</ele>
        <time>2016-06-27T13:25:26Z</time>
      </trkpt>
      <trkpt lat="46.20732" lon="4.5564">
        <ele>690</ele>
        <time>2016-06-27T13:27:26Z</time>
      </trkpt>
      <trkpt lat="46.2073" lon="4.55685">
        <ele>693</ele>
        <time>2016-06-27T13:29:26Z</time>
      </trkpt>
      <trkpt lat="46.20727" lon="4.5572">
        <ele>693</ele>
        <time>2016-06-27T13:31:26Z</time>
      </trkpt>
      <trkpt lat="46.20722" lon="4.55754">
        <ele>696</ele>
        <time>2016-06-27T13:33:26Z</time>
      </trkpt>
      <trkpt lat="46.20717" lon="4.55775">
        <ele>695</ele>
        <time>2016-06-27T13:35:26Z</time>
      </trkpt>
      <trkpt lat="46.20709" lon="4.55804">
        <ele>695</ele>
        <time>2016-06-27T13:37:26Z</time>
      </trkpt>
      <trkpt lat="46.20702" lon="4.55831">
        <ele>694</ele>
        <time>2016-06-27T13:39:26Z</time>
      </trkpt>
      <trkpt lat="46.20695" lon="4.55858">
        <ele>701</ele>
        <time>2016-06-27T13:41:26Z</time>
      </trkpt>
      <trkpt lat="46.2069" lon="4.5588">
        <ele>702</ele>
        <time>2016-06-27T13:43:26Z</time>
      </trkpt>
      <trkpt lat="46.20687" lon="4.55891">
        <ele>703</ele>
        <time>2016-06-27T13:45:26Z</time>
      </trkpt>
      <trkpt lat="46.20682" lon="4.55909">
        <ele>703</ele>
        <time>2016-06-27T13:47:26Z</time>
      </trkpt>
      <trkpt lat="46.20675" lon="4.55929">
        <ele>709</ele>
        <time>2016-06-27T13:49:26Z</time>
      </trkpt>
      <trkpt lat="46.20667" lon="4.55948">
        <ele>714</ele>
        <time>2016-06-27T13:51:26Z</time>
      </trkpt>
      <trkpt lat="46.20658" lon="4.55965">
        <ele>701</ele>
        <time>2016-06-27T13:53:26Z</time>
      </trkpt>
      <trkpt lat="46.20648" lon="4.55981">
        <ele>702</ele>
        <time>2016-06-27T13:55:26Z</time>
      </trkpt>
      <trkpt lat="46.20639" lon="4.55998">
        <ele>702</ele>
        <time>2016-06-27T13:57:26Z</time>
      </trkpt>
      <trkpt lat="46.20631" lon="4.56016">
        <ele>708</ele>
        <time>2016-06-27T13:59:26Z</time>
      </trkpt>
      <trkpt lat="46.20624" lon="4.56033">
        <ele>707</ele>
        <time>2016-06-27T14:01:26Z</time>
      </trkpt>
      <trkpt lat="46.20618" lon="4.56052">
        <ele>707</ele>
        <time>2016-06-27T14:03:26Z</time>
      </trkpt>
      <trkpt lat="46.20615" lon="4.56071">
        <ele>707</ele>
        <time>2016-06-27T14:05:26Z</time>
      </trkpt>
      <trkpt lat="46.20613" lon="4.56091">
        <ele>711</ele>
        <time>2016-06-27T14:07:26Z</time>
      </trkpt>
      <trkpt lat="46.20612" lon="4.5611">
        <ele>712</ele>
        <time>2016-06-27T14:09:26Z</time>
      </trkpt>
      <trkpt lat="46.20611" lon="4.5613">
        <ele>713</ele>
        <time>2016-06-27T14:11:26Z</time>
      </trkpt>
      <trkpt lat="46.20611" lon="4.56149">
        <ele>713</ele>
        <time>2016-06-27T14:13:26Z</time>
      </trkpt>
      <trkpt lat="46.20613" lon="4.56167">
        <ele>714</ele>
        <time>2016-06-27T14:15:26Z</time>
      </trkpt>
      <trkpt lat="46.20615" lon="4.56184">
        <ele>715</ele>
        <time>2016-06-27T14:17:26Z</time>
      </trkpt>
      <trkpt lat="46.20618" lon="4.56198">
        <ele>715</ele>
        <time>2016-06-27T14:19:26Z</time>
      </trkpt>
      <trkpt lat="46.20622" lon="4.56211">
        <ele>715</ele>
        <time>2016-06-27T14:21:26Z</time>
      </trkpt>
      <trkpt lat="46.20627" lon="4.56223">
        <ele>715</ele>
        <time>2016-06-27T14:23:26Z</time>
      </trkpt>
      <trkpt lat="46.20632" lon="4.56235">
        <ele>715</ele>
        <time>2016-06-27T14:25:26Z</time>
      </trkpt>
      <trkpt lat="46.20639" lon="4.56245">
        <ele>716</ele>
        <time>2016-06-27T14:27:26Z</time>
      </trkpt>
      <trkpt lat="46.20647" lon="4.56256">
        <ele>715</ele>
        <time>2016-06-27T14:29:26Z</time>
      </trkpt>
      <trkpt lat="46.20654" lon="4.56267">
        <ele>715</ele>
        <time>2016-06-27T14:31:26Z</time>
      </trkpt>
      <trkpt lat="46.20657" lon="4.56274">
        <ele>715</ele>
        <time>2016-06-27T14:33:26Z</time>
      </trkpt>
      <trkpt lat="46.20661" lon="4.5628">
        <ele>715</ele>
        <time>2016-06-27T14:35:26Z</time>
      </trkpt>
      <trkpt lat="46.20663" lon="4.56293">
        <ele>714</ele>
        <time>2016-06-27T14:37:26Z</time>
      </trkpt>
      <trkpt lat="46.20664" lon="4.56307">
        <ele>714</ele>
        <time>2016-06-27T14:39:26Z</time>
      </trkpt>
      <trkpt lat="46.20665" lon="4.56325">
        <ele>714</ele>
        <time>2016-06-27T14:41:26Z</time>
      </trkpt>
      <trkpt lat="46.20665" lon="4.56347">
        <ele>713</ele>
        <time>2016-06-27T14:43:26Z</time>
      </trkpt>
      <trkpt lat="46.20665" lon="4.56355">
        <ele>713</ele>
        <time>2016-06-27T14:45:26Z</time>
      </trkpt>
      <trkpt lat="46.20665" lon="4.56355">
        <ele>713</ele>
        <time>2016-06-27T14:47:26Z</time>
      </trkpt>
      <trkpt lat="46.20655" lon="4.56366">
        <ele>713</ele>
        <time>2016-06-27T14:49:26Z</time>
      </trkpt>
      <trkpt lat="46.20636" lon="4.56388">
        <ele>713</ele>
        <time>2016-06-27T14:51:26Z</time>
      </trkpt>
      <trkpt lat="46.20635" lon="4.56389">
        <ele>713</ele>
        <time>2016-06-27T14:53:26Z</time>
      </trkpt>
      <trkpt lat="46.20628" lon="4.56406">
        <ele>713</ele>
        <time>2016-06-27T14:55:26Z</time>
      </trkpt>
      <trkpt lat="46.20615" lon="4.5642">
        <ele>711</ele>
        <time>2016-06-27T14:57:26Z</time>
      </trkpt>
      <trkpt lat="46.20606" lon="4.56431">
        <ele>711</ele>
        <time>2016-06-27T14:59:26Z</time>
      </trkpt>
      <trkpt lat="46.20594" lon="4.56444">
        <ele>711</ele>
        <time>2016-06-27T15:01:26Z</time>
      </trkpt>
      <trkpt lat="46.20585" lon="4.56455">
        <ele>710</ele>
        <time>2016-06-27T15:03:26Z</time>
      </trkpt>
      <trkpt lat="46.20576" lon="4.56465">
        <ele>712</ele>
        <time>2016-06-27T15:05:26Z</time>
      </trkpt>
      <trkpt lat="46.20568" lon="4.56474">
        <ele>712</ele>
        <time>2016-06-27T15:07:26Z</time>
      </trkpt>
      <trkpt lat="46.20562" lon="4.56482">
        <ele>712</ele>
        <time>2016-06-27T15:09:26Z</time>
      </trkpt>
      <trkpt lat="46.20555" lon="4.56491">
        <ele>713</ele>
        <time>2016-06-27T15:11:26Z</time>
      </trkpt>
      <trkpt lat="46.20549" lon="4.565">
        <ele>713</ele>
        <time>2016-06-27T15:13:26Z</time>
      </trkpt>
      <trkpt lat="46.20544" lon="4.5651">
        <ele>713</ele>
        <time>2016-06-27T15:15:26Z</time>
      </trkpt>
      <trkpt lat="46.20538" lon="4.5652">
        <ele>714</ele>
        <time>2016-06-27T15:17:26Z</time>
      </trkpt>
      <trkpt lat="46.20533" lon="4.5653">
        <ele>714</ele>
        <time>2016-06-27T15:19:26Z</time>
      </trkpt>
      <trkpt lat="46.20529" lon="4.5654">
        <ele>714</ele>
        <time>2016-06-27T15:21:26Z</time>
      </trkpt>
      <trkpt lat="46.20524" lon="4.5655">
        <ele>714</ele>
        <time>2016-06-27T15:23:26Z</time>
      </trkpt>
      <trkpt lat="46.20519" lon="4.56561">
        <ele>715</ele>
        <time>2016-06-27T15:25:26Z</time>
      </trkpt>
      <trkpt lat="46.20515" lon="4.56571">
        <ele>716</ele>
        <time>2016-06-27T15:27:26Z</time>
      </trkpt>
      <trkpt lat="46.20511" lon="4.56581">
        <ele>716</ele>
        <time>2016-06-27T15:29:26Z</time>
      </trkpt>
      <trkpt lat="46.20507" lon="4.56591">
        <ele>717</ele>
        <time>2016-06-27T15:31:26Z</time>
      </trkpt>
      <trkpt lat="46.20503" lon="4.56602">
        <ele>717</ele>
        <time>2016-06-27T15:33:26Z</time>
      </trkpt>
      <trkpt lat="46.20499" lon="4.56612">
        <ele>722</ele>
        <time>2016-06-27T15:35:26Z</time>
      </trkpt>
      <trkpt lat="46.20496" lon="4.56622">
        <ele>722</ele>
        <time>2016-06-27T15:37:26Z</time>
      </trkpt>
      <trkpt lat="46.20493" lon="4.56632">
        <ele>723</ele>
        <time>2016-06-27T15:39:26Z</time>
      </trkpt>
      <trkpt lat="46.20491" lon="4.56643">
        <ele>723</ele>
        <time>2016-06-27T15:41:26Z</time>
      </trkpt>
      <trkpt lat="46.20489" lon="4.56654">
        <ele>722</ele>
        <time>2016-06-27T15:43:26Z</time>
      </trkpt>
      <trkpt lat="46.20487" lon="4.56665">
        <ele>722</ele>
        <time>2016-06-27T15:45:26Z</time>
      </trkpt>
      <trkpt lat="46.20486" lon="4.56676">
        <ele>723</ele>
        <time>2016-06-27T15:47:26Z</time>
      </trkpt>
      <trkpt lat="46.20486" lon="4.56687">
        <ele>724</ele>
        <time>2016-06-27T15:49:26Z</time>
      </trkpt>
      <trkpt lat="46.20486" lon="4.56699">
        <ele>725</ele>
        <time>2016-06-27T15:51:26Z</time>
      </trkpt>
      <trkpt lat="46.20488" lon="4.56723">
        <ele>725</ele>
        <time>2016-06-27T15:53:26Z</time>
      </trkpt>
      <trkpt lat="46.20488" lon="4.56737">
        <ele>725</ele>
        <time>2016-06-27T15:55:26Z</time>
      </trkpt>
      <trkpt lat="46.20489" lon="4.5675">
        <ele>725</ele>
        <time>2016-06-27T15:57:26Z</time>
      </trkpt>
      <trkpt lat="46.2049" lon="4.56778">
        <ele>727</ele>
        <time>2016-06-27T15:59:26Z</time>
      </trkpt>
      <trkpt lat="46.20493" lon="4.56832">
        <ele>727</ele>
        <time>2016-06-27T16:01:26Z</time>
      </trkpt>
      <trkpt lat="46.20493" lon="4.5686">
        <ele>731</ele>
        <time>2016-06-27T16:03:26Z</time>
      </trkpt>
      <trkpt lat="46.20493" lon="4.56886">
        <ele>732</ele>
        <time>2016-06-27T16:05:26Z</time>
      </trkpt>
      <trkpt lat="46.20489" lon="4.57076">
        <ele>740</ele>
        <time>2016-06-27T16:07:26Z</time>
      </trkpt>
      <trkpt lat="46.20488" lon="4.57169">
        <ele>749</ele>
        <time>2016-06-27T16:09:26Z</time>
      </trkpt>
      <trkpt lat="46.20488" lon="4.57194">
        <ele>752</ele>
        <time>2016-06-27T16:11:26Z</time>
      </trkpt>
      <trkpt lat="46.20488" lon="4.57205">
        <ele>753</ele>
        <time>2016-06-27T16:13:26Z</time>
      </trkpt>
      <trkpt lat="46.20488" lon="4.57216">
        <ele>754</ele>
        <time>2016-06-27T16:15:26Z</time>
      </trkpt>
      <trkpt lat="46.20487" lon="4.57227">
        <ele>754</ele>
        <time>2016-06-27T16:17:26Z</time>
      </trkpt>
      <trkpt lat="46.20486" lon="4.57236">
        <ele>754</ele>
        <time>2016-06-27T16:19:26Z</time>
      </trkpt>
      <trkpt lat="46.20483" lon="4.57254">
        <ele>756</ele>
        <time>2016-06-27T16:21:26Z</time>
      </trkpt>
      <trkpt lat="46.2048" lon="4.57267">
        <ele>757</ele>
        <time>2016-06-27T16:23:26Z</time>
      </trkpt>
      <trkpt lat="46.20474" lon="4.57284">
        <ele>758</ele>
        <time>2016-06-27T16:25:26Z</time>
      </trkpt>
      <trkpt lat="46.20467" lon="4.57298">
        <ele>759</ele>
        <time>2016-06-27T16:27:26Z</time>
      </trkpt>
      <trkpt lat="46.20453" lon="4.57317">
        <ele>760</ele>
        <time>2016-06-27T16:29:26Z</time>
      </trkpt>
      <trkpt lat="46.20442" lon="4.57329">
        <ele>760</ele>
        <time>2016-06-27T16:31:26Z</time>
      </trkpt>
      <trkpt lat="46.20434" lon="4.57335">
        <ele>760</ele>
        <time>2016-06-27T16:33:26Z</time>
      </trkpt>
      <trkpt lat="46.20427" lon="4.5734">
        <ele>760</ele>
        <time>2016-06-27T16:35:26Z</time>
      </trkpt>
      <trkpt lat="46.2042" lon="4.57343">
        <ele>760</ele>
        <time>2016-06-27T16:37:26Z</time>
      </trkpt>
      <trkpt lat="46.20417" lon="4.57344">
        <ele>760</ele>
        <time>2016-06-27T16:39:26Z</time>
      </trkpt>
      <trkpt lat="46.20409" lon="4.57347">
        <ele>758</ele>
        <time>2016-06-27T16:41:26Z</time>
      </trkpt>
      <trkpt lat="46.204" lon="4.57348">
        <ele>757</ele>
        <time>2016-06-27T16:43:26Z</time>
      </trkpt>
      <trkpt lat="46.2039" lon="4.57347">
        <ele>757</ele>
        <time>2016-06-27T16:45:26Z</time>
      </trkpt>
      <trkpt lat="46.20378" lon="4.57344">
        <ele>756</ele>
        <time>2016-06-27T16:47:26Z</time>
      </trkpt>
      <trkpt lat="46.20368" lon="4.5734">
        <ele>756</ele>
        <time>2016-06-27T16:49:26Z</time>
      </trkpt>
      <trkpt lat="46.20355" lon="4.57337">
        <ele>755</ele>
        <time>2016-06-27T16:51:26Z</time>
      </trkpt>
      <trkpt lat="46.20327" lon="4.57332">
        <ele>754</ele>
        <time>2016-06-27T16:53:26Z</time>
      </trkpt>
      <trkpt lat="46.20316" lon="4.57331">
        <ele>754</ele>
        <time>2016-06-27T16:55:26Z</time>
      </trkpt>
      <trkpt lat="46.20302" lon="4.57331">
        <ele>753</ele>
        <time>2016-06-27T16:57:26Z</time>
      </trkpt>
      <trkpt lat="46.20293" lon="4.57333">
        <ele>752</ele>
        <time>2016-06-27T16:59:26Z</time>
      </trkpt>
      <trkpt lat="46.20284" lon="4.57336">
        <ele>749</ele>
        <time>2016-06-27T17:01:26Z</time>
      </trkpt>
      <trkpt lat="46.20278" lon="4.57339">
        <ele>748</ele>
        <time>2016-06-27T17:03:26Z</time>
      </trkpt>
      <trkpt lat="46.20277" lon="4.5734">
        <ele>748</ele>
        <time>2016-06-27T17:05:26Z</time>
      </trkpt>
      <trkpt lat="46.2027" lon="4.57347">
        <ele>748</ele>
        <time>2016-06-27T17:07:26Z</time>
      </trkpt>
      <trkpt lat="46.20263" lon="4.57355">
        <ele>748</ele>
        <time>2016-06-27T17:09:26Z</time>
      </trkpt>
      <trkpt lat="46.20257" lon="4.57362">
        <ele>747</ele>
        <time>2016-06-27T17:11:26Z</time>
      </trkpt>
      <trkpt lat="46.20253" lon="4.5737">
        <ele>747</ele>
        <time>2016-06-27T17:13:26Z</time>
      </trkpt>
      <trkpt lat="46.20247" lon="4.57381">
        <ele>744</ele>
        <time>2016-06-27T17:15:26Z</time>
      </trkpt>
      <trkpt lat="46.20243" lon="4.57391">
        <ele>744</ele>
        <time>2016-06-27T17:17:26Z</time>
      </trkpt>
      <trkpt lat="46.20241" lon="4.57399">
        <ele>743</ele>
        <time>2016-06-27T17:19:26Z</time>
      </trkpt>
      <trkpt lat="46.20239" lon="4.57407">
        <ele>743</ele>
        <time>2016-06-27T17:21:26Z</time>
      </trkpt>
      <trkpt lat="46.20236" lon="4.57421">
        <ele>741</ele>
        <time>2016-06-27T17:23:26Z</time>
      </trkpt>
      <trkpt lat="46.20235" lon="4.57434">
        <ele>741</ele>
        <time>2016-06-27T17:25:26Z</time>
      </trkpt>
      <trkpt lat="46.20234" lon="4.57455">
        <ele>740</ele>
        <time>2016-06-27T17:27:26Z</time>
      </trkpt>
      <trkpt lat="46.20233" lon="4.57464">
        <ele>740</ele>
        <time>2016-06-27T17:29:26Z</time>
      </trkpt>
      <trkpt lat="46.20232" lon="4.57475">
        <ele>739</ele>
        <time>2016-06-27T17:31:26Z</time>
      </trkpt>
      <trkpt lat="46.2023" lon="4.57486">
        <ele>739</ele>
        <time>2016-06-27T17:33:26Z</time>
      </trkpt>
      <trkpt lat="46.20228" lon="4.57496">
        <ele>739</ele>
        <time>2016-06-27T17:35:26Z</time>
      </trkpt>
      <trkpt lat="46.20226" lon="4.57506">
        <ele>737</ele>
        <time>2016-06-27T17:37:26Z</time>
      </trkpt>
      <trkpt lat="46.20222" lon="4.57525">
        <ele>737</ele>
        <time>2016-06-27T17:39:26Z</time>
      </trkpt>
      <trkpt lat="46.20218" lon="4.57537">
        <ele>736</ele>
        <time>2016-06-27T17:41:26Z</time>
      </trkpt>
      <trkpt lat="46.20212" lon="4.57556">
        <ele>736</ele>
        <time>2016-06-27T17:43:26Z</time>
      </trkpt>
      <trkpt lat="46.20208" lon="4.57569">
        <ele>736</ele>
        <time>2016-06-27T17:45:26Z</time>
      </trkpt>
      <trkpt lat="46.20202" lon="4.57583">
        <ele>736</ele>
        <time>2016-06-27T17:47:26Z</time>
      </trkpt>
      <trkpt lat="46.20197" lon="4.57595">
        <ele>732</ele>
        <time>2016-06-27T17:49:26Z</time>
      </trkpt>
      <trkpt lat="46.20192" lon="4.57605">
        <ele>732</ele>
        <time>2016-06-27T17:51:26Z</time>
      </trkpt>
      <trkpt lat="46.20187" lon="4.57615">
        <ele>732</ele>
        <time>2016-06-27T17:53:26Z</time>
      </trkpt>
      <trkpt lat="46.20181" lon="4.57623">
        <ele>731</ele>
        <time>2016-06-27T17:55:26Z</time>
      </trkpt>
      <trkpt lat="46.20175" lon="4.5763">
        <ele>731</ele>
        <time>2016-06-27T17:57:26Z</time>
      </trkpt>
      <trkpt lat="46.20166" lon="4.57639">
        <ele>731</ele>
        <time>2016-06-27T17:59:26Z</time>
      </trkpt>
      <trkpt lat="46.20157" lon="4.57647">
        <ele>731</ele>
        <time>2016-06-27T18:01:26Z</time>
      </trkpt>
      <trkpt lat="46.20148" lon="4.57657">
        <ele>730</ele>
        <time>2016-06-27T18:03:26Z</time>
      </trkpt>
      <trkpt lat="46.20142" lon="4.57666">
        <ele>730</ele>
        <time>2016-06-27T18:05:26Z</time>
      </trkpt>
      <trkpt lat="46.20137" lon="4.57675">
        <ele>726</ele>
        <time>2016-06-27T18:07:26Z</time>
      </trkpt>
      <trkpt lat="46.20132" lon="4.57683">
        <ele>726</ele>
        <time>2016-06-27T18:09:26Z</time>
      </trkpt>
      <trkpt lat="46.20129" lon="4.57691">
        <ele>726</ele>
        <time>2016-06-27T18:11:26Z</time>
      </trkpt>
      <trkpt lat="46.20125" lon="4.577">
        <ele>726</ele>
        <time>2016-06-27T18:13:26Z</time>
      </trkpt>
      <trkpt lat="46.20111" lon="4.57737">
        <ele>724</ele>
        <time>2016-06-27T18:15:26Z</time>
      </trkpt>
      <trkpt lat="46.20108" lon="4.57747">
        <ele>724</ele>
        <time>2016-06-27T18:17:26Z</time>
      </trkpt>
      <trkpt lat="46.20103" lon="4.57757">
        <ele>719</ele>
        <time>2016-06-27T18:19:26Z</time>
      </trkpt>
      <trkpt lat="46.20099" lon="4.57765">
        <ele>719</ele>
        <time>2016-06-27T18:21:26Z</time>
      </trkpt>
      <trkpt lat="46.20091" lon="4.57774">
        <ele>718</ele>
        <time>2016-06-27T18:23:26Z</time>
      </trkpt>
      <trkpt lat="46.20087" lon="4.5778">
        <ele>718</ele>
        <time>2016-06-27T18:25:26Z</time>
      </trkpt>
      <trkpt lat="46.20083" lon="4.57783">
        <ele>723</ele>
        <time>2016-06-27T18:27:26Z</time>
      </trkpt>
      <trkpt lat="46.20075" lon="4.57788">
        <ele>723</ele>
        <time>2016-06-27T18:29:26Z</time>
      </trkpt>
      <trkpt lat="46.20065" lon="4.57796">
        <ele>723</ele>
        <time>2016-06-27T18:31:26Z</time>
      </trkpt>
      <trkpt lat="46.20055" lon="4.57802">
        <ele>724</ele>
        <time>2016-06-27T18:33:26Z</time>
      </trkpt>
      <trkpt lat="46.2005" lon="4.57806">
        <ele>724</ele>
        <time>2016-06-27T18:35:26Z</time>
      </trkpt>
      <trkpt lat="46.20046" lon="4.5781">
        <ele>724</ele>
        <time>2016-06-27T18:37:26Z</time>
      </trkpt>
      <trkpt lat="46.20041" lon="4.57816">
        <ele>725</ele>
        <time>2016-06-27T18:39:26Z</time>
      </trkpt>
      <trkpt lat="46.20036" lon="4.57823">
        <ele>725</ele>
        <time>2016-06-27T18:41:26Z</time>
      </trkpt>
      <trkpt lat="46.20032" lon="4.5783">
        <ele>726</ele>
        <time>2016-06-27T18:43:26Z</time>
      </trkpt>
      <trkpt lat="46.20029" lon="4.57837">
        <ele>721</ele>
        <time>2016-06-27T18:45:26Z</time>
      </trkpt>
      <trkpt lat="46.20026" lon="4.57847">
        <ele>721</ele>
        <time>2016-06-27T18:47:26Z</time>
      </trkpt>
      <trkpt lat="46.20024" lon="4.57856">
        <ele>720</ele>
        <time>2016-06-27T18:49:26Z</time>
      </trkpt>
      <trkpt lat="46.20022" lon="4.57865">
        <ele>719</ele>
        <time>2016-06-27T18:51:26Z</time>
      </trkpt>
      <trkpt lat="46.20021" lon="4.57881">
        <ele>719</ele>
        <time>2016-06-27T18:53:26Z</time>
      </trkpt>
      <trkpt lat="46.2002" lon="4.57896">
        <ele>718</ele>
        <time>2016-06-27T18:55:26Z</time>
      </trkpt>
      <trkpt lat="46.20019" lon="4.57901">
        <ele>719</ele>
        <time>2016-06-27T18:57:26Z</time>
      </trkpt>
      <trkpt lat="46.20019" lon="4.57927">
        <ele>715</ele>
        <time>2016-06-27T18:59:26Z</time>
      </trkpt>
      <trkpt lat="46.20015" lon="4.57982">
        <ele>713</ele>
        <time>2016-06-27T19:01:26Z</time>
      </trkpt>
      <trkpt lat="46.2001" lon="4.58015">
        <ele>711</ele>
        <time>2016-06-27T19:03:26Z</time>
      </trkpt>
      <trkpt lat="46.20007" lon="4.58035">
        <ele>707</ele>
        <time>2016-06-27T19:05:26Z</time>
      </trkpt>
      <trkpt lat="46.20004" lon="4.58046">
        <ele>707</ele>
        <time>2016-06-27T19:07:26Z</time>
      </trkpt>
      <trkpt lat="46.20001" lon="4.58056">
        <ele>707</ele>
        <time>2016-06-27T19:09:26Z</time>
      </trkpt>
      <trkpt lat="46.19993" lon="4.58078">
        <ele>717</ele>
        <time>2016-06-27T19:11:26Z</time>
      </trkpt>
      <trkpt lat="46.1999" lon="4.58086">
        <ele>715</ele>
        <time>2016-06-27T19:13:26Z</time>
      </trkpt>
      <trkpt lat="46.19986" lon="4.58098">
        <ele>716</ele>
        <time>2016-06-27T19:15:26Z</time>
      </trkpt>
      <trkpt lat="46.19981" lon="4.5811">
        <ele>717</ele>
        <time>2016-06-27T19:17:26Z</time>
      </trkpt>
      <trkpt lat="46.19958" lon="4.58162">
        <ele>718</ele>
        <time>2016-06-27T19:19:26Z</time>
      </trkpt>
      <trkpt lat="46.1994" lon="4.58199">
        <ele>709</ele>
        <time>2016-06-27T19:21:26Z</time>
      </trkpt>
      <trkpt lat="46.19912" lon="4.58259">
        <ele>708</ele>
        <time>2016-06-27T19:23:26Z</time>
      </trkpt>
      <trkpt lat="46.1989" lon="4.58311">
        <ele>704</ele>
        <time>2016-06-27T19:25:26Z</time>
      </trkpt>
      <trkpt lat="46.19882" lon="4.58329">
        <ele>704</ele>
        <time>2016-06-27T19:27:26Z</time>
      </trkpt>
      <trkpt lat="46.19875" lon="4.58346">
        <ele>694</ele>
        <time>2016-06-27T19:29:26Z</time>
      </trkpt>
      <trkpt lat="46.19865" lon="4.58365">
        <ele>693</ele>
        <time>2016-06-27T19:31:26Z</time>
      </trkpt>
      <trkpt lat="46.19861" lon="4.58374">
        <ele>693</ele>
        <time>2016-06-27T19:33:26Z</time>
      </trkpt>
      <trkpt lat="46.19844" lon="4.5841">
        <ele>692</ele>
        <time>2016-06-27T19:35:26Z</time>
      </trkpt>
      <trkpt lat="46.1984" lon="4.58417">
        <ele>689</ele>
        <time>2016-06-27T19:37:26Z</time>
      </trkpt>
      <trkpt lat="46.19836" lon="4.58424">
        <ele>688</ele>
        <time>2016-06-27T19:39:26Z</time>
      </trkpt>
      <trkpt lat="46.19832" lon="4.5843">
        <ele>688</ele>
        <time>2016-06-27T19:41:26Z</time>
      </trkpt>
      <trkpt lat="46.19828" lon="4.58436">
        <ele>686</ele>
        <time>2016-06-27T19:43:26Z</time>
      </trkpt>
      <trkpt lat="46.19823" lon="4.58441">
        <ele>685</ele>
        <time>2016-06-27T19:45:26Z</time>
      </trkpt>
      <trkpt lat="46.1982" lon="4.58444">
        <ele>684</ele>
        <time>2016-06-27T19:47:26Z</time>
      </trkpt>
      <trkpt lat="46.19819" lon="4.58444">
        <ele>684</ele>
        <time>2016-06-27T19:49:26Z</time>
      </trkpt>
      <trkpt lat="46.19813" lon="4.58447">
        <ele>683</ele>
        <time>2016-06-27T19:51:26Z</time>
      </trkpt>
      <trkpt lat="46.19802" lon="4.58449">
        <ele>682</ele>
        <time>2016-06-27T19:53:26Z</time>
      </trkpt>
      <trkpt lat="46.19795" lon="4.58447">
        <ele>682</ele>
        <time>2016-06-27T19:55:26Z</time>
      </trkpt>
      <trkpt lat="46.19782" lon="4.58441">
        <ele>682</ele>
        <time>2016-06-27T19:57:26Z</time>
      </trkpt>
      <trkpt lat="46.19771" lon="4.58432">
        <ele>682</ele>
        <time>2016-06-27T19:59:26Z</time>
      </trkpt>
      <trkpt lat="46.19762" lon="4.58423">
        <ele>683</ele>
        <time>2016-06-27T20:01:26Z</time>
      </trkpt>
      <trkpt lat="46.19751" lon="4.58409">
        <ele>689</ele>
        <time>2016-06-27T20:03:26Z</time>
      </trkpt>
      <trkpt lat="46.19737" lon="4.5839">
        <ele>687</ele>
        <time>2016-06-27T20:05:26Z</time>
      </trkpt>
      <trkpt lat="46.19731" lon="4.58381">
        <ele>688</ele>
        <time>2016-06-27T20:07:26Z</time>
      </trkpt>
      <trkpt lat="46.19726" lon="4.58377">
        <ele>689</ele>
        <time>2016-06-27T20:09:26Z</time>
      </trkpt>
      <trkpt lat="46.19722" lon="4.58373">
        <ele>689</ele>
        <time>2016-06-27T20:11:26Z</time>
      </trkpt>
      <trkpt lat="46.19714" lon="4.58368">
        <ele>689</ele>
        <time>2016-06-27T20:13:26Z</time>
      </trkpt>
      <trkpt lat="46.19709" lon="4.58366">
        <ele>689</ele>
        <time>2016-06-27T20:15:26Z</time>
      </trkpt>
      <trkpt lat="46.19699" lon="4.58364">
        <ele>688</ele>
        <time>2016-06-27T20:17:26Z</time>
      </trkpt>
      <trkpt lat="46.19676" lon="4.58365">
        <ele>687</ele>
        <time>2016-06-27T20:19:26Z</time>
      </trkpt>
      <trkpt lat="46.19657" lon="4.58366">
        <ele>680</ele>
        <time>2016-06-27T20:21:26Z</time>
      </trkpt>
      <trkpt lat="46.19613" lon="4.58367">
        <ele>679</ele>
        <time>2016-06-27T20:23:26Z</time>
      </trkpt>
      <trkpt lat="46.19589" lon="4.58369">
        <ele>679</ele>
        <time>2016-06-27T20:25:26Z</time>
      </trkpt>
      <trkpt lat="46.19552" lon="4.58369">
        <ele>676</ele>
        <time>2016-06-27T20:27:26Z</time>
      </trkpt>
      <trkpt lat="46.19523" lon="4.58369">
        <ele>676</ele>
        <time>2016-06-27T20:29:26Z</time>
      </trkpt>
      <trkpt lat="46.19496" lon="4.5837">
        <ele>677</ele>
        <time>2016-06-27T20:31:26Z</time>
      </trkpt>
      <trkpt lat="46.19479" lon="4.5837">
        <ele>677</ele>
        <time>2016-06-27T20:33:26Z</time>
      </trkpt>
      <trkpt lat="46.19464" lon="4.58372">
        <ele>677</ele>
        <time>2016-06-27T20:35:26Z</time>
      </trkpt>
      <trkpt lat="46.19459" lon="4.58373">
        <ele>677</ele>
        <time>2016-06-27T20:37:26Z</time>
      </trkpt>
      <trkpt lat="46.19455" lon="4.58375">
        <ele>677</ele>
        <time>2016-06-27T20:39:26Z</time>
      </trkpt>
      <trkpt lat="46.19452" lon="4.58378">
        <ele>676</ele>
        <time>2016-06-27T20:41:26Z</time>
      </trkpt>
      <trkpt lat="46.19449" lon="4.58383">
        <ele>676</ele>
        <time>2016-06-27T20:43:26Z</time>
      </trkpt>
      <trkpt lat="46.19447" lon="4.58389">
        <ele>676</ele>
        <time>2016-06-27T20:45:26Z</time>
      </trkpt>
      <trkpt lat="46.19446" lon="4.58395">
        <ele>675</ele>
        <time>2016-06-27T20:47:26Z</time>
      </trkpt>
      <trkpt lat="46.19446" lon="4.58403">
        <ele>675</ele>
        <time>2016-06-27T20:49:26Z</time>
      </trkpt>
      <trkpt lat="46.19447" lon="4.58409">
        <ele>675</ele>
        <time>2016-06-27T20:51:26Z</time>
      </trkpt>
      <trkpt lat="46.1945" lon="4.58416">
        <ele>674</ele>
        <time>2016-06-27T20:53:26Z</time>
      </trkpt>
      <trkpt lat="46.19454" lon="4.5842">
        <ele>672</ele>
        <time>2016-06-27T20:55:26Z</time>
      </trkpt>
      <trkpt lat="46.19462" lon="4.58428">
        <ele>671</ele>
        <time>2016-06-27T20:57:26Z</time>
      </trkpt>
      <trkpt lat="46.19484" lon="4.58442">
        <ele>670</ele>
        <time>2016-06-27T20:59:26Z</time>
      </trkpt>
      <trkpt lat="46.19517" lon="4.58466">
        <ele>662</ele>
        <time>2016-06-27T21:01:26Z</time>
      </trkpt>
      <trkpt lat="46.19526" lon="4.58474">
        <ele>661</ele>
        <time>2016-06-27T21:03:26Z</time>
      </trkpt>
      <trkpt lat="46.19531" lon="4.58479">
        <ele>661</ele>
        <time>2016-06-27T21:05:26Z</time>
      </trkpt>
      <trkpt lat="46.19542" lon="4.58491">
        <ele>659</ele>
        <time>2016-06-27T21:07:26Z</time>
      </trkpt>
      <trkpt lat="46.19552" lon="4.58506">
        <ele>659</ele>
        <time>2016-06-27T21:09:26Z</time>
      </trkpt>
      <trkpt lat="46.19557" lon="4.58514">
        <ele>659</ele>
        <time>2016-06-27T21:11:26Z</time>
      </trkpt>
      <trkpt lat="46.19581" lon="4.5856">
        <ele>660</ele>
        <time>2016-06-27T21:13:26Z</time>
      </trkpt>
      <trkpt lat="46.19598" lon="4.5859">
        <ele>655</ele>
        <time>2016-06-27T21:15:26Z</time>
      </trkpt>
      <trkpt lat="46.196" lon="4.58596">
        <ele>654</ele>
        <time>2016-06-27T21:17:26Z</time>
      </trkpt>
      <trkpt lat="46.19635" lon="4.5866">
        <ele>649</ele>
        <time>2016-06-27T21:19:26Z</time>
      </trkpt>
      <trkpt lat="46.19651" lon="4.58695">
        <ele>651</ele>
        <time>2016-06-27T21:21:26Z</time>
      </trkpt>
      <trkpt lat="46.19659" lon="4.58722">
        <ele>652</ele>
        <time>2016-06-27T21:23:26Z</time>
      </trkpt>
      <trkpt lat="46.19666" lon="4.58751">
        <ele>646</ele>
        <time>2016-06-27T21:25:26Z</time>
      </trkpt>
      <trkpt lat="46.19671" lon="4.5878">
        <ele>639</ele>
        <time>2016-06-27T21:27:26Z</time>
      </trkpt>
      <trkpt lat="46.19674" lon="4.58808">
        <ele>639</ele>
        <time>2016-06-27T21:29:26Z</time>
      </trkpt>
      <trkpt lat="46.19675" lon="4.58826">
        <ele>641</ele>
        <time>2016-06-27T21:31:26Z</time>
      </trkpt>
      <trkpt lat="46.19675" lon="4.5884">
        <ele>640</ele>
        <time>2016-06-27T21:33:26Z</time>
      </trkpt>
      <trkpt lat="46.19674" lon="4.58852">
        <ele>637</ele>
        <time>2016-06-27T21:35:26Z</time>
      </trkpt>
      <trkpt lat="46.19672" lon="4.58864">
        <ele>635</ele>
        <time>2016-06-27T21:37:26Z</time>
      </trkpt>
      <trkpt lat="46.19669" lon="4.58873">
        <ele>634</ele>
        <time>2016-06-27T21:39:26Z</time>
      </trkpt>
      <trkpt lat="46.19664" lon="4.58891">
        <ele>644</ele>
        <time>2016-06-27T21:41:26Z</time>
      </trkpt>
      <trkpt lat="46.19655" lon="4.58921">
        <ele>635</ele>
        <time>2016-06-27T21:43:26Z</time>
      </trkpt>
      <trkpt lat="46.19647" lon="4.58937">
        <ele>634</ele>
        <time>2016-06-27T21:45:26Z</time>
      </trkpt>
      <trkpt lat="46.19642" lon="4.58947">
        <ele>633</ele>
        <time>2016-06-27T21:47:26Z</time>
      </trkpt>
      <trkpt lat="46.19636" lon="4.58953">
        <ele>633</ele>
        <time>2016-06-27T21:49:26Z</time>
      </trkpt>
      <trkpt lat="46.1963" lon="4.5896">
        <ele>632</ele>
        <time>2016-06-27T21:51:26Z</time>
      </trkpt>
      <trkpt lat="46.19623" lon="4.58966">
        <ele>632</ele>
        <time>2016-06-27T21:53:26Z</time>
      </trkpt>
      <trkpt lat="46.19613" lon="4.58971">
        <ele>632</ele>
        <time>2016-06-27T21:55:26Z</time>
      </trkpt>
      <trkpt lat="46.19604" lon="4.58974">
        <ele>632</ele>
        <time>2016-06-27T21:57:26Z</time>
      </trkpt>
      <trkpt lat="46.19597" lon="4.58974">
        <ele>633</ele>
        <time>2016-06-27T21:59:26Z</time>
      </trkpt>
      <trkpt lat="46.19573" lon="4.58976">
        <ele>640</ele>
        <time>2016-06-27T22:01:26Z</time>
      </trkpt>
      <trkpt lat="46.19566" lon="4.58977">
        <ele>640</ele>
        <time>2016-06-27T22:03:26Z</time>
      </trkpt>
      <trkpt lat="46.19555" lon="4.58979">
        <ele>641</ele>
        <time>2016-06-27T22:05:26Z</time>
      </trkpt>
      <trkpt lat="46.1955" lon="4.58981">
        <ele>642</ele>
        <time>2016-06-27T22:07:26Z</time>
      </trkpt>
      <trkpt lat="46.19544" lon="4.58986">
        <ele>642</ele>
        <time>2016-06-27T22:09:26Z</time>
      </trkpt>
      <trkpt lat="46.19539" lon="4.58992">
        <ele>642</ele>
        <time>2016-06-27T22:11:26Z</time>
      </trkpt>
      <trkpt lat="46.19535" lon="4.58997">
        <ele>642</ele>
        <time>2016-06-27T22:13:26Z</time>
      </trkpt>
      <trkpt lat="46.19532" lon="4.59003">
        <ele>632</ele>
        <time>2016-06-27T22:15:26Z</time>
      </trkpt>
      <trkpt lat="46.19529" lon="4.59011">
        <ele>632</ele>
        <time>2016-06-27T22:17:26Z</time>
      </trkpt>
      <trkpt lat="46.19526" lon="4.59019">
        <ele>632</ele>
        <time>2016-06-27T22:19:26Z</time>
      </trkpt>
      <trkpt lat="46.19524" lon="4.59027">
        <ele>631</ele>
        <time>2016-06-27T22:21:26Z</time>
      </trkpt>
      <trkpt lat="46.19521" lon="4.5904">
        <ele>630</ele>
        <time>2016-06-27T22:23:26Z</time>
      </trkpt>
      <trkpt lat="46.19517" lon="4.59055">
        <ele>629</ele>
        <time>2016-06-27T22:25:26Z</time>
      </trkpt>
      <trkpt lat="46.19514" lon="4.59066">
        <ele>629</ele>
        <time>2016-06-27T22:27:26Z</time>
      </trkpt>
      <trkpt lat="46.19511" lon="4.59075">
        <ele>630</ele>
        <time>2016-06-27T22:29:26Z</time>
      </trkpt>
      <trkpt lat="46.19506" lon="4.59085">
        <ele>628</ele>
        <time>2016-06-27T22:31:26Z</time>
      </trkpt>
      <trkpt lat="46.195" lon="4.59094">
        <ele>627</ele>
        <time>2016-06-27T22:33:26Z</time>
      </trkpt>
      <trkpt lat="46.19494" lon="4.59103">
        <ele>629</ele>
        <time>2016-06-27T22:35:26Z</time>
      </trkpt>
      <trkpt lat="46.19483" lon="4.59112">
        <ele>628</ele>
        <time>2016-06-27T22:37:26Z</time>
      </trkpt>
      <trkpt lat="46.19478" lon="4.59115">
        <ele>627</ele>
        <time>2016-06-27T22:39:26Z</time>
      </trkpt>
      <trkpt lat="46.19474" lon="4.59117">
        <ele>627</ele>
        <time>2016-06-27T22:41:26Z</time>
      </trkpt>
      <trkpt lat="46.19468" lon="4.59119">
        <ele>627</ele>
        <time>2016-06-27T22:43:26Z</time>
      </trkpt>
      <trkpt lat="46.19461" lon="4.59121">
        <ele>627</ele>
        <time>2016-06-27T22:45:26Z</time>
      </trkpt>
      <trkpt lat="46.19448" lon="4.59121">
        <ele>627</ele>
        <time>2016-06-27T22:47:26Z</time>
      </trkpt>
      <trkpt lat="46.19437" lon="4.59121">
        <ele>627</ele>
        <time>2016-06-27T22:49:26Z</time>
      </trkpt>
      <trkpt lat="46.19424" lon="4.59119">
        <ele>628</ele>
        <time>2016-06-27T22:51:26Z</time>
      </trkpt>
      <trkpt lat="46.19416" lon="4.59118">
        <ele>630</ele>
        <time>2016-06-27T22:53:26Z</time>
      </trkpt>
      <trkpt lat="46.19408" lon="4.59118">
        <ele>631</ele>
        <time>2016-06-27T22:55:26Z</time>
      </trkpt>
      <trkpt lat="46.19403" lon="4.59118">
        <ele>631</ele>
        <time>2016-06-27T22:57:26Z</time>
      </trkpt>
      <trkpt lat="46.19397" lon="4.59119">
        <ele>631</ele>
        <time>2016-06-27T22:59:26Z</time>
      </trkpt>
      <trkpt lat="46.19391" lon="4.5912">
        <ele>631</ele>
        <time>2016-06-27T23:01:26Z</time>
      </trkpt>
      <trkpt lat="46.19387" lon="4.59122">
        <ele>631</ele>
        <time>2016-06-27T23:03:26Z</time>
      </trkpt>
      <trkpt lat="46.19382" lon="4.59126">
        <ele>631</ele>
        <time>2016-06-27T23:05:26Z</time>
      </trkpt>
      <trkpt lat="46.19378" lon="4.5913">
        <ele>631</ele>
        <time>2016-06-27T23:07:26Z</time>
      </trkpt>
      <trkpt lat="46.19374" lon="4.59136">
        <ele>631</ele>
        <time>2016-06-27T23:09:26Z</time>
      </trkpt>
      <trkpt lat="46.19373" lon="4.59139">
        <ele>631</ele>
        <time>2016-06-27T23:11:26Z</time>
      </trkpt>
      <trkpt lat="46.1937" lon="4.59143">
        <ele>631</ele>
        <time>2016-06-27T23:13:26Z</time>
      </trkpt>
      <trkpt lat="46.19369" lon="4.59146">
        <ele>631</ele>
        <time>2016-06-27T23:15:26Z</time>
      </trkpt>
      <trkpt lat="46.19368" lon="4.59149">
        <ele>631</ele>
        <time>2016-06-27T23:17:26Z</time>
      </trkpt>
      <trkpt lat="46.19367" lon="4.59154">
        <ele>631</ele>
        <time>2016-06-27T23:19:26Z</time>
      </trkpt>
      <trkpt lat="46.19365" lon="4.59161">
        <ele>631</ele>
        <time>2016-06-27T23:21:26Z</time>
      </trkpt>
      <trkpt lat="46.19365" lon="4.59166">
        <ele>631</ele>
        <time>2016-06-27T23:23:26Z</time>
      </trkpt>
      <trkpt lat="46.19365" lon="4.59177">
        <ele>633</ele>
        <time>2016-06-27T23:25:26Z</time>
      </trkpt>
      <trkpt lat="46.19367" lon="4.59192">
        <ele>634</ele>
        <time>2016-06-27T23:27:26Z</time>
      </trkpt>
      <trkpt lat="46.19371" lon="4.59201">
        <ele>634</ele>
        <time>2016-06-27T23:29:26Z</time>
      </trkpt>
      <trkpt lat="46.19379" lon="4.59212">
        <ele>634</ele>
        <time>2016-06-27T23:31:26Z</time>
      </trkpt>
      <trkpt lat="46.19384" lon="4.59217">
        <ele>635</ele>
        <time>2016-06-27T23:33:26Z</time>
      </trkpt>
      <trkpt lat="46.1939" lon="4.59219">
        <ele>635</ele>
        <time>2016-06-27T23:35:26Z</time>
      </trkpt>
      <trkpt lat="46.19398" lon="4.59222">
        <ele>635</ele>
        <time>2016-06-27T23:37:26Z</time>
      </trkpt>
      <trkpt lat="46.19408" lon="4.59225">
        <ele>636</ele>
        <time>2016-06-27T23:39:26Z</time>
      </trkpt>
      <trkpt lat="46.19438" lon="4.59235">
        <ele>633</ele>
        <time>2016-06-27T23:41:26Z</time>
      </trkpt>
      <trkpt lat="46.19448" lon="4.59241">
        <ele>632</ele>
        <time>2016-06-27T23:43:26Z</time>
      </trkpt>
      <trkpt lat="46.19456" lon="4.59246">
        <ele>632</ele>
        <time>2016-06-27T23:45:26Z</time>
      </trkpt>
      <trkpt lat="46.19473" lon="4.59256">
        <ele>641</ele>
        <time>2016-06-27T23:47:26Z</time>
      </trkpt>
      <trkpt lat="46.1948" lon="4.59261">
        <ele>640</ele>
        <time>2016-06-27T23:49:26Z</time>
      </trkpt>
      <trkpt lat="46.19499" lon="4.59271">
        <ele>640</ele>
        <time>2016-06-27T23:51:26Z</time>
      </trkpt>
      <trkpt lat="46.19538" lon="4.59286">
        <ele>639</ele>
        <time>2016-06-27T23:53:26Z</time>
      </trkpt>
      <trkpt lat="46.19566" lon="4.59293">
        <ele>639</ele>
        <time>2016-06-27T23:55:26Z</time>
      </trkpt>
      <trkpt lat="46.19579" lon="4.59297">
        <ele>640</ele>
        <time>2016-06-27T23:57:26Z</time>
      </trkpt>
      <trkpt lat="46.19598" lon="4.5931">
        <ele>636</ele>
        <time>2016-06-27T23:59:26Z</time>
      </trkpt>
      <trkpt lat="46.19609" lon="4.59321">
        <ele>636</ele>
        <time>2016-06-28T00:01:26Z</time>
      </trkpt>
      <trkpt lat="46.19617" lon="4.59329">
        <ele>635</ele>
        <time>2016-06-28T00:03:26Z</time>
      </trkpt>
      <trkpt lat="46.19623" lon="4.5934">
        <ele>643</ele>
        <time>2016-06-28T00:05:26Z</time>
      </trkpt>
      <trkpt lat="46.1964" lon="4.59367">
        <ele>644</ele>
        <time>2016-06-28T00:07:26Z</time>
      </trkpt>
      <trkpt lat="46.19653" lon="4.59386">
        <ele>645</ele>
        <time>2016-06-28T00:09:26Z</time>
      </trkpt>
      <trkpt lat="46.19669" lon="4.59402">
        <ele>641</ele>
        <time>2016-06-28T00:11:26Z</time>
      </trkpt>
      <trkpt lat="46.19681" lon="4.59411">
        <ele>641</ele>
        <time>2016-06-28T00:13:26Z</time>
      </trkpt>
      <trkpt lat="46.19695" lon="4.59425">
        <ele>645</ele>
        <time>2016-06-28T00:15:26Z</time>
      </trkpt>
      <trkpt lat="46.19705" lon="4.59442">
        <ele>644</ele>
        <time>2016-06-28T00:17:26Z</time>
      </trkpt>
      <trkpt lat="46.19709" lon="4.59448">
        <ele>644</ele>
        <time>2016-06-28T00:19:26Z</time>
      </trkpt>
      <trkpt lat="46.19716" lon="4.59466">
        <ele>645</ele>
        <time>2016-06-28T00:21:26Z</time>
      </trkpt>
      <trkpt lat="46.19727" lon="4.59493">
        <ele>644</ele>
        <time>2016-06-28T00:23:26Z</time>
      </trkpt>
      <trkpt lat="46.19735" lon="4.59515">
        <ele>648</ele>
        <time>2016-06-28T00:25:26Z</time>
      </trkpt>
      <trkpt lat="46.19781" lon="4.59618">
        <ele>643</ele>
        <time>2016-06-28T00:27:26Z</time>
      </trkpt>
      <trkpt lat="46.19787" lon="4.59637">
        <ele>643</ele>
        <time>2016-06-28T00:29:26Z</time>
      </trkpt>
      <trkpt lat="46.19791" lon="4.59649">
        <ele>643</ele>
        <time>2016-06-28T00:31:26Z</time>
      </trkpt>
      <trkpt lat="46.19796" lon="4.59674">
        <ele>647</ele>
        <time>2016-06-28T00:33:26Z</time>
      </trkpt>
      <trkpt lat="46.198" lon="4.59702">
        <ele>648</ele>
        <time>2016-06-28T00:35:26Z</time>
      </trkpt>
      <trkpt lat="46.19802" lon="4.59722">
        <ele>648</ele>
        <time>2016-06-28T00:37:26Z</time>
      </trkpt>
      <trkpt lat="46.19806" lon="4.59809">
        <ele>651</ele>
        <time>2016-06-28T00:39:26Z</time>
      </trkpt>
      <trkpt lat="46.19806" lon="4.59825">
        <ele>651</ele>
        <time>2016-06-28T00:41:26Z</time>
      </trkpt>
      <trkpt lat="46.19805" lon="4.59838">
        <ele>650</ele>
        <time>2016-06-28T00:43:26Z</time>
      </trkpt>
      <trkpt lat="46.19803" lon="4.59846">
        <ele>650</ele>
        <time>2016-06-28T00:45:26Z</time>
      </trkpt>
      <trkpt lat="46.19802" lon="4.59851">
        <ele>650</ele>
        <time>2016-06-28T00:47:26Z</time>
      </trkpt>
      <trkpt lat="46.19801" lon="4.59856">
        <ele>650</ele>
        <time>2016-06-28T00:49:26Z</time>
      </trkpt>
      <trkpt lat="46.19798" lon="4.59863">
        <ele>650</ele>
        <time>2016-06-28T00:51:26Z</time>
      </trkpt>
      <trkpt lat="46.19794" lon="4.59871">
        <ele>651</ele>
        <time>2016-06-28T00:53:26Z</time>
      </trkpt>
      <trkpt lat="46.19786" lon="4.59886">
        <ele>651</ele>
        <time>2016-06-28T00:55:26Z</time>
      </trkpt>
      <trkpt lat="46.19776" lon="4.59897">
        <ele>652</ele>
        <time>2016-06-28T00:57:26Z</time>
      </trkpt>
      <trkpt lat="46.19758" lon="4.59914">
        <ele>655</ele>
        <time>2016-06-28T00:59:26Z</time>
      </trkpt>
      <trkpt lat="46.19743" lon="4.59929">
        <ele>660</ele>
        <time>2016-06-28T01:01:26Z</time>
      </trkpt>
      <trkpt lat="46.19732" lon="4.59939">
        <ele>662</ele>
        <time>2016-06-28T01:03:26Z</time>
      </trkpt>
      <trkpt lat="46.19725" lon="4.59951">
        <ele>663</ele>
        <time>2016-06-28T01:05:26Z</time>
      </trkpt>
      <trkpt lat="46.19722" lon="4.5996">
        <ele>663</ele>
        <time>2016-06-28T01:07:26Z</time>
      </trkpt>
      <trkpt lat="46.19719" lon="4.59971">
        <ele>663</ele>
        <time>2016-06-28T01:09:26Z</time>
      </trkpt>
      <trkpt lat="46.19719" lon="4.5998">
        <ele>663</ele>
        <time>2016-06-28T01:11:26Z</time>
      </trkpt>
      <trkpt lat="46.19719" lon="4.59981">
        <ele>663</ele>
        <time>2016-06-28T01:13:26Z</time>
      </trkpt>
      <trkpt lat="46.19719" lon="4.59987">
        <ele>662</ele>
        <time>2016-06-28T01:15:26Z</time>
      </trkpt>
      <trkpt lat="46.19719" lon="4.59992">
        <ele>662</ele>
        <time>2016-06-28T01:17:26Z</time>
      </trkpt>
      <trkpt lat="46.19721" lon="4.60003">
        <ele>660</ele>
        <time>2016-06-28T01:19:26Z</time>
      </trkpt>
      <trkpt lat="46.19724" lon="4.60011">
        <ele>660</ele>
        <time>2016-06-28T01:21:26Z</time>
      </trkpt>
      <trkpt lat="46.19726" lon="4.60018">
        <ele>660</ele>
        <time>2016-06-28T01:23:26Z</time>
      </trkpt>
      <trkpt lat="46.19731" lon="4.60027">
        <ele>660</ele>
        <time>2016-06-28T01:25:26Z</time>
      </trkpt>
      <trkpt lat="46.19738" lon="4.60035">
        <ele>660</ele>
        <time>2016-06-28T01:27:26Z</time>
      </trkpt>
      <trkpt lat="46.19751" lon="4.60051">
        <ele>650</ele>
        <time>2016-06-28T01:29:26Z</time>
      </trkpt>
      <trkpt lat="46.19753" lon="4.60054">
        <ele>650</ele>
        <time>2016-06-28T01:31:26Z</time>
      </trkpt>
      <trkpt lat="46.19758" lon="4.60069">
        <ele>651</ele>
        <time>2016-06-28T01:33:26Z</time>
      </trkpt>
      <trkpt lat="46.1976" lon="4.6008">
        <ele>653</ele>
        <time>2016-06-28T01:35:26Z</time>
      </trkpt>
      <trkpt lat="46.19761" lon="4.60089">
        <ele>653</ele>
        <time>2016-06-28T01:37:26Z</time>
      </trkpt>
      <trkpt lat="46.1976" lon="4.60098">
        <ele>652</ele>
        <time>2016-06-28T01:39:26Z</time>
      </trkpt>
      <trkpt lat="46.1976" lon="4.60103">
        <ele>651</ele>
        <time>2016-06-28T01:41:26Z</time>
      </trkpt>
      <trkpt lat="46.19755" lon="4.60124">
        <ele>650</ele>
        <time>2016-06-28T01:43:26Z</time>
      </trkpt>
      <trkpt lat="46.1972" lon="4.60236">
        <ele>660</ele>
        <time>2016-06-28T01:45:26Z</time>
      </trkpt>
      <trkpt lat="46.19719" lon="4.60239">
        <ele>660</ele>
        <time>2016-06-28T01:47:26Z</time>
      </trkpt>
      <trkpt lat="46.19712" lon="4.60259">
        <ele>657</ele>
        <time>2016-06-28T01:49:26Z</time>
      </trkpt>
      <trkpt lat="46.19704" lon="4.60273">
        <ele>657</ele>
        <time>2016-06-28T01:51:26Z</time>
      </trkpt>
      <trkpt lat="46.19697" lon="4.60285">
        <ele>657</ele>
        <time>2016-06-28T01:53:26Z</time>
      </trkpt>
      <trkpt lat="46.1969" lon="4.60295">
        <ele>657</ele>
        <time>2016-06-28T01:55:26Z</time>
      </trkpt>
      <trkpt lat="46.19681" lon="4.60304">
        <ele>657</ele>
        <time>2016-06-28T01:57:26Z</time>
      </trkpt>
      <trkpt lat="46.19678" lon="4.60307">
        <ele>657</ele>
        <time>2016-06-28T01:59:26Z</time>
      </trkpt>
      <trkpt lat="46.1967" lon="4.60314">
        <ele>657</ele>
        <time>2016-06-28T02:01:26Z</time>
      </trkpt>
      <trkpt lat="46.19647" lon="4.60325">
        <ele>666</ele>
        <time>2016-06-28T02:03:26Z</time>
      </trkpt>
      <trkpt lat="46.19639" lon="4.60328">
        <ele>667</ele>
        <time>2016-06-28T02:05:26Z</time>
      </trkpt>
      <trkpt lat="46.19624" lon="4.6033">
        <ele>669</ele>
        <time>2016-06-28T02:07:26Z</time>
      </trkpt>
      <trkpt lat="46.19566" lon="4.60336">
        <ele>671</ele>
        <time>2016-06-28T02:09:26Z</time>
      </trkpt>
      <trkpt lat="46.19552" lon="4.60339">
        <ele>672</ele>
        <time>2016-06-28T02:11:26Z</time>
      </trkpt>
      <trkpt lat="46.19547" lon="4.6034">
        <ele>673</ele>
        <time>2016-06-28T02:13:26Z</time>
      </trkpt>
      <trkpt lat="46.19523" lon="4.6035">
        <ele>675</ele>
        <time>2016-06-28T02:15:26Z</time>
      </trkpt>
      <trkpt lat="46.19514" lon="4.60357">
        <ele>676</ele>
        <time>2016-06-28T02:17:26Z</time>
      </trkpt>
      <trkpt lat="46.19501" lon="4.60369">
        <ele>675</ele>
        <time>2016-06-28T02:19:26Z</time>
      </trkpt>
      <trkpt lat="46.19496" lon="4.60377">
        <ele>686</ele>
        <time>2016-06-28T02:21:26Z</time>
      </trkpt>
      <trkpt lat="46.19491" lon="4.60384">
        <ele>686</ele>
        <time>2016-06-28T02:23:26Z</time>
      </trkpt>
      <trkpt lat="46.19485" lon="4.60394">
        <ele>685</ele>
        <time>2016-06-28T02:25:26Z</time>
      </trkpt>
      <trkpt lat="46.1948" lon="4.60405">
        <ele>684</ele>
        <time>2016-06-28T02:27:26Z</time>
      </trkpt>
      <trkpt lat="46.19474" lon="4.60425">
        <ele>681</ele>
        <time>2016-06-28T02:29:26Z</time>
      </trkpt>
      <trkpt lat="46.19471" lon="4.60438">
        <ele>682</ele>
        <time>2016-06-28T02:31:26Z</time>
      </trkpt>
      <trkpt lat="46.19469" lon="4.60458">
        <ele>683</ele>
        <time>2016-06-28T02:33:26Z</time>
      </trkpt>
      <trkpt lat="46.19463" lon="4.60524">
        <ele>682</ele>
        <time>2016-06-28T02:35:26Z</time>
      </trkpt>
      <trkpt lat="46.19459" lon="4.60559">
        <ele>683</ele>
        <time>2016-06-28T02:37:26Z</time>
      </trkpt>
      <trkpt lat="46.19459" lon="4.60559">
        <ele>683</ele>
        <time>2016-06-28T02:39:26Z</time>
      </trkpt>
      <trkpt lat="46.19458" lon="4.60569">
        <ele>683</ele>
        <time>2016-06-28T02:41:26Z</time>
      </trkpt>
      <trkpt lat="46.19454" lon="4.60591">
        <ele>683</ele>
        <time>2016-06-28T02:43:26Z</time>
      </trkpt>
      <trkpt lat="46.19417" lon="4.60769">
        <ele>686</ele>
        <time>2016-06-28T02:45:26Z</time>
      </trkpt>
      <trkpt lat="46.19414" lon="4.60785">
        <ele>693</ele>
        <time>2016-06-28T02:47:26Z</time>
      </trkpt>
      <trkpt lat="46.19411" lon="4.60798">
        <ele>693</ele>
        <time>2016-06-28T02:49:26Z</time>
      </trkpt>
      <trkpt lat="46.19411" lon="4.60802">
        <ele>693</ele>
        <time>2016-06-28T02:51:26Z</time>
      </trkpt>
      <trkpt lat="46.19409" lon="4.60807">
        <ele>693</ele>
        <time>2016-06-28T02:53:26Z</time>
      </trkpt>
      <trkpt lat="46.19408" lon="4.60811">
        <ele>693</ele>
        <time>2016-06-28T02:55:26Z</time>
      </trkpt>
      <trkpt lat="46.19398" lon="4.60864">
        <ele>694</ele>
        <time>2016-06-28T02:57:26Z</time>
      </trkpt>
      <trkpt lat="46.19392" lon="4.60898">
        <ele>694</ele>
        <time>2016-06-28T02:59:26Z</time>
      </trkpt>
      <trkpt lat="46.19376" lon="4.60966">
        <ele>697</ele>
        <time>2016-06-28T03:01:26Z</time>
      </trkpt>
      <trkpt lat="46.19372" lon="4.60977">
        <ele>698</ele>
        <time>2016-06-28T03:03:26Z</time>
      </trkpt>
      <trkpt lat="46.19372" lon="4.6098">
        <ele>698</ele>
        <time>2016-06-28T03:05:26Z</time>
      </trkpt>
      <trkpt lat="46.19369" lon="4.6099">
        <ele>698</ele>
        <time>2016-06-28T03:07:26Z</time>
      </trkpt>
      <trkpt lat="46.19361" lon="4.61011">
        <ele>699</ele>
        <time>2016-06-28T03:09:26Z</time>
      </trkpt>
      <trkpt lat="46.19352" lon="4.6103">
        <ele>699</ele>
        <time>2016-06-28T03:11:26Z</time>
      </trkpt>
      <trkpt lat="46.19332" lon="4.61064">
        <ele>706</ele>
        <time>2016-06-28T03:13:26Z</time>
      </trkpt>
      <trkpt lat="46.19311" lon="4.61099">
        <ele>705</ele>
        <time>2016-06-28T03:15:26Z</time>
      </trkpt>
      <trkpt lat="46.19301" lon="4.61116">
        <ele>706</ele>
        <time>2016-06-28T03:17:26Z</time>
      </trkpt>
      <trkpt lat="46.193" lon="4.61117">
        <ele>706</ele>
        <time>2016-06-28T03:19:26Z</time>
      </trkpt>
      <trkpt lat="46.19285" lon="4.6114">
        <ele>707</ele>
        <time>2016-06-28T03:21:26Z</time>
      </trkpt>
      <trkpt lat="46.19273" lon="4.61157">
        <ele>709</ele>
        <time>2016-06-28T03:23:26Z</time>
      </trkpt>
      <trkpt lat="46.19251" lon="4.61182">
        <ele>709</ele>
        <time>2016-06-28T03:25:26Z</time>
      </trkpt>
      <trkpt lat="46.19246" lon="4.61189">
        <ele>716</ele>
        <time>2016-06-28T03:27:26Z</time>
      </trkpt>
      <trkpt lat="46.19242" lon="4.61195">
        <ele>716</ele>
        <time>2016-06-28T03:29:26Z</time>
      </trkpt>
      <trkpt lat="46.19238" lon="4.61204">
        <ele>716</ele>
        <time>2016-06-28T03:31:26Z</time>
      </trkpt>
      <trkpt lat="46.19236" lon="4.61212">
        <ele>716</ele>
        <time>2016-06-28T03:33:26Z</time>
      </trkpt>
      <trkpt lat="46.19233" lon="4.61223">
        <ele>716</ele>
        <time>2016-06-28T03:35:26Z</time>
      </trkpt>
      <trkpt lat="46.19231" lon="4.61233">
        <ele>715</ele>
        <time>2016-06-28T03:37:26Z</time>
      </trkpt>
      <trkpt lat="46.19229" lon="4.61248">
        <ele>715</ele>
        <time>2016-06-28T03:39:26Z</time>
      </trkpt>
      <trkpt lat="46.19228" lon="4.61265">
        <ele>716</ele>
        <time>2016-06-28T03:41:26Z</time>
      </trkpt>
      <trkpt lat="46.19227" lon="4.61278">
        <ele>716</ele>
        <time>2016-06-28T03:43:26Z</time>
      </trkpt>
      <trkpt lat="46.19226" lon="4.6129">
        <ele>717</ele>
        <time>2016-06-28T03:45:26Z</time>
      </trkpt>
      <trkpt lat="46.19225" lon="4.61302">
        <ele>717</ele>
        <time>2016-06-28T03:47:26Z</time>
      </trkpt>
      <trkpt lat="46.19223" lon="4.61332">
        <ele>717</ele>
        <time>2016-06-28T03:49:26Z</time>
      </trkpt>
      <trkpt lat="46.19222" lon="4.61348">
        <ele>718</ele>
        <time>2016-06-28T03:51:26Z</time>
      </trkpt>
      <trkpt lat="46.1922" lon="4.61384">
        <ele>720</ele>
        <time>2016-06-28T03:53:26Z</time>
      </trkpt>
      <trkpt lat="46.1922" lon="4.61404">
        <ele>720</ele>
        <time>2016-06-28T03:55:26Z</time>
      </trkpt>
      <trkpt lat="46.19221" lon="4.6143">
        <ele>722</ele>
        <time>2016-06-28T03:57:26Z</time>
      </trkpt>
      <trkpt lat="46.19222" lon="4.61453">
        <ele>723</ele>
        <time>2016-06-28T03:59:26Z</time>
      </trkpt>
      <trkpt lat="46.19222" lon="4.61467">
        <ele>723</ele>
        <time>2016-06-28T04:01:26Z</time>
      </trkpt>
      <trkpt lat="46.19223" lon="4.61488">
        <ele>723</ele>
        <time>2016-06-28T04:03:26Z</time>
      </trkpt>
      <trkpt lat="46.19225" lon="4.6152">
        <ele>726</ele>
        <time>2016-06-28T04:05:26Z</time>
      </trkpt>
      <trkpt lat="46.19226" lon="4.61541">
        <ele>727</ele>
        <time>2016-06-28T04:07:26Z</time>
      </trkpt>
      <trkpt lat="46.19226" lon="4.61553">
        <ele>728</ele>
        <time>2016-06-28T04:09:26Z</time>
      </trkpt>
      <trkpt lat="46.19227" lon="4.61564">
        <ele>728</ele>
        <time>2016-06-28T04:11:26Z</time>
      </trkpt>
      <trkpt lat="46.19229" lon="4.61594">
        <ele>730</ele>
        <time>2016-06-28T04:13:26Z</time>
      </trkpt>
      <trkpt lat="46.19231" lon="4.61637">
        <ele>732</ele>
        <time>2016-06-28T04:15:26Z</time>
      </trkpt>
      <trkpt lat="46.19236" lon="4.61743">
        <ele>737</ele>
        <time>2016-06-28T04:17:26Z</time>
      </trkpt>
      <trkpt lat="46.19239" lon="4.61803">
        <ele>739</ele>
        <time>2016-06-28T04:19:26Z</time>
      </trkpt>
      <trkpt lat="46.19241" lon="4.61846">
        <ele>741</ele>
        <time>2016-06-28T04:21:26Z</time>
      </trkpt>
      <trkpt lat="46.19242" lon="4.61859">
        <ele>741</ele>
        <time>2016-06-28T04:23:26Z</time>
      </trkpt>
      <trkpt lat="46.19244" lon="4.6189">
        <ele>742</ele>
        <time>2016-06-28T04:25:26Z</time>
      </trkpt>
      <trkpt lat="46.19246" lon="4.61951">
        <ele>741</ele>
        <time>2016-06-28T04:27:26Z</time>
      </trkpt>
      <trkpt lat="46.19249" lon="4.61981">
        <ele>741</ele>
        <time>2016-06-28T04:29:26Z</time>
      </trkpt>
      <trkpt lat="46.19251" lon="4.61993">
        <ele>743</ele>
        <time>2016-06-28T04:31:26Z</time>
      </trkpt>
      <trkpt lat="46.19256" lon="4.62017">
        <ele>744</ele>
        <time>2016-06-28T04:33:26Z</time>
      </trkpt>
      <trkpt lat="46.19265" lon="4.62055">
        <ele>744</ele>
        <time>2016-06-28T04:35:26Z</time>
      </trkpt>
      <trkpt lat="46.19272" lon="4.62083">
        <ele>744</ele>
        <time>2016-06-28T04:37:26Z</time>
      </trkpt>
      <trkpt lat="46.19278" lon="4.6211">
        <ele>743</ele>
        <time>2016-06-28T04:39:26Z</time>
      </trkpt>
      <trkpt lat="46.1928" lon="4.6212">
        <ele>743</ele>
        <time>2016-06-28T04:41:26Z</time>
      </trkpt>
      <trkpt lat="46.1929" lon="4.62165">
        <ele>743</ele>
        <time>2016-06-28T04:43:26Z</time>
      </trkpt>
      <trkpt lat="46.19295" lon="4.62185">
        <ele>738</ele>
        <time>2016-06-28T04:45:26Z</time>
      </trkpt>
      <trkpt lat="46.19297" lon="4.62193">
        <ele>738</ele>
        <time>2016-06-28T04:47:26Z</time>
      </trkpt>
      <trkpt lat="46.19301" lon="4.62203">
        <ele>737</ele>
        <time>2016-06-28T04:49:26Z</time>
      </trkpt>
      <trkpt lat="46.19306" lon="4.62214">
        <ele>737</ele>
        <time>2016-06-28T04:51:26Z</time>
      </trkpt>
      <trkpt lat="46.19312" lon="4.62227">
        <ele>737</ele>
        <time>2016-06-28T04:53:26Z</time>
      </trkpt>
      <trkpt lat="46.19316" lon="4.62235">
        <ele>737</ele>
        <time>2016-06-28T04:55:26Z</time>
      </trkpt>
      <trkpt lat="46.19319" lon="4.62239">
        <ele>737</ele>
        <time>2016-06-28T04:57:26Z</time>
      </trkpt>
      <trkpt lat="46.19325" lon="4.62251">
        <ele>735</ele>
        <time>2016-06-28T04:59:26Z</time>
      </trkpt>
      <trkpt lat="46.19331" lon="4.62262">
        <ele>733</ele>
        <time>2016-06-28T05:01:26Z</time>
      </trkpt>
      <trkpt lat="46.19337" lon="4.62274">
        <ele>742</ele>
        <time>2016-06-28T05:03:26Z</time>
      </trkpt>
      <trkpt lat="46.19342" lon="4.62286">
        <ele>743</ele>
        <time>2016-06-28T05:05:26Z</time>
      </trkpt>
      <trkpt lat="46.19345" lon="4.62294">
        <ele>742</ele>
        <time>2016-06-28T05:07:26Z</time>
      </trkpt>
      <trkpt lat="46.19348" lon="4.62302">
        <ele>742</ele>
        <time>2016-06-28T05:09:26Z</time>
      </trkpt>
      <trkpt lat="46.1935" lon="4.62311">
        <ele>741</ele>
        <time>2016-06-28T05:11:26Z</time>
      </trkpt>
      <trkpt lat="46.1935" lon="4.62319">
        <ele>740</ele>
        <time>2016-06-28T05:13:26Z</time>
      </trkpt>
      <trkpt lat="46.1935" lon="4.62327">
        <ele>739</ele>
        <time>2016-06-28T05:15:26Z</time>
      </trkpt>
      <trkpt lat="46.1935" lon="4.62333">
        <ele>738</ele>
        <time>2016-06-28T05:17:26Z</time>
      </trkpt>
      <trkpt lat="46.19349" lon="4.62344">
        <ele>738</ele>
        <time>2016-06-28T05:19:26Z</time>
      </trkpt>
      <trkpt lat="46.19345" lon="4.62355">
        <ele>739</ele>
        <time>2016-06-28T05:21:26Z</time>
      </trkpt>
      <trkpt lat="46.19341" lon="4.62363">
        <ele>740</ele>
        <time>2016-06-28T05:23:26Z</time>
      </trkpt>
      <trkpt lat="46.19335" lon="4.6237">
        <ele>740</ele>
        <time>2016-06-28T05:25:26Z</time>
      </trkpt>
      <trkpt lat="46.19331" lon="4.62374">
        <ele>727</ele>
        <time>2016-06-28T05:27:26Z</time>
      </trkpt>
      <trkpt lat="46.19249" lon="4.62442">
        <ele>717</ele>
        <time>2016-06-28T05:29:26Z</time>
      </trkpt>
      <trkpt lat="46.19246" lon="4.62445">
        <ele>717</ele>
        <time>2016-06-28T05:31:26Z</time>
      </trkpt>
      <trkpt lat="46.1922" lon="4.62467">
        <ele>717</ele>
        <time>2016-06-28T05:33:26Z</time>
      </trkpt>
      <trkpt lat="46.19214" lon="4.62474">
        <ele>717</ele>
        <time>2016-06-28T05:35:26Z</time>
      </trkpt>
      <trkpt lat="46.19206" lon="4.62482">
        <ele>716</ele>
        <time>2016-06-28T05:37:26Z</time>
      </trkpt>
      <trkpt lat="46.192" lon="4.62492">
        <ele>716</ele>
        <time>2016-06-28T05:39:26Z</time>
      </trkpt>
      <trkpt lat="46.19193" lon="4.62504">
        <ele>719</ele>
        <time>2016-06-28T05:41:26Z</time>
      </trkpt>
      <trkpt lat="46.19185" lon="4.62524">
        <ele>719</ele>
        <time>2016-06-28T05:43:26Z</time>
      </trkpt>
      <trkpt lat="46.19171" lon="4.6256">
        <ele>720</ele>
        <time>2016-06-28T05:45:26Z</time>
      </trkpt>
      <trkpt lat="46.19156" lon="4.62588">
        <ele>715</ele>
        <time>2016-06-28T05:47:26Z</time>
      </trkpt>
      <trkpt lat="46.19097" lon="4.62664">
        <ele>709</ele>
        <time>2016-06-28T05:49:26Z</time>
      </trkpt>
      <trkpt lat="46.19068" lon="4.62708">
        <ele>705</ele>
        <time>2016-06-28T05:51:26Z</time>
      </trkpt>
      <trkpt lat="46.19046" lon="4.62745">
        <ele>705</ele>
        <time>2016-06-28T05:53:26Z</time>
      </trkpt>
      <trkpt lat="46.19005" lon="4.62816">
        <ele>706</ele>
        <time>2016-06-28T05:55:26Z</time>
      </trkpt>
      <trkpt lat="46.1896" lon="4.62897">
        <ele>694</ele>
        <time>2016-06-28T05:57:26Z</time>
      </trkpt>
      <trkpt lat="46.18953" lon="4.62904">
        <ele>693</ele>
        <time>2016-06-28T05:59:26Z</time>
      </trkpt>
      <trkpt lat="46.18952" lon="4.62905">
        <ele>693</ele>
        <time>2016-06-28T06:01:26Z</time>
      </trkpt>
      <trkpt lat="46.18949" lon="4.62906">
        <ele>693</ele>
        <time>2016-06-28T06:03:26Z</time>
      </trkpt>
      <trkpt lat="46.18946" lon="4.62908">
        <ele>692</ele>
        <time>2016-06-28T06:05:26Z</time>
      </trkpt>
      <trkpt lat="46.18933" lon="4.6291">
        <ele>690</ele>
        <time>2016-06-28T06:07:26Z</time>
      </trkpt>
      <trkpt lat="46.18928" lon="4.62909">
        <ele>689</ele>
        <time>2016-06-28T06:09:26Z</time>
      </trkpt>
      <trkpt lat="46.18925" lon="4.62908">
        <ele>688</ele>
        <time>2016-06-28T06:11:26Z</time>
      </trkpt>
      <trkpt lat="46.18921" lon="4.62906">
        <ele>688</ele>
        <time>2016-06-28T06:13:26Z</time>
      </trkpt>
      <trkpt lat="46.18917" lon="4.62904">
        <ele>688</ele>
        <time>2016-06-28T06:15:26Z</time>
      </trkpt>
      <trkpt lat="46.18911" lon="4.62899">
        <ele>681</ele>
        <time>2016-06-28T06:17:26Z</time>
      </trkpt>
      <trkpt lat="46.18908" lon="4.62895">
        <ele>681</ele>
        <time>2016-06-28T06:19:26Z</time>
      </trkpt>
      <trkpt lat="46.18904" lon="4.62891">
        <ele>680</ele>
        <time>2016-06-28T06:21:26Z</time>
      </trkpt>
      <trkpt lat="46.18898" lon="4.62884">
        <ele>680</ele>
        <time>2016-06-28T06:23:26Z</time>
      </trkpt>
      <trkpt lat="46.18893" lon="4.62875">
        <ele>680</ele>
        <time>2016-06-28T06:25:26Z</time>
      </trkpt>
      <trkpt lat="46.18891" lon="4.62871">
        <ele>680</ele>
        <time>2016-06-28T06:27:26Z</time>
      </trkpt>
      <trkpt lat="46.18889" lon="4.62866">
        <ele>680</ele>
        <time>2016-06-28T06:29:26Z</time>
      </trkpt>
      <trkpt lat="46.18887" lon="4.62861">
        <ele>680</ele>
        <time>2016-06-28T06:31:26Z</time>
      </trkpt>
      <trkpt lat="46.18886" lon="4.62854">
        <ele>680</ele>
        <time>2016-06-28T06:33:26Z</time>
      </trkpt>
      <trkpt lat="46.18884" lon="4.62844">
        <ele>680</ele>
        <time>2016-06-28T06:35:26Z</time>
      </trkpt>
      <trkpt lat="46.18883" lon="4.62836">
        <ele>680</ele>
        <time>2016-06-28T06:37:26Z</time>
      </trkpt>
      <trkpt lat="46.18883" lon="4.62829">
        <ele>680</ele>
        <time>2016-06-28T06:39:26Z</time>
      </trkpt>
      <trkpt lat="46.18884" lon="4.62823">
        <ele>680</ele>
        <time>2016-06-28T06:41:26Z</time>
      </trkpt>
      <trkpt lat="46.18885" lon="4.62816">
        <ele>679</ele>
        <time>2016-06-28T06:43:26Z</time>
      </trkpt>
      <trkpt lat="46.18886" lon="4.62809">
        <ele>679</ele>
        <time>2016-06-28T06:45:26Z</time>
      </trkpt>
      <trkpt lat="46.18888" lon="4.62802">
        <ele>679</ele>
        <time>2016-06-28T06:47:26Z</time>
      </trkpt>
      <trkpt lat="46.1889" lon="4.62795">
        <ele>679</ele>
        <time>2016-06-28T06:49:26Z</time>
      </trkpt>
      <trkpt lat="46.18892" lon="4.62789">
        <ele>679</ele>
        <time>2016-06-28T06:51:26Z</time>
      </trkpt>
      <trkpt lat="46.18896" lon="4.6278">
        <ele>679</ele>
        <time>2016-06-28T06:53:26Z</time>
      </trkpt>
      <trkpt lat="46.18908" lon="4.62761">
        <ele>680</ele>
        <time>2016-06-28T06:55:26Z</time>
      </trkpt>
      <trkpt lat="46.18994" lon="4.62632">
        <ele>680</ele>
        <time>2016-06-28T06:57:26Z</time>
      </trkpt>
      <trkpt lat="46.19007" lon="4.62611">
        <ele>687</ele>
        <time>2016-06-28T06:59:26Z</time>
      </trkpt>
      <trkpt lat="46.19011" lon="4.62604">
        <ele>687</ele>
        <time>2016-06-28T07:01:26Z</time>
      </trkpt>
      <trkpt lat="46.19014" lon="4.62597">
        <ele>686</ele>
        <time>2016-06-28T07:03:26Z</time>
      </trkpt>
      <trkpt lat="46.19016" lon="4.6259">
        <ele>685</ele>
        <time>2016-06-28T07:05:26Z</time>
      </trkpt>
      <trkpt lat="46.19017" lon="4.62583">
        <ele>683</ele>
        <time>2016-06-28T07:07:26Z</time>
      </trkpt>
      <trkpt lat="46.19017" lon="4.62577">
        <ele>683</ele>
        <time>2016-06-28T07:09:26Z</time>
      </trkpt>
      <trkpt lat="46.19017" lon="4.62569">
        <ele>684</ele>
        <time>2016-06-28T07:11:26Z</time>
      </trkpt>
      <trkpt lat="46.19014" lon="4.6256">
        <ele>685</ele>
        <time>2016-06-28T07:13:26Z</time>
      </trkpt>
      <trkpt lat="46.19011" lon="4.62554">
        <ele>685</ele>
        <time>2016-06-28T07:15:26Z</time>
      </trkpt>
      <trkpt lat="46.19007" lon="4.62549">
        <ele>685</ele>
        <time>2016-06-28T07:17:26Z</time>
      </trkpt>
      <trkpt lat="46.19004" lon="4.62545">
        <ele>685</ele>
        <time>2016-06-28T07:19:26Z</time>
      </trkpt>
      <trkpt lat="46.18998" lon="4.62543">
        <ele>680</ele>
        <time>2016-06-28T07:21:26Z</time>
      </trkpt>
      <trkpt lat="46.18992" lon="4.62541">
        <ele>680</ele>
        <time>2016-06-28T07:23:26Z</time>
      </trkpt>
      <trkpt lat="46.18981" lon="4.62543">
        <ele>679</ele>
        <time>2016-06-28T07:25:26Z</time>
      </trkpt>
      <trkpt lat="46.18973" lon="4.62546">
        <ele>679</ele>
        <time>2016-06-28T10:37:26Z</time>
      </trkpt>
      <trkpt lat="46.18965" lon="4.62554">
        <ele>678</ele>
        <time>2016-06-28T10:39:26Z</time>
      </trkpt>
      <trkpt lat="46.18928" lon="4.62593">
        <ele>673</ele>
        <time>2016-06-28T10:41:26Z</time>
      </trkpt>
      <trkpt lat="46.18913" lon="4.6261">
        <ele>668</ele>
        <time>2016-06-28T10:43:26Z</time>
      </trkpt>
      <trkpt lat="46.18896" lon="4.62631">
        <ele>668</ele>
        <time>2016-06-28T10:45:26Z</time>
      </trkpt>
      <trkpt lat="46.18866" lon="4.62666">
        <ele>666</ele>
        <time>2016-06-28T10:47:26Z</time>
      </trkpt>
      <trkpt lat="46.18856" lon="4.62682">
        <ele>666</ele>
        <time>2016-06-28T10:49:26Z</time>
      </trkpt>
      <trkpt lat="46.18846" lon="4.62697">
        <ele>666</ele>
        <time>2016-06-28T10:51:26Z</time>
      </trkpt>
      <trkpt lat="46.1883" lon="4.62726">
        <ele>661</ele>
        <time>2016-06-28T10:53:26Z</time>
      </trkpt>
      <trkpt lat="46.18811" lon="4.62759">
        <ele>660</ele>
        <time>2016-06-28T10:55:26Z</time>
      </trkpt>
      <trkpt lat="46.18779" lon="4.62819">
        <ele>655</ele>
        <time>2016-06-28T10:57:26Z</time>
      </trkpt>
      <trkpt lat="46.18772" lon="4.62834">
        <ele>652</ele>
        <time>2016-06-28T10:59:26Z</time>
      </trkpt>
      <trkpt lat="46.18767" lon="4.62851">
        <ele>651</ele>
        <time>2016-06-28T11:01:26Z</time>
      </trkpt>
      <trkpt lat="46.18764" lon="4.62866">
        <ele>652</ele>
        <time>2016-06-28T11:03:26Z</time>
      </trkpt>
      <trkpt lat="46.18761" lon="4.62883">
        <ele>651</ele>
        <time>2016-06-28T11:05:26Z</time>
      </trkpt>
      <trkpt lat="46.1876" lon="4.62899">
        <ele>649</ele>
        <time>2016-06-28T11:07:26Z</time>
      </trkpt>
      <trkpt lat="46.18761" lon="4.62925">
        <ele>644</ele>
        <time>2016-06-28T11:09:26Z</time>
      </trkpt>
      <trkpt lat="46.18764" lon="4.62939">
        <ele>646</ele>
        <time>2016-06-28T11:11:26Z</time>
      </trkpt>
      <trkpt lat="46.18766" lon="4.6295">
        <ele>646</ele>
        <time>2016-06-28T11:13:26Z</time>
      </trkpt>
      <trkpt lat="46.18771" lon="4.62962">
        <ele>646</ele>
        <time>2016-06-28T11:15:26Z</time>
      </trkpt>
      <trkpt lat="46.18779" lon="4.62982">
        <ele>645</ele>
        <time>2016-06-28T11:17:26Z</time>
      </trkpt>
      <trkpt lat="46.18785" lon="4.62995">
        <ele>646</ele>
        <time>2016-06-28T11:19:26Z</time>
      </trkpt>
      <trkpt lat="46.18792" lon="4.63009">
        <ele>638</ele>
        <time>2016-06-28T11:21:26Z</time>
      </trkpt>
      <trkpt lat="46.18798" lon="4.63021">
        <ele>638</ele>
        <time>2016-06-28T11:23:26Z</time>
      </trkpt>
      <trkpt lat="46.18812" lon="4.63044">
        <ele>636</ele>
        <time>2016-06-28T11:25:26Z</time>
      </trkpt>
      <trkpt lat="46.1882" lon="4.63054">
        <ele>636</ele>
        <time>2016-06-28T11:27:26Z</time>
      </trkpt>
      <trkpt lat="46.18828" lon="4.63063">
        <ele>635</ele>
        <time>2016-06-28T11:29:26Z</time>
      </trkpt>
      <trkpt lat="46.1884" lon="4.63072">
        <ele>640</ele>
        <time>2016-06-28T11:31:26Z</time>
      </trkpt>
      <trkpt lat="46.18846" lon="4.63075">
        <ele>641</ele>
        <time>2016-06-28T11:33:26Z</time>
      </trkpt>
      <trkpt lat="46.18867" lon="4.63087">
        <ele>634</ele>
        <time>2016-06-28T11:35:26Z</time>
      </trkpt>
      <trkpt lat="46.1888" lon="4.63094">
        <ele>635</ele>
        <time>2016-06-28T11:37:26Z</time>
      </trkpt>
      <trkpt lat="46.189" lon="4.63109">
        <ele>636</ele>
        <time>2016-06-28T11:39:26Z</time>
      </trkpt>
      <trkpt lat="46.18902" lon="4.63111">
        <ele>636</ele>
        <time>2016-06-28T11:41:26Z</time>
      </trkpt>
      <trkpt lat="46.18905" lon="4.63115">
        <ele>635</ele>
        <time>2016-06-28T11:43:26Z</time>
      </trkpt>
      <trkpt lat="46.18908" lon="4.6312">
        <ele>635</ele>
        <time>2016-06-28T11:45:26Z</time>
      </trkpt>
      <trkpt lat="46.18909" lon="4.63122">
        <ele>634</ele>
        <time>2016-06-28T11:47:26Z</time>
      </trkpt>
      <trkpt lat="46.18912" lon="4.63128">
        <ele>634</ele>
        <time>2016-06-28T11:49:26Z</time>
      </trkpt>
      <trkpt lat="46.18924" lon="4.6316">
        <ele>638</ele>
        <time>2016-06-28T11:51:26Z</time>
      </trkpt>
      <trkpt lat="46.18933" lon="4.6319">
        <ele>636</ele>
        <time>2016-06-28T11:53:26Z</time>
      </trkpt>
      <trkpt lat="46.1894" lon="4.6321">
        <ele>636</ele>
        <time>2016-06-28T11:55:26Z</time>
      </trkpt>
      <trkpt lat="46.18941" lon="4.63213">
        <ele>636</ele>
        <time>2016-06-28T11:57:26Z</time>
      </trkpt>
      <trkpt lat="46.18941" lon="4.63216">
        <ele>636</ele>
        <time>2016-06-28T11:59:26Z</time>
      </trkpt>
      <trkpt lat="46.18942" lon="4.6322">
        <ele>636</ele>
        <time>2016-06-28T12:01:26Z</time>
      </trkpt>
      <trkpt lat="46.18943" lon="4.63225">
        <ele>636</ele>
        <time>2016-06-28T12:03:26Z</time>
      </trkpt>
      <trkpt lat="46.18943" lon="4.63229">
        <ele>635</ele>
        <time>2016-06-28T12:05:26Z</time>
      </trkpt>
      <trkpt lat="46.18943" lon="4.63235">
        <ele>635</ele>
        <time>2016-06-28T12:07:26Z</time>
      </trkpt>
      <trkpt lat="46.18943" lon="4.63239">
        <ele>634</ele>
        <time>2016-06-28T12:09:26Z</time>
      </trkpt>
      <trkpt lat="46.18942" lon="4.63244">
        <ele>634</ele>
        <time>2016-06-28T12:11:26Z</time>
      </trkpt>
      <trkpt lat="46.18941" lon="4.63248">
        <ele>633</ele>
        <time>2016-06-28T12:13:26Z</time>
      </trkpt>
      <trkpt lat="46.18939" lon="4.63254">
        <ele>632</ele>
        <time>2016-06-28T12:15:26Z</time>
      </trkpt>
      <trkpt lat="46.18938" lon="4.63258">
        <ele>632</ele>
        <time>2016-06-28T12:17:26Z</time>
      </trkpt>
      <trkpt lat="46.18935" lon="4.63262">
        <ele>631</ele>
        <time>2016-06-28T12:19:26Z</time>
      </trkpt>
      <trkpt lat="46.18932" lon="4.63266">
        <ele>631</ele>
        <time>2016-06-28T12:21:26Z</time>
      </trkpt>
      <trkpt lat="46.18926" lon="4.63273">
        <ele>631</ele>
        <time>2016-06-28T12:23:26Z</time>
      </trkpt>
      <trkpt lat="46.18915" lon="4.63276">
        <ele>621</ele>
        <time>2016-06-28T12:25:26Z</time>
      </trkpt>
      <trkpt lat="46.18907" lon="4.63277">
        <ele>621</ele>
        <time>2016-06-28T12:27:26Z</time>
      </trkpt>
      <trkpt lat="46.18903" lon="4.63278">
        <ele>621</ele>
        <time>2016-06-28T12:29:26Z</time>
      </trkpt>
      <trkpt lat="46.18888" lon="4.63279">
        <ele>620</ele>
        <time>2016-06-28T12:31:26Z</time>
      </trkpt>
      <trkpt lat="46.18875" lon="4.6328">
        <ele>619</ele>
        <time>2016-06-28T12:33:26Z</time>
      </trkpt>
      <trkpt lat="46.18867" lon="4.63281">
        <ele>618</ele>
        <time>2016-06-28T12:35:26Z</time>
      </trkpt>
      <trkpt lat="46.18859" lon="4.63283">
        <ele>617</ele>
        <time>2016-06-28T12:37:26Z</time>
      </trkpt>
      <trkpt lat="46.18852" lon="4.63286">
        <ele>617</ele>
        <time>2016-06-28T12:39:26Z</time>
      </trkpt>
      <trkpt lat="46.18843" lon="4.63292">
        <ele>617</ele>
        <time>2016-06-28T12:41:26Z</time>
      </trkpt>
      <trkpt lat="46.18837" lon="4.63296">
        <ele>617</ele>
        <time>2016-06-28T12:43:26Z</time>
      </trkpt>
      <trkpt lat="46.18829" lon="4.63301">
        <ele>609</ele>
        <time>2016-06-28T12:45:26Z</time>
      </trkpt>
      <trkpt lat="46.1879" lon="4.6333">
        <ele>607</ele>
        <time>2016-06-28T12:47:26Z</time>
      </trkpt>
      <trkpt lat="46.18783" lon="4.63335">
        <ele>611</ele>
        <time>2016-06-28T12:49:26Z</time>
      </trkpt>
      <trkpt lat="46.18738" lon="4.63367">
        <ele>603</ele>
        <time>2016-06-28T12:51:26Z</time>
      </trkpt>
      <trkpt lat="46.18725" lon="4.63378">
        <ele>602</ele>
        <time>2016-06-28T12:53:26Z</time>
      </trkpt>
      <trkpt lat="46.18714" lon="4.63386">
        <ele>602</ele>
        <time>2016-06-28T12:55:26Z</time>
      </trkpt>
      <trkpt lat="46.18714" lon="4.63386">
        <ele>602</ele>
        <time>2016-06-28T12:57:26Z</time>
      </trkpt>
      <trkpt lat="46.18714" lon="4.63386">
        <ele>602</ele>
        <time>2016-06-28T12:59:26Z</time>
      </trkpt>
      <trkpt lat="46.18713" lon="4.63386">
        <ele>602</ele>
        <time>2016-06-28T13:01:26Z</time>
      </trkpt>
      <trkpt lat="46.18701" lon="4.63396">
        <ele>601</ele>
        <time>2016-06-28T13:03:26Z</time>
      </trkpt>
      <trkpt lat="46.18681" lon="4.6341">
        <ele>600</ele>
        <time>2016-06-28T13:05:26Z</time>
      </trkpt>
      <trkpt lat="46.1868" lon="4.63411">
        <ele>600</ele>
        <time>2016-06-28T13:07:26Z</time>
      </trkpt>
      <trkpt lat="46.1867" lon="4.63419">
        <ele>599</ele>
        <time>2016-06-28T13:09:26Z</time>
      </trkpt>
      <trkpt lat="46.18645" lon="4.63436">
        <ele>595</ele>
        <time>2016-06-28T13:11:26Z</time>
      </trkpt>
      <trkpt lat="46.18627" lon="4.63449">
        <ele>594</ele>
        <time>2016-06-28T13:13:26Z</time>
      </trkpt>
      <trkpt lat="46.18604" lon="4.63466">
        <ele>593</ele>
        <time>2016-06-28T13:15:26Z</time>
      </trkpt>
      <trkpt lat="46.18543" lon="4.63511">
        <ele>585</ele>
        <time>2016-06-28T13:17:26Z</time>
      </trkpt>
      <trkpt lat="46.18533" lon="4.63518">
        <ele>585</ele>
        <time>2016-06-28T13:19:26Z</time>
      </trkpt>
      <trkpt lat="46.18529" lon="4.63522">
        <ele>585</ele>
        <time>2016-06-28T13:21:26Z</time>
      </trkpt>
      <trkpt lat="46.18494" lon="4.63547">
        <ele>582</ele>
        <time>2016-06-28T13:23:26Z</time>
      </trkpt>
      <trkpt lat="46.18457" lon="4.63573">
        <ele>581</ele>
        <time>2016-06-28T13:25:26Z</time>
      </trkpt>
      <trkpt lat="46.18445" lon="4.63579">
        <ele>581</ele>
        <time>2016-06-28T13:27:26Z</time>
      </trkpt>
      <trkpt lat="46.18433" lon="4.63582">
        <ele>580</ele>
        <time>2016-06-28T13:29:26Z</time>
      </trkpt>
      <trkpt lat="46.18409" lon="4.63582">
        <ele>577</ele>
        <time>2016-06-28T13:31:26Z</time>
      </trkpt>
      <trkpt lat="46.18398" lon="4.63581">
        <ele>577</ele>
        <time>2016-06-28T13:33:26Z</time>
      </trkpt>
      <trkpt lat="46.18386" lon="4.63579">
        <ele>576</ele>
        <time>2016-06-28T13:35:26Z</time>
      </trkpt>
      <trkpt lat="46.1837" lon="4.63572">
        <ele>575</ele>
        <time>2016-06-28T13:37:26Z</time>
      </trkpt>
      <trkpt lat="46.18359" lon="4.63564">
        <ele>574</ele>
        <time>2016-06-28T13:39:26Z</time>
      </trkpt>
      <trkpt lat="46.18348" lon="4.63553">
        <ele>574</ele>
        <time>2016-06-28T13:41:26Z</time>
      </trkpt>
      <trkpt lat="46.18337" lon="4.6354">
        <ele>574</ele>
        <time>2016-06-28T13:43:26Z</time>
      </trkpt>
      <trkpt lat="46.1833" lon="4.63529">
        <ele>567</ele>
        <time>2016-06-28T13:45:26Z</time>
      </trkpt>
      <trkpt lat="46.18327" lon="4.63524">
        <ele>567</ele>
        <time>2016-06-28T13:47:26Z</time>
      </trkpt>
      <trkpt lat="46.18323" lon="4.63516">
        <ele>568</ele>
        <time>2016-06-28T13:49:26Z</time>
      </trkpt>
      <trkpt lat="46.18319" lon="4.63509">
        <ele>569</ele>
        <time>2016-06-28T13:51:26Z</time>
      </trkpt>
      <trkpt lat="46.18315" lon="4.63501">
        <ele>568</ele>
        <time>2016-06-28T13:53:26Z</time>
      </trkpt>
      <trkpt lat="46.18312" lon="4.63494">
        <ele>569</ele>
        <time>2016-06-28T13:55:26Z</time>
      </trkpt>
      <trkpt lat="46.18309" lon="4.63487">
        <ele>568</ele>
        <time>2016-06-28T13:57:26Z</time>
      </trkpt>
      <trkpt lat="46.18307" lon="4.63481">
        <ele>568</ele>
        <time>2016-06-28T13:59:26Z</time>
      </trkpt>
      <trkpt lat="46.18305" lon="4.63472">
        <ele>567</ele>
        <time>2016-06-28T14:01:26Z</time>
      </trkpt>
      <trkpt lat="46.18304" lon="4.63465">
        <ele>567</ele>
        <time>2016-06-28T14:03:26Z</time>
      </trkpt>
      <trkpt lat="46.18303" lon="4.63451">
        <ele>567</ele>
        <time>2016-06-28T14:05:26Z</time>
      </trkpt>
      <trkpt lat="46.18303" lon="4.63438">
        <ele>567</ele>
        <time>2016-06-28T14:07:26Z</time>
      </trkpt>
      <trkpt lat="46.18304" lon="4.63429">
        <ele>567</ele>
        <time>2016-06-28T14:09:26Z</time>
      </trkpt>
      <trkpt lat="46.18306" lon="4.63416">
        <ele>565</ele>
        <time>2016-06-28T14:11:26Z</time>
      </trkpt>
      <trkpt lat="46.18308" lon="4.63403">
        <ele>565</ele>
        <time>2016-06-28T14:13:26Z</time>
      </trkpt>
      <trkpt lat="46.1831" lon="4.63389">
        <ele>564</ele>
        <time>2016-06-28T14:15:26Z</time>
      </trkpt>
      <trkpt lat="46.18314" lon="4.63373">
        <ele>564</ele>
        <time>2016-06-28T14:17:26Z</time>
      </trkpt>
      <trkpt lat="46.18319" lon="4.63358">
        <ele>564</ele>
        <time>2016-06-28T14:19:26Z</time>
      </trkpt>
      <trkpt lat="46.18324" lon="4.63344">
        <ele>564</ele>
        <time>2016-06-28T14:21:26Z</time>
      </trkpt>
      <trkpt lat="46.18329" lon="4.63334">
        <ele>565</ele>
        <time>2016-06-28T14:23:26Z</time>
      </trkpt>
      <trkpt lat="46.18336" lon="4.63325">
        <ele>564</ele>
        <time>2016-06-28T14:25:26Z</time>
      </trkpt>
      <trkpt lat="46.18347" lon="4.63316">
        <ele>563</ele>
        <time>2016-06-28T14:27:26Z</time>
      </trkpt>
      <trkpt lat="46.1839" lon="4.63292">
        <ele>561</ele>
        <time>2016-06-28T14:29:26Z</time>
      </trkpt>
      <trkpt lat="46.18426" lon="4.63277">
        <ele>564</ele>
        <time>2016-06-28T14:31:26Z</time>
      </trkpt>
      <trkpt lat="46.18443" lon="4.6327">
        <ele>564</ele>
        <time>2016-06-28T14:33:26Z</time>
      </trkpt>
      <trkpt lat="46.18464" lon="4.63261">
        <ele>565</ele>
        <time>2016-06-28T14:35:26Z</time>
      </trkpt>
      <trkpt lat="46.18479" lon="4.63254">
        <ele>564</ele>
        <time>2016-06-28T14:37:26Z</time>
      </trkpt>
      <trkpt lat="46.18482" lon="4.63252">
        <ele>564</ele>
        <time>2016-06-28T14:39:26Z</time>
      </trkpt>
      <trkpt lat="46.18504" lon="4.63236">
        <ele>562</ele>
        <time>2016-06-28T14:41:26Z</time>
      </trkpt>
      <trkpt lat="46.18514" lon="4.63226">
        <ele>562</ele>
        <time>2016-06-28T14:43:26Z</time>
      </trkpt>
      <trkpt lat="46.18525" lon="4.63211">
        <ele>562</ele>
        <time>2016-06-28T14:45:26Z</time>
      </trkpt>
      <trkpt lat="46.18533" lon="4.63198">
        <ele>562</ele>
        <time>2016-06-28T14:47:26Z</time>
      </trkpt>
      <trkpt lat="46.18538" lon="4.63186">
        <ele>562</ele>
        <time>2016-06-28T14:49:26Z</time>
      </trkpt>
      <trkpt lat="46.1854" lon="4.63177">
        <ele>562</ele>
        <time>2016-06-28T14:51:26Z</time>
      </trkpt>
      <trkpt lat="46.18541" lon="4.63167">
        <ele>562</ele>
        <time>2016-06-28T14:53:26Z</time>
      </trkpt>
      <trkpt lat="46.18542" lon="4.63158">
        <ele>563</ele>
        <time>2016-06-28T14:55:26Z</time>
      </trkpt>
      <trkpt lat="46.1854" lon="4.63148">
        <ele>563</ele>
        <time>2016-06-28T14:57:26Z</time>
      </trkpt>
      <trkpt lat="46.18539" lon="4.63144">
        <ele>563</ele>
        <time>2016-06-28T14:59:26Z</time>
      </trkpt>
      <trkpt lat="46.18536" lon="4.63139">
        <ele>563</ele>
        <time>2016-06-28T15:01:26Z</time>
      </trkpt>
      <trkpt lat="46.18534" lon="4.63136">
        <ele>563</ele>
        <time>2016-06-28T15:03:26Z</time>
      </trkpt>
      <trkpt lat="46.1853" lon="4.63134">
        <ele>563</ele>
        <time>2016-06-28T15:05:26Z</time>
      </trkpt>
      <trkpt lat="46.18526" lon="4.63132">
        <ele>562</ele>
        <time>2016-06-28T15:07:26Z</time>
      </trkpt>
      <trkpt lat="46.18525" lon="4.63132">
        <ele>562</ele>
        <time>2016-06-28T15:09:26Z</time>
      </trkpt>
      <trkpt lat="46.18523" lon="4.63132">
        <ele>562</ele>
        <time>2016-06-28T15:11:26Z</time>
      </trkpt>
      <trkpt lat="46.1852" lon="4.63133">
        <ele>562</ele>
        <time>2016-06-28T15:13:26Z</time>
      </trkpt>
      <trkpt lat="46.18518" lon="4.63134">
        <ele>561</ele>
        <time>2016-06-28T15:15:26Z</time>
      </trkpt>
      <trkpt lat="46.18511" lon="4.6314">
        <ele>560</ele>
        <time>2016-06-28T15:17:26Z</time>
      </trkpt>
      <trkpt lat="46.18504" lon="4.6315">
        <ele>557</ele>
        <time>2016-06-28T15:19:26Z</time>
      </trkpt>
      <trkpt lat="46.18493" lon="4.63172">
        <ele>551</ele>
        <time>2016-06-28T15:21:26Z</time>
      </trkpt>
      <trkpt lat="46.18484" lon="4.63188">
        <ele>551</ele>
        <time>2016-06-28T15:23:26Z</time>
      </trkpt>
      <trkpt lat="46.18472" lon="4.63202">
        <ele>552</ele>
        <time>2016-06-28T15:25:26Z</time>
      </trkpt>
      <trkpt lat="46.18463" lon="4.6321">
        <ele>552</ele>
        <time>2016-06-28T15:27:26Z</time>
      </trkpt>
      <trkpt lat="46.18452" lon="4.63218">
        <ele>553</ele>
        <time>2016-06-28T15:29:26Z</time>
      </trkpt>
      <trkpt lat="46.18444" lon="4.63222">
        <ele>553</ele>
        <time>2016-06-28T15:31:26Z</time>
      </trkpt>
      <trkpt lat="46.18426" lon="4.6323">
        <ele>553</ele>
        <time>2016-06-28T15:33:26Z</time>
      </trkpt>
      <trkpt lat="46.18408" lon="4.63231">
        <ele>549</ele>
        <time>2016-06-28T15:35:26Z</time>
      </trkpt>
      <trkpt lat="46.18383" lon="4.63229">
        <ele>546</ele>
        <time>2016-06-28T15:37:26Z</time>
      </trkpt>
      <trkpt lat="46.18316" lon="4.63222">
        <ele>538</ele>
        <time>2016-06-28T15:39:26Z</time>
      </trkpt>
      <trkpt lat="46.18302" lon="4.63222">
        <ele>537</ele>
        <time>2016-06-28T15:41:26Z</time>
      </trkpt>
      <trkpt lat="46.18289" lon="4.63224">
        <ele>536</ele>
        <time>2016-06-28T15:43:26Z</time>
      </trkpt>
      <trkpt lat="46.18267" lon="4.63233">
        <ele>536</ele>
        <time>2016-06-28T15:45:26Z</time>
      </trkpt>
      <trkpt lat="46.1826" lon="4.63237">
        <ele>536</ele>
        <time>2016-06-28T15:47:26Z</time>
      </trkpt>
      <trkpt lat="46.18253" lon="4.63241">
        <ele>536</ele>
        <time>2016-06-28T15:49:26Z</time>
      </trkpt>
      <trkpt lat="46.18238" lon="4.63253">
        <ele>536</ele>
        <time>2016-06-28T15:51:26Z</time>
      </trkpt>
      <trkpt lat="46.18221" lon="4.63269">
        <ele>535</ele>
        <time>2016-06-28T15:53:26Z</time>
      </trkpt>
      <trkpt lat="46.18174" lon="4.63312">
        <ele>533</ele>
        <time>2016-06-28T15:55:26Z</time>
      </trkpt>
      <trkpt lat="46.1814" lon="4.63345">
        <ele>527</ele>
        <time>2016-06-28T15:57:26Z</time>
      </trkpt>
      <trkpt lat="46.18113" lon="4.63371">
        <ele>525</ele>
        <time>2016-06-28T15:59:26Z</time>
      </trkpt>
      <trkpt lat="46.18108" lon="4.63375">
        <ele>525</ele>
        <time>2016-06-28T16:01:26Z</time>
      </trkpt>
      <trkpt lat="46.18095" lon="4.63388">
        <ele>524</ele>
        <time>2016-06-28T16:03:26Z</time>
      </trkpt>
      <trkpt lat="46.18077" lon="4.63411">
        <ele>518</ele>
        <time>2016-06-28T16:05:26Z</time>
      </trkpt>
      <trkpt lat="46.18067" lon="4.63431">
        <ele>515</ele>
        <time>2016-06-28T16:07:26Z</time>
      </trkpt>
      <trkpt lat="46.18061" lon="4.63454">
        <ele>513</ele>
        <time>2016-06-28T16:09:26Z</time>
      </trkpt>
      <trkpt lat="46.1806" lon="4.63473">
        <ele>514</ele>
        <time>2016-06-28T16:11:26Z</time>
      </trkpt>
      <trkpt lat="46.1806" lon="4.63498">
        <ele>515</ele>
        <time>2016-06-28T16:13:26Z</time>
      </trkpt>
      <trkpt lat="46.18065" lon="4.63544">
        <ele>513</ele>
        <time>2016-06-28T16:15:26Z</time>
      </trkpt>
      <trkpt lat="46.18068" lon="4.63578">
        <ele>514</ele>
        <time>2016-06-28T16:17:26Z</time>
      </trkpt>
      <trkpt lat="46.18072" lon="4.63607">
        <ele>511</ele>
        <time>2016-06-28T16:19:26Z</time>
      </trkpt>
      <trkpt lat="46.18076" lon="4.63622">
        <ele>510</ele>
        <time>2016-06-28T16:21:26Z</time>
      </trkpt>
      <trkpt lat="46.18079" lon="4.63633">
        <ele>510</ele>
        <time>2016-06-28T16:23:26Z</time>
      </trkpt>
      <trkpt lat="46.1808" lon="4.63638">
        <ele>510</ele>
        <time>2016-06-28T16:25:26Z</time>
      </trkpt>
      <trkpt lat="46.18082" lon="4.6364">
        <ele>509</ele>
        <time>2016-06-28T16:27:26Z</time>
      </trkpt>
      <trkpt lat="46.18083" lon="4.63643">
        <ele>509</ele>
        <time>2016-06-28T16:29:26Z</time>
      </trkpt>
      <trkpt lat="46.18086" lon="4.63647">
        <ele>514</ele>
        <time>2016-06-28T16:31:26Z</time>
      </trkpt>
      <trkpt lat="46.18113" lon="4.63681">
        <ele>511</ele>
        <time>2016-06-28T16:33:26Z</time>
      </trkpt>
      <trkpt lat="46.18121" lon="4.63692">
        <ele>512</ele>
        <time>2016-06-28T16:35:26Z</time>
      </trkpt>
      <trkpt lat="46.18125" lon="4.63703">
        <ele>511</ele>
        <time>2016-06-28T16:37:26Z</time>
      </trkpt>
      <trkpt lat="46.18129" lon="4.63717">
        <ele>511</ele>
        <time>2016-06-28T16:39:26Z</time>
      </trkpt>
      <trkpt lat="46.18132" lon="4.63734">
        <ele>511</ele>
        <time>2016-06-28T16:41:26Z</time>
      </trkpt>
      <trkpt lat="46.18133" lon="4.63746">
        <ele>511</ele>
        <time>2016-06-28T16:43:26Z</time>
      </trkpt>
      <trkpt lat="46.18133" lon="4.63759">
        <ele>508</ele>
        <time>2016-06-28T16:45:26Z</time>
      </trkpt>
      <trkpt lat="46.18131" lon="4.63777">
        <ele>507</ele>
        <time>2016-06-28T16:47:26Z</time>
      </trkpt>
      <trkpt lat="46.18122" lon="4.63824">
        <ele>506</ele>
        <time>2016-06-28T16:49:26Z</time>
      </trkpt>
      <trkpt lat="46.181" lon="4.63883">
        <ele>504</ele>
        <time>2016-06-28T16:51:26Z</time>
      </trkpt>
      <trkpt lat="46.18096" lon="4.6389">
        <ele>504</ele>
        <time>2016-06-28T16:53:26Z</time>
      </trkpt>
      <trkpt lat="46.18083" lon="4.63904">
        <ele>497</ele>
        <time>2016-06-28T16:55:26Z</time>
      </trkpt>
      <trkpt lat="46.18043" lon="4.63937">
        <ele>495</ele>
        <time>2016-06-28T16:57:26Z</time>
      </trkpt>
      <trkpt lat="46.18014" lon="4.63964">
        <ele>493</ele>
        <time>2016-06-28T16:59:26Z</time>
      </trkpt>
      <trkpt lat="46.18003" lon="4.63975">
        <ele>493</ele>
        <time>2016-06-28T17:01:26Z</time>
      </trkpt>
      <trkpt lat="46.17989" lon="4.63988">
        <ele>486</ele>
        <time>2016-06-28T17:03:26Z</time>
      </trkpt>
      <trkpt lat="46.17985" lon="4.63995">
        <ele>486</ele>
        <time>2016-06-28T17:05:26Z</time>
      </trkpt>
      <trkpt lat="46.17979" lon="4.64008">
        <ele>484</ele>
        <time>2016-06-28T17:07:26Z</time>
      </trkpt>
      <trkpt lat="46.17975" lon="4.64034">
        <ele>483</ele>
        <time>2016-06-28T17:09:26Z</time>
      </trkpt>
      <trkpt lat="46.17967" lon="4.64095">
        <ele>481</ele>
        <time>2016-06-28T17:11:26Z</time>
      </trkpt>
      <trkpt lat="46.17961" lon="4.64162">
        <ele>480</ele>
        <time>2016-06-28T17:13:26Z</time>
      </trkpt>
      <trkpt lat="46.17959" lon="4.6418">
        <ele>477</ele>
        <time>2016-06-28T17:15:26Z</time>
      </trkpt>
      <trkpt lat="46.17959" lon="4.64186">
        <ele>477</ele>
        <time>2016-06-28T17:17:26Z</time>
      </trkpt>
      <trkpt lat="46.17957" lon="4.64193">
        <ele>476</ele>
        <time>2016-06-28T17:19:26Z</time>
      </trkpt>
      <trkpt lat="46.17953" lon="4.64203">
        <ele>476</ele>
        <time>2016-06-28T17:21:26Z</time>
      </trkpt>
      <trkpt lat="46.17947" lon="4.64214">
        <ele>476</ele>
        <time>2016-06-28T17:23:26Z</time>
      </trkpt>
      <trkpt lat="46.17938" lon="4.64226">
        <ele>476</ele>
        <time>2016-06-28T17:25:26Z</time>
      </trkpt>
      <trkpt lat="46.17929" lon="4.64235">
        <ele>476</ele>
        <time>2016-06-28T17:27:26Z</time>
      </trkpt>
      <trkpt lat="46.17922" lon="4.64239">
        <ele>476</ele>
        <time>2016-06-28T17:29:26Z</time>
      </trkpt>
      <trkpt lat="46.17858" lon="4.64247">
        <ele>472</ele>
        <time>2016-06-28T17:31:26Z</time>
      </trkpt>
      <trkpt lat="46.1776" lon="4.64256">
        <ele>468</ele>
        <time>2016-06-28T17:33:26Z</time>
      </trkpt>
      <trkpt lat="46.17714" lon="4.64261">
        <ele>464</ele>
        <time>2016-06-28T17:35:26Z</time>
      </trkpt>
      <trkpt lat="46.17711" lon="4.64261">
        <ele>463</ele>
        <time>2016-06-28T17:37:26Z</time>
      </trkpt>
      <trkpt lat="46.17708" lon="4.64263">
        <ele>463</ele>
        <time>2016-06-28T17:39:26Z</time>
      </trkpt>
      <trkpt lat="46.17705" lon="4.64263">
        <ele>463</ele>
        <time>2016-06-28T17:41:26Z</time>
      </trkpt>
      <trkpt lat="46.17702" lon="4.64264">
        <ele>463</ele>
        <time>2016-06-28T17:43:26Z</time>
      </trkpt>
      <trkpt lat="46.17699" lon="4.64266">
        <ele>463</ele>
        <time>2016-06-28T17:45:26Z</time>
      </trkpt>
      <trkpt lat="46.17696" lon="4.64267">
        <ele>462</ele>
        <time>2016-06-28T17:47:26Z</time>
      </trkpt>
      <trkpt lat="46.17693" lon="4.64269">
        <ele>462</ele>
        <time>2016-06-28T17:49:26Z</time>
      </trkpt>
      <trkpt lat="46.1769" lon="4.64271">
        <ele>462</ele>
        <time>2016-06-28T17:51:26Z</time>
      </trkpt>
      <trkpt lat="46.17688" lon="4.64273">
        <ele>462</ele>
        <time>2016-06-28T17:53:26Z</time>
      </trkpt>
      <trkpt lat="46.17685" lon="4.64275">
        <ele>462</ele>
        <time>2016-06-28T17:55:26Z</time>
      </trkpt>
      <trkpt lat="46.17683" lon="4.64278">
        <ele>462</ele>
        <time>2016-06-28T17:57:26Z</time>
      </trkpt>
      <trkpt lat="46.1768" lon="4.6428">
        <ele>462</ele>
        <time>2016-06-28T17:59:26Z</time>
      </trkpt>
      <trkpt lat="46.17678" lon="4.64284">
        <ele>462</ele>
        <time>2016-06-28T18:01:26Z</time>
      </trkpt>
      <trkpt lat="46.17676" lon="4.64287">
        <ele>463</ele>
        <time>2016-06-28T18:03:26Z</time>
      </trkpt>
      <trkpt lat="46.17674" lon="4.6429">
        <ele>463</ele>
        <time>2016-06-28T18:05:26Z</time>
      </trkpt>
      <trkpt lat="46.17672" lon="4.64294">
        <ele>463</ele>
        <time>2016-06-28T18:07:26Z</time>
      </trkpt>
      <trkpt lat="46.1767" lon="4.64299">
        <ele>463</ele>
        <time>2016-06-28T18:09:26Z</time>
      </trkpt>
      <trkpt lat="46.17668" lon="4.64302">
        <ele>463</ele>
        <time>2016-06-28T18:11:26Z</time>
      </trkpt>
      <trkpt lat="46.17658" lon="4.64325">
        <ele>459</ele>
        <time>2016-06-28T18:13:26Z</time>
      </trkpt>
      <trkpt lat="46.17643" lon="4.64358">
        <ele>459</ele>
        <time>2016-06-28T18:15:26Z</time>
      </trkpt>
      <trkpt lat="46.17634" lon="4.64378">
        <ele>459</ele>
        <time>2016-06-28T18:17:26Z</time>
      </trkpt>
      <trkpt lat="46.17626" lon="4.64398">
        <ele>458</ele>
        <time>2016-06-28T18:19:26Z</time>
      </trkpt>
      <trkpt lat="46.17617" lon="4.64417">
        <ele>458</ele>
        <time>2016-06-28T18:21:26Z</time>
      </trkpt>
      <trkpt lat="46.17613" lon="4.64427">
        <ele>458</ele>
        <time>2016-06-28T18:23:26Z</time>
      </trkpt>
      <trkpt lat="46.1761" lon="4.64436">
        <ele>457</ele>
        <time>2016-06-28T18:25:26Z</time>
      </trkpt>
      <trkpt lat="46.17607" lon="4.64444">
        <ele>457</ele>
        <time>2016-06-28T18:27:26Z</time>
      </trkpt>
      <trkpt lat="46.17605" lon="4.64452">
        <ele>457</ele>
        <time>2016-06-28T18:29:26Z</time>
      </trkpt>
      <trkpt lat="46.17604" lon="4.64461">
        <ele>457</ele>
        <time>2016-06-28T18:31:26Z</time>
      </trkpt>
      <trkpt lat="46.17603" lon="4.6447">
        <ele>456</ele>
        <time>2016-06-28T18:33:26Z</time>
      </trkpt>
      <trkpt lat="46.17602" lon="4.64479">
        <ele>456</ele>
        <time>2016-06-28T18:35:26Z</time>
      </trkpt>
      <trkpt lat="46.17602" lon="4.64488">
        <ele>455</ele>
        <time>2016-06-28T18:37:26Z</time>
      </trkpt>
      <trkpt lat="46.17603" lon="4.64498">
        <ele>455</ele>
        <time>2016-06-28T18:39:26Z</time>
      </trkpt>
      <trkpt lat="46.17604" lon="4.64508">
        <ele>452</ele>
        <time>2016-06-28T18:41:26Z</time>
      </trkpt>
      <trkpt lat="46.17606" lon="4.64517">
        <ele>453</ele>
        <time>2016-06-28T18:43:26Z</time>
      </trkpt>
      <trkpt lat="46.17608" lon="4.64527">
        <ele>453</ele>
        <time>2016-06-28T18:45:26Z</time>
      </trkpt>
      <trkpt lat="46.17611" lon="4.64535">
        <ele>453</ele>
        <time>2016-06-28T18:47:26Z</time>
      </trkpt>
      <trkpt lat="46.17612" lon="4.64539">
        <ele>453</ele>
        <time>2016-06-28T18:49:26Z</time>
      </trkpt>
      <trkpt lat="46.17618" lon="4.64551">
        <ele>453</ele>
        <time>2016-06-28T18:51:26Z</time>
      </trkpt>
      <trkpt lat="46.17625" lon="4.64562">
        <ele>453</ele>
        <time>2016-06-28T18:53:26Z</time>
      </trkpt>
      <trkpt lat="46.17631" lon="4.64568">
        <ele>454</ele>
        <time>2016-06-28T18:55:26Z</time>
      </trkpt>
      <trkpt lat="46.17635" lon="4.64573">
        <ele>454</ele>
        <time>2016-06-28T18:57:26Z</time>
      </trkpt>
      <trkpt lat="46.17644" lon="4.64583">
        <ele>455</ele>
        <time>2016-06-28T18:59:26Z</time>
      </trkpt>
      <trkpt lat="46.17649" lon="4.64588">
        <ele>453</ele>
        <time>2016-06-28T19:01:26Z</time>
      </trkpt>
      <trkpt lat="46.17656" lon="4.64596">
        <ele>454</ele>
        <time>2016-06-28T19:03:26Z</time>
      </trkpt>
      <trkpt lat="46.17659" lon="4.646">
        <ele>453</ele>
        <time>2016-06-28T19:05:26Z</time>
      </trkpt>
      <trkpt lat="46.17662" lon="4.64604">
        <ele>453</ele>
        <time>2016-06-28T19:07:26Z</time>
      </trkpt>
      <trkpt lat="46.17664" lon="4.64608">
        <ele>453</ele>
        <time>2016-06-28T19:09:26Z</time>
      </trkpt>
      <trkpt lat="46.17665" lon="4.64612">
        <ele>453</ele>
        <time>2016-06-28T19:11:26Z</time>
      </trkpt>
      <trkpt lat="46.17667" lon="4.64616">
        <ele>462</ele>
        <time>2016-06-28T19:13:26Z</time>
      </trkpt>
      <trkpt lat="46.17668" lon="4.64621">
        <ele>462</ele>
        <time>2016-06-28T19:15:26Z</time>
      </trkpt>
      <trkpt lat="46.17668" lon="4.64625">
        <ele>462</ele>
        <time>2016-06-28T19:17:26Z</time>
      </trkpt>
      <trkpt lat="46.17668" lon="4.6463">
        <ele>462</ele>
        <time>2016-06-28T19:19:26Z</time>
      </trkpt>
      <trkpt lat="46.17668" lon="4.64635">
        <ele>462</ele>
        <time>2016-06-28T19:21:26Z</time>
      </trkpt>
      <trkpt lat="46.17666" lon="4.6464">
        <ele>453</ele>
        <time>2016-06-28T19:23:26Z</time>
      </trkpt>
      <trkpt lat="46.17665" lon="4.64645">
        <ele>453</ele>
        <time>2016-06-28T19:25:26Z</time>
      </trkpt>
      <trkpt lat="46.17662" lon="4.6465">
        <ele>454</ele>
        <time>2016-06-28T19:27:26Z</time>
      </trkpt>
      <trkpt lat="46.17659" lon="4.64655">
        <ele>454</ele>
        <time>2016-06-28T19:29:26Z</time>
      </trkpt>
      <trkpt lat="46.17656" lon="4.64659">
        <ele>454</ele>
        <time>2016-06-28T19:31:26Z</time>
      </trkpt>
      <trkpt lat="46.17651" lon="4.64663">
        <ele>453</ele>
        <time>2016-06-28T19:33:26Z</time>
      </trkpt>
      <trkpt lat="46.17646" lon="4.64666">
        <ele>453</ele>
        <time>2016-06-28T19:35:26Z</time>
      </trkpt>
      <trkpt lat="46.17641" lon="4.64669">
        <ele>454</ele>
        <time>2016-06-28T19:37:26Z</time>
      </trkpt>
      <trkpt lat="46.17637" lon="4.64671">
        <ele>453</ele>
        <time>2016-06-28T19:39:26Z</time>
      </trkpt>
      <trkpt lat="46.17631" lon="4.64674">
        <ele>452</ele>
        <time>2016-06-28T19:41:26Z</time>
      </trkpt>
      <trkpt lat="46.17607" lon="4.64686">
        <ele>450</ele>
        <time>2016-06-28T19:43:26Z</time>
      </trkpt>
      <trkpt lat="46.17563" lon="4.64709">
        <ele>442</ele>
        <time>2016-06-28T19:45:26Z</time>
      </trkpt>
      <trkpt lat="46.17558" lon="4.64712">
        <ele>442</ele>
        <time>2016-06-28T19:47:26Z</time>
      </trkpt>
      <trkpt lat="46.17555" lon="4.64715">
        <ele>442</ele>
        <time>2016-06-28T19:49:26Z</time>
      </trkpt>
      <trkpt lat="46.17552" lon="4.64718">
        <ele>442</ele>
        <time>2016-06-28T19:51:26Z</time>
      </trkpt>
      <trkpt lat="46.17547" lon="4.64721">
        <ele>441</ele>
        <time>2016-06-28T19:53:26Z</time>
      </trkpt>
      <trkpt lat="46.17543" lon="4.64725">
        <ele>441</ele>
        <time>2016-06-28T19:55:26Z</time>
      </trkpt>
      <trkpt lat="46.17534" lon="4.64734">
        <ele>441</ele>
        <time>2016-06-28T19:57:26Z</time>
      </trkpt>
      <trkpt lat="46.17526" lon="4.64743">
        <ele>440</ele>
        <time>2016-06-28T19:59:26Z</time>
      </trkpt>
      <trkpt lat="46.17516" lon="4.64755">
        <ele>441</ele>
        <time>2016-06-28T20:01:26Z</time>
      </trkpt>
      <trkpt lat="46.17511" lon="4.64761">
        <ele>441</ele>
        <time>2016-06-28T20:03:26Z</time>
      </trkpt>
      <trkpt lat="46.17509" lon="4.64764">
        <ele>441</ele>
        <time>2016-06-28T20:05:26Z</time>
      </trkpt>
      <trkpt lat="46.17507" lon="4.64768">
        <ele>442</ele>
        <time>2016-06-28T20:07:26Z</time>
      </trkpt>
      <trkpt lat="46.17505" lon="4.64771">
        <ele>442</ele>
        <time>2016-06-28T20:09:26Z</time>
      </trkpt>
      <trkpt lat="46.17503" lon="4.64775">
        <ele>442</ele>
        <time>2016-06-28T20:11:26Z</time>
      </trkpt>
      <trkpt lat="46.17501" lon="4.64778">
        <ele>442</ele>
        <time>2016-06-28T20:13:26Z</time>
      </trkpt>
      <trkpt lat="46.17499" lon="4.64783">
        <ele>435</ele>
        <time>2016-06-28T20:15:26Z</time>
      </trkpt>
      <trkpt lat="46.17498" lon="4.64787">
        <ele>435</ele>
        <time>2016-06-28T20:17:26Z</time>
      </trkpt>
      <trkpt lat="46.17497" lon="4.64791">
        <ele>435</ele>
        <time>2016-06-28T20:19:26Z</time>
      </trkpt>
      <trkpt lat="46.17496" lon="4.64795">
        <ele>435</ele>
        <time>2016-06-28T20:21:26Z</time>
      </trkpt>
      <trkpt lat="46.17495" lon="4.64799">
        <ele>436</ele>
        <time>2016-06-28T20:23:26Z</time>
      </trkpt>
      <trkpt lat="46.17494" lon="4.64804">
        <ele>436</ele>
        <time>2016-06-28T20:25:26Z</time>
      </trkpt>
      <trkpt lat="46.17493" lon="4.64809">
        <ele>436</ele>
        <time>2016-06-28T20:27:26Z</time>
      </trkpt>
      <trkpt lat="46.17492" lon="4.64814">
        <ele>436</ele>
        <time>2016-06-28T20:29:26Z</time>
      </trkpt>
      <trkpt lat="46.17491" lon="4.64818">
        <ele>437</ele>
        <time>2016-06-28T20:31:26Z</time>
      </trkpt>
      <trkpt lat="46.17491" lon="4.64823">
        <ele>437</ele>
        <time>2016-06-28T20:33:26Z</time>
      </trkpt>
      <trkpt lat="46.1749" lon="4.64828">
        <ele>437</ele>
        <time>2016-06-28T20:35:26Z</time>
      </trkpt>
      <trkpt lat="46.1749" lon="4.64835">
        <ele>438</ele>
        <time>2016-06-28T20:37:26Z</time>
      </trkpt>
      <trkpt lat="46.17489" lon="4.64839">
        <ele>437</ele>
        <time>2016-06-28T20:39:26Z</time>
      </trkpt>
      <trkpt lat="46.17489" lon="4.64849">
        <ele>436</ele>
        <time>2016-06-28T20:41:26Z</time>
      </trkpt>
      <trkpt lat="46.17489" lon="4.6486">
        <ele>436</ele>
        <time>2016-06-28T20:43:26Z</time>
      </trkpt>
      <trkpt lat="46.17487" lon="4.64892">
        <ele>435</ele>
        <time>2016-06-28T20:45:26Z</time>
      </trkpt>
      <trkpt lat="46.17487" lon="4.64906">
        <ele>436</ele>
        <time>2016-06-28T20:47:26Z</time>
      </trkpt>
      <trkpt lat="46.17485" lon="4.6492">
        <ele>435</ele>
        <time>2016-06-28T20:49:26Z</time>
      </trkpt>
      <trkpt lat="46.17484" lon="4.64924">
        <ele>435</ele>
        <time>2016-06-28T20:51:26Z</time>
      </trkpt>
      <trkpt lat="46.17483" lon="4.64929">
        <ele>434</ele>
        <time>2016-06-28T20:53:26Z</time>
      </trkpt>
      <trkpt lat="46.17482" lon="4.64934">
        <ele>434</ele>
        <time>2016-06-28T20:55:26Z</time>
      </trkpt>
      <trkpt lat="46.17481" lon="4.64938">
        <ele>434</ele>
        <time>2016-06-28T20:57:26Z</time>
      </trkpt>
      <trkpt lat="46.17478" lon="4.64946">
        <ele>433</ele>
        <time>2016-06-28T20:59:26Z</time>
      </trkpt>
      <trkpt lat="46.17474" lon="4.64955">
        <ele>433</ele>
        <time>2016-06-28T21:01:26Z</time>
      </trkpt>
      <trkpt lat="46.17461" lon="4.6498">
        <ele>432</ele>
        <time>2016-06-28T21:03:26Z</time>
      </trkpt>
      <trkpt lat="46.17456" lon="4.64989">
        <ele>432</ele>
        <time>2016-06-28T21:05:26Z</time>
      </trkpt>
      <trkpt lat="46.17441" lon="4.65014">
        <ele>429</ele>
        <time>2016-06-28T21:07:26Z</time>
      </trkpt>
      <trkpt lat="46.17432" lon="4.6503">
        <ele>429</ele>
        <time>2016-06-28T21:09:26Z</time>
      </trkpt>
      <trkpt lat="46.1742" lon="4.65053">
        <ele>429</ele>
        <time>2016-06-28T21:11:26Z</time>
      </trkpt>
      <trkpt lat="46.17407" lon="4.65076">
        <ele>425</ele>
        <time>2016-06-28T21:13:26Z</time>
      </trkpt>
      <trkpt lat="46.17402" lon="4.65085">
        <ele>425</ele>
        <time>2016-06-28T21:15:26Z</time>
      </trkpt>
      <trkpt lat="46.17395" lon="4.65097">
        <ele>424</ele>
        <time>2016-06-28T21:17:26Z</time>
      </trkpt>
      <trkpt lat="46.17382" lon="4.65114">
        <ele>423</ele>
        <time>2016-06-28T21:19:26Z</time>
      </trkpt>
      <trkpt lat="46.17376" lon="4.6512">
        <ele>423</ele>
        <time>2016-06-28T21:21:26Z</time>
      </trkpt>
      <trkpt lat="46.17358" lon="4.65137">
        <ele>423</ele>
        <time>2016-06-28T21:23:26Z</time>
      </trkpt>
      <trkpt lat="46.17296" lon="4.65171">
        <ele>420</ele>
        <time>2016-06-28T21:25:26Z</time>
      </trkpt>
      <trkpt lat="46.17237" lon="4.65201">
        <ele>417</ele>
        <time>2016-06-28T21:27:26Z</time>
      </trkpt>
      <trkpt lat="46.17142" lon="4.65249">
        <ele>412</ele>
        <time>2016-06-28T21:29:26Z</time>
      </trkpt>
      <trkpt lat="46.17079" lon="4.65281">
        <ele>409</ele>
        <time>2016-06-28T21:31:26Z</time>
      </trkpt>
      <trkpt lat="46.17074" lon="4.65285">
        <ele>409</ele>
        <time>2016-06-28T21:33:26Z</time>
      </trkpt>
      <trkpt lat="46.17073" lon="4.65285">
        <ele>409</ele>
        <time>2016-06-28T21:35:26Z</time>
      </trkpt>
      <trkpt lat="46.17057" lon="4.65294">
        <ele>409</ele>
        <time>2016-06-28T21:37:26Z</time>
      </trkpt>
      <trkpt lat="46.17043" lon="4.65303">
        <ele>409</ele>
        <time>2016-06-28T21:39:26Z</time>
      </trkpt>
      <trkpt lat="46.17035" lon="4.65308">
        <ele>409</ele>
        <time>2016-06-28T21:41:26Z</time>
      </trkpt>
      <trkpt lat="46.17022" lon="4.65317">
        <ele>408</ele>
        <time>2016-06-28T21:43:26Z</time>
      </trkpt>
      <trkpt lat="46.17017" lon="4.65321">
        <ele>408</ele>
        <time>2016-06-28T21:45:26Z</time>
      </trkpt>
      <trkpt lat="46.16964" lon="4.65365">
        <ele>405</ele>
        <time>2016-06-28T21:47:26Z</time>
      </trkpt>
      <trkpt lat="46.16948" lon="4.6538">
        <ele>405</ele>
        <time>2016-06-28T21:49:26Z</time>
      </trkpt>
      <trkpt lat="46.16943" lon="4.65385">
        <ele>404</ele>
        <time>2016-06-28T21:51:26Z</time>
      </trkpt>
      <trkpt lat="46.16934" lon="4.65398">
        <ele>404</ele>
        <time>2016-06-28T21:53:26Z</time>
      </trkpt>
      <trkpt lat="46.16929" lon="4.65406">
        <ele>404</ele>
        <time>2016-06-28T21:55:26Z</time>
      </trkpt>
      <trkpt lat="46.16927" lon="4.6541">
        <ele>404</ele>
        <time>2016-06-28T21:57:26Z</time>
      </trkpt>
      <trkpt lat="46.16921" lon="4.65421">
        <ele>404</ele>
        <time>2016-06-28T21:59:26Z</time>
      </trkpt>
      <trkpt lat="46.16909" lon="4.65446">
        <ele>400</ele>
        <time>2016-06-28T22:01:26Z</time>
      </trkpt>
      <trkpt lat="46.16906" lon="4.65451">
        <ele>400</ele>
        <time>2016-06-28T22:03:26Z</time>
      </trkpt>
      <trkpt lat="46.16904" lon="4.65454">
        <ele>400</ele>
        <time>2016-06-28T22:05:26Z</time>
      </trkpt>
      <trkpt lat="46.16901" lon="4.65458">
        <ele>400</ele>
        <time>2016-06-28T22:07:26Z</time>
      </trkpt>
      <trkpt lat="46.16896" lon="4.65464">
        <ele>400</ele>
        <time>2016-06-28T22:09:26Z</time>
      </trkpt>
      <trkpt lat="46.16891" lon="4.6547">
        <ele>400</ele>
        <time>2016-06-28T22:11:26Z</time>
      </trkpt>
      <trkpt lat="46.16885" lon="4.65476">
        <ele>400</ele>
        <time>2016-06-28T22:13:26Z</time>
      </trkpt>
      <trkpt lat="46.16879" lon="4.6548">
        <ele>399</ele>
        <time>2016-06-28T22:15:26Z</time>
      </trkpt>
      <trkpt lat="46.16872" lon="4.65485">
        <ele>399</ele>
        <time>2016-06-28T22:17:26Z</time>
      </trkpt>
      <trkpt lat="46.16866" lon="4.6549">
        <ele>399</ele>
        <time>2016-06-28T22:19:26Z</time>
      </trkpt>
      <trkpt lat="46.16859" lon="4.65495">
        <ele>398</ele>
        <time>2016-06-28T22:21:26Z</time>
      </trkpt>
      <trkpt lat="46.16853" lon="4.65499">
        <ele>398</ele>
        <time>2016-06-28T22:23:26Z</time>
      </trkpt>
      <trkpt lat="46.16845" lon="4.65503">
        <ele>399</ele>
        <time>2016-06-28T22:25:26Z</time>
      </trkpt>
      <trkpt lat="46.16838" lon="4.65506">
        <ele>398</ele>
        <time>2016-06-28T22:27:26Z</time>
      </trkpt>
      <trkpt lat="46.16829" lon="4.65509">
        <ele>397</ele>
        <time>2016-06-28T22:29:26Z</time>
      </trkpt>
      <trkpt lat="46.1681" lon="4.65511">
        <ele>396</ele>
        <time>2016-06-28T22:31:26Z</time>
      </trkpt>
      <trkpt lat="46.16803" lon="4.65511">
        <ele>396</ele>
        <time>2016-06-28T22:33:26Z</time>
      </trkpt>
      <trkpt lat="46.16797" lon="4.65512">
        <ele>396</ele>
        <time>2016-06-28T22:35:26Z</time>
      </trkpt>
      <trkpt lat="46.16794" lon="4.65513">
        <ele>395</ele>
        <time>2016-06-28T22:37:26Z</time>
      </trkpt>
      <trkpt lat="46.16791" lon="4.65514">
        <ele>395</ele>
        <time>2016-06-28T22:39:26Z</time>
      </trkpt>
      <trkpt lat="46.16789" lon="4.65515">
        <ele>395</ele>
        <time>2016-06-28T22:41:26Z</time>
      </trkpt>
      <trkpt lat="46.16786" lon="4.65516">
        <ele>395</ele>
        <time>2016-06-28T22:43:26Z</time>
      </trkpt>
      <trkpt lat="46.16784" lon="4.65517">
        <ele>395</ele>
        <time>2016-06-28T22:45:26Z</time>
      </trkpt>
      <trkpt lat="46.1678" lon="4.65518">
        <ele>395</ele>
        <time>2016-06-28T22:47:26Z</time>
      </trkpt>
      <trkpt lat="46.16776" lon="4.6552">
        <ele>395</ele>
        <time>2016-06-28T22:49:26Z</time>
      </trkpt>
      <trkpt lat="46.1677" lon="4.65525">
        <ele>395</ele>
        <time>2016-06-28T22:51:26Z</time>
      </trkpt>
      <trkpt lat="46.16766" lon="4.65528">
        <ele>395</ele>
        <time>2016-06-28T22:53:26Z</time>
      </trkpt>
      <trkpt lat="46.16762" lon="4.65531">
        <ele>395</ele>
        <time>2016-06-28T22:55:26Z</time>
      </trkpt>
      <trkpt lat="46.16755" lon="4.65537">
        <ele>395</ele>
        <time>2016-06-28T22:57:26Z</time>
      </trkpt>
      <trkpt lat="46.16749" lon="4.65544">
        <ele>390</ele>
        <time>2016-06-28T22:59:26Z</time>
      </trkpt>
      <trkpt lat="46.16741" lon="4.65552">
        <ele>390</ele>
        <time>2016-06-28T23:01:26Z</time>
      </trkpt>
      <trkpt lat="46.16696" lon="4.65598">
        <ele>391</ele>
        <time>2016-06-28T23:03:26Z</time>
      </trkpt>
      <trkpt lat="46.16691" lon="4.65604">
        <ele>390</ele>
        <time>2016-06-28T23:05:26Z</time>
      </trkpt>
      <trkpt lat="46.16686" lon="4.65609">
        <ele>390</ele>
        <time>2016-06-28T23:07:26Z</time>
      </trkpt>
      <trkpt lat="46.16682" lon="4.65615">
        <ele>390</ele>
        <time>2016-06-28T23:09:26Z</time>
      </trkpt>
      <trkpt lat="46.16677" lon="4.65621">
        <ele>390</ele>
        <time>2016-06-28T23:11:26Z</time>
      </trkpt>
      <trkpt lat="46.16674" lon="4.65627">
        <ele>390</ele>
        <time>2016-06-28T23:13:26Z</time>
      </trkpt>
      <trkpt lat="46.16669" lon="4.65637">
        <ele>390</ele>
        <time>2016-06-28T23:15:26Z</time>
      </trkpt>
      <trkpt lat="46.16668" lon="4.65641">
        <ele>390</ele>
        <time>2016-06-28T23:17:26Z</time>
      </trkpt>
      <trkpt lat="46.16665" lon="4.65648">
        <ele>386</ele>
        <time>2016-06-28T23:19:26Z</time>
      </trkpt>
      <trkpt lat="46.16664" lon="4.65656">
        <ele>386</ele>
        <time>2016-06-28T23:21:26Z</time>
      </trkpt>
      <trkpt lat="46.16663" lon="4.65664">
        <ele>387</ele>
        <time>2016-06-28T23:23:26Z</time>
      </trkpt>
      <trkpt lat="46.16662" lon="4.65672">
        <ele>386</ele>
        <time>2016-06-28T23:25:26Z</time>
      </trkpt>
      <trkpt lat="46.16662" lon="4.65676">
        <ele>386</ele>
        <time>2016-06-28T23:27:26Z</time>
      </trkpt>
      <trkpt lat="46.16663" lon="4.65682">
        <ele>385</ele>
        <time>2016-06-28T23:29:26Z</time>
      </trkpt>
      <trkpt lat="46.16663" lon="4.6569">
        <ele>384</ele>
        <time>2016-06-28T23:31:26Z</time>
      </trkpt>
      <trkpt lat="46.16665" lon="4.65698">
        <ele>384</ele>
        <time>2016-06-28T23:33:26Z</time>
      </trkpt>
      <trkpt lat="46.16667" lon="4.65712">
        <ele>389</ele>
        <time>2016-06-28T23:35:26Z</time>
      </trkpt>
      <trkpt lat="46.16669" lon="4.65726">
        <ele>388</ele>
        <time>2016-06-28T23:37:26Z</time>
      </trkpt>
      <trkpt lat="46.16672" lon="4.65752">
        <ele>385</ele>
        <time>2016-06-28T23:39:26Z</time>
      </trkpt>
      <trkpt lat="46.16672" lon="4.65767">
        <ele>387</ele>
        <time>2016-06-28T23:41:26Z</time>
      </trkpt>
      <trkpt lat="46.16671" lon="4.65776">
        <ele>388</ele>
        <time>2016-06-28T23:43:26Z</time>
      </trkpt>
      <trkpt lat="46.16669" lon="4.65789">
        <ele>388</ele>
        <time>2016-06-28T23:45:26Z</time>
      </trkpt>
      <trkpt lat="46.16663" lon="4.65833">
        <ele>383</ele>
        <time>2016-06-28T23:47:26Z</time>
      </trkpt>
      <trkpt lat="46.16657" lon="4.65864">
        <ele>381</ele>
        <time>2016-06-28T23:49:26Z</time>
      </trkpt>
      <trkpt lat="46.16654" lon="4.65878">
        <ele>381</ele>
        <time>2016-06-28T23:51:26Z</time>
      </trkpt>
      <trkpt lat="46.16651" lon="4.659">
        <ele>381</ele>
        <time>2016-06-28T23:53:26Z</time>
      </trkpt>
      <trkpt lat="46.16648" lon="4.65913">
        <ele>382</ele>
        <time>2016-06-28T23:55:26Z</time>
      </trkpt>
      <trkpt lat="46.16639" lon="4.65963">
        <ele>380</ele>
        <time>2016-06-28T23:57:26Z</time>
      </trkpt>
      <trkpt lat="46.16637" lon="4.65973">
        <ele>380</ele>
        <time>2016-06-28T23:59:26Z</time>
      </trkpt>
      <trkpt lat="46.16634" lon="4.65987">
        <ele>380</ele>
        <time>2016-06-29T00:01:26Z</time>
      </trkpt>
      <trkpt lat="46.16631" lon="4.65998">
        <ele>380</ele>
        <time>2016-06-29T00:03:26Z</time>
      </trkpt>
      <trkpt lat="46.16629" lon="4.66006">
        <ele>380</ele>
        <time>2016-06-29T00:05:26Z</time>
      </trkpt>
      <trkpt lat="46.16624" lon="4.66021">
        <ele>380</ele>
        <time>2016-06-29T00:07:26Z</time>
      </trkpt>
      <trkpt lat="46.1662" lon="4.66028">
        <ele>380</ele>
        <time>2016-06-29T00:09:26Z</time>
      </trkpt>
      <trkpt lat="46.16617" lon="4.66035">
        <ele>380</ele>
        <time>2016-06-29T00:11:26Z</time>
      </trkpt>
      <trkpt lat="46.16613" lon="4.66042">
        <ele>379</ele>
        <time>2016-06-29T00:13:26Z</time>
      </trkpt>
      <trkpt lat="46.16603" lon="4.66059">
        <ele>379</ele>
        <time>2016-06-29T00:15:26Z</time>
      </trkpt>
      <trkpt lat="46.16594" lon="4.66068">
        <ele>379</ele>
        <time>2016-06-29T00:17:26Z</time>
      </trkpt>
      <trkpt lat="46.16583" lon="4.6608">
        <ele>377</ele>
        <time>2016-06-29T00:19:26Z</time>
      </trkpt>
      <trkpt lat="46.1657" lon="4.66091">
        <ele>377</ele>
        <time>2016-06-29T00:21:26Z</time>
      </trkpt>
      <trkpt lat="46.16563" lon="4.66097">
        <ele>376</ele>
        <time>2016-06-29T00:23:26Z</time>
      </trkpt>
      <trkpt lat="46.16549" lon="4.66107">
        <ele>376</ele>
        <time>2016-06-29T00:25:26Z</time>
      </trkpt>
      <trkpt lat="46.16486" lon="4.66143">
        <ele>369</ele>
        <time>2016-06-29T00:27:26Z</time>
      </trkpt>
      <trkpt lat="46.16467" lon="4.66154">
        <ele>369</ele>
        <time>2016-06-29T00:29:26Z</time>
      </trkpt>
      <trkpt lat="46.1645" lon="4.66164">
        <ele>368</ele>
        <time>2016-06-29T00:31:26Z</time>
      </trkpt>
      <trkpt lat="46.16441" lon="4.66171">
        <ele>367</ele>
        <time>2016-06-29T00:33:26Z</time>
      </trkpt>
      <trkpt lat="46.16428" lon="4.66186">
        <ele>366</ele>
        <time>2016-06-29T00:35:26Z</time>
      </trkpt>
      <trkpt lat="46.16422" lon="4.66206">
        <ele>366</ele>
        <time>2016-06-29T00:37:26Z</time>
      </trkpt>
      <trkpt lat="46.1642" lon="4.66331">
        <ele>359</ele>
        <time>2016-06-29T00:39:26Z</time>
      </trkpt>
      <trkpt lat="46.1642" lon="4.66355">
        <ele>359</ele>
        <time>2016-06-29T00:41:26Z</time>
      </trkpt>
      <trkpt lat="46.16421" lon="4.66442">
        <ele>354</ele>
        <time>2016-06-29T00:43:26Z</time>
      </trkpt>
      <trkpt lat="46.16421" lon="4.66496">
        <ele>352</ele>
        <time>2016-06-29T00:45:26Z</time>
      </trkpt>
      <trkpt lat="46.16421" lon="4.66569">
        <ele>349</ele>
        <time>2016-06-29T00:47:26Z</time>
      </trkpt>
      <trkpt lat="46.16422" lon="4.66741">
        <ele>343</ele>
        <time>2016-06-29T00:49:26Z</time>
      </trkpt>
      <trkpt lat="46.16422" lon="4.66783">
        <ele>342</ele>
        <time>2016-06-29T00:51:26Z</time>
      </trkpt>
      <trkpt lat="46.16419" lon="4.66814">
        <ele>341</ele>
        <time>2016-06-29T00:53:26Z</time>
      </trkpt>
      <trkpt lat="46.16415" lon="4.6683">
        <ele>340</ele>
        <time>2016-06-29T00:55:26Z</time>
      </trkpt>
      <trkpt lat="46.1641" lon="4.66858">
        <ele>337</ele>
        <time>2016-06-29T00:57:26Z</time>
      </trkpt>
      <trkpt lat="46.16404" lon="4.66878">
        <ele>337</ele>
        <time>2016-06-29T00:59:26Z</time>
      </trkpt>
      <trkpt lat="46.16394" lon="4.66914">
        <ele>336</ele>
        <time>2016-06-29T01:01:26Z</time>
      </trkpt>
      <trkpt lat="46.16391" lon="4.66933">
        <ele>335</ele>
        <time>2016-06-29T01:03:26Z</time>
      </trkpt>
      <trkpt lat="46.1639" lon="4.66976">
        <ele>334</ele>
        <time>2016-06-29T01:05:26Z</time>
      </trkpt>
      <trkpt lat="46.1639" lon="4.66976">
        <ele>334</ele>
        <time>2016-06-29T01:07:26Z</time>
      </trkpt>
      <trkpt lat="46.16285" lon="4.67071">
        <ele>329</ele>
        <time>2016-06-29T01:09:26Z</time>
      </trkpt>
      <trkpt lat="46.16272" lon="4.67083">
        <ele>329</ele>
        <time>2016-06-29T01:11:26Z</time>
      </trkpt>
      <trkpt lat="46.16207" lon="4.67141">
        <ele>328</ele>
        <time>2016-06-29T01:13:26Z</time>
      </trkpt>
      <trkpt lat="46.1618" lon="4.67168">
        <ele>328</ele>
        <time>2016-06-29T01:15:26Z</time>
      </trkpt>
      <trkpt lat="46.16161" lon="4.67175">
        <ele>328</ele>
        <time>2016-06-29T01:17:26Z</time>
      </trkpt>
      <trkpt lat="46.16098" lon="4.67196">
        <ele>327</ele>
        <time>2016-06-29T01:19:26Z</time>
      </trkpt>
      <trkpt lat="46.16091" lon="4.672">
        <ele>327</ele>
        <time>2016-06-29T01:21:26Z</time>
      </trkpt>
      <trkpt lat="46.16066" lon="4.67212">
        <ele>325</ele>
        <time>2016-06-29T01:23:26Z</time>
      </trkpt>
      <trkpt lat="46.16054" lon="4.67221">
        <ele>324</ele>
        <time>2016-06-29T01:25:26Z</time>
      </trkpt>
      <trkpt lat="46.16033" lon="4.67238">
        <ele>324</ele>
        <time>2016-06-29T01:27:26Z</time>
      </trkpt>
      <trkpt lat="46.16003" lon="4.67264">
        <ele>324</ele>
        <time>2016-06-29T01:29:26Z</time>
      </trkpt>
      <trkpt lat="46.15995" lon="4.6727">
        <ele>323</ele>
        <time>2016-06-29T01:31:26Z</time>
      </trkpt>
      <trkpt lat="46.15929" lon="4.67316">
        <ele>323</ele>
        <time>2016-06-29T01:33:26Z</time>
      </trkpt>
      <trkpt lat="46.1589" lon="4.67345">
        <ele>321</ele>
        <time>2016-06-29T01:35:26Z</time>
      </trkpt>
      <trkpt lat="46.15859" lon="4.67371">
        <ele>320</ele>
        <time>2016-06-29T01:37:26Z</time>
      </trkpt>
      <trkpt lat="46.15859" lon="4.67371">
        <ele>320</ele>
        <time>2016-06-29T01:39:26Z</time>
      </trkpt>
      <trkpt lat="46.15859" lon="4.67383">
        <ele>320</ele>
        <time>2016-06-29T01:41:26Z</time>
      </trkpt>
      <trkpt lat="46.15859" lon="4.67383">
        <ele>320</ele>
        <time>2016-06-29T01:43:26Z</time>
      </trkpt>
      <trkpt lat="46.15803" lon="4.67388">
        <ele>321</ele>
        <time>2016-06-29T01:45:26Z</time>
      </trkpt>
      <trkpt lat="46.15768" lon="4.67391">
        <ele>322</ele>
        <time>2016-06-29T01:47:26Z</time>
      </trkpt>
      <trkpt lat="46.1574" lon="4.67393">
        <ele>322</ele>
        <time>2016-06-29T01:49:26Z</time>
      </trkpt>
      <trkpt lat="46.15713" lon="4.67395">
        <ele>322</ele>
        <time>2016-06-29T01:51:26Z</time>
      </trkpt>
      <trkpt lat="46.15701" lon="4.67395">
        <ele>322</ele>
        <time>2016-06-29T01:53:26Z</time>
      </trkpt>
      <trkpt lat="46.15662" lon="4.6739">
        <ele>320</ele>
        <time>2016-06-29T01:55:26Z</time>
      </trkpt>
      <trkpt lat="46.15613" lon="4.67385">
        <ele>319</ele>
        <time>2016-06-29T01:57:26Z</time>
      </trkpt>
      <trkpt lat="46.156" lon="4.67382">
        <ele>319</ele>
        <time>2016-06-29T01:59:26Z</time>
      </trkpt>
      <trkpt lat="46.1559" lon="4.67377">
        <ele>319</ele>
        <time>2016-06-29T02:01:26Z</time>
      </trkpt>
      <trkpt lat="46.15565" lon="4.6736">
        <ele>318</ele>
        <time>2016-06-29T02:03:26Z</time>
      </trkpt>
      <trkpt lat="46.15493" lon="4.67308">
        <ele>315</ele>
        <time>2016-06-29T02:05:26Z</time>
      </trkpt>
      <trkpt lat="46.15482" lon="4.67301">
        <ele>314</ele>
        <time>2016-06-29T02:07:26Z</time>
      </trkpt>
      <trkpt lat="46.15476" lon="4.67297">
        <ele>314</ele>
        <time>2016-06-29T02:09:26Z</time>
      </trkpt>
      <trkpt lat="46.1547" lon="4.67292">
        <ele>314</ele>
        <time>2016-06-29T02:11:26Z</time>
      </trkpt>
      <trkpt lat="46.15457" lon="4.67283">
        <ele>314</ele>
        <time>2016-06-29T02:13:26Z</time>
      </trkpt>
      <trkpt lat="46.15455" lon="4.67281">
        <ele>314</ele>
        <time>2016-06-29T02:15:26Z</time>
      </trkpt>
      <trkpt lat="46.15451" lon="4.67277">
        <ele>314</ele>
        <time>2016-06-29T02:17:26Z</time>
      </trkpt>
      <trkpt lat="46.15439" lon="4.67264">
        <ele>313</ele>
        <time>2016-06-29T02:19:26Z</time>
      </trkpt>
      <trkpt lat="46.15424" lon="4.6725">
        <ele>312</ele>
        <time>2016-06-29T02:21:26Z</time>
      </trkpt>
      <trkpt lat="46.15419" lon="4.67245">
        <ele>310</ele>
        <time>2016-06-29T02:23:26Z</time>
      </trkpt>
      <trkpt lat="46.15414" lon="4.67241">
        <ele>310</ele>
        <time>2016-06-29T02:25:26Z</time>
      </trkpt>
      <trkpt lat="46.15408" lon="4.67237">
        <ele>309</ele>
        <time>2016-06-29T02:27:26Z</time>
      </trkpt>
      <trkpt lat="46.15402" lon="4.67234">
        <ele>308</ele>
        <time>2016-06-29T02:29:26Z</time>
      </trkpt>
      <trkpt lat="46.15397" lon="4.67231">
        <ele>308</ele>
        <time>2016-06-29T02:31:26Z</time>
      </trkpt>
      <trkpt lat="46.15393" lon="4.6723">
        <ele>308</ele>
        <time>2016-06-29T02:33:26Z</time>
      </trkpt>
      <trkpt lat="46.15385" lon="4.67228">
        <ele>307</ele>
        <time>2016-06-29T02:35:26Z</time>
      </trkpt>
      <trkpt lat="46.15373" lon="4.67227">
        <ele>307</ele>
        <time>2016-06-29T02:37:26Z</time>
      </trkpt>
      <trkpt lat="46.15368" lon="4.67227">
        <ele>307</ele>
        <time>2016-06-29T02:39:26Z</time>
      </trkpt>
      <trkpt lat="46.15362" lon="4.67227">
        <ele>308</ele>
        <time>2016-06-29T02:41:26Z</time>
      </trkpt>
      <trkpt lat="46.15355" lon="4.67228">
        <ele>308</ele>
        <time>2016-06-29T02:43:26Z</time>
      </trkpt>
      <trkpt lat="46.15348" lon="4.67229">
        <ele>308</ele>
        <time>2016-06-29T02:45:26Z</time>
      </trkpt>
      <trkpt lat="46.15343" lon="4.6723">
        <ele>308</ele>
        <time>2016-06-29T02:47:26Z</time>
      </trkpt>
      <trkpt lat="46.15336" lon="4.67232">
        <ele>309</ele>
        <time>2016-06-29T02:49:26Z</time>
      </trkpt>
      <trkpt lat="46.15307" lon="4.67245">
        <ele>306</ele>
        <time>2016-06-29T02:51:26Z</time>
      </trkpt>
      <trkpt lat="46.15294" lon="4.67251">
        <ele>311</ele>
        <time>2016-06-29T02:53:26Z</time>
      </trkpt>
      <trkpt lat="46.15288" lon="4.67254">
        <ele>311</ele>
        <time>2016-06-29T02:55:26Z</time>
      </trkpt>
      <trkpt lat="46.15282" lon="4.67256">
        <ele>310</ele>
        <time>2016-06-29T02:57:26Z</time>
      </trkpt>
      <trkpt lat="46.15279" lon="4.67257">
        <ele>310</ele>
        <time>2016-06-29T02:59:26Z</time>
      </trkpt>
      <trkpt lat="46.1527" lon="4.67259">
        <ele>309</ele>
        <time>2016-06-29T03:01:26Z</time>
      </trkpt>
      <trkpt lat="46.15264" lon="4.67259">
        <ele>309</ele>
        <time>2016-06-29T03:03:26Z</time>
      </trkpt>
      <trkpt lat="46.15258" lon="4.67257">
        <ele>308</ele>
        <time>2016-06-29T03:05:26Z</time>
      </trkpt>
      <trkpt lat="46.15252" lon="4.67255">
        <ele>306</ele>
        <time>2016-06-29T03:07:26Z</time>
      </trkpt>
      <trkpt lat="46.15247" lon="4.67252">
        <ele>305</ele>
        <time>2016-06-29T03:09:26Z</time>
      </trkpt>
      <trkpt lat="46.15243" lon="4.67249">
        <ele>304</ele>
        <time>2016-06-29T03:11:26Z</time>
      </trkpt>
      <trkpt lat="46.15237" lon="4.67243">
        <ele>302</ele>
        <time>2016-06-29T03:13:26Z</time>
      </trkpt>
      <trkpt lat="46.15171" lon="4.67171">
        <ele>294</ele>
        <time>2016-06-29T03:15:26Z</time>
      </trkpt>
      <trkpt lat="46.15165" lon="4.67163">
        <ele>293</ele>
        <time>2016-06-29T03:17:26Z</time>
      </trkpt>
      <trkpt lat="46.15162" lon="4.67156">
        <ele>292</ele>
        <time>2016-06-29T03:19:26Z</time>
      </trkpt>
      <trkpt lat="46.15159" lon="4.6715">
        <ele>291</ele>
        <time>2016-06-29T03:21:26Z</time>
      </trkpt>
      <trkpt lat="46.15156" lon="4.67144">
        <ele>291</ele>
        <time>2016-06-29T03:23:26Z</time>
      </trkpt>
      <trkpt lat="46.15151" lon="4.67122">
        <ele>290</ele>
        <time>2016-06-29T03:25:26Z</time>
      </trkpt>
      <trkpt lat="46.15152" lon="4.67106">
        <ele>290</ele>
        <time>2016-06-29T03:27:26Z</time>
      </trkpt>
      <trkpt lat="46.15154" lon="4.67076">
        <ele>290</ele>
        <time>2016-06-29T03:29:26Z</time>
      </trkpt>
      <trkpt lat="46.15154" lon="4.67068">
        <ele>290</ele>
        <time>2016-06-29T03:31:26Z</time>
      </trkpt>
      <trkpt lat="46.15157" lon="4.67014">
        <ele>291</ele>
        <time>2016-06-29T03:33:26Z</time>
      </trkpt>
      <trkpt lat="46.15158" lon="4.66991">
        <ele>292</ele>
        <time>2016-06-29T03:35:26Z</time>
      </trkpt>
      <trkpt lat="46.15156" lon="4.66971">
        <ele>292</ele>
        <time>2016-06-29T03:37:26Z</time>
      </trkpt>
      <trkpt lat="46.15152" lon="4.66955">
        <ele>292</ele>
        <time>2016-06-29T03:39:26Z</time>
      </trkpt>
      <trkpt lat="46.15146" lon="4.66943">
        <ele>292</ele>
        <time>2016-06-29T03:41:26Z</time>
      </trkpt>
      <trkpt lat="46.15139" lon="4.66936">
        <ele>292</ele>
        <time>2016-06-29T03:43:26Z</time>
      </trkpt>
      <trkpt lat="46.15116" lon="4.66922">
        <ele>292</ele>
        <time>2016-06-29T03:45:26Z</time>
      </trkpt>
      <trkpt lat="46.15102" lon="4.66911">
        <ele>293</ele>
        <time>2016-06-29T03:47:26Z</time>
      </trkpt>
      <trkpt lat="46.15089" lon="4.66907">
        <ele>293</ele>
        <time>2016-06-29T03:49:26Z</time>
      </trkpt>
      <trkpt lat="46.15081" lon="4.66904">
        <ele>293</ele>
        <time>2016-06-29T03:51:26Z</time>
      </trkpt>
      <trkpt lat="46.15066" lon="4.66902">
        <ele>294</ele>
        <time>2016-06-29T03:53:26Z</time>
      </trkpt>
      <trkpt lat="46.15058" lon="4.66901">
        <ele>294</ele>
        <time>2016-06-29T03:55:26Z</time>
      </trkpt>
      <trkpt lat="46.15058" lon="4.66902">
        <ele>294</ele>
        <time>2016-06-29T03:57:26Z</time>
      </trkpt>
      <trkpt lat="46.15048" lon="4.66904">
        <ele>295</ele>
        <time>2016-06-29T03:59:26Z</time>
      </trkpt>
      <trkpt lat="46.15041" lon="4.66907">
        <ele>295</ele>
        <time>2016-06-29T04:01:26Z</time>
      </trkpt>
      <trkpt lat="46.15006" lon="4.66924">
        <ele>294</ele>
        <time>2016-06-29T04:03:26Z</time>
      </trkpt>
      <trkpt lat="46.14991" lon="4.66931">
        <ele>294</ele>
        <time>2016-06-29T04:05:26Z</time>
      </trkpt>
      <trkpt lat="46.14981" lon="4.66935">
        <ele>294</ele>
        <time>2016-06-29T04:07:26Z</time>
      </trkpt>
      <trkpt lat="46.14962" lon="4.6694">
        <ele>294</ele>
        <time>2016-06-29T04:09:26Z</time>
      </trkpt>
      <trkpt lat="46.14957" lon="4.6694">
        <ele>294</ele>
        <time>2016-06-29T04:11:26Z</time>
      </trkpt>
      <trkpt lat="46.14947" lon="4.66938">
        <ele>294</ele>
        <time>2016-06-29T04:13:26Z</time>
      </trkpt>
      <trkpt lat="46.14933" lon="4.66925">
        <ele>294</ele>
        <time>2016-06-29T04:15:26Z</time>
      </trkpt>
      <trkpt lat="46.14923" lon="4.66908">
        <ele>296</ele>
        <time>2016-06-29T04:17:26Z</time>
      </trkpt>
      <trkpt lat="46.14909" lon="4.6688">
        <ele>297</ele>
        <time>2016-06-29T04:19:26Z</time>
      </trkpt>
      <trkpt lat="46.14857" lon="4.6675">
        <ele>301</ele>
        <time>2016-06-29T04:21:26Z</time>
      </trkpt>
      <trkpt lat="46.14834" lon="4.66694">
        <ele>303</ele>
        <time>2016-06-29T04:23:26Z</time>
      </trkpt>
      <trkpt lat="46.14825" lon="4.66666">
        <ele>304</ele>
        <time>2016-06-29T04:25:26Z</time>
      </trkpt>
      <trkpt lat="46.14822" lon="4.66654">
        <ele>303</ele>
        <time>2016-06-29T04:27:26Z</time>
      </trkpt>
      <trkpt lat="46.14806" lon="4.66576">
        <ele>303</ele>
        <time>2016-06-29T04:29:26Z</time>
      </trkpt>
      <trkpt lat="46.14787" lon="4.66482">
        <ele>303</ele>
        <time>2016-06-29T04:31:26Z</time>
      </trkpt>
      <trkpt lat="46.14785" lon="4.66471">
        <ele>303</ele>
        <time>2016-06-29T04:33:26Z</time>
      </trkpt>
      <trkpt lat="46.14767" lon="4.66409">
        <ele>304</ele>
        <time>2016-06-29T04:35:26Z</time>
      </trkpt>
      <trkpt lat="46.14729" lon="4.66288">
        <ele>302</ele>
        <time>2016-06-29T04:37:26Z</time>
      </trkpt>
      <trkpt lat="46.147" lon="4.66198">
        <ele>301</ele>
        <time>2016-06-29T04:39:26Z</time>
      </trkpt>
      <trkpt lat="46.14696" lon="4.66183">
        <ele>301</ele>
        <time>2016-06-29T04:41:26Z</time>
      </trkpt>
      <trkpt lat="46.14695" lon="4.66175">
        <ele>301</ele>
        <time>2016-06-29T04:43:26Z</time>
      </trkpt>
      <trkpt lat="46.14693" lon="4.66164">
        <ele>301</ele>
        <time>2016-06-29T04:45:26Z</time>
      </trkpt>
      <trkpt lat="46.14692" lon="4.66154">
        <ele>301</ele>
        <time>2016-06-29T04:47:26Z</time>
      </trkpt>
      <trkpt lat="46.14692" lon="4.6614">
        <ele>301</ele>
        <time>2016-06-29T04:49:26Z</time>
      </trkpt>
      <trkpt lat="46.14693" lon="4.66123">
        <ele>301</ele>
        <time>2016-06-29T04:51:26Z</time>
      </trkpt>
      <trkpt lat="46.14695" lon="4.66104">
        <ele>301</ele>
        <time>2016-06-29T04:53:26Z</time>
      </trkpt>
      <trkpt lat="46.147" lon="4.66076">
        <ele>302</ele>
        <time>2016-06-29T04:55:26Z</time>
      </trkpt>
      <trkpt lat="46.14708" lon="4.6605">
        <ele>302</ele>
        <time>2016-06-29T04:57:26Z</time>
      </trkpt>
      <trkpt lat="46.14718" lon="4.66024">
        <ele>302</ele>
        <time>2016-06-29T04:59:26Z</time>
      </trkpt>
      <trkpt lat="46.14726" lon="4.65999">
        <ele>301</ele>
        <time>2016-06-29T05:01:26Z</time>
      </trkpt>
      <trkpt lat="46.14728" lon="4.65977">
        <ele>301</ele>
        <time>2016-06-29T05:03:26Z</time>
      </trkpt>
      <trkpt lat="46.14728" lon="4.65956">
        <ele>301</ele>
        <time>2016-06-29T05:05:26Z</time>
      </trkpt>
      <trkpt lat="46.14727" lon="4.65928">
        <ele>300</ele>
        <time>2016-06-29T05:07:26Z</time>
      </trkpt>
      <trkpt lat="46.14725" lon="4.65911">
        <ele>300</ele>
        <time>2016-06-29T05:09:26Z</time>
      </trkpt>
      <trkpt lat="46.14723" lon="4.65898">
        <ele>300</ele>
        <time>2016-06-29T05:11:26Z</time>
      </trkpt>
      <trkpt lat="46.14718" lon="4.6588">
        <ele>300</ele>
        <time>2016-06-29T05:13:26Z</time>
      </trkpt>
      <trkpt lat="46.14707" lon="4.65854">
        <ele>300</ele>
        <time>2016-06-29T05:15:26Z</time>
      </trkpt>
      <trkpt lat="46.14704" lon="4.65848">
        <ele>299</ele>
        <time>2016-06-29T05:17:26Z</time>
      </trkpt>
      <trkpt lat="46.147" lon="4.65839">
        <ele>299</ele>
        <time>2016-06-29T05:19:26Z</time>
      </trkpt>
      <trkpt lat="46.14696" lon="4.65828">
        <ele>299</ele>
        <time>2016-06-29T05:21:26Z</time>
      </trkpt>
      <trkpt lat="46.14694" lon="4.65816">
        <ele>299</ele>
        <time>2016-06-29T05:23:26Z</time>
      </trkpt>
      <trkpt lat="46.14692" lon="4.65799">
        <ele>300</ele>
        <time>2016-06-29T05:25:26Z</time>
      </trkpt>
      <trkpt lat="46.14688" lon="4.65745">
        <ele>301</ele>
        <time>2016-06-29T05:27:26Z</time>
      </trkpt>
      <trkpt lat="46.14685" lon="4.65691">
        <ele>302</ele>
        <time>2016-06-29T05:29:26Z</time>
      </trkpt>
      <trkpt lat="46.14683" lon="4.65676">
        <ele>302</ele>
        <time>2016-06-29T05:31:26Z</time>
      </trkpt>
      <trkpt lat="46.14681" lon="4.65667">
        <ele>301</ele>
        <time>2016-06-29T05:33:26Z</time>
      </trkpt>
      <trkpt lat="46.14668" lon="4.65635">
        <ele>303</ele>
        <time>2016-06-29T05:35:26Z</time>
      </trkpt>
      <trkpt lat="46.14649" lon="4.65594">
        <ele>298</ele>
        <time>2016-06-29T05:37:26Z</time>
      </trkpt>
      <trkpt lat="46.1463" lon="4.65552">
        <ele>298</ele>
        <time>2016-06-29T05:39:26Z</time>
      </trkpt>
      <trkpt lat="46.14629" lon="4.65543">
        <ele>298</ele>
        <time>2016-06-29T05:41:26Z</time>
      </trkpt>
      <trkpt lat="46.14625" lon="4.65508">
        <ele>298</ele>
        <time>2016-06-29T05:43:26Z</time>
      </trkpt>
      <trkpt lat="46.14622" lon="4.6547">
        <ele>298</ele>
        <time>2016-06-29T05:45:26Z</time>
      </trkpt>
      <trkpt lat="46.1462" lon="4.65442">
        <ele>298</ele>
        <time>2016-06-29T05:47:26Z</time>
      </trkpt>
      <trkpt lat="46.1462" lon="4.65431">
        <ele>298</ele>
        <time>2016-06-29T05:49:26Z</time>
      </trkpt>
      <trkpt lat="46.14621" lon="4.6542">
        <ele>298</ele>
        <time>2016-06-29T05:51:26Z</time>
      </trkpt>
      <trkpt lat="46.1463" lon="4.65368">
        <ele>297</ele>
        <time>2016-06-29T05:53:26Z</time>
      </trkpt>
      <trkpt lat="46.14632" lon="4.6536">
        <ele>297</ele>
        <time>2016-06-29T05:55:26Z</time>
      </trkpt>
      <trkpt lat="46.14634" lon="4.65297">
        <ele>296</ele>
        <time>2016-06-29T05:57:26Z</time>
      </trkpt>
      <trkpt lat="46.14633" lon="4.65276">
        <ele>296</ele>
        <time>2016-06-29T05:59:26Z</time>
      </trkpt>
      <trkpt lat="46.14633" lon="4.65266">
        <ele>296</ele>
        <time>2016-06-29T06:01:26Z</time>
      </trkpt>
      <trkpt lat="46.14631" lon="4.65257">
        <ele>295</ele>
        <time>2016-06-29T06:03:26Z</time>
      </trkpt>
      <trkpt lat="46.14629" lon="4.65248">
        <ele>293</ele>
        <time>2016-06-29T06:05:26Z</time>
      </trkpt>
      <trkpt lat="46.14623" lon="4.65238">
        <ele>293</ele>
        <time>2016-06-29T06:07:26Z</time>
      </trkpt>
      <trkpt lat="46.14603" lon="4.6522">
        <ele>292</ele>
        <time>2016-06-29T06:09:26Z</time>
      </trkpt>
      <trkpt lat="46.14567" lon="4.65203">
        <ele>290</ele>
        <time>2016-06-29T06:11:26Z</time>
      </trkpt>
      <trkpt lat="46.14555" lon="4.65198">
        <ele>290</ele>
        <time>2016-06-29T06:13:26Z</time>
      </trkpt>
      <trkpt lat="46.1449" lon="4.65167">
        <ele>288</ele>
        <time>2016-06-29T06:15:26Z</time>
      </trkpt>
      <trkpt lat="46.14393" lon="4.65143">
        <ele>281</ele>
        <time>2016-06-29T06:17:26Z</time>
      </trkpt>
      <trkpt lat="46.14366" lon="4.65136">
        <ele>280</ele>
        <time>2016-06-29T06:19:26Z</time>
      </trkpt>
      <trkpt lat="46.14331" lon="4.65126">
        <ele>277</ele>
        <time>2016-06-29T06:21:26Z</time>
      </trkpt>
      <trkpt lat="46.14321" lon="4.65121">
        <ele>277</ele>
        <time>2016-06-29T06:23:26Z</time>
      </trkpt>
      <trkpt lat="46.14316" lon="4.65116">
        <ele>276</ele>
        <time>2016-06-29T06:25:26Z</time>
      </trkpt>
      <trkpt lat="46.14313" lon="4.65114">
        <ele>276</ele>
        <time>2016-06-29T06:27:26Z</time>
      </trkpt>
      <trkpt lat="46.14307" lon="4.65099">
        <ele>276</ele>
        <time>2016-06-29T06:29:26Z</time>
      </trkpt>
      <trkpt lat="46.143" lon="4.65079">
        <ele>274</ele>
        <time>2016-06-29T06:31:26Z</time>
      </trkpt>
      <trkpt lat="46.14288" lon="4.65017">
        <ele>275</ele>
        <time>2016-06-29T06:33:26Z</time>
      </trkpt>
      <trkpt lat="46.14286" lon="4.65006">
        <ele>275</ele>
        <time>2016-06-29T06:35:26Z</time>
      </trkpt>
      <trkpt lat="46.14285" lon="4.65">
        <ele>275</ele>
        <time>2016-06-29T06:37:26Z</time>
      </trkpt>
      <trkpt lat="46.1428" lon="4.64981">
        <ele>277</ele>
        <time>2016-06-29T06:39:26Z</time>
      </trkpt>
      <trkpt lat="46.14276" lon="4.64972">
        <ele>277</ele>
        <time>2016-06-29T06:41:26Z</time>
      </trkpt>
      <trkpt lat="46.1427" lon="4.64965">
        <ele>278</ele>
        <time>2016-06-29T06:43:26Z</time>
      </trkpt>
      <trkpt lat="46.1426" lon="4.64959">
        <ele>278</ele>
        <time>2016-06-29T06:45:26Z</time>
      </trkpt>
      <trkpt lat="46.14244" lon="4.64956">
        <ele>279</ele>
        <time>2016-06-29T06:47:26Z</time>
      </trkpt>
      <trkpt lat="46.1423" lon="4.64957">
        <ele>280</ele>
        <time>2016-06-29T06:49:26Z</time>
      </trkpt>
      <trkpt lat="46.14223" lon="4.64959">
        <ele>280</ele>
        <time>2016-06-29T06:51:26Z</time>
      </trkpt>
      <trkpt lat="46.1422" lon="4.64961">
        <ele>280</ele>
        <time>2016-06-29T06:53:26Z</time>
      </trkpt>
      <trkpt lat="46.14205" lon="4.64972">
        <ele>279</ele>
        <time>2016-06-29T06:55:26Z</time>
      </trkpt>
      <trkpt lat="46.14187" lon="4.64988">
        <ele>279</ele>
        <time>2016-06-29T06:57:26Z</time>
      </trkpt>
      <trkpt lat="46.14172" lon="4.65003">
        <ele>276</ele>
        <time>2016-06-29T06:59:26Z</time>
      </trkpt>
      <trkpt lat="46.14169" lon="4.65006">
        <ele>276</ele>
        <time>2016-06-29T07:01:26Z</time>
      </trkpt>
      <trkpt lat="46.1415" lon="4.65028">
        <ele>276</ele>
        <time>2016-06-29T07:03:26Z</time>
      </trkpt>
      <trkpt lat="46.14135" lon="4.65053">
        <ele>276</ele>
        <time>2016-06-29T07:05:26Z</time>
      </trkpt>
      <trkpt lat="46.14122" lon="4.65074">
        <ele>276</ele>
        <time>2016-06-29T07:07:26Z</time>
      </trkpt>
      <trkpt lat="46.14119" lon="4.6508">
        <ele>276</ele>
        <time>2016-06-29T07:09:26Z</time>
      </trkpt>
      <trkpt lat="46.14068" lon="4.65179">
        <ele>274</ele>
        <time>2016-06-29T07:11:26Z</time>
      </trkpt>
      <trkpt lat="46.14052" lon="4.65217">
        <ele>274</ele>
        <time>2016-06-29T07:13:26Z</time>
      </trkpt>
      <trkpt lat="46.14043" lon="4.65233">
        <ele>275</ele>
        <time>2016-06-29T07:15:26Z</time>
      </trkpt>
      <trkpt lat="46.1403" lon="4.6525">
        <ele>275</ele>
        <time>2016-06-29T07:17:26Z</time>
      </trkpt>
      <trkpt lat="46.14019" lon="4.65258">
        <ele>274</ele>
        <time>2016-06-29T07:19:26Z</time>
      </trkpt>
      <trkpt lat="46.14012" lon="4.65261">
        <ele>275</ele>
        <time>2016-06-29T07:21:26Z</time>
      </trkpt>
      <trkpt lat="46.14004" lon="4.65263">
        <ele>275</ele>
        <time>2016-06-29T07:23:26Z</time>
      </trkpt>
      <trkpt lat="46.13987" lon="4.65263">
        <ele>277</ele>
        <time>2016-06-29T07:25:26Z</time>
      </trkpt>
      <trkpt lat="46.13977" lon="4.65262">
        <ele>277</ele>
        <time>2016-06-29T07:27:26Z</time>
      </trkpt>
      <trkpt lat="46.13962" lon="4.6526">
        <ele>277</ele>
        <time>2016-06-29T07:29:26Z</time>
      </trkpt>
      <trkpt lat="46.13947" lon="4.65255">
        <ele>278</ele>
        <time>2016-06-29T07:31:26Z</time>
      </trkpt>
      <trkpt lat="46.13937" lon="4.65249">
        <ele>280</ele>
        <time>2016-06-29T07:33:26Z</time>
      </trkpt>
      <trkpt lat="46.13925" lon="4.6524">
        <ele>280</ele>
        <time>2016-06-29T07:35:26Z</time>
      </trkpt>
      <trkpt lat="46.13919" lon="4.65233">
        <ele>280</ele>
        <time>2016-06-29T07:37:26Z</time>
      </trkpt>
      <trkpt lat="46.13913" lon="4.65221">
        <ele>281</ele>
        <time>2016-06-29T07:39:26Z</time>
      </trkpt>
      <trkpt lat="46.13907" lon="4.65206">
        <ele>281</ele>
        <time>2016-06-29T07:41:26Z</time>
      </trkpt>
      <trkpt lat="46.13876" lon="4.65108">
        <ele>284</ele>
        <time>2016-06-29T07:43:26Z</time>
      </trkpt>
      <trkpt lat="46.13863" lon="4.65031">
        <ele>287</ele>
        <time>2016-06-29T07:45:26Z</time>
      </trkpt>
      <trkpt lat="46.13832" lon="4.64847">
        <ele>289</ele>
        <time>2016-06-29T07:47:26Z</time>
      </trkpt>
      <trkpt lat="46.13819" lon="4.64786">
        <ele>289</ele>
        <time>2016-06-29T07:49:26Z</time>
      </trkpt>
      <trkpt lat="46.13818" lon="4.64778">
        <ele>289</ele>
        <time>2016-06-29T07:51:26Z</time>
      </trkpt>
      <trkpt lat="46.13808" lon="4.64733">
        <ele>290</ele>
        <time>2016-06-29T07:53:26Z</time>
      </trkpt>
      <trkpt lat="46.13789" lon="4.64646">
        <ele>293</ele>
        <time>2016-06-29T07:55:26Z</time>
      </trkpt>
      <trkpt lat="46.13788" lon="4.64643">
        <ele>293</ele>
        <time>2016-06-29T07:57:26Z</time>
      </trkpt>
      <trkpt lat="46.13781" lon="4.6462">
        <ele>293</ele>
        <time>2016-06-29T07:59:26Z</time>
      </trkpt>
      <trkpt lat="46.13778" lon="4.64612">
        <ele>293</ele>
        <time>2016-06-29T08:01:26Z</time>
      </trkpt>
      <trkpt lat="46.13767" lon="4.64582">
        <ele>294</ele>
        <time>2016-06-29T08:03:26Z</time>
      </trkpt>
      <trkpt lat="46.13714" lon="4.64446">
        <ele>296</ele>
        <time>2016-06-29T08:05:26Z</time>
      </trkpt>
      <trkpt lat="46.13703" lon="4.64422">
        <ele>296</ele>
        <time>2016-06-29T08:07:26Z</time>
      </trkpt>
      <trkpt lat="46.13691" lon="4.644">
        <ele>299</ele>
        <time>2016-06-29T08:09:26Z</time>
      </trkpt>
      <trkpt lat="46.1366" lon="4.6435">
        <ele>299</ele>
        <time>2016-06-29T08:11:26Z</time>
      </trkpt>
      <trkpt lat="46.13641" lon="4.6432">
        <ele>302</ele>
        <time>2016-06-29T08:13:26Z</time>
      </trkpt>
      <trkpt lat="46.13616" lon="4.64275">
        <ele>302</ele>
        <time>2016-06-29T08:15:26Z</time>
      </trkpt>
      <trkpt lat="46.13598" lon="4.64247">
        <ele>304</ele>
        <time>2016-06-29T08:17:26Z</time>
      </trkpt>
      <trkpt lat="46.13589" lon="4.64235">
        <ele>304</ele>
      </trkpt>
      <trkpt lat="46.13585" lon="4.64231">
        <ele>304</ele>
      </trkpt>
      <trkpt lat="46.13582" lon="4.64227">
        <ele>302</ele>
      </trkpt>
      <trkpt lat="46.13554" lon="4.64206">
        <ele>302</ele>
      </trkpt>
      <trkpt lat="46.13546" lon="4.64199">
        <ele>301</ele>
      </trkpt>
      <trkpt lat="46.13538" lon="4.64191">
        <ele>301</ele>
      </trkpt>
      <trkpt lat="46.13527" lon="4.64176">
        <ele>301</ele>
      </trkpt>
      <trkpt lat="46.13505" lon="4.64139">
        <ele>300</ele>
      </trkpt>
      <trkpt lat="46.13475" lon="4.64078">
        <ele>297</ele>
      </trkpt>
      <trkpt lat="46.13462" lon="4.64057">
        <ele>296</ele>
      </trkpt>
      <trkpt lat="46.13447" lon="4.64036">
        <ele>296</ele>
      </trkpt>
      <trkpt lat="46.13384" lon="4.63953">
        <ele>289</ele>
      </trkpt>
      <trkpt lat="46.13361" lon="4.63926">
        <ele>288</ele>
      </trkpt>
      <trkpt lat="46.13356" lon="4.63921">
        <ele>287</ele>
      </trkpt>
      <trkpt lat="46.13337" lon="4.63907">
        <ele>284</ele>
      </trkpt>
      <trkpt lat="46.13307" lon="4.63888">
        <ele>282</ele>
      </trkpt>
      <trkpt lat="46.13294" lon="4.63877">
        <ele>282</ele>
      </trkpt>
      <trkpt lat="46.13278" lon="4.63865">
        <ele>281</ele>
      </trkpt>
      <trkpt lat="46.13246" lon="4.63847">
        <ele>280</ele>
      </trkpt>
      <trkpt lat="46.13226" lon="4.63841">
        <ele>281</ele>
      </trkpt>
      <trkpt lat="46.13098" lon="4.63807">
        <ele>274</ele>
      </trkpt>
      <trkpt lat="46.13064" lon="4.63798">
        <ele>270</ele>
      </trkpt>
      <trkpt lat="46.13051" lon="4.63792">
        <ele>270</ele>
      </trkpt>
      <trkpt lat="46.13035" lon="4.63782">
        <ele>269</ele>
      </trkpt>
      <trkpt lat="46.13031" lon="4.63779">
        <ele>269</ele>
      </trkpt>
      <trkpt lat="46.12999" lon="4.63746">
        <ele>264</ele>
      </trkpt>
      <trkpt lat="46.12971" lon="4.63713">
        <ele>262</ele>
      </trkpt>
      <trkpt lat="46.12966" lon="4.63705">
        <ele>261</ele>
      </trkpt>
      <trkpt lat="46.12965" lon="4.63703">
        <ele>261</ele>
      </trkpt>
      <trkpt lat="46.12948" lon="4.63676">
        <ele>260</ele>
      </trkpt>
      <trkpt lat="46.12943" lon="4.6367">
        <ele>260</ele>
      </trkpt>
      <trkpt lat="46.12938" lon="4.63665">
        <ele>257</ele>
      </trkpt>
      <trkpt lat="46.12931" lon="4.63659">
        <ele>257</ele>
      </trkpt>
      <trkpt lat="46.12923" lon="4.63655">
        <ele>257</ele>
      </trkpt>
      <trkpt lat="46.12915" lon="4.63654">
        <ele>255</ele>
      </trkpt>
      <trkpt lat="46.1291" lon="4.63655">
        <ele>254</ele>
      </trkpt>
      <trkpt lat="46.12904" lon="4.63658">
        <ele>254</ele>
      </trkpt>
      <trkpt lat="46.12901" lon="4.63659">
        <ele>254</ele>
      </trkpt>
      <trkpt lat="46.12887" lon="4.63671">
        <ele>255</ele>
      </trkpt>
      <trkpt lat="46.12869" lon="4.63691">
        <ele>254</ele>
      </trkpt>
      <trkpt lat="46.12851" lon="4.63712">
        <ele>254</ele>
      </trkpt>
      <trkpt lat="46.12829" lon="4.63734">
        <ele>250</ele>
      </trkpt>
      <trkpt lat="46.12819" lon="4.63745">
        <ele>250</ele>
      </trkpt>
      <trkpt lat="46.12811" lon="4.6375">
        <ele>251</ele>
      </trkpt>
      <trkpt lat="46.12803" lon="4.63754">
        <ele>250</ele>
      </trkpt>
      <trkpt lat="46.12794" lon="4.63756">
        <ele>250</ele>
      </trkpt>
      <trkpt lat="46.12786" lon="4.63756">
        <ele>249</ele>
      </trkpt>
      <trkpt lat="46.12762" lon="4.63749">
        <ele>246</ele>
      </trkpt>
      <trkpt lat="46.12665" lon="4.63722">
        <ele>242</ele>
      </trkpt>
      <trkpt lat="46.1264" lon="4.63712">
        <ele>242</ele>
      </trkpt>
      <trkpt lat="46.12631" lon="4.63704">
        <ele>242</ele>
      </trkpt>
      <trkpt lat="46.12619" lon="4.63687">
        <ele>242</ele>
      </trkpt>
      <trkpt lat="46.12603" lon="4.6366">
        <ele>242</ele>
      </trkpt>
      <trkpt lat="46.12598" lon="4.63653">
        <ele>242</ele>
      </trkpt>
      <trkpt lat="46.12594" lon="4.63646">
        <ele>242</ele>
      </trkpt>
      <trkpt lat="46.1259" lon="4.6364">
        <ele>242</ele>
      </trkpt>
      <trkpt lat="46.12579" lon="4.6362">
        <ele>242</ele>
      </trkpt>
      <trkpt lat="46.12571" lon="4.63606">
        <ele>242</ele>
      </trkpt>
      <trkpt lat="46.12558" lon="4.63579">
        <ele>242</ele>
      </trkpt>
      <trkpt lat="46.12557" lon="4.63577">
        <ele>242</ele>
      </trkpt>
      <trkpt lat="46.12542" lon="4.63546">
        <ele>242</ele>
      </trkpt>
      <trkpt lat="46.12529" lon="4.63526">
        <ele>242</ele>
      </trkpt>
      <trkpt lat="46.12525" lon="4.6352">
        <ele>242</ele>
      </trkpt>
      <trkpt lat="46.1252" lon="4.63512">
        <ele>242</ele>
      </trkpt>
      <trkpt lat="46.12516" lon="4.63507">
        <ele>243</ele>
      </trkpt>
      <trkpt lat="46.12514" lon="4.63505">
        <ele>243</ele>
      </trkpt>
      <trkpt lat="46.12465" lon="4.63436">
        <ele>247</ele>
      </trkpt>
      <trkpt lat="46.12454" lon="4.6342">
        <ele>248</ele>
      </trkpt>
      <trkpt lat="46.12447" lon="4.63409">
        <ele>251</ele>
      </trkpt>
      <trkpt lat="46.12436" lon="4.63389">
        <ele>252</ele>
      </trkpt>
      <trkpt lat="46.12519" lon="4.63177">
        <ele>257.6</ele>
      </trkpt>
      <trkpt lat="46.12525" lon="4.62924">
        <ele>265.9</ele>
      </trkpt>
      <trkpt lat="46.12477" lon="4.62863">
        <ele>271.5</ele>
      </trkpt>
      <trkpt lat="46.12391" lon="4.62829">
        <ele>274.6</ele>
      </trkpt>
      <trkpt lat="46.12269" lon="4.62602">
        <ele>274.3</ele>
      </trkpt>
      <trkpt lat="46.1198" lon="4.62297">
        <ele>285.5</ele>
      </trkpt>
      <trkpt lat="46.12052" lon="4.61924">
        <ele>297.9</ele>
      </trkpt>
      <trkpt lat="46.12031" lon="4.61692">
        <ele>310.1</ele>
      </trkpt>
      <trkpt lat="46.1182" lon="4.61529">
        <ele>320.1</ele>
      </trkpt>
      <trkpt lat="46.11698" lon="4.61314">
        <ele>323.7</ele>
      </trkpt>
      <trkpt lat="46.11629" lon="4.6107">
        <ele>324.2</ele>
      </trkpt>
      <trkpt lat="46.11522" lon="4.60971">
        <ele>329.2</ele>
      </trkpt>
      <trkpt lat="46.11499" lon="4.60872">
        <ele>331.1</ele>
      </trkpt>
      <trkpt lat="46.11496" lon="4.60765">
        <ele>339.7</ele>
      </trkpt>
      <trkpt lat="46.11391" lon="4.60645">
        <ele>342.3</ele>
      </trkpt>
      <trkpt lat="46.11397" lon="4.60422">
        <ele>346.8</ele>
      </trkpt>
      <trkpt lat="46.11469" lon="4.60203">
        <ele>351.6</ele>
      </trkpt>
      <trkpt lat="46.1146" lon="4.60087">
        <ele>354.7</ele>
      </trkpt>
      <trkpt lat="46.11356" lon="4.59894">
        <ele>353.4</ele>
      </trkpt>
      <trkpt lat="46.1135" lon="4.59683">
        <ele>360.3</ele>
      </trkpt>
      <trkpt lat="46.11302" lon="4.59585">
        <ele>355.5</ele>
      </trkpt>
      <trkpt lat="46.11269" lon="4.59482">
        <ele>365.7</ele>
      </trkpt>
      <trkpt lat="46.11278" lon="4.59314">
        <ele>362.6</ele>
      </trkpt>
      <trkpt lat="46.11427" lon="4.59053">
        <ele>370.6</ele>
      </trkpt>
      <trkpt lat="46.114" lon="4.59035">
        <ele>364.3</ele>
      </trkpt>
      <trkpt lat="46.11195" lon="4.58894">
        <ele>365.1</ele>
      </trkpt>
      <trkpt lat="46.11136" lon="4.58572">
        <ele>370.2</ele>
      </trkpt>
      <trkpt lat="46.11171" lon="4.58392">
        <ele>382.5</ele>
      </trkpt>
      <trkpt lat="46.11216" lon="4.58383">
        <ele>385.5</ele>
      </trkpt>
      <trkpt lat="46.11231" lon="4.58426">
        <ele>391</ele>
      </trkpt>
      <trkpt lat="46.11301" lon="4.58465">
        <ele>400.6</ele>
      </trkpt>
      <trkpt lat="46.11451" lon="4.58439">
        <ele>420.8</ele>
      </trkpt>
      <trkpt lat="46.11534" lon="4.58333">
        <ele>434.2</ele>
      </trkpt>
      <trkpt lat="46.11559" lon="4.58249">
        <ele>441.9</ele>
      </trkpt>
      <trkpt lat="46.11557" lon="4.58153">
        <ele>450.7</ele>
      </trkpt>
      <trkpt lat="46.11459" lon="4.57966">
        <ele>458.6</ele>
      </trkpt>
      <trkpt lat="46.11457" lon="4.57913">
        <ele>459</ele>
      </trkpt>
      <trkpt lat="46.11488" lon="4.57858">
        <ele>461.7</ele>
      </trkpt>
      <trkpt lat="46.11515" lon="4.57744">
        <ele>468.4</ele>
      </trkpt>
      <trkpt lat="46.11634" lon="4.57564">
        <ele>473.9</ele>
      </trkpt>
      <trkpt lat="46.11777" lon="4.57504">
        <ele>487.3</ele>
      </trkpt>
      <trkpt lat="46.11929" lon="4.57532">
        <ele>505.3</ele>
      </trkpt>
      <trkpt lat="46.11998" lon="4.57493">
        <ele>506.1</ele>
      </trkpt>
      <trkpt lat="46.12052" lon="4.57403">
        <ele>508.4</ele>
      </trkpt>
      <trkpt lat="46.12154" lon="4.57195">
        <ele>529.1</ele>
      </trkpt>
      <trkpt lat="46.1215" lon="4.57148">
        <ele>538.5</ele>
      </trkpt>
      <trkpt lat="46.1207" lon="4.57011">
        <ele>543.4</ele>
      </trkpt>
      <trkpt lat="46.12061" lon="4.56985">
        <ele>545.5</ele>
      </trkpt>
      <trkpt lat="46.12064" lon="4.56953">
        <ele>545.4</ele>
      </trkpt>
      <trkpt lat="46.12115" lon="4.56831">
        <ele>552.5</ele>
      </trkpt>
      <trkpt lat="46.1216" lon="4.56787">
        <ele>554.8</ele>
      </trkpt>
      <trkpt lat="46.12244" lon="4.5674">
        <ele>569.6</ele>
      </trkpt>
      <trkpt lat="46.12278" lon="4.56675">
        <ele>572.4</ele>
      </trkpt>
      <trkpt lat="46.12315" lon="4.56665">
        <ele>570.5</ele>
      </trkpt>
      <trkpt lat="46.12369" lon="4.56611">
        <ele>583.7</ele>
      </trkpt>
      <trkpt lat="46.1245" lon="4.56489">
        <ele>586.5</ele>
      </trkpt>
      <trkpt lat="46.12498" lon="4.56449">
        <ele>588.6</ele>
      </trkpt>
      <trkpt lat="46.12551" lon="4.56419">
        <ele>603.8</ele>
      </trkpt>
      <trkpt lat="46.1261" lon="4.56291">
        <ele>607</ele>
      </trkpt>
      <trkpt lat="46.12633" lon="4.56208">
        <ele>610.8</ele>
      </trkpt>
      <trkpt lat="46.12633" lon="4.55995">
        <ele>630.6</ele>
      </trkpt>
      <trkpt lat="46.12621" lon="4.55909">
        <ele>645.3</ele>
      </trkpt>
      <trkpt lat="46.12559" lon="4.55875">
        <ele>632.5</ele>
      </trkpt>
      <trkpt lat="46.1252" lon="4.55821">
        <ele>639.2</ele>
      </trkpt>
      <trkpt lat="46.12503" lon="4.55758">
        <ele>640.8</ele>
      </trkpt>
      <trkpt lat="46.12494" lon="4.55611">
        <ele>634.7</ele>
      </trkpt>
      <trkpt lat="46.12502" lon="4.5554">
        <ele>653.6</ele>
      </trkpt>
      <trkpt lat="46.12578" lon="4.55406">
        <ele>655.4</ele>
      </trkpt>
      <trkpt lat="46.1261" lon="4.55291">
        <ele>660.9</ele>
      </trkpt>
      <trkpt lat="46.12665" lon="4.55192">
        <ele>658.5</ele>
      </trkpt>
      <trkpt lat="46.1269" lon="4.55104">
        <ele>677.6</ele>
      </trkpt>
      <trkpt lat="46.12684" lon="4.55027">
        <ele>687.3</ele>
      </trkpt>
      <trkpt lat="46.12603" lon="4.54918">
        <ele>679.4</ele>
      </trkpt>
      <trkpt lat="46.12529" lon="4.54818">
        <ele>682</ele>
      </trkpt>
      <trkpt lat="46.12525" lon="4.54748">
        <ele>683.6</ele>
      </trkpt>
      <trkpt lat="46.1255" lon="4.54673">
        <ele>685.1</ele>
      </trkpt>
      <trkpt lat="46.12638" lon="4.54564">
        <ele>685.3</ele>
      </trkpt>
      <trkpt lat="46.12757" lon="4.5437">
        <ele>705.3</ele>
      </trkpt>
      <trkpt lat="46.12768" lon="4.54309">
        <ele>706.7</ele>
      </trkpt>
      <trkpt lat="46.12767" lon="4.54234">
        <ele>714.5</ele>
      </trkpt>
      <trkpt lat="46.12744" lon="4.54172">
        <ele>715.9</ele>
      </trkpt>
      <trkpt lat="46.12716" lon="4.54154">
        <ele>718.9</ele>
      </trkpt>
      <trkpt lat="46.12653" lon="4.54153">
        <ele>711.5</ele>
      </trkpt>
      <trkpt lat="46.12601" lon="4.54107">
        <ele>710.5</ele>
      </trkpt>
      <trkpt lat="46.12541" lon="4.54026">
        <ele>711.9</ele>
      </trkpt>
      <trkpt lat="46.125" lon="4.5385">
        <ele>712.7</ele>
      </trkpt>
      <trkpt lat="46.1244" lon="4.53736">
        <ele>714.5</ele>
      </trkpt>
      <trkpt lat="46.12403" lon="4.53635">
        <ele>724.3</ele>
      </trkpt>
      <trkpt lat="46.12353" lon="4.53476">
        <ele>730.4</ele>
      </trkpt>
      <trkpt lat="46.12279" lon="4.53302">
        <ele>736.5</ele>
      </trkpt>
      <trkpt lat="46.12163" lon="4.53068">
        <ele>743.7</ele>
      </trkpt>
      <trkpt lat="46.12146" lon="4.53035">
        <ele>743.9</ele>
      </trkpt>
      <trkpt lat="46.12118" lon="4.53023">
        <ele>742.7</ele>
      </trkpt>
      <trkpt lat="46.12123" lon="4.53012">
        <ele>743</ele>
      </trkpt>
      <trkpt lat="46.12123" lon="4.53009">
        <ele>743</ele>
      </trkpt>
    </trkseg>
  </trk>
</gpx>